<?xml version="1.0" encoding="UTF-8" standalone="no" ?>
<gpx xmlns="http://www.topografix.com/GPX/1/1" xmlns:xsi="http://www.w3.org/2001/XMLSchema-instance" xsi:schemaLocation="http://www.topografix.com/GPX/1/1 http://www.topografix.com/GPX/1/1/gpx.xsd" version="1.1" creator="VisuGPX - https://www.visugpx.com">
  <metadata>
    <name>Parcours du 2021-07-16 08:58</name>
    <desc><![CDATA[Vincent, Lionel, Christian
]]></desc>
  </metadata>
  <trk>
    <name><![CDATA[Parcours du 2021-07-16 08:58]]></name>
    <desc><![CDATA[]]></desc>
    <trkseg>
      <trkpt lat="44.54315" lon="6.27809">
        <ele>914.4</ele>
        <time>2021-07-16T06:58:17.000Z</time>
      </trkpt>
      <trkpt lat="44.54311" lon="6.27804">
        <ele>914.2</ele>
        <time>2021-07-16T06:59:40.000Z</time>
      </trkpt>
      <trkpt lat="44.54315" lon="6.27808">
        <ele>914.4</ele>
        <time>2021-07-16T07:00:25.000Z</time>
      </trkpt>
      <trkpt lat="44.5432" lon="6.27803">
        <ele>914.1</ele>
        <time>2021-07-16T07:00:34.000Z</time>
      </trkpt>
      <trkpt lat="44.54315" lon="6.27801">
        <ele>912.7</ele>
        <time>2021-07-16T07:02:16.000Z</time>
      </trkpt>
      <trkpt lat="44.54318" lon="6.27809">
        <ele>914.3</ele>
        <time>2021-07-16T07:06:28.000Z</time>
      </trkpt>
      <trkpt lat="44.54319" lon="6.27815">
        <ele>914.5</ele>
        <time>2021-07-16T07:06:53.587Z</time>
      </trkpt>
      <trkpt lat="44.54318" lon="6.27806">
        <ele>914.4</ele>
        <time>2021-07-16T07:07:19.000Z</time>
      </trkpt>
      <trkpt lat="44.54324" lon="6.27811">
        <ele>914.2</ele>
        <time>2021-07-16T07:07:34.000Z</time>
      </trkpt>
      <trkpt lat="44.54324" lon="6.27804">
        <ele>914.5</ele>
        <time>2021-07-16T07:07:52.000Z</time>
      </trkpt>
      <trkpt lat="44.54326" lon="6.27812">
        <ele>914.5</ele>
        <time>2021-07-16T07:07:58.000Z</time>
      </trkpt>
      <trkpt lat="44.5433" lon="6.27827">
        <ele>913.4</ele>
        <time>2021-07-16T07:08:06.458Z</time>
      </trkpt>
      <trkpt lat="44.54339" lon="6.27821">
        <ele>913.4</ele>
        <time>2021-07-16T07:08:13.000Z</time>
      </trkpt>
      <trkpt lat="44.54347" lon="6.27816">
        <ele>914.1</ele>
        <time>2021-07-16T07:08:18.456Z</time>
      </trkpt>
      <trkpt lat="44.54353" lon="6.27812">
        <ele>915.2</ele>
        <time>2021-07-16T07:08:21.457Z</time>
      </trkpt>
      <trkpt lat="44.54362" lon="6.2781">
        <ele>914.8</ele>
        <time>2021-07-16T07:08:24.596Z</time>
      </trkpt>
      <trkpt lat="44.5437" lon="6.27804">
        <ele>915</ele>
        <time>2021-07-16T07:08:28.447Z</time>
      </trkpt>
      <trkpt lat="44.54375" lon="6.27802">
        <ele>914.9</ele>
        <time>2021-07-16T07:08:34.000Z</time>
      </trkpt>
      <trkpt lat="44.54383" lon="6.27804">
        <ele>916</ele>
        <time>2021-07-16T07:08:40.000Z</time>
      </trkpt>
      <trkpt lat="44.5439" lon="6.27803">
        <ele>916.1</ele>
        <time>2021-07-16T07:08:43.000Z</time>
      </trkpt>
      <trkpt lat="44.54414" lon="6.27795">
        <ele>916.7</ele>
        <time>2021-07-16T07:08:49.000Z</time>
      </trkpt>
      <trkpt lat="44.54423" lon="6.2779">
        <ele>916.7</ele>
        <time>2021-07-16T07:08:52.000Z</time>
      </trkpt>
      <trkpt lat="44.54431" lon="6.27785">
        <ele>916.7</ele>
        <time>2021-07-16T07:08:55.000Z</time>
      </trkpt>
      <trkpt lat="44.54439" lon="6.27783">
        <ele>923.6</ele>
        <time>2021-07-16T07:08:58.000Z</time>
      </trkpt>
      <trkpt lat="44.54447" lon="6.27781">
        <ele>923.6</ele>
        <time>2021-07-16T07:09:01.000Z</time>
      </trkpt>
      <trkpt lat="44.54462" lon="6.27782">
        <ele>923.8</ele>
        <time>2021-07-16T07:09:07.000Z</time>
      </trkpt>
      <trkpt lat="44.54473" lon="6.27789">
        <ele>923.8</ele>
        <time>2021-07-16T07:09:13.000Z</time>
      </trkpt>
      <trkpt lat="44.54479" lon="6.27794">
        <ele>924.3</ele>
        <time>2021-07-16T07:09:16.000Z</time>
      </trkpt>
      <trkpt lat="44.54486" lon="6.27797">
        <ele>924.3</ele>
        <time>2021-07-16T07:09:18.518Z</time>
      </trkpt>
      <trkpt lat="44.54496" lon="6.278">
        <ele>924.5</ele>
        <time>2021-07-16T07:09:22.453Z</time>
      </trkpt>
      <trkpt lat="44.54498" lon="6.27809">
        <ele>923.3</ele>
        <time>2021-07-16T07:09:25.878Z</time>
      </trkpt>
      <trkpt lat="44.54494" lon="6.27827">
        <ele>923.3</ele>
        <time>2021-07-16T07:09:31.000Z</time>
      </trkpt>
      <trkpt lat="44.54491" lon="6.27839">
        <ele>923.3</ele>
        <time>2021-07-16T07:09:34.000Z</time>
      </trkpt>
      <trkpt lat="44.54493" lon="6.27855">
        <ele>922.2</ele>
        <time>2021-07-16T07:09:37.442Z</time>
      </trkpt>
      <trkpt lat="44.54489" lon="6.27868">
        <ele>921.4</ele>
        <time>2021-07-16T07:09:40.599Z</time>
      </trkpt>
      <trkpt lat="44.54485" lon="6.2788">
        <ele>921.4</ele>
        <time>2021-07-16T07:09:44.036Z</time>
      </trkpt>
      <trkpt lat="44.54484" lon="6.27891">
        <ele>920.7</ele>
        <time>2021-07-16T07:09:48.445Z</time>
      </trkpt>
      <trkpt lat="44.54482" lon="6.27902">
        <ele>920.8</ele>
        <time>2021-07-16T07:09:52.000Z</time>
      </trkpt>
      <trkpt lat="44.54477" lon="6.27921">
        <ele>920.8</ele>
        <time>2021-07-16T07:09:55.452Z</time>
      </trkpt>
      <trkpt lat="44.54473" lon="6.27936">
        <ele>921.2</ele>
        <time>2021-07-16T07:09:58.754Z</time>
      </trkpt>
      <trkpt lat="44.5447" lon="6.27947">
        <ele>921.3</ele>
        <time>2021-07-16T07:10:01.987Z</time>
      </trkpt>
      <trkpt lat="44.54468" lon="6.27963">
        <ele>922.2</ele>
        <time>2021-07-16T07:10:05.359Z</time>
      </trkpt>
      <trkpt lat="44.54466" lon="6.27976">
        <ele>922.2</ele>
        <time>2021-07-16T07:10:08.446Z</time>
      </trkpt>
      <trkpt lat="44.54462" lon="6.27987">
        <ele>922.2</ele>
        <time>2021-07-16T07:10:11.469Z</time>
      </trkpt>
      <trkpt lat="44.54456" lon="6.28003">
        <ele>922.5</ele>
        <time>2021-07-16T07:10:15.461Z</time>
      </trkpt>
      <trkpt lat="44.54451" lon="6.28019">
        <ele>922.5</ele>
        <time>2021-07-16T07:10:19.461Z</time>
      </trkpt>
      <trkpt lat="44.54444" lon="6.28031">
        <ele>924</ele>
        <time>2021-07-16T07:10:23.495Z</time>
      </trkpt>
      <trkpt lat="44.5444" lon="6.28039">
        <ele>924</ele>
        <time>2021-07-16T07:10:26.700Z</time>
      </trkpt>
      <trkpt lat="44.54435" lon="6.28049">
        <ele>921.9</ele>
        <time>2021-07-16T07:10:30.471Z</time>
      </trkpt>
      <trkpt lat="44.54431" lon="6.2806">
        <ele>921.9</ele>
        <time>2021-07-16T07:10:34.510Z</time>
      </trkpt>
      <trkpt lat="44.54434" lon="6.28067">
        <ele>922</ele>
        <time>2021-07-16T07:10:37.603Z</time>
      </trkpt>
      <trkpt lat="44.54443" lon="6.28073">
        <ele>922.1</ele>
        <time>2021-07-16T07:10:44.497Z</time>
      </trkpt>
      <trkpt lat="44.54449" lon="6.28082">
        <ele>924.9</ele>
        <time>2021-07-16T07:10:48.500Z</time>
      </trkpt>
      <trkpt lat="44.54453" lon="6.2809">
        <ele>925</ele>
        <time>2021-07-16T07:10:51.657Z</time>
      </trkpt>
      <trkpt lat="44.54457" lon="6.28099">
        <ele>925</ele>
        <time>2021-07-16T07:10:55.454Z</time>
      </trkpt>
      <trkpt lat="44.5446" lon="6.28106">
        <ele>924.9</ele>
        <time>2021-07-16T07:10:58.456Z</time>
      </trkpt>
      <trkpt lat="44.54462" lon="6.28112">
        <ele>925.4</ele>
        <time>2021-07-16T07:11:01.557Z</time>
      </trkpt>
      <trkpt lat="44.54472" lon="6.28118">
        <ele>924.6</ele>
        <time>2021-07-16T07:11:09.437Z</time>
      </trkpt>
      <trkpt lat="44.5448" lon="6.28123">
        <ele>924.6</ele>
        <time>2021-07-16T07:11:12.498Z</time>
      </trkpt>
      <trkpt lat="44.54491" lon="6.2813">
        <ele>925</ele>
        <time>2021-07-16T07:11:16.455Z</time>
      </trkpt>
      <trkpt lat="44.54501" lon="6.28132">
        <ele>925</ele>
        <time>2021-07-16T07:11:20.454Z</time>
      </trkpt>
      <trkpt lat="44.5451" lon="6.28132">
        <ele>924.6</ele>
        <time>2021-07-16T07:11:23.602Z</time>
      </trkpt>
      <trkpt lat="44.54519" lon="6.28131">
        <ele>924.6</ele>
        <time>2021-07-16T07:11:27.445Z</time>
      </trkpt>
      <trkpt lat="44.54526" lon="6.28131">
        <ele>924.5</ele>
        <time>2021-07-16T07:11:30.496Z</time>
      </trkpt>
      <trkpt lat="44.54532" lon="6.2813">
        <ele>925.2</ele>
        <time>2021-07-16T07:11:33.540Z</time>
      </trkpt>
      <trkpt lat="44.5454" lon="6.28132">
        <ele>925.3</ele>
        <time>2021-07-16T07:11:37.223Z</time>
      </trkpt>
      <trkpt lat="44.54544" lon="6.28134">
        <ele>925.2</ele>
        <time>2021-07-16T07:11:40.528Z</time>
      </trkpt>
      <trkpt lat="44.54551" lon="6.28137">
        <ele>925.2</ele>
        <time>2021-07-16T07:11:44.454Z</time>
      </trkpt>
      <trkpt lat="44.54557" lon="6.28134">
        <ele>925.2</ele>
        <time>2021-07-16T07:11:48.457Z</time>
      </trkpt>
      <trkpt lat="44.54564" lon="6.28134">
        <ele>926.5</ele>
        <time>2021-07-16T07:11:52.462Z</time>
      </trkpt>
      <trkpt lat="44.5457" lon="6.28135">
        <ele>927</ele>
        <time>2021-07-16T07:11:55.475Z</time>
      </trkpt>
      <trkpt lat="44.54577" lon="6.28135">
        <ele>927.2</ele>
        <time>2021-07-16T07:11:59.451Z</time>
      </trkpt>
      <trkpt lat="44.54583" lon="6.28136">
        <ele>927.1</ele>
        <time>2021-07-16T07:12:02.464Z</time>
      </trkpt>
      <trkpt lat="44.54591" lon="6.28138">
        <ele>928.3</ele>
        <time>2021-07-16T07:12:06.462Z</time>
      </trkpt>
      <trkpt lat="44.54599" lon="6.28138">
        <ele>928.9</ele>
        <time>2021-07-16T07:12:10.214Z</time>
      </trkpt>
      <trkpt lat="44.54604" lon="6.28138">
        <ele>929</ele>
        <time>2021-07-16T07:12:13.493Z</time>
      </trkpt>
      <trkpt lat="44.54611" lon="6.28144">
        <ele>930</ele>
        <time>2021-07-16T07:12:23.438Z</time>
      </trkpt>
      <trkpt lat="44.5462" lon="6.28142">
        <ele>930.9</ele>
        <time>2021-07-16T07:12:29.459Z</time>
      </trkpt>
      <trkpt lat="44.54627" lon="6.2814">
        <ele>940.3</ele>
        <time>2021-07-16T07:12:33.448Z</time>
      </trkpt>
      <trkpt lat="44.54638" lon="6.28131">
        <ele>942.7</ele>
        <time>2021-07-16T07:12:39.459Z</time>
      </trkpt>
      <trkpt lat="44.54644" lon="6.28128">
        <ele>940.6</ele>
        <time>2021-07-16T07:12:43.006Z</time>
      </trkpt>
      <trkpt lat="44.54651" lon="6.28126">
        <ele>939.8</ele>
        <time>2021-07-16T07:12:46.265Z</time>
      </trkpt>
      <trkpt lat="44.5466" lon="6.28122">
        <ele>940.4</ele>
        <time>2021-07-16T07:12:49.593Z</time>
      </trkpt>
      <trkpt lat="44.54668" lon="6.28117">
        <ele>943.3</ele>
        <time>2021-07-16T07:12:53.460Z</time>
      </trkpt>
      <trkpt lat="44.54678" lon="6.28114">
        <ele>942.1</ele>
        <time>2021-07-16T07:12:57.459Z</time>
      </trkpt>
      <trkpt lat="44.54689" lon="6.28111">
        <ele>945.6</ele>
        <time>2021-07-16T07:13:01.460Z</time>
      </trkpt>
      <trkpt lat="44.54698" lon="6.28108">
        <ele>945.7</ele>
        <time>2021-07-16T07:13:04.595Z</time>
      </trkpt>
      <trkpt lat="44.54707" lon="6.28108">
        <ele>946</ele>
        <time>2021-07-16T07:13:08.450Z</time>
      </trkpt>
      <trkpt lat="44.54713" lon="6.28105">
        <ele>944.3</ele>
        <time>2021-07-16T07:13:11.486Z</time>
      </trkpt>
      <trkpt lat="44.54721" lon="6.28101">
        <ele>943.4</ele>
        <time>2021-07-16T07:13:15.447Z</time>
      </trkpt>
      <trkpt lat="44.54728" lon="6.28102">
        <ele>941.7</ele>
        <time>2021-07-16T07:13:18.464Z</time>
      </trkpt>
      <trkpt lat="44.54734" lon="6.28104">
        <ele>941</ele>
        <time>2021-07-16T07:13:21.482Z</time>
      </trkpt>
      <trkpt lat="44.54741" lon="6.28103">
        <ele>940.1</ele>
        <time>2021-07-16T07:13:25.456Z</time>
      </trkpt>
      <trkpt lat="44.54749" lon="6.28101">
        <ele>940</ele>
        <time>2021-07-16T07:13:28.465Z</time>
      </trkpt>
      <trkpt lat="44.54759" lon="6.28107">
        <ele>940.1</ele>
        <time>2021-07-16T07:13:31.757Z</time>
      </trkpt>
      <trkpt lat="44.54767" lon="6.28111">
        <ele>940.1</ele>
        <time>2021-07-16T07:13:35.247Z</time>
      </trkpt>
      <trkpt lat="44.54774" lon="6.28113">
        <ele>940.1</ele>
        <time>2021-07-16T07:13:38.456Z</time>
      </trkpt>
      <trkpt lat="44.54781" lon="6.28115">
        <ele>940.2</ele>
        <time>2021-07-16T07:13:42.453Z</time>
      </trkpt>
      <trkpt lat="44.54789" lon="6.28117">
        <ele>940.6</ele>
        <time>2021-07-16T07:13:48.549Z</time>
      </trkpt>
      <trkpt lat="44.54795" lon="6.28118">
        <ele>940.6</ele>
        <time>2021-07-16T07:13:52.453Z</time>
      </trkpt>
      <trkpt lat="44.54804" lon="6.28124">
        <ele>940.6</ele>
        <time>2021-07-16T07:13:56.461Z</time>
      </trkpt>
      <trkpt lat="44.5481" lon="6.28133">
        <ele>941.2</ele>
        <time>2021-07-16T07:14:00.463Z</time>
      </trkpt>
      <trkpt lat="44.54814" lon="6.28138">
        <ele>941.2</ele>
        <time>2021-07-16T07:14:04.461Z</time>
      </trkpt>
      <trkpt lat="44.54812" lon="6.28147">
        <ele>942.2</ele>
        <time>2021-07-16T07:14:14.762Z</time>
      </trkpt>
      <trkpt lat="44.54804" lon="6.28144">
        <ele>942.2</ele>
        <time>2021-07-16T07:14:24.454Z</time>
      </trkpt>
      <trkpt lat="44.54796" lon="6.2815">
        <ele>942</ele>
        <time>2021-07-16T07:14:27.553Z</time>
      </trkpt>
      <trkpt lat="44.54789" lon="6.2817">
        <ele>942</ele>
        <time>2021-07-16T07:14:31.455Z</time>
      </trkpt>
      <trkpt lat="44.5479" lon="6.28184">
        <ele>942</ele>
        <time>2021-07-16T07:14:35.460Z</time>
      </trkpt>
      <trkpt lat="44.54787" lon="6.28192">
        <ele>942.4</ele>
        <time>2021-07-16T07:14:40.195Z</time>
      </trkpt>
      <trkpt lat="44.54786" lon="6.28199">
        <ele>942.4</ele>
        <time>2021-07-16T07:14:43.240Z</time>
      </trkpt>
      <trkpt lat="44.54785" lon="6.28206">
        <ele>942.8</ele>
        <time>2021-07-16T07:14:46.457Z</time>
      </trkpt>
      <trkpt lat="44.54785" lon="6.28212">
        <ele>943.3</ele>
        <time>2021-07-16T07:14:49.759Z</time>
      </trkpt>
      <trkpt lat="44.54786" lon="6.28219">
        <ele>947.1</ele>
        <time>2021-07-16T07:14:52.822Z</time>
      </trkpt>
      <trkpt lat="44.54789" lon="6.2823">
        <ele>945.9</ele>
        <time>2021-07-16T07:14:56.453Z</time>
      </trkpt>
      <trkpt lat="44.5479" lon="6.28238">
        <ele>950.4</ele>
        <time>2021-07-16T07:14:59.458Z</time>
      </trkpt>
      <trkpt lat="44.54792" lon="6.28245">
        <ele>954.6</ele>
        <time>2021-07-16T07:15:03.375Z</time>
      </trkpt>
      <trkpt lat="44.54795" lon="6.28258">
        <ele>954.2</ele>
        <time>2021-07-16T07:15:06.700Z</time>
      </trkpt>
      <trkpt lat="44.54798" lon="6.28272">
        <ele>957.4</ele>
        <time>2021-07-16T07:15:10.460Z</time>
      </trkpt>
      <trkpt lat="44.54798" lon="6.28282">
        <ele>959.4</ele>
        <time>2021-07-16T07:15:14.337Z</time>
      </trkpt>
      <trkpt lat="44.54798" lon="6.28289">
        <ele>961.5</ele>
        <time>2021-07-16T07:15:18.000Z</time>
      </trkpt>
      <trkpt lat="44.54798" lon="6.283">
        <ele>962.3</ele>
        <time>2021-07-16T07:15:21.457Z</time>
      </trkpt>
      <trkpt lat="44.54797" lon="6.2831">
        <ele>964.1</ele>
        <time>2021-07-16T07:15:24.475Z</time>
      </trkpt>
      <trkpt lat="44.54795" lon="6.28319">
        <ele>964.8</ele>
        <time>2021-07-16T07:15:27.540Z</time>
      </trkpt>
      <trkpt lat="44.54787" lon="6.28326">
        <ele>965.3</ele>
        <time>2021-07-16T07:15:31.036Z</time>
      </trkpt>
      <trkpt lat="44.54782" lon="6.28332">
        <ele>962.8</ele>
        <time>2021-07-16T07:15:34.267Z</time>
      </trkpt>
      <trkpt lat="44.54778" lon="6.2834">
        <ele>964.7</ele>
        <time>2021-07-16T07:15:37.379Z</time>
      </trkpt>
      <trkpt lat="44.54773" lon="6.28346">
        <ele>964.4</ele>
        <time>2021-07-16T07:15:40.459Z</time>
      </trkpt>
      <trkpt lat="44.54765" lon="6.28355">
        <ele>965.7</ele>
        <time>2021-07-16T07:15:48.000Z</time>
      </trkpt>
      <trkpt lat="44.54764" lon="6.28362">
        <ele>965.5</ele>
        <time>2021-07-16T07:15:50.462Z</time>
      </trkpt>
      <trkpt lat="44.54764" lon="6.2837">
        <ele>966.9</ele>
        <time>2021-07-16T07:15:54.277Z</time>
      </trkpt>
      <trkpt lat="44.54768" lon="6.28382">
        <ele>963.7</ele>
        <time>2021-07-16T07:16:01.182Z</time>
      </trkpt>
      <trkpt lat="44.54771" lon="6.28391">
        <ele>963.9</ele>
        <time>2021-07-16T07:16:08.920Z</time>
      </trkpt>
      <trkpt lat="44.54774" lon="6.28401">
        <ele>965.8</ele>
        <time>2021-07-16T07:16:15.473Z</time>
      </trkpt>
      <trkpt lat="44.54779" lon="6.28407">
        <ele>968.2</ele>
        <time>2021-07-16T07:16:18.860Z</time>
      </trkpt>
      <trkpt lat="44.54781" lon="6.28413">
        <ele>967.8</ele>
        <time>2021-07-16T07:16:22.110Z</time>
      </trkpt>
      <trkpt lat="44.54784" lon="6.28418">
        <ele>967.8</ele>
        <time>2021-07-16T07:16:25.473Z</time>
      </trkpt>
      <trkpt lat="44.54785" lon="6.28429">
        <ele>972.1</ele>
        <time>2021-07-16T07:16:33.000Z</time>
      </trkpt>
      <trkpt lat="44.54788" lon="6.28434">
        <ele>970.3</ele>
        <time>2021-07-16T07:16:35.936Z</time>
      </trkpt>
      <trkpt lat="44.54792" lon="6.2844">
        <ele>972.4</ele>
        <time>2021-07-16T07:16:39.001Z</time>
      </trkpt>
      <trkpt lat="44.54791" lon="6.28448">
        <ele>972</ele>
        <time>2021-07-16T07:16:42.239Z</time>
      </trkpt>
      <trkpt lat="44.54793" lon="6.28454">
        <ele>973.8</ele>
        <time>2021-07-16T07:16:45.413Z</time>
      </trkpt>
      <trkpt lat="44.54792" lon="6.28467">
        <ele>974.9</ele>
        <time>2021-07-16T07:16:52.298Z</time>
      </trkpt>
      <trkpt lat="44.54795" lon="6.28479">
        <ele>978.7</ele>
        <time>2021-07-16T07:16:58.460Z</time>
      </trkpt>
      <trkpt lat="44.54795" lon="6.28487">
        <ele>979.8</ele>
        <time>2021-07-16T07:17:01.460Z</time>
      </trkpt>
      <trkpt lat="44.54794" lon="6.28495">
        <ele>979.3</ele>
        <time>2021-07-16T07:17:04.675Z</time>
      </trkpt>
      <trkpt lat="44.54793" lon="6.28505">
        <ele>979.2</ele>
        <time>2021-07-16T07:17:08.436Z</time>
      </trkpt>
      <trkpt lat="44.54792" lon="6.28513">
        <ele>982.4</ele>
        <time>2021-07-16T07:17:11.444Z</time>
      </trkpt>
      <trkpt lat="44.54792" lon="6.28523">
        <ele>980.8</ele>
        <time>2021-07-16T07:17:14.463Z</time>
      </trkpt>
      <trkpt lat="44.54792" lon="6.28532">
        <ele>986.1</ele>
        <time>2021-07-16T07:17:18.342Z</time>
      </trkpt>
      <trkpt lat="44.54792" lon="6.28538">
        <ele>992</ele>
        <time>2021-07-16T07:17:21.457Z</time>
      </trkpt>
      <trkpt lat="44.54792" lon="6.28552">
        <ele>992.5</ele>
        <time>2021-07-16T07:17:24.785Z</time>
      </trkpt>
      <trkpt lat="44.5479" lon="6.28568">
        <ele>993.8</ele>
        <time>2021-07-16T07:17:28.451Z</time>
      </trkpt>
      <trkpt lat="44.54789" lon="6.28583">
        <ele>997.5</ele>
        <time>2021-07-16T07:17:31.599Z</time>
      </trkpt>
      <trkpt lat="44.54786" lon="6.286">
        <ele>999.2</ele>
        <time>2021-07-16T07:17:35.488Z</time>
      </trkpt>
      <trkpt lat="44.5478" lon="6.28615">
        <ele>1001.8</ele>
        <time>2021-07-16T07:17:39.455Z</time>
      </trkpt>
      <trkpt lat="44.54776" lon="6.28629">
        <ele>1002</ele>
        <time>2021-07-16T07:17:42.818Z</time>
      </trkpt>
      <trkpt lat="44.54771" lon="6.28642">
        <ele>1002.2</ele>
        <time>2021-07-16T07:17:46.215Z</time>
      </trkpt>
      <trkpt lat="44.54766" lon="6.28654">
        <ele>1000.2</ele>
        <time>2021-07-16T07:17:49.446Z</time>
      </trkpt>
      <trkpt lat="44.54761" lon="6.28665">
        <ele>1001.7</ele>
        <time>2021-07-16T07:17:52.456Z</time>
      </trkpt>
      <trkpt lat="44.54757" lon="6.28678">
        <ele>997.6</ele>
        <time>2021-07-16T07:17:55.463Z</time>
      </trkpt>
      <trkpt lat="44.54754" lon="6.28693">
        <ele>999.6</ele>
        <time>2021-07-16T07:17:59.048Z</time>
      </trkpt>
      <trkpt lat="44.54751" lon="6.2871">
        <ele>997.8</ele>
        <time>2021-07-16T07:18:03.000Z</time>
      </trkpt>
      <trkpt lat="44.54751" lon="6.28723">
        <ele>997.7</ele>
        <time>2021-07-16T07:18:05.436Z</time>
      </trkpt>
      <trkpt lat="44.54753" lon="6.28734">
        <ele>997.7</ele>
        <time>2021-07-16T07:18:08.451Z</time>
      </trkpt>
      <trkpt lat="44.54755" lon="6.28745">
        <ele>997.7</ele>
        <time>2021-07-16T07:18:11.458Z</time>
      </trkpt>
      <trkpt lat="44.54759" lon="6.28756">
        <ele>997.8</ele>
        <time>2021-07-16T07:18:14.460Z</time>
      </trkpt>
      <trkpt lat="44.54764" lon="6.28769">
        <ele>997.8</ele>
        <time>2021-07-16T07:18:18.460Z</time>
      </trkpt>
      <trkpt lat="44.5477" lon="6.28779">
        <ele>998.2</ele>
        <time>2021-07-16T07:18:22.061Z</time>
      </trkpt>
      <trkpt lat="44.54776" lon="6.28787">
        <ele>998.2</ele>
        <time>2021-07-16T07:18:25.062Z</time>
      </trkpt>
      <trkpt lat="44.54783" lon="6.28795">
        <ele>998.3</ele>
        <time>2021-07-16T07:18:28.154Z</time>
      </trkpt>
      <trkpt lat="44.54789" lon="6.28804">
        <ele>998.4</ele>
        <time>2021-07-16T07:18:31.458Z</time>
      </trkpt>
      <trkpt lat="44.54797" lon="6.28815">
        <ele>998.3</ele>
        <time>2021-07-16T07:18:35.438Z</time>
      </trkpt>
      <trkpt lat="44.54803" lon="6.28823">
        <ele>998.7</ele>
        <time>2021-07-16T07:18:38.450Z</time>
      </trkpt>
      <trkpt lat="44.5481" lon="6.2883">
        <ele>998.7</ele>
        <time>2021-07-16T07:18:42.462Z</time>
      </trkpt>
      <trkpt lat="44.54818" lon="6.28839">
        <ele>998.8</ele>
        <time>2021-07-16T07:18:46.447Z</time>
      </trkpt>
      <trkpt lat="44.54823" lon="6.28847">
        <ele>999.2</ele>
        <time>2021-07-16T07:18:50.453Z</time>
      </trkpt>
      <trkpt lat="44.54827" lon="6.28855">
        <ele>999.4</ele>
        <time>2021-07-16T07:18:53.512Z</time>
      </trkpt>
      <trkpt lat="44.54831" lon="6.28867">
        <ele>999.5</ele>
        <time>2021-07-16T07:18:57.459Z</time>
      </trkpt>
      <trkpt lat="44.54833" lon="6.28879">
        <ele>999.6</ele>
        <time>2021-07-16T07:19:01.457Z</time>
      </trkpt>
      <trkpt lat="44.54835" lon="6.28889">
        <ele>1000.7</ele>
        <time>2021-07-16T07:19:04.641Z</time>
      </trkpt>
      <trkpt lat="44.54837" lon="6.289">
        <ele>1009.9</ele>
        <time>2021-07-16T07:19:08.457Z</time>
      </trkpt>
      <trkpt lat="44.5484" lon="6.28913">
        <ele>1008.4</ele>
        <time>2021-07-16T07:19:12.458Z</time>
      </trkpt>
      <trkpt lat="44.54842" lon="6.28921">
        <ele>1008.2</ele>
        <time>2021-07-16T07:19:15.881Z</time>
      </trkpt>
      <trkpt lat="44.54844" lon="6.28932">
        <ele>1009.3</ele>
        <time>2021-07-16T07:19:19.458Z</time>
      </trkpt>
      <trkpt lat="44.54845" lon="6.28941">
        <ele>1008.1</ele>
        <time>2021-07-16T07:19:22.462Z</time>
      </trkpt>
      <trkpt lat="44.54845" lon="6.28952">
        <ele>1008.9</ele>
        <time>2021-07-16T07:19:26.457Z</time>
      </trkpt>
      <trkpt lat="44.54845" lon="6.28963">
        <ele>1011.7</ele>
        <time>2021-07-16T07:19:30.179Z</time>
      </trkpt>
      <trkpt lat="44.54845" lon="6.28976">
        <ele>998.4</ele>
        <time>2021-07-16T07:19:33.981Z</time>
      </trkpt>
      <trkpt lat="44.54846" lon="6.28988">
        <ele>1006</ele>
        <time>2021-07-16T07:19:37.455Z</time>
      </trkpt>
      <trkpt lat="44.54847" lon="6.28998">
        <ele>1011.3</ele>
        <time>2021-07-16T07:19:41.453Z</time>
      </trkpt>
      <trkpt lat="44.54849" lon="6.2901">
        <ele>1013.8</ele>
        <time>2021-07-16T07:19:45.451Z</time>
      </trkpt>
      <trkpt lat="44.54852" lon="6.29017">
        <ele>1014.7</ele>
        <time>2021-07-16T07:19:48.776Z</time>
      </trkpt>
      <trkpt lat="44.54855" lon="6.29026">
        <ele>1015.4</ele>
        <time>2021-07-16T07:19:52.097Z</time>
      </trkpt>
      <trkpt lat="44.5486" lon="6.29036">
        <ele>997.3</ele>
        <time>2021-07-16T07:19:55.555Z</time>
      </trkpt>
      <trkpt lat="44.54865" lon="6.29046">
        <ele>1005</ele>
        <time>2021-07-16T07:19:59.512Z</time>
      </trkpt>
      <trkpt lat="44.54866" lon="6.29055">
        <ele>1012.7</ele>
        <time>2021-07-16T07:20:02.982Z</time>
      </trkpt>
      <trkpt lat="44.54867" lon="6.29047">
        <ele>1014.5</ele>
        <time>2021-07-16T07:20:40.747Z</time>
      </trkpt>
      <trkpt lat="44.54873" lon="6.29059">
        <ele>1016.4</ele>
        <time>2021-07-16T07:20:48.000Z</time>
      </trkpt>
      <trkpt lat="44.54876" lon="6.29069">
        <ele>1015.6</ele>
        <time>2021-07-16T07:20:51.455Z</time>
      </trkpt>
      <trkpt lat="44.54881" lon="6.29079">
        <ele>1016.3</ele>
        <time>2021-07-16T07:20:54.670Z</time>
      </trkpt>
      <trkpt lat="44.54887" lon="6.2909">
        <ele>1016.5</ele>
        <time>2021-07-16T07:20:58.444Z</time>
      </trkpt>
      <trkpt lat="44.54891" lon="6.29099">
        <ele>1017.1</ele>
        <time>2021-07-16T07:21:01.455Z</time>
      </trkpt>
      <trkpt lat="44.54896" lon="6.2911">
        <ele>1017.7</ele>
        <time>2021-07-16T07:21:04.456Z</time>
      </trkpt>
      <trkpt lat="44.54904" lon="6.29126">
        <ele>1006.2</ele>
        <time>2021-07-16T07:21:08.488Z</time>
      </trkpt>
      <trkpt lat="44.5491" lon="6.29134">
        <ele>1005</ele>
        <time>2021-07-16T07:21:11.750Z</time>
      </trkpt>
      <trkpt lat="44.5492" lon="6.29134">
        <ele>1011.6</ele>
        <time>2021-07-16T07:21:15.511Z</time>
      </trkpt>
      <trkpt lat="44.5493" lon="6.29134">
        <ele>1015</ele>
        <time>2021-07-16T07:21:19.456Z</time>
      </trkpt>
      <trkpt lat="44.54939" lon="6.29135">
        <ele>1015.9</ele>
        <time>2021-07-16T07:21:22.935Z</time>
      </trkpt>
      <trkpt lat="44.5495" lon="6.29135">
        <ele>1018.3</ele>
        <time>2021-07-16T07:21:26.432Z</time>
      </trkpt>
      <trkpt lat="44.54959" lon="6.29136">
        <ele>997.3</ele>
        <time>2021-07-16T07:21:29.455Z</time>
      </trkpt>
      <trkpt lat="44.54966" lon="6.29139">
        <ele>1014.6</ele>
        <time>2021-07-16T07:21:32.560Z</time>
      </trkpt>
      <trkpt lat="44.54975" lon="6.29143">
        <ele>1018</ele>
        <time>2021-07-16T07:21:36.462Z</time>
      </trkpt>
      <trkpt lat="44.54983" lon="6.29147">
        <ele>1018.4</ele>
        <time>2021-07-16T07:21:40.459Z</time>
      </trkpt>
      <trkpt lat="44.5499" lon="6.29153">
        <ele>1020.9</ele>
        <time>2021-07-16T07:21:44.459Z</time>
      </trkpt>
      <trkpt lat="44.54996" lon="6.29157">
        <ele>1020.7</ele>
        <time>2021-07-16T07:21:47.491Z</time>
      </trkpt>
      <trkpt lat="44.55006" lon="6.29162">
        <ele>1021.5</ele>
        <time>2021-07-16T07:21:51.459Z</time>
      </trkpt>
      <trkpt lat="44.55014" lon="6.29162">
        <ele>1021.7</ele>
        <time>2021-07-16T07:21:54.901Z</time>
      </trkpt>
      <trkpt lat="44.55017" lon="6.29154">
        <ele>1022.9</ele>
        <time>2021-07-16T07:21:58.456Z</time>
      </trkpt>
      <trkpt lat="44.5502" lon="6.29145">
        <ele>1023.3</ele>
        <time>2021-07-16T07:22:01.471Z</time>
      </trkpt>
      <trkpt lat="44.55027" lon="6.29139">
        <ele>1024.2</ele>
        <time>2021-07-16T07:22:04.493Z</time>
      </trkpt>
      <trkpt lat="44.55033" lon="6.29129">
        <ele>1024.4</ele>
        <time>2021-07-16T07:22:08.434Z</time>
      </trkpt>
      <trkpt lat="44.55035" lon="6.29119">
        <ele>1027.5</ele>
        <time>2021-07-16T07:22:11.457Z</time>
      </trkpt>
      <trkpt lat="44.55041" lon="6.29106">
        <ele>1029.3</ele>
        <time>2021-07-16T07:22:15.457Z</time>
      </trkpt>
      <trkpt lat="44.55045" lon="6.29095">
        <ele>1030.1</ele>
        <time>2021-07-16T07:22:18.701Z</time>
      </trkpt>
      <trkpt lat="44.5505" lon="6.29083">
        <ele>1031.3</ele>
        <time>2021-07-16T07:22:22.457Z</time>
      </trkpt>
      <trkpt lat="44.55054" lon="6.29074">
        <ele>1031.1</ele>
        <time>2021-07-16T07:22:25.489Z</time>
      </trkpt>
      <trkpt lat="44.55058" lon="6.29062">
        <ele>1032.2</ele>
        <time>2021-07-16T07:22:29.012Z</time>
      </trkpt>
      <trkpt lat="44.55061" lon="6.29052">
        <ele>1032.8</ele>
        <time>2021-07-16T07:22:32.457Z</time>
      </trkpt>
      <trkpt lat="44.55066" lon="6.29041">
        <ele>1033.8</ele>
        <time>2021-07-16T07:22:36.462Z</time>
      </trkpt>
      <trkpt lat="44.5507" lon="6.2903">
        <ele>1032.6</ele>
        <time>2021-07-16T07:22:39.668Z</time>
      </trkpt>
      <trkpt lat="44.55075" lon="6.29016">
        <ele>1033.5</ele>
        <time>2021-07-16T07:22:43.490Z</time>
      </trkpt>
      <trkpt lat="44.5508" lon="6.29001">
        <ele>1035.2</ele>
        <time>2021-07-16T07:22:47.462Z</time>
      </trkpt>
      <trkpt lat="44.55083" lon="6.28988">
        <ele>1037.9</ele>
        <time>2021-07-16T07:22:51.456Z</time>
      </trkpt>
      <trkpt lat="44.55087" lon="6.28977">
        <ele>1037.4</ele>
        <time>2021-07-16T07:22:54.455Z</time>
      </trkpt>
      <trkpt lat="44.55091" lon="6.28964">
        <ele>1011.4</ele>
        <time>2021-07-16T07:22:57.899Z</time>
      </trkpt>
      <trkpt lat="44.55094" lon="6.28952">
        <ele>1024.3</ele>
        <time>2021-07-16T07:23:01.295Z</time>
      </trkpt>
      <trkpt lat="44.55099" lon="6.28934">
        <ele>1027.9</ele>
        <time>2021-07-16T07:23:05.469Z</time>
      </trkpt>
      <trkpt lat="44.55102" lon="6.28913">
        <ele>1031.2</ele>
        <time>2021-07-16T07:23:09.458Z</time>
      </trkpt>
      <trkpt lat="44.55101" lon="6.28897">
        <ele>1028.7</ele>
        <time>2021-07-16T07:23:12.864Z</time>
      </trkpt>
      <trkpt lat="44.55101" lon="6.28888">
        <ele>1030.2</ele>
        <time>2021-07-16T07:23:16.461Z</time>
      </trkpt>
      <trkpt lat="44.55107" lon="6.28858">
        <ele>1026</ele>
        <time>2021-07-16T07:23:21.000Z</time>
      </trkpt>
      <trkpt lat="44.55158" lon="6.28775">
        <ele>1021</ele>
        <time>2021-07-16T07:23:30.000Z</time>
      </trkpt>
      <trkpt lat="44.55177" lon="6.28754">
        <ele>1006.2</ele>
        <time>2021-07-16T07:23:36.000Z</time>
      </trkpt>
      <trkpt lat="44.55187" lon="6.28776">
        <ele>1012.3</ele>
        <time>2021-07-16T07:23:40.505Z</time>
      </trkpt>
      <trkpt lat="44.55196" lon="6.28773">
        <ele>1015.3</ele>
        <time>2021-07-16T07:23:44.365Z</time>
      </trkpt>
      <trkpt lat="44.55206" lon="6.28784">
        <ele>1017.8</ele>
        <time>2021-07-16T07:23:51.154Z</time>
      </trkpt>
      <trkpt lat="44.55214" lon="6.28794">
        <ele>1019.8</ele>
        <time>2021-07-16T07:23:55.000Z</time>
      </trkpt>
      <trkpt lat="44.55222" lon="6.28799">
        <ele>1020.6</ele>
        <time>2021-07-16T07:23:58.000Z</time>
      </trkpt>
      <trkpt lat="44.55231" lon="6.28806">
        <ele>1021</ele>
        <time>2021-07-16T07:24:00.859Z</time>
      </trkpt>
      <trkpt lat="44.55242" lon="6.28816">
        <ele>1020.5</ele>
        <time>2021-07-16T07:24:03.979Z</time>
      </trkpt>
      <trkpt lat="44.55252" lon="6.28824">
        <ele>1021.7</ele>
        <time>2021-07-16T07:24:08.000Z</time>
      </trkpt>
      <trkpt lat="44.55261" lon="6.2883">
        <ele>1020.9</ele>
        <time>2021-07-16T07:24:11.000Z</time>
      </trkpt>
      <trkpt lat="44.55272" lon="6.28838">
        <ele>1019.7</ele>
        <time>2021-07-16T07:24:13.869Z</time>
      </trkpt>
      <trkpt lat="44.55287" lon="6.28854">
        <ele>1020.8</ele>
        <time>2021-07-16T07:24:18.000Z</time>
      </trkpt>
      <trkpt lat="44.55296" lon="6.28863">
        <ele>1021.9</ele>
        <time>2021-07-16T07:24:22.000Z</time>
      </trkpt>
      <trkpt lat="44.55305" lon="6.2887">
        <ele>1023.3</ele>
        <time>2021-07-16T07:24:25.000Z</time>
      </trkpt>
      <trkpt lat="44.55313" lon="6.2888">
        <ele>1027.9</ele>
        <time>2021-07-16T07:24:29.000Z</time>
      </trkpt>
      <trkpt lat="44.55319" lon="6.28885">
        <ele>1026.6</ele>
        <time>2021-07-16T07:24:34.495Z</time>
      </trkpt>
      <trkpt lat="44.55324" lon="6.28896">
        <ele>1028.4</ele>
        <time>2021-07-16T07:24:39.000Z</time>
      </trkpt>
      <trkpt lat="44.55329" lon="6.28908">
        <ele>1027.5</ele>
        <time>2021-07-16T07:24:43.000Z</time>
      </trkpt>
      <trkpt lat="44.5533" lon="6.28915">
        <ele>1028.4</ele>
        <time>2021-07-16T07:24:46.000Z</time>
      </trkpt>
      <trkpt lat="44.55335" lon="6.28923">
        <ele>1034.4</ele>
        <time>2021-07-16T07:24:51.569Z</time>
      </trkpt>
      <trkpt lat="44.55337" lon="6.28931">
        <ele>1037.8</ele>
        <time>2021-07-16T07:24:55.025Z</time>
      </trkpt>
      <trkpt lat="44.55339" lon="6.28938">
        <ele>1039.1</ele>
        <time>2021-07-16T07:24:58.443Z</time>
      </trkpt>
      <trkpt lat="44.55345" lon="6.28944">
        <ele>1040.1</ele>
        <time>2021-07-16T07:25:01.451Z</time>
      </trkpt>
      <trkpt lat="44.55351" lon="6.28954">
        <ele>1039.2</ele>
        <time>2021-07-16T07:25:05.457Z</time>
      </trkpt>
      <trkpt lat="44.55357" lon="6.28968">
        <ele>1041.7</ele>
        <time>2021-07-16T07:25:08.576Z</time>
      </trkpt>
      <trkpt lat="44.55361" lon="6.28977">
        <ele>1042.1</ele>
        <time>2021-07-16T07:25:11.641Z</time>
      </trkpt>
      <trkpt lat="44.55364" lon="6.28983">
        <ele>1041.9</ele>
        <time>2021-07-16T07:25:15.451Z</time>
      </trkpt>
      <trkpt lat="44.55367" lon="6.28989">
        <ele>1044</ele>
        <time>2021-07-16T07:25:18.460Z</time>
      </trkpt>
      <trkpt lat="44.55371" lon="6.28997">
        <ele>1044.7</ele>
        <time>2021-07-16T07:25:22.456Z</time>
      </trkpt>
      <trkpt lat="44.55374" lon="6.29005">
        <ele>1043.1</ele>
        <time>2021-07-16T07:25:25.456Z</time>
      </trkpt>
      <trkpt lat="44.5538" lon="6.29014">
        <ele>1043.4</ele>
        <time>2021-07-16T07:25:29.459Z</time>
      </trkpt>
      <trkpt lat="44.55382" lon="6.29024">
        <ele>1043.7</ele>
        <time>2021-07-16T07:25:32.463Z</time>
      </trkpt>
      <trkpt lat="44.55382" lon="6.29039">
        <ele>1046.4</ele>
        <time>2021-07-16T07:25:35.577Z</time>
      </trkpt>
      <trkpt lat="44.5538" lon="6.29045">
        <ele>1050.4</ele>
        <time>2021-07-16T07:25:38.741Z</time>
      </trkpt>
      <trkpt lat="44.55382" lon="6.29055">
        <ele>1049.8</ele>
        <time>2021-07-16T07:25:42.447Z</time>
      </trkpt>
      <trkpt lat="44.55382" lon="6.29063">
        <ele>1052.6</ele>
        <time>2021-07-16T07:25:45.460Z</time>
      </trkpt>
      <trkpt lat="44.55383" lon="6.29075">
        <ele>1051.4</ele>
        <time>2021-07-16T07:25:49.460Z</time>
      </trkpt>
      <trkpt lat="44.55383" lon="6.29087">
        <ele>1054.5</ele>
        <time>2021-07-16T07:25:53.460Z</time>
      </trkpt>
      <trkpt lat="44.55385" lon="6.291">
        <ele>1057.2</ele>
        <time>2021-07-16T07:25:56.465Z</time>
      </trkpt>
      <trkpt lat="44.55391" lon="6.29114">
        <ele>1060.8</ele>
        <time>2021-07-16T07:25:59.465Z</time>
      </trkpt>
      <trkpt lat="44.55393" lon="6.29125">
        <ele>1064.9</ele>
        <time>2021-07-16T07:26:02.556Z</time>
      </trkpt>
      <trkpt lat="44.55394" lon="6.29132">
        <ele>1066.4</ele>
        <time>2021-07-16T07:26:06.326Z</time>
      </trkpt>
      <trkpt lat="44.55394" lon="6.29141">
        <ele>1068.4</ele>
        <time>2021-07-16T07:26:09.341Z</time>
      </trkpt>
      <trkpt lat="44.55395" lon="6.29152">
        <ele>1068.4</ele>
        <time>2021-07-16T07:26:12.383Z</time>
      </trkpt>
      <trkpt lat="44.55396" lon="6.29162">
        <ele>1070</ele>
        <time>2021-07-16T07:26:15.458Z</time>
      </trkpt>
      <trkpt lat="44.55399" lon="6.29176">
        <ele>1070.4</ele>
        <time>2021-07-16T07:26:18.464Z</time>
      </trkpt>
      <trkpt lat="44.55414" lon="6.29187">
        <ele>1043.3</ele>
        <time>2021-07-16T07:26:25.466Z</time>
      </trkpt>
      <trkpt lat="44.55421" lon="6.29197">
        <ele>1053.5</ele>
        <time>2021-07-16T07:26:28.583Z</time>
      </trkpt>
      <trkpt lat="44.55428" lon="6.29204">
        <ele>1058.8</ele>
        <time>2021-07-16T07:26:32.455Z</time>
      </trkpt>
      <trkpt lat="44.55434" lon="6.29213">
        <ele>1065.5</ele>
        <time>2021-07-16T07:26:36.483Z</time>
      </trkpt>
      <trkpt lat="44.5544" lon="6.29218">
        <ele>1071.1</ele>
        <time>2021-07-16T07:26:40.460Z</time>
      </trkpt>
      <trkpt lat="44.55446" lon="6.29217">
        <ele>1073.6</ele>
        <time>2021-07-16T07:26:43.925Z</time>
      </trkpt>
      <trkpt lat="44.55454" lon="6.29217">
        <ele>1075.6</ele>
        <time>2021-07-16T07:26:47.403Z</time>
      </trkpt>
      <trkpt lat="44.55461" lon="6.29215">
        <ele>911.5</ele>
        <time>2021-07-16T07:26:50.584Z</time>
      </trkpt>
      <trkpt lat="44.55468" lon="6.29216">
        <ele>911.5</ele>
        <time>2021-07-16T07:26:54.461Z</time>
      </trkpt>
      <trkpt lat="44.55473" lon="6.29222">
        <ele>911.5</ele>
        <time>2021-07-16T07:26:58.459Z</time>
      </trkpt>
      <trkpt lat="44.55476" lon="6.29231">
        <ele>911.4</ele>
        <time>2021-07-16T07:27:04.764Z</time>
      </trkpt>
      <trkpt lat="44.55477" lon="6.29242">
        <ele>911.4</ele>
        <time>2021-07-16T07:27:08.870Z</time>
      </trkpt>
      <trkpt lat="44.55474" lon="6.29252">
        <ele>911.5</ele>
        <time>2021-07-16T07:27:12.452Z</time>
      </trkpt>
      <trkpt lat="44.55471" lon="6.29258">
        <ele>911.5</ele>
        <time>2021-07-16T07:27:15.507Z</time>
      </trkpt>
      <trkpt lat="44.55469" lon="6.29264">
        <ele>911.6</ele>
        <time>2021-07-16T07:27:19.460Z</time>
      </trkpt>
      <trkpt lat="44.55469" lon="6.29273">
        <ele>911.6</ele>
        <time>2021-07-16T07:27:22.508Z</time>
      </trkpt>
      <trkpt lat="44.55468" lon="6.29286">
        <ele>912.5</ele>
        <time>2021-07-16T07:27:26.502Z</time>
      </trkpt>
      <trkpt lat="44.55465" lon="6.29294">
        <ele>912.8</ele>
        <time>2021-07-16T07:27:29.523Z</time>
      </trkpt>
      <trkpt lat="44.55462" lon="6.29306">
        <ele>913.2</ele>
        <time>2021-07-16T07:27:33.457Z</time>
      </trkpt>
      <trkpt lat="44.55458" lon="6.29314">
        <ele>913.3</ele>
        <time>2021-07-16T07:27:36.458Z</time>
      </trkpt>
      <trkpt lat="44.55453" lon="6.29325">
        <ele>913.2</ele>
        <time>2021-07-16T07:27:40.453Z</time>
      </trkpt>
      <trkpt lat="44.55449" lon="6.29335">
        <ele>914.4</ele>
        <time>2021-07-16T07:27:43.490Z</time>
      </trkpt>
      <trkpt lat="44.55443" lon="6.29347">
        <ele>914.4</ele>
        <time>2021-07-16T07:27:47.258Z</time>
      </trkpt>
      <trkpt lat="44.55441" lon="6.29357">
        <ele>914.7</ele>
        <time>2021-07-16T07:27:50.421Z</time>
      </trkpt>
      <trkpt lat="44.55439" lon="6.29366">
        <ele>1096.2</ele>
        <time>2021-07-16T07:27:53.447Z</time>
      </trkpt>
      <trkpt lat="44.55439" lon="6.29375">
        <ele>1096.3</ele>
        <time>2021-07-16T07:27:56.502Z</time>
      </trkpt>
      <trkpt lat="44.5544" lon="6.29384">
        <ele>1094.9</ele>
        <time>2021-07-16T07:27:59.502Z</time>
      </trkpt>
      <trkpt lat="44.55443" lon="6.29393">
        <ele>1093</ele>
        <time>2021-07-16T07:28:03.481Z</time>
      </trkpt>
      <trkpt lat="44.55447" lon="6.29385">
        <ele>1097.8</ele>
        <time>2021-07-16T07:28:10.504Z</time>
      </trkpt>
      <trkpt lat="44.55449" lon="6.29375">
        <ele>1101.2</ele>
        <time>2021-07-16T07:28:13.766Z</time>
      </trkpt>
      <trkpt lat="44.55454" lon="6.29369">
        <ele>1103.7</ele>
        <time>2021-07-16T07:28:17.453Z</time>
      </trkpt>
      <trkpt lat="44.5546" lon="6.29365">
        <ele>1107.2</ele>
        <time>2021-07-16T07:28:20.454Z</time>
      </trkpt>
      <trkpt lat="44.55468" lon="6.29361">
        <ele>1107.6</ele>
        <time>2021-07-16T07:28:24.453Z</time>
      </trkpt>
      <trkpt lat="44.55475" lon="6.29357">
        <ele>1108.4</ele>
        <time>2021-07-16T07:28:27.533Z</time>
      </trkpt>
      <trkpt lat="44.55484" lon="6.29352">
        <ele>1109.8</ele>
        <time>2021-07-16T07:28:31.458Z</time>
      </trkpt>
      <trkpt lat="44.55494" lon="6.29347">
        <ele>1111.5</ele>
        <time>2021-07-16T07:28:35.454Z</time>
      </trkpt>
      <trkpt lat="44.55503" lon="6.29343">
        <ele>1109.3</ele>
        <time>2021-07-16T07:28:39.458Z</time>
      </trkpt>
      <trkpt lat="44.5551" lon="6.29339">
        <ele>1109.4</ele>
        <time>2021-07-16T07:28:42.472Z</time>
      </trkpt>
      <trkpt lat="44.55519" lon="6.29336">
        <ele>1109.3</ele>
        <time>2021-07-16T07:28:46.049Z</time>
      </trkpt>
      <trkpt lat="44.55528" lon="6.29332">
        <ele>1109.4</ele>
        <time>2021-07-16T07:28:49.517Z</time>
      </trkpt>
      <trkpt lat="44.5554" lon="6.29336">
        <ele>1109.4</ele>
        <time>2021-07-16T07:28:53.606Z</time>
      </trkpt>
      <trkpt lat="44.55545" lon="6.29347">
        <ele>1109.4</ele>
        <time>2021-07-16T07:28:57.457Z</time>
      </trkpt>
      <trkpt lat="44.55552" lon="6.29355">
        <ele>1109.4</ele>
        <time>2021-07-16T07:29:01.455Z</time>
      </trkpt>
      <trkpt lat="44.55562" lon="6.29363">
        <ele>1109.4</ele>
        <time>2021-07-16T07:29:05.459Z</time>
      </trkpt>
      <trkpt lat="44.55571" lon="6.29369">
        <ele>1110.5</ele>
        <time>2021-07-16T07:29:09.451Z</time>
      </trkpt>
      <trkpt lat="44.55574" lon="6.29375">
        <ele>1111.2</ele>
        <time>2021-07-16T07:29:12.553Z</time>
      </trkpt>
      <trkpt lat="44.55579" lon="6.29382">
        <ele>1111.5</ele>
        <time>2021-07-16T07:29:16.340Z</time>
      </trkpt>
      <trkpt lat="44.55583" lon="6.29386">
        <ele>1111.5</ele>
        <time>2021-07-16T07:29:19.461Z</time>
      </trkpt>
      <trkpt lat="44.55592" lon="6.2939">
        <ele>1112.6</ele>
        <time>2021-07-16T07:29:22.705Z</time>
      </trkpt>
      <trkpt lat="44.55598" lon="6.29395">
        <ele>1112.8</ele>
        <time>2021-07-16T07:29:26.494Z</time>
      </trkpt>
      <trkpt lat="44.55602" lon="6.29402">
        <ele>1112.7</ele>
        <time>2021-07-16T07:29:30.457Z</time>
      </trkpt>
      <trkpt lat="44.55605" lon="6.29416">
        <ele>1112.8</ele>
        <time>2021-07-16T07:29:35.450Z</time>
      </trkpt>
      <trkpt lat="44.55608" lon="6.29426">
        <ele>1115.3</ele>
        <time>2021-07-16T07:29:39.462Z</time>
      </trkpt>
      <trkpt lat="44.55609" lon="6.29433">
        <ele>1116.1</ele>
        <time>2021-07-16T07:29:42.512Z</time>
      </trkpt>
      <trkpt lat="44.55611" lon="6.29441">
        <ele>1116.3</ele>
        <time>2021-07-16T07:29:46.516Z</time>
      </trkpt>
      <trkpt lat="44.55617" lon="6.29451">
        <ele>1133.8</ele>
        <time>2021-07-16T07:29:52.749Z</time>
      </trkpt>
      <trkpt lat="44.55621" lon="6.2946">
        <ele>1132.7</ele>
        <time>2021-07-16T07:29:56.463Z</time>
      </trkpt>
      <trkpt lat="44.55625" lon="6.29469">
        <ele>1130.5</ele>
        <time>2021-07-16T07:30:00.469Z</time>
      </trkpt>
      <trkpt lat="44.5563" lon="6.29479">
        <ele>1132.6</ele>
        <time>2021-07-16T07:30:04.437Z</time>
      </trkpt>
      <trkpt lat="44.55636" lon="6.29486">
        <ele>1132.1</ele>
        <time>2021-07-16T07:30:07.700Z</time>
      </trkpt>
      <trkpt lat="44.55641" lon="6.29492">
        <ele>1133.1</ele>
        <time>2021-07-16T07:30:11.460Z</time>
      </trkpt>
      <trkpt lat="44.55648" lon="6.29498">
        <ele>1133</ele>
        <time>2021-07-16T07:30:15.452Z</time>
      </trkpt>
      <trkpt lat="44.55652" lon="6.29502">
        <ele>1134.7</ele>
        <time>2021-07-16T07:30:18.452Z</time>
      </trkpt>
      <trkpt lat="44.55659" lon="6.2951">
        <ele>1134.8</ele>
        <time>2021-07-16T07:30:21.457Z</time>
      </trkpt>
      <trkpt lat="44.55666" lon="6.29521">
        <ele>1136.8</ele>
        <time>2021-07-16T07:30:24.461Z</time>
      </trkpt>
      <trkpt lat="44.55676" lon="6.29534">
        <ele>1140.8</ele>
        <time>2021-07-16T07:30:28.447Z</time>
      </trkpt>
      <trkpt lat="44.55682" lon="6.29541">
        <ele>1143</ele>
        <time>2021-07-16T07:30:31.934Z</time>
      </trkpt>
      <trkpt lat="44.55687" lon="6.29545">
        <ele>1143.4</ele>
        <time>2021-07-16T07:30:35.463Z</time>
      </trkpt>
      <trkpt lat="44.55696" lon="6.29552">
        <ele>1142.4</ele>
        <time>2021-07-16T07:30:39.456Z</time>
      </trkpt>
      <trkpt lat="44.55701" lon="6.29559">
        <ele>1143.2</ele>
        <time>2021-07-16T07:30:43.460Z</time>
      </trkpt>
      <trkpt lat="44.55708" lon="6.29565">
        <ele>1144.3</ele>
        <time>2021-07-16T07:30:47.080Z</time>
      </trkpt>
      <trkpt lat="44.55709" lon="6.29573">
        <ele>1145.4</ele>
        <time>2021-07-16T07:30:50.617Z</time>
      </trkpt>
      <trkpt lat="44.55711" lon="6.29589">
        <ele>1145.8</ele>
        <time>2021-07-16T07:30:54.462Z</time>
      </trkpt>
      <trkpt lat="44.55713" lon="6.296">
        <ele>1089.8</ele>
        <time>2021-07-16T07:30:57.761Z</time>
      </trkpt>
      <trkpt lat="44.55714" lon="6.29609">
        <ele>1118.9</ele>
        <time>2021-07-16T07:31:01.466Z</time>
      </trkpt>
      <trkpt lat="44.55717" lon="6.29617">
        <ele>1134.8</ele>
        <time>2021-07-16T07:31:05.284Z</time>
      </trkpt>
      <trkpt lat="44.55721" lon="6.29626">
        <ele>1142.9</ele>
        <time>2021-07-16T07:31:09.447Z</time>
      </trkpt>
      <trkpt lat="44.55724" lon="6.29633">
        <ele>1153.1</ele>
        <time>2021-07-16T07:31:12.722Z</time>
      </trkpt>
      <trkpt lat="44.5573" lon="6.29642">
        <ele>1149.7</ele>
        <time>2021-07-16T07:31:19.452Z</time>
      </trkpt>
      <trkpt lat="44.55733" lon="6.29648">
        <ele>1151.5</ele>
        <time>2021-07-16T07:31:22.559Z</time>
      </trkpt>
      <trkpt lat="44.55735" lon="6.29653">
        <ele>1153.2</ele>
        <time>2021-07-16T07:31:25.571Z</time>
      </trkpt>
      <trkpt lat="44.55737" lon="6.29661">
        <ele>1096.7</ele>
        <time>2021-07-16T07:31:29.488Z</time>
      </trkpt>
      <trkpt lat="44.55737" lon="6.29668">
        <ele>1128.5</ele>
        <time>2021-07-16T07:31:32.762Z</time>
      </trkpt>
      <trkpt lat="44.55739" lon="6.29676">
        <ele>1142.1</ele>
        <time>2021-07-16T07:31:36.313Z</time>
      </trkpt>
      <trkpt lat="44.55741" lon="6.29686">
        <ele>1152.1</ele>
        <time>2021-07-16T07:31:39.768Z</time>
      </trkpt>
      <trkpt lat="44.55742" lon="6.29693">
        <ele>1152.9</ele>
        <time>2021-07-16T07:31:43.196Z</time>
      </trkpt>
      <trkpt lat="44.55744" lon="6.297">
        <ele>1158.4</ele>
        <time>2021-07-16T07:31:46.565Z</time>
      </trkpt>
      <trkpt lat="44.55745" lon="6.29708">
        <ele>1159.3</ele>
        <time>2021-07-16T07:31:50.284Z</time>
      </trkpt>
      <trkpt lat="44.55748" lon="6.29717">
        <ele>1161.3</ele>
        <time>2021-07-16T07:31:53.337Z</time>
      </trkpt>
      <trkpt lat="44.5575" lon="6.29725">
        <ele>1165.6</ele>
        <time>2021-07-16T07:31:56.597Z</time>
      </trkpt>
      <trkpt lat="44.55752" lon="6.29734">
        <ele>1169.3</ele>
        <time>2021-07-16T07:32:00.168Z</time>
      </trkpt>
      <trkpt lat="44.55753" lon="6.29741">
        <ele>1169.3</ele>
        <time>2021-07-16T07:32:03.346Z</time>
      </trkpt>
      <trkpt lat="44.55755" lon="6.29748">
        <ele>1175.2</ele>
        <time>2021-07-16T07:32:07.000Z</time>
      </trkpt>
      <trkpt lat="44.55757" lon="6.29756">
        <ele>1177.5</ele>
        <time>2021-07-16T07:32:10.000Z</time>
      </trkpt>
      <trkpt lat="44.55761" lon="6.29763">
        <ele>1180.6</ele>
        <time>2021-07-16T07:32:13.383Z</time>
      </trkpt>
      <trkpt lat="44.55766" lon="6.29773">
        <ele>1180.7</ele>
        <time>2021-07-16T07:32:20.490Z</time>
      </trkpt>
      <trkpt lat="44.55768" lon="6.29778">
        <ele>1177.7</ele>
        <time>2021-07-16T07:32:23.863Z</time>
      </trkpt>
      <trkpt lat="44.55771" lon="6.29787">
        <ele>1180.6</ele>
        <time>2021-07-16T07:32:30.452Z</time>
      </trkpt>
      <trkpt lat="44.5577" lon="6.29795">
        <ele>1180</ele>
        <time>2021-07-16T07:32:34.588Z</time>
      </trkpt>
      <trkpt lat="44.55769" lon="6.29802">
        <ele>1176.8</ele>
        <time>2021-07-16T07:32:37.962Z</time>
      </trkpt>
      <trkpt lat="44.55769" lon="6.29811">
        <ele>1180.5</ele>
        <time>2021-07-16T07:32:41.278Z</time>
      </trkpt>
      <trkpt lat="44.55768" lon="6.2982">
        <ele>1179.6</ele>
        <time>2021-07-16T07:32:44.508Z</time>
      </trkpt>
      <trkpt lat="44.55765" lon="6.29831">
        <ele>1183.2</ele>
        <time>2021-07-16T07:32:48.462Z</time>
      </trkpt>
      <trkpt lat="44.5576" lon="6.29845">
        <ele>1183.3</ele>
        <time>2021-07-16T07:32:52.455Z</time>
      </trkpt>
      <trkpt lat="44.55753" lon="6.29855">
        <ele>1186.9</ele>
        <time>2021-07-16T07:32:55.734Z</time>
      </trkpt>
      <trkpt lat="44.55753" lon="6.29862">
        <ele>1191</ele>
        <time>2021-07-16T07:32:59.724Z</time>
      </trkpt>
      <trkpt lat="44.55754" lon="6.2987">
        <ele>1194.2</ele>
        <time>2021-07-16T07:33:06.197Z</time>
      </trkpt>
      <trkpt lat="44.55759" lon="6.29875">
        <ele>1197</ele>
        <time>2021-07-16T07:33:13.000Z</time>
      </trkpt>
      <trkpt lat="44.55763" lon="6.29879">
        <ele>1157.9</ele>
        <time>2021-07-16T07:33:16.029Z</time>
      </trkpt>
      <trkpt lat="44.55766" lon="6.29885">
        <ele>1185.5</ele>
        <time>2021-07-16T07:33:19.042Z</time>
      </trkpt>
      <trkpt lat="44.55768" lon="6.29892">
        <ele>1185.4</ele>
        <time>2021-07-16T07:33:22.088Z</time>
      </trkpt>
      <trkpt lat="44.55772" lon="6.299">
        <ele>1185.4</ele>
        <time>2021-07-16T07:33:25.317Z</time>
      </trkpt>
      <trkpt lat="44.55777" lon="6.2991">
        <ele>1185.5</ele>
        <time>2021-07-16T07:33:28.763Z</time>
      </trkpt>
      <trkpt lat="44.55784" lon="6.29922">
        <ele>1185.5</ele>
        <time>2021-07-16T07:33:32.165Z</time>
      </trkpt>
      <trkpt lat="44.55797" lon="6.29931">
        <ele>1185.8</ele>
        <time>2021-07-16T07:33:35.256Z</time>
      </trkpt>
      <trkpt lat="44.55801" lon="6.29937">
        <ele>1185.7</ele>
        <time>2021-07-16T07:33:38.280Z</time>
      </trkpt>
      <trkpt lat="44.55806" lon="6.29947">
        <ele>1186.2</ele>
        <time>2021-07-16T07:33:41.662Z</time>
      </trkpt>
      <trkpt lat="44.55809" lon="6.2996">
        <ele>1186.2</ele>
        <time>2021-07-16T07:33:44.865Z</time>
      </trkpt>
      <trkpt lat="44.5581" lon="6.29971">
        <ele>1186.6</ele>
        <time>2021-07-16T07:33:48.199Z</time>
      </trkpt>
      <trkpt lat="44.55806" lon="6.29977">
        <ele>1186.6</ele>
        <time>2021-07-16T07:33:52.000Z</time>
      </trkpt>
      <trkpt lat="44.55808" lon="6.29983">
        <ele>1187.2</ele>
        <time>2021-07-16T07:33:58.000Z</time>
      </trkpt>
      <trkpt lat="44.55811" lon="6.2999">
        <ele>1187.6</ele>
        <time>2021-07-16T07:34:13.000Z</time>
      </trkpt>
      <trkpt lat="44.55808" lon="6.29999">
        <ele>1187.8</ele>
        <time>2021-07-16T07:34:25.729Z</time>
      </trkpt>
      <trkpt lat="44.55802" lon="6.3001">
        <ele>1187.9</ele>
        <time>2021-07-16T07:34:29.463Z</time>
      </trkpt>
      <trkpt lat="44.55793" lon="6.30019">
        <ele>1188</ele>
        <time>2021-07-16T07:34:33.466Z</time>
      </trkpt>
      <trkpt lat="44.55796" lon="6.30035">
        <ele>1188.4</ele>
        <time>2021-07-16T07:34:37.457Z</time>
      </trkpt>
      <trkpt lat="44.55799" lon="6.30042">
        <ele>1188.9</ele>
        <time>2021-07-16T07:34:41.125Z</time>
      </trkpt>
      <trkpt lat="44.55789" lon="6.30052">
        <ele>1188.9</ele>
        <time>2021-07-16T07:34:47.500Z</time>
      </trkpt>
      <trkpt lat="44.55783" lon="6.30056">
        <ele>1189</ele>
        <time>2021-07-16T07:34:50.504Z</time>
      </trkpt>
      <trkpt lat="44.55776" lon="6.30065">
        <ele>1188.9</ele>
        <time>2021-07-16T07:34:54.460Z</time>
      </trkpt>
      <trkpt lat="44.55769" lon="6.30074">
        <ele>1188.9</ele>
        <time>2021-07-16T07:34:57.462Z</time>
      </trkpt>
      <trkpt lat="44.55756" lon="6.30085">
        <ele>1191.4</ele>
        <time>2021-07-16T07:35:01.457Z</time>
      </trkpt>
      <trkpt lat="44.55749" lon="6.30097">
        <ele>1192.2</ele>
        <time>2021-07-16T07:35:04.937Z</time>
      </trkpt>
      <trkpt lat="44.55744" lon="6.30108">
        <ele>1192.2</ele>
        <time>2021-07-16T07:35:08.453Z</time>
      </trkpt>
      <trkpt lat="44.55741" lon="6.30117">
        <ele>1192.2</ele>
        <time>2021-07-16T07:35:11.462Z</time>
      </trkpt>
      <trkpt lat="44.55739" lon="6.30131">
        <ele>1213.3</ele>
        <time>2021-07-16T07:35:15.462Z</time>
      </trkpt>
      <trkpt lat="44.55742" lon="6.30143">
        <ele>1213.3</ele>
        <time>2021-07-16T07:35:19.457Z</time>
      </trkpt>
      <trkpt lat="44.55748" lon="6.30152">
        <ele>1213.3</ele>
        <time>2021-07-16T07:35:22.465Z</time>
      </trkpt>
      <trkpt lat="44.55754" lon="6.30156">
        <ele>1222.1</ele>
        <time>2021-07-16T07:35:25.777Z</time>
      </trkpt>
      <trkpt lat="44.55761" lon="6.30161">
        <ele>1222.1</ele>
        <time>2021-07-16T07:35:29.594Z</time>
      </trkpt>
      <trkpt lat="44.55767" lon="6.30171">
        <ele>1222.4</ele>
        <time>2021-07-16T07:35:33.458Z</time>
      </trkpt>
      <trkpt lat="44.55769" lon="6.30178">
        <ele>1222.4</ele>
        <time>2021-07-16T07:35:36.467Z</time>
      </trkpt>
      <trkpt lat="44.55771" lon="6.30192">
        <ele>1222.4</ele>
        <time>2021-07-16T07:35:40.464Z</time>
      </trkpt>
      <trkpt lat="44.55776" lon="6.30202">
        <ele>1222.4</ele>
        <time>2021-07-16T07:35:44.464Z</time>
      </trkpt>
      <trkpt lat="44.55783" lon="6.30208">
        <ele>1222.6</ele>
        <time>2021-07-16T07:35:48.462Z</time>
      </trkpt>
      <trkpt lat="44.55791" lon="6.3021">
        <ele>1223.3</ele>
        <time>2021-07-16T07:35:51.535Z</time>
      </trkpt>
      <trkpt lat="44.55799" lon="6.30211">
        <ele>1223.7</ele>
        <time>2021-07-16T07:35:55.462Z</time>
      </trkpt>
      <trkpt lat="44.55809" lon="6.30212">
        <ele>1223.7</ele>
        <time>2021-07-16T07:35:59.459Z</time>
      </trkpt>
      <trkpt lat="44.55822" lon="6.30209">
        <ele>1223.8</ele>
        <time>2021-07-16T07:36:03.451Z</time>
      </trkpt>
      <trkpt lat="44.5583" lon="6.30204">
        <ele>1226</ele>
        <time>2021-07-16T07:36:06.462Z</time>
      </trkpt>
      <trkpt lat="44.55834" lon="6.30198">
        <ele>1226.5</ele>
        <time>2021-07-16T07:36:09.596Z</time>
      </trkpt>
      <trkpt lat="44.55835" lon="6.30183">
        <ele>1226.7</ele>
        <time>2021-07-16T07:36:13.424Z</time>
      </trkpt>
      <trkpt lat="44.55831" lon="6.3017">
        <ele>1226.8</ele>
        <time>2021-07-16T07:36:16.458Z</time>
      </trkpt>
      <trkpt lat="44.55832" lon="6.30159">
        <ele>1226.8</ele>
        <time>2021-07-16T07:36:20.459Z</time>
      </trkpt>
      <trkpt lat="44.5584" lon="6.30157">
        <ele>1229.3</ele>
        <time>2021-07-16T07:36:24.457Z</time>
      </trkpt>
      <trkpt lat="44.55846" lon="6.30161">
        <ele>1230.2</ele>
        <time>2021-07-16T07:36:27.560Z</time>
      </trkpt>
      <trkpt lat="44.55852" lon="6.30158">
        <ele>1230.5</ele>
        <time>2021-07-16T07:36:31.452Z</time>
      </trkpt>
      <trkpt lat="44.55857" lon="6.30152">
        <ele>1230.5</ele>
        <time>2021-07-16T07:36:35.464Z</time>
      </trkpt>
      <trkpt lat="44.55861" lon="6.30145">
        <ele>1232.4</ele>
        <time>2021-07-16T07:36:38.507Z</time>
      </trkpt>
      <trkpt lat="44.55871" lon="6.30132">
        <ele>1232.5</ele>
        <time>2021-07-16T07:36:42.454Z</time>
      </trkpt>
      <trkpt lat="44.55882" lon="6.30123">
        <ele>1233.4</ele>
        <time>2021-07-16T07:36:46.460Z</time>
      </trkpt>
      <trkpt lat="44.55891" lon="6.30116">
        <ele>1234</ele>
        <time>2021-07-16T07:36:50.020Z</time>
      </trkpt>
      <trkpt lat="44.55899" lon="6.3011">
        <ele>1234</ele>
        <time>2021-07-16T07:36:53.255Z</time>
      </trkpt>
      <trkpt lat="44.5591" lon="6.30101">
        <ele>1234</ele>
        <time>2021-07-16T07:36:56.854Z</time>
      </trkpt>
      <trkpt lat="44.55919" lon="6.30087">
        <ele>1233.9</ele>
        <time>2021-07-16T07:37:00.452Z</time>
      </trkpt>
      <trkpt lat="44.55924" lon="6.30079">
        <ele>1235</ele>
        <time>2021-07-16T07:37:03.460Z</time>
      </trkpt>
      <trkpt lat="44.55929" lon="6.30074">
        <ele>1235.4</ele>
        <time>2021-07-16T07:37:06.498Z</time>
      </trkpt>
      <trkpt lat="44.55938" lon="6.30071">
        <ele>1235.6</ele>
        <time>2021-07-16T07:37:10.453Z</time>
      </trkpt>
      <trkpt lat="44.55944" lon="6.30068">
        <ele>1235.6</ele>
        <time>2021-07-16T07:37:13.458Z</time>
      </trkpt>
      <trkpt lat="44.55952" lon="6.30061">
        <ele>1235.7</ele>
        <time>2021-07-16T07:37:16.462Z</time>
      </trkpt>
      <trkpt lat="44.55961" lon="6.30049">
        <ele>1235.6</ele>
        <time>2021-07-16T07:37:19.464Z</time>
      </trkpt>
      <trkpt lat="44.55973" lon="6.30037">
        <ele>1236.1</ele>
        <time>2021-07-16T07:37:22.520Z</time>
      </trkpt>
      <trkpt lat="44.55986" lon="6.30022">
        <ele>1236.1</ele>
        <time>2021-07-16T07:37:26.704Z</time>
      </trkpt>
      <trkpt lat="44.56002" lon="6.30018">
        <ele>1236.3</ele>
        <time>2021-07-16T07:37:30.450Z</time>
      </trkpt>
      <trkpt lat="44.56011" lon="6.30016">
        <ele>1236.3</ele>
        <time>2021-07-16T07:37:33.457Z</time>
      </trkpt>
      <trkpt lat="44.56021" lon="6.30013">
        <ele>1236.4</ele>
        <time>2021-07-16T07:37:37.474Z</time>
      </trkpt>
      <trkpt lat="44.56029" lon="6.30006">
        <ele>1237.5</ele>
        <time>2021-07-16T07:37:41.167Z</time>
      </trkpt>
      <trkpt lat="44.56034" lon="6.30001">
        <ele>1237.6</ele>
        <time>2021-07-16T07:37:45.266Z</time>
      </trkpt>
      <trkpt lat="44.56038" lon="6.29994">
        <ele>1238.5</ele>
        <time>2021-07-16T07:37:48.462Z</time>
      </trkpt>
      <trkpt lat="44.56046" lon="6.29988">
        <ele>1238.5</ele>
        <time>2021-07-16T07:37:52.539Z</time>
      </trkpt>
      <trkpt lat="44.56062" lon="6.29983">
        <ele>1238.5</ele>
        <time>2021-07-16T07:37:57.459Z</time>
      </trkpt>
      <trkpt lat="44.5607" lon="6.29981">
        <ele>1239.3</ele>
        <time>2021-07-16T07:38:01.457Z</time>
      </trkpt>
      <trkpt lat="44.56071" lon="6.29989">
        <ele>1242.4</ele>
        <time>2021-07-16T07:38:08.459Z</time>
      </trkpt>
      <trkpt lat="44.56073" lon="6.29996">
        <ele>1243.2</ele>
        <time>2021-07-16T07:38:11.489Z</time>
      </trkpt>
      <trkpt lat="44.5608" lon="6.30005">
        <ele>1245.7</ele>
        <time>2021-07-16T07:38:18.461Z</time>
      </trkpt>
      <trkpt lat="44.56078" lon="6.30018">
        <ele>1251.3</ele>
        <time>2021-07-16T07:38:24.562Z</time>
      </trkpt>
      <trkpt lat="44.56075" lon="6.30028">
        <ele>1253.8</ele>
        <time>2021-07-16T07:38:28.461Z</time>
      </trkpt>
      <trkpt lat="44.56073" lon="6.30037">
        <ele>1256.3</ele>
        <time>2021-07-16T07:38:32.466Z</time>
      </trkpt>
      <trkpt lat="44.56071" lon="6.30048">
        <ele>1257.2</ele>
        <time>2021-07-16T07:38:36.454Z</time>
      </trkpt>
      <trkpt lat="44.56069" lon="6.30056">
        <ele>1256</ele>
        <time>2021-07-16T07:38:40.456Z</time>
      </trkpt>
      <trkpt lat="44.56066" lon="6.30064">
        <ele>1260.4</ele>
        <time>2021-07-16T07:38:43.861Z</time>
      </trkpt>
      <trkpt lat="44.56063" lon="6.30074">
        <ele>1260.9</ele>
        <time>2021-07-16T07:38:47.473Z</time>
      </trkpt>
      <trkpt lat="44.56059" lon="6.3008">
        <ele>1263.2</ele>
        <time>2021-07-16T07:38:51.462Z</time>
      </trkpt>
      <trkpt lat="44.56056" lon="6.30085">
        <ele>1264.8</ele>
        <time>2021-07-16T07:38:54.482Z</time>
      </trkpt>
      <trkpt lat="44.56052" lon="6.30095">
        <ele>1263</ele>
        <time>2021-07-16T07:38:58.497Z</time>
      </trkpt>
      <trkpt lat="44.56047" lon="6.30106">
        <ele>1265.2</ele>
        <time>2021-07-16T07:39:02.224Z</time>
      </trkpt>
      <trkpt lat="44.56045" lon="6.30116">
        <ele>1265.5</ele>
        <time>2021-07-16T07:39:05.461Z</time>
      </trkpt>
      <trkpt lat="44.56048" lon="6.30124">
        <ele>1266.4</ele>
        <time>2021-07-16T07:39:09.452Z</time>
      </trkpt>
      <trkpt lat="44.56049" lon="6.30133">
        <ele>1268.9</ele>
        <time>2021-07-16T07:39:13.380Z</time>
      </trkpt>
      <trkpt lat="44.56052" lon="6.3014">
        <ele>1272.9</ele>
        <time>2021-07-16T07:39:16.553Z</time>
      </trkpt>
      <trkpt lat="44.56057" lon="6.30141">
        <ele>1274.7</ele>
        <time>2021-07-16T07:39:20.460Z</time>
      </trkpt>
      <trkpt lat="44.56066" lon="6.30139">
        <ele>1277.9</ele>
        <time>2021-07-16T07:39:27.043Z</time>
      </trkpt>
      <trkpt lat="44.56071" lon="6.3014">
        <ele>1276.7</ele>
        <time>2021-07-16T07:39:30.140Z</time>
      </trkpt>
      <trkpt lat="44.56077" lon="6.30141">
        <ele>1280.8</ele>
        <time>2021-07-16T07:39:34.000Z</time>
      </trkpt>
      <trkpt lat="44.56084" lon="6.30143">
        <ele>1286.3</ele>
        <time>2021-07-16T07:39:37.494Z</time>
      </trkpt>
      <trkpt lat="44.56089" lon="6.30142">
        <ele>1287.1</ele>
        <time>2021-07-16T07:39:41.272Z</time>
      </trkpt>
      <trkpt lat="44.56099" lon="6.30142">
        <ele>1277.8</ele>
        <time>2021-07-16T07:39:47.458Z</time>
      </trkpt>
      <trkpt lat="44.56104" lon="6.30138">
        <ele>1287.8</ele>
        <time>2021-07-16T07:39:50.957Z</time>
      </trkpt>
      <trkpt lat="44.56111" lon="6.30134">
        <ele>1289.7</ele>
        <time>2021-07-16T07:39:55.000Z</time>
      </trkpt>
      <trkpt lat="44.56117" lon="6.30129">
        <ele>1289.3</ele>
        <time>2021-07-16T07:39:58.000Z</time>
      </trkpt>
      <trkpt lat="44.56123" lon="6.30126">
        <ele>1289.3</ele>
        <time>2021-07-16T07:40:00.458Z</time>
      </trkpt>
      <trkpt lat="44.56133" lon="6.30124">
        <ele>1289.2</ele>
        <time>2021-07-16T07:40:04.603Z</time>
      </trkpt>
      <trkpt lat="44.56145" lon="6.30121">
        <ele>1212.3</ele>
        <time>2021-07-16T07:40:08.437Z</time>
      </trkpt>
      <trkpt lat="44.56153" lon="6.30118">
        <ele>1261.7</ele>
        <time>2021-07-16T07:40:11.458Z</time>
      </trkpt>
      <trkpt lat="44.56168" lon="6.30116">
        <ele>1276.6</ele>
        <time>2021-07-16T07:40:15.462Z</time>
      </trkpt>
      <trkpt lat="44.56181" lon="6.30113">
        <ele>1285.2</ele>
        <time>2021-07-16T07:40:18.515Z</time>
      </trkpt>
      <trkpt lat="44.56199" lon="6.30113">
        <ele>1287</ele>
        <time>2021-07-16T07:40:23.458Z</time>
      </trkpt>
      <trkpt lat="44.56207" lon="6.30113">
        <ele>1288.5</ele>
        <time>2021-07-16T07:40:26.460Z</time>
      </trkpt>
      <trkpt lat="44.56217" lon="6.30113">
        <ele>1288.5</ele>
        <time>2021-07-16T07:40:30.326Z</time>
      </trkpt>
      <trkpt lat="44.5622" lon="6.30121">
        <ele>1290.5</ele>
        <time>2021-07-16T07:40:33.484Z</time>
      </trkpt>
      <trkpt lat="44.5622" lon="6.30132">
        <ele>1290.1</ele>
        <time>2021-07-16T07:40:37.512Z</time>
      </trkpt>
      <trkpt lat="44.56222" lon="6.30142">
        <ele>1290.4</ele>
        <time>2021-07-16T07:40:41.097Z</time>
      </trkpt>
      <trkpt lat="44.56224" lon="6.30151">
        <ele>1293.9</ele>
        <time>2021-07-16T07:40:44.463Z</time>
      </trkpt>
      <trkpt lat="44.56223" lon="6.30165">
        <ele>1301.5</ele>
        <time>2021-07-16T07:40:52.222Z</time>
      </trkpt>
      <trkpt lat="44.56223" lon="6.30171">
        <ele>1303.1</ele>
        <time>2021-07-16T07:40:55.677Z</time>
      </trkpt>
      <trkpt lat="44.56222" lon="6.30179">
        <ele>1306</ele>
        <time>2021-07-16T07:40:59.355Z</time>
      </trkpt>
      <trkpt lat="44.56223" lon="6.30192">
        <ele>1305.5</ele>
        <time>2021-07-16T07:41:05.703Z</time>
      </trkpt>
      <trkpt lat="44.56223" lon="6.30202">
        <ele>1187.9</ele>
        <time>2021-07-16T07:41:09.284Z</time>
      </trkpt>
      <trkpt lat="44.56225" lon="6.30213">
        <ele>1268.6</ele>
        <time>2021-07-16T07:41:12.461Z</time>
      </trkpt>
      <trkpt lat="44.56225" lon="6.30222">
        <ele>1304.2</ele>
        <time>2021-07-16T07:41:16.196Z</time>
      </trkpt>
      <trkpt lat="44.56225" lon="6.3023">
        <ele>1305.1</ele>
        <time>2021-07-16T07:41:19.456Z</time>
      </trkpt>
      <trkpt lat="44.56226" lon="6.30237">
        <ele>1308.2</ele>
        <time>2021-07-16T07:41:23.168Z</time>
      </trkpt>
      <trkpt lat="44.56228" lon="6.30246">
        <ele>1309.2</ele>
        <time>2021-07-16T07:41:26.869Z</time>
      </trkpt>
      <trkpt lat="44.56229" lon="6.30255">
        <ele>1308.3</ele>
        <time>2021-07-16T07:41:30.463Z</time>
      </trkpt>
      <trkpt lat="44.56231" lon="6.30271">
        <ele>1314.3</ele>
        <time>2021-07-16T07:41:37.463Z</time>
      </trkpt>
      <trkpt lat="44.56229" lon="6.30286">
        <ele>1314.4</ele>
        <time>2021-07-16T07:41:41.486Z</time>
      </trkpt>
      <trkpt lat="44.5623" lon="6.30297">
        <ele>1317.2</ele>
        <time>2021-07-16T07:41:44.521Z</time>
      </trkpt>
      <trkpt lat="44.56231" lon="6.30307">
        <ele>1320</ele>
        <time>2021-07-16T07:41:47.598Z</time>
      </trkpt>
      <trkpt lat="44.56235" lon="6.30322">
        <ele>1323.9</ele>
        <time>2021-07-16T07:41:52.000Z</time>
      </trkpt>
      <trkpt lat="44.56238" lon="6.30338">
        <ele>1325</ele>
        <time>2021-07-16T07:41:54.941Z</time>
      </trkpt>
      <trkpt lat="44.56237" lon="6.30353">
        <ele>1322.9</ele>
        <time>2021-07-16T07:41:58.251Z</time>
      </trkpt>
      <trkpt lat="44.56234" lon="6.30364">
        <ele>1319.9</ele>
        <time>2021-07-16T07:42:01.457Z</time>
      </trkpt>
      <trkpt lat="44.56228" lon="6.30376">
        <ele>1322.4</ele>
        <time>2021-07-16T07:42:05.490Z</time>
      </trkpt>
      <trkpt lat="44.56222" lon="6.30389">
        <ele>1325.2</ele>
        <time>2021-07-16T07:42:09.449Z</time>
      </trkpt>
      <trkpt lat="44.56216" lon="6.30398">
        <ele>1324.3</ele>
        <time>2021-07-16T07:42:12.460Z</time>
      </trkpt>
      <trkpt lat="44.56211" lon="6.30412">
        <ele>1327.6</ele>
        <time>2021-07-16T07:42:15.853Z</time>
      </trkpt>
      <trkpt lat="44.56206" lon="6.30424">
        <ele>1322.3</ele>
        <time>2021-07-16T07:42:19.462Z</time>
      </trkpt>
      <trkpt lat="44.56198" lon="6.30436">
        <ele>1320.5</ele>
        <time>2021-07-16T07:42:23.455Z</time>
      </trkpt>
      <trkpt lat="44.56193" lon="6.30443">
        <ele>1321.2</ele>
        <time>2021-07-16T07:42:26.466Z</time>
      </trkpt>
      <trkpt lat="44.5619" lon="6.30458">
        <ele>1320.7</ele>
        <time>2021-07-16T07:42:30.452Z</time>
      </trkpt>
      <trkpt lat="44.56183" lon="6.30468">
        <ele>1320.8</ele>
        <time>2021-07-16T07:42:33.922Z</time>
      </trkpt>
      <trkpt lat="44.56175" lon="6.3048">
        <ele>1324.4</ele>
        <time>2021-07-16T07:42:37.436Z</time>
      </trkpt>
      <trkpt lat="44.56171" lon="6.30488">
        <ele>1323.8</ele>
        <time>2021-07-16T07:42:40.463Z</time>
      </trkpt>
      <trkpt lat="44.56175" lon="6.30493">
        <ele>1324.7</ele>
        <time>2021-07-16T07:42:43.524Z</time>
      </trkpt>
      <trkpt lat="44.56182" lon="6.30497">
        <ele>1326.5</ele>
        <time>2021-07-16T07:42:47.457Z</time>
      </trkpt>
      <trkpt lat="44.56189" lon="6.30489">
        <ele>1325.5</ele>
        <time>2021-07-16T07:42:51.459Z</time>
      </trkpt>
      <trkpt lat="44.56194" lon="6.30479">
        <ele>1330.1</ele>
        <time>2021-07-16T07:42:58.454Z</time>
      </trkpt>
      <trkpt lat="44.562" lon="6.30471">
        <ele>1333.2</ele>
        <time>2021-07-16T07:43:04.458Z</time>
      </trkpt>
      <trkpt lat="44.56209" lon="6.30462">
        <ele>1329.4</ele>
        <time>2021-07-16T07:43:12.403Z</time>
      </trkpt>
      <trkpt lat="44.56213" lon="6.30457">
        <ele>1335.6</ele>
        <time>2021-07-16T07:43:15.467Z</time>
      </trkpt>
      <trkpt lat="44.56219" lon="6.30451">
        <ele>1337.4</ele>
        <time>2021-07-16T07:43:19.092Z</time>
      </trkpt>
      <trkpt lat="44.56226" lon="6.30446">
        <ele>1336.9</ele>
        <time>2021-07-16T07:43:22.458Z</time>
      </trkpt>
      <trkpt lat="44.56232" lon="6.30438">
        <ele>1336.1</ele>
        <time>2021-07-16T07:43:26.492Z</time>
      </trkpt>
      <trkpt lat="44.5624" lon="6.30431">
        <ele>1338.7</ele>
        <time>2021-07-16T07:43:30.457Z</time>
      </trkpt>
      <trkpt lat="44.56249" lon="6.30428">
        <ele>1338</ele>
        <time>2021-07-16T07:43:33.582Z</time>
      </trkpt>
      <trkpt lat="44.56258" lon="6.30424">
        <ele>1340.4</ele>
        <time>2021-07-16T07:43:37.406Z</time>
      </trkpt>
      <trkpt lat="44.56265" lon="6.3042">
        <ele>1340.7</ele>
        <time>2021-07-16T07:43:40.537Z</time>
      </trkpt>
      <trkpt lat="44.56273" lon="6.30415">
        <ele>1339.8</ele>
        <time>2021-07-16T07:43:44.465Z</time>
      </trkpt>
      <trkpt lat="44.56283" lon="6.3041">
        <ele>1325.7</ele>
        <time>2021-07-16T07:43:48.605Z</time>
      </trkpt>
      <trkpt lat="44.56292" lon="6.30406">
        <ele>1335.8</ele>
        <time>2021-07-16T07:43:52.458Z</time>
      </trkpt>
      <trkpt lat="44.56299" lon="6.30401">
        <ele>1314.6</ele>
        <time>2021-07-16T07:43:56.434Z</time>
      </trkpt>
      <trkpt lat="44.56305" lon="6.30391">
        <ele>1336.2</ele>
        <time>2021-07-16T07:43:59.441Z</time>
      </trkpt>
      <trkpt lat="44.56311" lon="6.30385">
        <ele>1342.3</ele>
        <time>2021-07-16T07:44:02.457Z</time>
      </trkpt>
      <trkpt lat="44.56318" lon="6.30381">
        <ele>1346.1</ele>
        <time>2021-07-16T07:44:06.462Z</time>
      </trkpt>
      <trkpt lat="44.56323" lon="6.30376">
        <ele>1348.9</ele>
        <time>2021-07-16T07:44:09.942Z</time>
      </trkpt>
      <trkpt lat="44.56328" lon="6.3037">
        <ele>1350.4</ele>
        <time>2021-07-16T07:44:13.441Z</time>
      </trkpt>
      <trkpt lat="44.56332" lon="6.30365">
        <ele>1351.2</ele>
        <time>2021-07-16T07:44:16.466Z</time>
      </trkpt>
      <trkpt lat="44.56338" lon="6.30358">
        <ele>1352.8</ele>
        <time>2021-07-16T07:44:20.462Z</time>
      </trkpt>
      <trkpt lat="44.56343" lon="6.30351">
        <ele>1352</ele>
        <time>2021-07-16T07:44:24.450Z</time>
      </trkpt>
      <trkpt lat="44.56349" lon="6.30345">
        <ele>1353.3</ele>
        <time>2021-07-16T07:44:27.584Z</time>
      </trkpt>
      <trkpt lat="44.56355" lon="6.30338">
        <ele>1350</ele>
        <time>2021-07-16T07:44:30.878Z</time>
      </trkpt>
      <trkpt lat="44.5636" lon="6.30331">
        <ele>1354.1</ele>
        <time>2021-07-16T07:44:34.460Z</time>
      </trkpt>
      <trkpt lat="44.56366" lon="6.3032">
        <ele>1353.9</ele>
        <time>2021-07-16T07:44:38.454Z</time>
      </trkpt>
      <trkpt lat="44.56373" lon="6.30309">
        <ele>1355.5</ele>
        <time>2021-07-16T07:44:42.429Z</time>
      </trkpt>
      <trkpt lat="44.56376" lon="6.30304">
        <ele>1358</ele>
        <time>2021-07-16T07:44:46.062Z</time>
      </trkpt>
      <trkpt lat="44.56381" lon="6.30297">
        <ele>1358.5</ele>
        <time>2021-07-16T07:44:49.728Z</time>
      </trkpt>
      <trkpt lat="44.5639" lon="6.30289">
        <ele>1359.6</ele>
        <time>2021-07-16T07:44:53.465Z</time>
      </trkpt>
      <trkpt lat="44.564" lon="6.30284">
        <ele>1358.6</ele>
        <time>2021-07-16T07:44:57.460Z</time>
      </trkpt>
      <trkpt lat="44.56407" lon="6.30281">
        <ele>1359.1</ele>
        <time>2021-07-16T07:45:00.467Z</time>
      </trkpt>
      <trkpt lat="44.56416" lon="6.30277">
        <ele>1358.5</ele>
        <time>2021-07-16T07:45:04.435Z</time>
      </trkpt>
      <trkpt lat="44.56424" lon="6.30273">
        <ele>924.2</ele>
        <time>2021-07-16T07:45:08.462Z</time>
      </trkpt>
      <trkpt lat="44.56432" lon="6.30269">
        <ele>924.2</ele>
        <time>2021-07-16T07:45:11.525Z</time>
      </trkpt>
      <trkpt lat="44.56443" lon="6.30264">
        <ele>924.2</ele>
        <time>2021-07-16T07:45:15.459Z</time>
      </trkpt>
      <trkpt lat="44.56451" lon="6.30261">
        <ele>924.3</ele>
        <time>2021-07-16T07:45:18.464Z</time>
      </trkpt>
      <trkpt lat="44.56463" lon="6.30257">
        <ele>924.2</ele>
        <time>2021-07-16T07:45:22.471Z</time>
      </trkpt>
      <trkpt lat="44.56475" lon="6.30253">
        <ele>924.2</ele>
        <time>2021-07-16T07:45:26.506Z</time>
      </trkpt>
      <trkpt lat="44.56487" lon="6.30249">
        <ele>924.3</ele>
        <time>2021-07-16T07:45:30.447Z</time>
      </trkpt>
      <trkpt lat="44.56498" lon="6.30245">
        <ele>924.4</ele>
        <time>2021-07-16T07:45:33.878Z</time>
      </trkpt>
      <trkpt lat="44.56509" lon="6.3024">
        <ele>924.4</ele>
        <time>2021-07-16T07:45:37.446Z</time>
      </trkpt>
      <trkpt lat="44.56517" lon="6.30234">
        <ele>924.5</ele>
        <time>2021-07-16T07:45:40.467Z</time>
      </trkpt>
      <trkpt lat="44.56522" lon="6.30222">
        <ele>924.4</ele>
        <time>2021-07-16T07:45:44.455Z</time>
      </trkpt>
      <trkpt lat="44.56524" lon="6.30213">
        <ele>925.1</ele>
        <time>2021-07-16T07:45:47.508Z</time>
      </trkpt>
      <trkpt lat="44.56526" lon="6.30201">
        <ele>925.5</ele>
        <time>2021-07-16T07:45:51.352Z</time>
      </trkpt>
      <trkpt lat="44.5653" lon="6.30192">
        <ele>925.6</ele>
        <time>2021-07-16T07:45:54.461Z</time>
      </trkpt>
      <trkpt lat="44.56534" lon="6.30182">
        <ele>925.7</ele>
        <time>2021-07-16T07:45:58.517Z</time>
      </trkpt>
      <trkpt lat="44.56538" lon="6.30174">
        <ele>926.5</ele>
        <time>2021-07-16T07:46:02.492Z</time>
      </trkpt>
      <trkpt lat="44.56542" lon="6.30162">
        <ele>927</ele>
        <time>2021-07-16T07:46:06.897Z</time>
      </trkpt>
      <trkpt lat="44.5655" lon="6.30151">
        <ele>927.1</ele>
        <time>2021-07-16T07:46:12.000Z</time>
      </trkpt>
      <trkpt lat="44.56556" lon="6.30147">
        <ele>1370.5</ele>
        <time>2021-07-16T07:46:15.000Z</time>
      </trkpt>
      <trkpt lat="44.56563" lon="6.30143">
        <ele>1369.7</ele>
        <time>2021-07-16T07:46:18.241Z</time>
      </trkpt>
      <trkpt lat="44.5657" lon="6.3014">
        <ele>1371.6</ele>
        <time>2021-07-16T07:46:21.464Z</time>
      </trkpt>
      <trkpt lat="44.56569" lon="6.30148">
        <ele>1375</ele>
        <time>2021-07-16T07:46:24.973Z</time>
      </trkpt>
      <trkpt lat="44.56565" lon="6.30154">
        <ele>1378.2</ele>
        <time>2021-07-16T07:46:28.119Z</time>
      </trkpt>
      <trkpt lat="44.56562" lon="6.30169">
        <ele>1379.4</ele>
        <time>2021-07-16T07:46:32.460Z</time>
      </trkpt>
      <trkpt lat="44.5656" lon="6.30176">
        <ele>1380.7</ele>
        <time>2021-07-16T07:46:35.494Z</time>
      </trkpt>
      <trkpt lat="44.56555" lon="6.30186">
        <ele>1383</ele>
        <time>2021-07-16T07:46:39.090Z</time>
      </trkpt>
      <trkpt lat="44.56551" lon="6.30205">
        <ele>1383.3</ele>
        <time>2021-07-16T07:46:46.466Z</time>
      </trkpt>
      <trkpt lat="44.56551" lon="6.3022">
        <ele>1383.3</ele>
        <time>2021-07-16T07:46:50.456Z</time>
      </trkpt>
      <trkpt lat="44.56551" lon="6.30227">
        <ele>1384.9</ele>
        <time>2021-07-16T07:46:53.465Z</time>
      </trkpt>
      <trkpt lat="44.56549" lon="6.30236">
        <ele>1385.9</ele>
        <time>2021-07-16T07:46:56.505Z</time>
      </trkpt>
      <trkpt lat="44.56542" lon="6.30248">
        <ele>1386.6</ele>
        <time>2021-07-16T07:47:00.463Z</time>
      </trkpt>
      <trkpt lat="44.56539" lon="6.30257">
        <ele>1388.5</ele>
        <time>2021-07-16T07:47:03.462Z</time>
      </trkpt>
      <trkpt lat="44.56533" lon="6.30266">
        <ele>1391.3</ele>
        <time>2021-07-16T07:47:06.465Z</time>
      </trkpt>
      <trkpt lat="44.56526" lon="6.30272">
        <ele>1389.4</ele>
        <time>2021-07-16T07:47:09.512Z</time>
      </trkpt>
      <trkpt lat="44.56518" lon="6.30283">
        <ele>1383.9</ele>
        <time>2021-07-16T07:47:13.456Z</time>
      </trkpt>
      <trkpt lat="44.56512" lon="6.30295">
        <ele>1383.7</ele>
        <time>2021-07-16T07:47:17.461Z</time>
      </trkpt>
      <trkpt lat="44.56506" lon="6.30302">
        <ele>1364.5</ele>
        <time>2021-07-16T07:47:20.497Z</time>
      </trkpt>
      <trkpt lat="44.56498" lon="6.30312">
        <ele>1373.8</ele>
        <time>2021-07-16T07:47:24.464Z</time>
      </trkpt>
      <trkpt lat="44.56493" lon="6.3032">
        <ele>1381.5</ele>
        <time>2021-07-16T07:47:28.463Z</time>
      </trkpt>
      <trkpt lat="44.5649" lon="6.30329">
        <ele>1384.6</ele>
        <time>2021-07-16T07:47:32.512Z</time>
      </trkpt>
      <trkpt lat="44.56484" lon="6.30342">
        <ele>1386.1</ele>
        <time>2021-07-16T07:47:36.184Z</time>
      </trkpt>
      <trkpt lat="44.56481" lon="6.30354">
        <ele>1388.2</ele>
        <time>2021-07-16T07:47:39.458Z</time>
      </trkpt>
      <trkpt lat="44.56477" lon="6.30363">
        <ele>1391.3</ele>
        <time>2021-07-16T07:47:42.765Z</time>
      </trkpt>
      <trkpt lat="44.56476" lon="6.30375">
        <ele>1270.6</ele>
        <time>2021-07-16T07:47:46.506Z</time>
      </trkpt>
      <trkpt lat="44.56474" lon="6.30387">
        <ele>1343.2</ele>
        <time>2021-07-16T07:47:50.467Z</time>
      </trkpt>
      <trkpt lat="44.56472" lon="6.30399">
        <ele>1367.9</ele>
        <time>2021-07-16T07:47:53.497Z</time>
      </trkpt>
      <trkpt lat="44.56471" lon="6.30416">
        <ele>1389.2</ele>
        <time>2021-07-16T07:47:57.676Z</time>
      </trkpt>
      <trkpt lat="44.5647" lon="6.30427">
        <ele>1391.2</ele>
        <time>2021-07-16T07:48:01.094Z</time>
      </trkpt>
      <trkpt lat="44.56469" lon="6.30439">
        <ele>1389.4</ele>
        <time>2021-07-16T07:48:04.460Z</time>
      </trkpt>
      <trkpt lat="44.56469" lon="6.30451">
        <ele>1393.8</ele>
        <time>2021-07-16T07:48:07.665Z</time>
      </trkpt>
      <trkpt lat="44.56469" lon="6.30464">
        <ele>1395.5</ele>
        <time>2021-07-16T07:48:11.450Z</time>
      </trkpt>
      <trkpt lat="44.56467" lon="6.30475">
        <ele>1395.5</ele>
        <time>2021-07-16T07:48:14.457Z</time>
      </trkpt>
      <trkpt lat="44.56463" lon="6.30489">
        <ele>1395.2</ele>
        <time>2021-07-16T07:48:18.450Z</time>
      </trkpt>
      <trkpt lat="44.56459" lon="6.30503">
        <ele>1395.5</ele>
        <time>2021-07-16T07:48:21.962Z</time>
      </trkpt>
      <trkpt lat="44.56454" lon="6.30512">
        <ele>1396.4</ele>
        <time>2021-07-16T07:48:25.138Z</time>
      </trkpt>
      <trkpt lat="44.56448" lon="6.30521">
        <ele>1395.5</ele>
        <time>2021-07-16T07:48:28.453Z</time>
      </trkpt>
      <trkpt lat="44.56439" lon="6.30529">
        <ele>1393.3</ele>
        <time>2021-07-16T07:48:32.458Z</time>
      </trkpt>
      <trkpt lat="44.56432" lon="6.30541">
        <ele>1394.3</ele>
        <time>2021-07-16T07:48:36.467Z</time>
      </trkpt>
      <trkpt lat="44.56427" lon="6.30555">
        <ele>1395.6</ele>
        <time>2021-07-16T07:48:40.466Z</time>
      </trkpt>
      <trkpt lat="44.56425" lon="6.30571">
        <ele>1395.9</ele>
        <time>2021-07-16T07:48:44.219Z</time>
      </trkpt>
      <trkpt lat="44.56424" lon="6.30583">
        <ele>1397.1</ele>
        <time>2021-07-16T07:48:47.467Z</time>
      </trkpt>
      <trkpt lat="44.56422" lon="6.30596">
        <ele>1353</ele>
        <time>2021-07-16T07:48:51.498Z</time>
      </trkpt>
      <trkpt lat="44.56421" lon="6.30607">
        <ele>1381.9</ele>
        <time>2021-07-16T07:48:54.603Z</time>
      </trkpt>
      <trkpt lat="44.56421" lon="6.3062">
        <ele>1392.3</ele>
        <time>2021-07-16T07:48:58.488Z</time>
      </trkpt>
      <trkpt lat="44.56419" lon="6.30633">
        <ele>1397.6</ele>
        <time>2021-07-16T07:49:02.464Z</time>
      </trkpt>
      <trkpt lat="44.56417" lon="6.3064">
        <ele>1397.8</ele>
        <time>2021-07-16T07:49:05.496Z</time>
      </trkpt>
      <trkpt lat="44.56415" lon="6.30647">
        <ele>1398.5</ele>
        <time>2021-07-16T07:49:09.462Z</time>
      </trkpt>
      <trkpt lat="44.56411" lon="6.30654">
        <ele>1399.5</ele>
        <time>2021-07-16T07:49:12.576Z</time>
      </trkpt>
      <trkpt lat="44.56407" lon="6.30668">
        <ele>1399.8</ele>
        <time>2021-07-16T07:49:16.595Z</time>
      </trkpt>
      <trkpt lat="44.56403" lon="6.3068">
        <ele>1401.8</ele>
        <time>2021-07-16T07:49:20.453Z</time>
      </trkpt>
      <trkpt lat="44.56401" lon="6.30689">
        <ele>1399.7</ele>
        <time>2021-07-16T07:49:23.453Z</time>
      </trkpt>
      <trkpt lat="44.56399" lon="6.30704">
        <ele>1406.8</ele>
        <time>2021-07-16T07:49:27.503Z</time>
      </trkpt>
      <trkpt lat="44.56398" lon="6.30715">
        <ele>1407.4</ele>
        <time>2021-07-16T07:49:31.072Z</time>
      </trkpt>
      <trkpt lat="44.56397" lon="6.30726">
        <ele>1408.6</ele>
        <time>2021-07-16T07:49:34.147Z</time>
      </trkpt>
      <trkpt lat="44.56395" lon="6.30735">
        <ele>1412.4</ele>
        <time>2021-07-16T07:49:37.484Z</time>
      </trkpt>
      <trkpt lat="44.56394" lon="6.30742">
        <ele>1413.3</ele>
        <time>2021-07-16T07:49:40.505Z</time>
      </trkpt>
      <trkpt lat="44.56393" lon="6.30753">
        <ele>1413.9</ele>
        <time>2021-07-16T07:49:44.454Z</time>
      </trkpt>
      <trkpt lat="44.56391" lon="6.30761">
        <ele>1413.7</ele>
        <time>2021-07-16T07:49:47.459Z</time>
      </trkpt>
      <trkpt lat="44.5639" lon="6.30769">
        <ele>1417.9</ele>
        <time>2021-07-16T07:49:50.461Z</time>
      </trkpt>
      <trkpt lat="44.56388" lon="6.3078">
        <ele>1417.4</ele>
        <time>2021-07-16T07:49:53.511Z</time>
      </trkpt>
      <trkpt lat="44.56386" lon="6.30792">
        <ele>1417.5</ele>
        <time>2021-07-16T07:49:57.461Z</time>
      </trkpt>
      <trkpt lat="44.56383" lon="6.30806">
        <ele>1418</ele>
        <time>2021-07-16T07:50:01.452Z</time>
      </trkpt>
      <trkpt lat="44.56379" lon="6.30819">
        <ele>1418.1</ele>
        <time>2021-07-16T07:50:05.486Z</time>
      </trkpt>
      <trkpt lat="44.56376" lon="6.3083">
        <ele>1418.8</ele>
        <time>2021-07-16T07:50:08.490Z</time>
      </trkpt>
      <trkpt lat="44.56375" lon="6.30839">
        <ele>1423.4</ele>
        <time>2021-07-16T07:50:11.532Z</time>
      </trkpt>
      <trkpt lat="44.56372" lon="6.30851">
        <ele>1423.4</ele>
        <time>2021-07-16T07:50:15.457Z</time>
      </trkpt>
      <trkpt lat="44.5637" lon="6.30858">
        <ele>1424.2</ele>
        <time>2021-07-16T07:50:19.464Z</time>
      </trkpt>
      <trkpt lat="44.5637" lon="6.30871">
        <ele>1425.2</ele>
        <time>2021-07-16T07:50:23.500Z</time>
      </trkpt>
      <trkpt lat="44.56367" lon="6.30883">
        <ele>1427.4</ele>
        <time>2021-07-16T07:50:27.454Z</time>
      </trkpt>
      <trkpt lat="44.56366" lon="6.3089">
        <ele>1428.8</ele>
        <time>2021-07-16T07:50:30.949Z</time>
      </trkpt>
      <trkpt lat="44.56363" lon="6.30897">
        <ele>1428.3</ele>
        <time>2021-07-16T07:50:34.508Z</time>
      </trkpt>
      <trkpt lat="44.56364" lon="6.30905">
        <ele>1428.9</ele>
        <time>2021-07-16T07:50:37.515Z</time>
      </trkpt>
      <trkpt lat="44.56364" lon="6.30918">
        <ele>1433.8</ele>
        <time>2021-07-16T07:50:41.460Z</time>
      </trkpt>
      <trkpt lat="44.56364" lon="6.30929">
        <ele>1436</ele>
        <time>2021-07-16T07:50:44.463Z</time>
      </trkpt>
      <trkpt lat="44.56363" lon="6.30942">
        <ele>1434.9</ele>
        <time>2021-07-16T07:50:48.450Z</time>
      </trkpt>
      <trkpt lat="44.56363" lon="6.30954">
        <ele>1434.5</ele>
        <time>2021-07-16T07:50:51.544Z</time>
      </trkpt>
      <trkpt lat="44.56362" lon="6.30963">
        <ele>1437.3</ele>
        <time>2021-07-16T07:50:55.265Z</time>
      </trkpt>
      <trkpt lat="44.5636" lon="6.30972">
        <ele>1438.7</ele>
        <time>2021-07-16T07:50:58.280Z</time>
      </trkpt>
      <trkpt lat="44.56358" lon="6.30979">
        <ele>1422.3</ele>
        <time>2021-07-16T07:51:01.439Z</time>
      </trkpt>
      <trkpt lat="44.56355" lon="6.30991">
        <ele>1435</ele>
        <time>2021-07-16T07:51:05.438Z</time>
      </trkpt>
      <trkpt lat="44.56354" lon="6.31003">
        <ele>1438.9</ele>
        <time>2021-07-16T07:51:08.461Z</time>
      </trkpt>
      <trkpt lat="44.56355" lon="6.31014">
        <ele>1441.7</ele>
        <time>2021-07-16T07:51:11.468Z</time>
      </trkpt>
      <trkpt lat="44.56354" lon="6.3103">
        <ele>1441.7</ele>
        <time>2021-07-16T07:51:15.454Z</time>
      </trkpt>
      <trkpt lat="44.56353" lon="6.31043">
        <ele>1441.5</ele>
        <time>2021-07-16T07:51:18.665Z</time>
      </trkpt>
      <trkpt lat="44.56352" lon="6.31058">
        <ele>1442.3</ele>
        <time>2021-07-16T07:51:22.454Z</time>
      </trkpt>
      <trkpt lat="44.56352" lon="6.31067">
        <ele>1442.4</ele>
        <time>2021-07-16T07:51:25.456Z</time>
      </trkpt>
      <trkpt lat="44.56355" lon="6.31076">
        <ele>1443.6</ele>
        <time>2021-07-16T07:51:28.461Z</time>
      </trkpt>
      <trkpt lat="44.56363" lon="6.3108">
        <ele>1442.4</ele>
        <time>2021-07-16T07:51:32.462Z</time>
      </trkpt>
      <trkpt lat="44.5637" lon="6.31077">
        <ele>1438.2</ele>
        <time>2021-07-16T07:51:35.510Z</time>
      </trkpt>
      <trkpt lat="44.56377" lon="6.31071">
        <ele>1440.2</ele>
        <time>2021-07-16T07:51:39.459Z</time>
      </trkpt>
      <trkpt lat="44.56374" lon="6.3106">
        <ele>1441.3</ele>
        <time>2021-07-16T07:51:50.472Z</time>
      </trkpt>
      <trkpt lat="44.56373" lon="6.31068">
        <ele>1438.9</ele>
        <time>2021-07-16T07:52:06.000Z</time>
      </trkpt>
      <trkpt lat="44.56379" lon="6.31061">
        <ele>1443.1</ele>
        <time>2021-07-16T07:52:44.459Z</time>
      </trkpt>
      <trkpt lat="44.56384" lon="6.31057">
        <ele>1445.4</ele>
        <time>2021-07-16T07:52:47.763Z</time>
      </trkpt>
      <trkpt lat="44.56393" lon="6.31041">
        <ele>1444.4</ele>
        <time>2021-07-16T07:52:51.485Z</time>
      </trkpt>
      <trkpt lat="44.56398" lon="6.31036">
        <ele>1447.1</ele>
        <time>2021-07-16T07:52:54.736Z</time>
      </trkpt>
      <trkpt lat="44.56402" lon="6.31027">
        <ele>1446.1</ele>
        <time>2021-07-16T07:52:58.457Z</time>
      </trkpt>
      <trkpt lat="44.56406" lon="6.31019">
        <ele>1442</ele>
        <time>2021-07-16T07:53:01.506Z</time>
      </trkpt>
      <trkpt lat="44.56412" lon="6.31011">
        <ele>1443.1</ele>
        <time>2021-07-16T07:53:05.450Z</time>
      </trkpt>
      <trkpt lat="44.5642" lon="6.31002">
        <ele>1443.2</ele>
        <time>2021-07-16T07:53:09.497Z</time>
      </trkpt>
      <trkpt lat="44.56425" lon="6.30991">
        <ele>1443.4</ele>
        <time>2021-07-16T07:53:12.582Z</time>
      </trkpt>
      <trkpt lat="44.56431" lon="6.3098">
        <ele>1445</ele>
        <time>2021-07-16T07:53:16.281Z</time>
      </trkpt>
      <trkpt lat="44.56439" lon="6.30966">
        <ele>1448.2</ele>
        <time>2021-07-16T07:53:20.454Z</time>
      </trkpt>
      <trkpt lat="44.56445" lon="6.30956">
        <ele>1448.8</ele>
        <time>2021-07-16T07:53:23.458Z</time>
      </trkpt>
      <trkpt lat="44.56451" lon="6.30944">
        <ele>1450.8</ele>
        <time>2021-07-16T07:53:27.467Z</time>
      </trkpt>
      <trkpt lat="44.56459" lon="6.30944">
        <ele>1449.9</ele>
        <time>2021-07-16T07:53:30.503Z</time>
      </trkpt>
      <trkpt lat="44.56467" lon="6.30951">
        <ele>1451.6</ele>
        <time>2021-07-16T07:53:33.987Z</time>
      </trkpt>
      <trkpt lat="44.5647" lon="6.30966">
        <ele>1455.3</ele>
        <time>2021-07-16T07:53:40.635Z</time>
      </trkpt>
      <trkpt lat="44.56471" lon="6.30975">
        <ele>1454.8</ele>
        <time>2021-07-16T07:53:44.504Z</time>
      </trkpt>
      <trkpt lat="44.56472" lon="6.30984">
        <ele>1455.8</ele>
        <time>2021-07-16T07:53:47.507Z</time>
      </trkpt>
      <trkpt lat="44.5647" lon="6.30995">
        <ele>1457.2</ele>
        <time>2021-07-16T07:53:51.465Z</time>
      </trkpt>
      <trkpt lat="44.56467" lon="6.31002">
        <ele>1458</ele>
        <time>2021-07-16T07:53:55.464Z</time>
      </trkpt>
      <trkpt lat="44.56465" lon="6.31009">
        <ele>1458.9</ele>
        <time>2021-07-16T07:53:58.485Z</time>
      </trkpt>
      <trkpt lat="44.56461" lon="6.31017">
        <ele>1459.8</ele>
        <time>2021-07-16T07:54:02.057Z</time>
      </trkpt>
      <trkpt lat="44.56458" lon="6.31027">
        <ele>1457.5</ele>
        <time>2021-07-16T07:54:05.466Z</time>
      </trkpt>
      <trkpt lat="44.56452" lon="6.3104">
        <ele>1456.2</ele>
        <time>2021-07-16T07:54:09.438Z</time>
      </trkpt>
      <trkpt lat="44.56451" lon="6.31047">
        <ele>1456.8</ele>
        <time>2021-07-16T07:54:12.738Z</time>
      </trkpt>
      <trkpt lat="44.56449" lon="6.3106">
        <ele>1457</ele>
        <time>2021-07-16T07:54:16.461Z</time>
      </trkpt>
      <trkpt lat="44.56449" lon="6.31079">
        <ele>1459.6</ele>
        <time>2021-07-16T07:54:20.465Z</time>
      </trkpt>
      <trkpt lat="44.56449" lon="6.31095">
        <ele>1440.7</ele>
        <time>2021-07-16T07:54:24.043Z</time>
      </trkpt>
      <trkpt lat="44.56446" lon="6.31107">
        <ele>1447.8</ele>
        <time>2021-07-16T07:54:27.159Z</time>
      </trkpt>
      <trkpt lat="44.56442" lon="6.31123">
        <ele>1450.2</ele>
        <time>2021-07-16T07:54:30.457Z</time>
      </trkpt>
      <trkpt lat="44.56441" lon="6.31134">
        <ele>1452.6</ele>
        <time>2021-07-16T07:54:33.468Z</time>
      </trkpt>
      <trkpt lat="44.56437" lon="6.31146">
        <ele>1452.8</ele>
        <time>2021-07-16T07:54:36.864Z</time>
      </trkpt>
      <trkpt lat="44.56435" lon="6.31157">
        <ele>1455.1</ele>
        <time>2021-07-16T07:54:40.166Z</time>
      </trkpt>
      <trkpt lat="44.56432" lon="6.31168">
        <ele>1404</ele>
        <time>2021-07-16T07:54:43.378Z</time>
      </trkpt>
      <trkpt lat="44.56428" lon="6.31179">
        <ele>1434.5</ele>
        <time>2021-07-16T07:54:46.438Z</time>
      </trkpt>
      <trkpt lat="44.56424" lon="6.31188">
        <ele>1447.1</ele>
        <time>2021-07-16T07:54:49.513Z</time>
      </trkpt>
      <trkpt lat="44.56421" lon="6.31196">
        <ele>1454.1</ele>
        <time>2021-07-16T07:54:53.458Z</time>
      </trkpt>
      <trkpt lat="44.56416" lon="6.31205">
        <ele>1456.7</ele>
        <time>2021-07-16T07:54:57.000Z</time>
      </trkpt>
      <trkpt lat="44.5641" lon="6.31217">
        <ele>1458.4</ele>
        <time>2021-07-16T07:54:59.500Z</time>
      </trkpt>
      <trkpt lat="44.56402" lon="6.3123">
        <ele>1460.4</ele>
        <time>2021-07-16T07:55:03.465Z</time>
      </trkpt>
      <trkpt lat="44.56398" lon="6.31242">
        <ele>1462.5</ele>
        <time>2021-07-16T07:55:07.461Z</time>
      </trkpt>
      <trkpt lat="44.56396" lon="6.31249">
        <ele>1466.2</ele>
        <time>2021-07-16T07:55:10.464Z</time>
      </trkpt>
      <trkpt lat="44.56395" lon="6.3126">
        <ele>1468.1</ele>
        <time>2021-07-16T07:55:14.461Z</time>
      </trkpt>
      <trkpt lat="44.56393" lon="6.31269">
        <ele>1468.7</ele>
        <time>2021-07-16T07:55:17.543Z</time>
      </trkpt>
      <trkpt lat="44.56388" lon="6.31282">
        <ele>1469.6</ele>
        <time>2021-07-16T07:55:21.461Z</time>
      </trkpt>
      <trkpt lat="44.56384" lon="6.31295">
        <ele>1471.5</ele>
        <time>2021-07-16T07:55:25.465Z</time>
      </trkpt>
      <trkpt lat="44.56381" lon="6.31308">
        <ele>1474.8</ele>
        <time>2021-07-16T07:55:29.447Z</time>
      </trkpt>
      <trkpt lat="44.5638" lon="6.31319">
        <ele>1474.7</ele>
        <time>2021-07-16T07:55:32.496Z</time>
      </trkpt>
      <trkpt lat="44.56378" lon="6.31333">
        <ele>1476.1</ele>
        <time>2021-07-16T07:55:36.109Z</time>
      </trkpt>
      <trkpt lat="44.56378" lon="6.31343">
        <ele>1476.8</ele>
        <time>2021-07-16T07:55:39.457Z</time>
      </trkpt>
      <trkpt lat="44.56379" lon="6.31353">
        <ele>1477.9</ele>
        <time>2021-07-16T07:55:42.463Z</time>
      </trkpt>
      <trkpt lat="44.56378" lon="6.31363">
        <ele>1477</ele>
        <time>2021-07-16T07:55:45.524Z</time>
      </trkpt>
      <trkpt lat="44.56376" lon="6.31376">
        <ele>1476.2</ele>
        <time>2021-07-16T07:55:49.462Z</time>
      </trkpt>
      <trkpt lat="44.56378" lon="6.31391">
        <ele>1475.9</ele>
        <time>2021-07-16T07:55:53.455Z</time>
      </trkpt>
      <trkpt lat="44.56385" lon="6.31401">
        <ele>1446.4</ele>
        <time>2021-07-16T07:55:56.539Z</time>
      </trkpt>
      <trkpt lat="44.56392" lon="6.31409">
        <ele>1466.3</ele>
        <time>2021-07-16T07:56:00.509Z</time>
      </trkpt>
      <trkpt lat="44.56402" lon="6.31419">
        <ele>1470</ele>
        <time>2021-07-16T07:56:04.454Z</time>
      </trkpt>
      <trkpt lat="44.56414" lon="6.31426">
        <ele>1472.8</ele>
        <time>2021-07-16T07:56:07.464Z</time>
      </trkpt>
      <trkpt lat="44.56429" lon="6.31432">
        <ele>1470.4</ele>
        <time>2021-07-16T07:56:11.463Z</time>
      </trkpt>
      <trkpt lat="44.5644" lon="6.3143">
        <ele>1473.8</ele>
        <time>2021-07-16T07:56:14.625Z</time>
      </trkpt>
      <trkpt lat="44.56458" lon="6.31437">
        <ele>1472.6</ele>
        <time>2021-07-16T07:56:18.179Z</time>
      </trkpt>
      <trkpt lat="44.56479" lon="6.31442">
        <ele>1474.3</ele>
        <time>2021-07-16T07:56:22.000Z</time>
      </trkpt>
      <trkpt lat="44.56493" lon="6.31441">
        <ele>1474.5</ele>
        <time>2021-07-16T07:56:25.345Z</time>
      </trkpt>
      <trkpt lat="44.56503" lon="6.31447">
        <ele>1456.3</ele>
        <time>2021-07-16T07:56:28.935Z</time>
      </trkpt>
      <trkpt lat="44.5652" lon="6.31456">
        <ele>1466.2</ele>
        <time>2021-07-16T07:56:33.000Z</time>
      </trkpt>
      <trkpt lat="44.56526" lon="6.31472">
        <ele>1467.8</ele>
        <time>2021-07-16T07:56:35.848Z</time>
      </trkpt>
      <trkpt lat="44.56529" lon="6.31484">
        <ele>1469</ele>
        <time>2021-07-16T07:56:39.032Z</time>
      </trkpt>
      <trkpt lat="44.56537" lon="6.31483">
        <ele>1476</ele>
        <time>2021-07-16T07:57:23.000Z</time>
      </trkpt>
      <trkpt lat="44.56545" lon="6.31482">
        <ele>1476</ele>
        <time>2021-07-16T07:57:26.000Z</time>
      </trkpt>
      <trkpt lat="44.56553" lon="6.31481">
        <ele>1474.8</ele>
        <time>2021-07-16T07:57:29.000Z</time>
      </trkpt>
      <trkpt lat="44.56558" lon="6.31476">
        <ele>1475.2</ele>
        <time>2021-07-16T07:57:32.000Z</time>
      </trkpt>
      <trkpt lat="44.56562" lon="6.31467">
        <ele>1476.9</ele>
        <time>2021-07-16T07:57:36.000Z</time>
      </trkpt>
      <trkpt lat="44.56567" lon="6.3145">
        <ele>1479.7</ele>
        <time>2021-07-16T07:57:43.000Z</time>
      </trkpt>
      <trkpt lat="44.56568" lon="6.31441">
        <ele>1479.6</ele>
        <time>2021-07-16T07:57:45.552Z</time>
      </trkpt>
      <trkpt lat="44.56568" lon="6.3143">
        <ele>1480.6</ele>
        <time>2021-07-16T07:57:50.000Z</time>
      </trkpt>
      <trkpt lat="44.56571" lon="6.31437">
        <ele>1482</ele>
        <time>2021-07-16T07:58:30.000Z</time>
      </trkpt>
      <trkpt lat="44.5657" lon="6.31461">
        <ele>1480.1</ele>
        <time>2021-07-16T07:58:36.000Z</time>
      </trkpt>
      <trkpt lat="44.56552" lon="6.31487">
        <ele>1476.6</ele>
        <time>2021-07-16T07:58:42.000Z</time>
      </trkpt>
      <trkpt lat="44.5653" lon="6.31494">
        <ele>1479.6</ele>
        <time>2021-07-16T07:58:48.000Z</time>
      </trkpt>
      <trkpt lat="44.56525" lon="6.31493">
        <ele>1480.4</ele>
        <time>2021-07-16T07:58:51.000Z</time>
      </trkpt>
      <trkpt lat="44.56518" lon="6.31501">
        <ele>1475.4</ele>
        <time>2021-07-16T07:58:57.000Z</time>
      </trkpt>
      <trkpt lat="44.56514" lon="6.3151">
        <ele>1471.1</ele>
        <time>2021-07-16T07:58:59.484Z</time>
      </trkpt>
      <trkpt lat="44.56505" lon="6.3152">
        <ele>1472.9</ele>
        <time>2021-07-16T07:59:06.000Z</time>
      </trkpt>
      <trkpt lat="44.56495" lon="6.31526">
        <ele>1455.1</ele>
        <time>2021-07-16T07:59:12.000Z</time>
      </trkpt>
      <trkpt lat="44.56481" lon="6.31545">
        <ele>1466.7</ele>
        <time>2021-07-16T07:59:18.000Z</time>
      </trkpt>
      <trkpt lat="44.56482" lon="6.3156">
        <ele>1471.2</ele>
        <time>2021-07-16T07:59:24.000Z</time>
      </trkpt>
      <trkpt lat="44.56492" lon="6.3157">
        <ele>1474.9</ele>
        <time>2021-07-16T07:59:30.000Z</time>
      </trkpt>
      <trkpt lat="44.56501" lon="6.3158">
        <ele>1478.1</ele>
        <time>2021-07-16T07:59:36.000Z</time>
      </trkpt>
      <trkpt lat="44.56504" lon="6.31586">
        <ele>1478.4</ele>
        <time>2021-07-16T07:59:39.000Z</time>
      </trkpt>
      <trkpt lat="44.56505" lon="6.31607">
        <ele>1481.9</ele>
        <time>2021-07-16T07:59:45.000Z</time>
      </trkpt>
      <trkpt lat="44.56506" lon="6.31618">
        <ele>1481.2</ele>
        <time>2021-07-16T07:59:48.000Z</time>
      </trkpt>
      <trkpt lat="44.56506" lon="6.31626">
        <ele>1481.3</ele>
        <time>2021-07-16T07:59:51.000Z</time>
      </trkpt>
      <trkpt lat="44.56508" lon="6.31637">
        <ele>1481.9</ele>
        <time>2021-07-16T07:59:54.000Z</time>
      </trkpt>
      <trkpt lat="44.5651" lon="6.31647">
        <ele>1482.3</ele>
        <time>2021-07-16T07:59:56.526Z</time>
      </trkpt>
      <trkpt lat="44.56514" lon="6.31666">
        <ele>1481.9</ele>
        <time>2021-07-16T08:00:03.000Z</time>
      </trkpt>
      <trkpt lat="44.56513" lon="6.31674">
        <ele>1482</ele>
        <time>2021-07-16T08:00:05.446Z</time>
      </trkpt>
      <trkpt lat="44.56511" lon="6.31683">
        <ele>1480.9</ele>
        <time>2021-07-16T08:00:08.457Z</time>
      </trkpt>
      <trkpt lat="44.56511" lon="6.31694">
        <ele>1481.9</ele>
        <time>2021-07-16T08:00:11.469Z</time>
      </trkpt>
      <trkpt lat="44.56509" lon="6.3171">
        <ele>1482.7</ele>
        <time>2021-07-16T08:00:15.452Z</time>
      </trkpt>
      <trkpt lat="44.56505" lon="6.31722">
        <ele>1484.1</ele>
        <time>2021-07-16T08:00:19.012Z</time>
      </trkpt>
      <trkpt lat="44.56503" lon="6.31734">
        <ele>1482.5</ele>
        <time>2021-07-16T08:00:22.095Z</time>
      </trkpt>
      <trkpt lat="44.56498" lon="6.3175">
        <ele>1483.1</ele>
        <time>2021-07-16T08:00:25.769Z</time>
      </trkpt>
      <trkpt lat="44.56493" lon="6.31761">
        <ele>1483.4</ele>
        <time>2021-07-16T08:00:29.466Z</time>
      </trkpt>
      <trkpt lat="44.56488" lon="6.31768">
        <ele>1490.2</ele>
        <time>2021-07-16T08:00:33.466Z</time>
      </trkpt>
      <trkpt lat="44.56477" lon="6.31775">
        <ele>1493.3</ele>
        <time>2021-07-16T08:00:40.270Z</time>
      </trkpt>
      <trkpt lat="44.56468" lon="6.31778">
        <ele>1496.7</ele>
        <time>2021-07-16T08:00:43.565Z</time>
      </trkpt>
      <trkpt lat="44.56458" lon="6.31777">
        <ele>1496.7</ele>
        <time>2021-07-16T08:00:47.465Z</time>
      </trkpt>
      <trkpt lat="44.56448" lon="6.31778">
        <ele>1495.5</ele>
        <time>2021-07-16T08:00:51.467Z</time>
      </trkpt>
      <trkpt lat="44.56437" lon="6.31778">
        <ele>1492.6</ele>
        <time>2021-07-16T08:00:55.470Z</time>
      </trkpt>
      <trkpt lat="44.5643" lon="6.31778">
        <ele>1493</ele>
        <time>2021-07-16T08:00:58.608Z</time>
      </trkpt>
      <trkpt lat="44.56423" lon="6.3178">
        <ele>1497.5</ele>
        <time>2021-07-16T08:01:03.000Z</time>
      </trkpt>
      <trkpt lat="44.56415" lon="6.31781">
        <ele>1497.6</ele>
        <time>2021-07-16T08:01:05.472Z</time>
      </trkpt>
      <trkpt lat="44.56406" lon="6.31781">
        <ele>1503</ele>
        <time>2021-07-16T08:01:09.447Z</time>
      </trkpt>
      <trkpt lat="44.56399" lon="6.31782">
        <ele>1500.3</ele>
        <time>2021-07-16T08:01:12.499Z</time>
      </trkpt>
      <trkpt lat="44.5639" lon="6.31784">
        <ele>1499</ele>
        <time>2021-07-16T08:01:15.752Z</time>
      </trkpt>
      <trkpt lat="44.56383" lon="6.31786">
        <ele>1498.5</ele>
        <time>2021-07-16T08:01:19.459Z</time>
      </trkpt>
      <trkpt lat="44.56377" lon="6.31788">
        <ele>1498.7</ele>
        <time>2021-07-16T08:01:22.595Z</time>
      </trkpt>
      <trkpt lat="44.56369" lon="6.31797">
        <ele>1498.7</ele>
        <time>2021-07-16T08:01:26.274Z</time>
      </trkpt>
      <trkpt lat="44.56362" lon="6.31804">
        <ele>1497</ele>
        <time>2021-07-16T08:01:29.459Z</time>
      </trkpt>
      <trkpt lat="44.56358" lon="6.31811">
        <ele>1497.1</ele>
        <time>2021-07-16T08:01:32.467Z</time>
      </trkpt>
      <trkpt lat="44.56353" lon="6.31823">
        <ele>1497.2</ele>
        <time>2021-07-16T08:01:36.502Z</time>
      </trkpt>
      <trkpt lat="44.56348" lon="6.31832">
        <ele>1496.7</ele>
        <time>2021-07-16T08:01:39.731Z</time>
      </trkpt>
      <trkpt lat="44.56344" lon="6.31844">
        <ele>1496.4</ele>
        <time>2021-07-16T08:01:43.375Z</time>
      </trkpt>
      <trkpt lat="44.56341" lon="6.31854">
        <ele>1493.7</ele>
        <time>2021-07-16T08:01:47.052Z</time>
      </trkpt>
      <trkpt lat="44.56336" lon="6.31864">
        <ele>1501.5</ele>
        <time>2021-07-16T08:01:51.000Z</time>
      </trkpt>
      <trkpt lat="44.56334" lon="6.31876">
        <ele>1501.2</ele>
        <time>2021-07-16T08:01:54.169Z</time>
      </trkpt>
      <trkpt lat="44.56333" lon="6.31888">
        <ele>1503.9</ele>
        <time>2021-07-16T08:01:57.674Z</time>
      </trkpt>
      <trkpt lat="44.56333" lon="6.31899">
        <ele>1458.4</ele>
        <time>2021-07-16T08:02:01.464Z</time>
      </trkpt>
      <trkpt lat="44.56334" lon="6.31906">
        <ele>1489.4</ele>
        <time>2021-07-16T08:02:04.586Z</time>
      </trkpt>
      <trkpt lat="44.56335" lon="6.31917">
        <ele>1500.5</ele>
        <time>2021-07-16T08:02:08.009Z</time>
      </trkpt>
      <trkpt lat="44.56336" lon="6.31929">
        <ele>1503.1</ele>
        <time>2021-07-16T08:02:11.465Z</time>
      </trkpt>
      <trkpt lat="44.56338" lon="6.31938">
        <ele>1505.2</ele>
        <time>2021-07-16T08:02:14.467Z</time>
      </trkpt>
      <trkpt lat="44.56339" lon="6.31951">
        <ele>1506.7</ele>
        <time>2021-07-16T08:02:18.466Z</time>
      </trkpt>
      <trkpt lat="44.5634" lon="6.31961">
        <ele>1507.9</ele>
        <time>2021-07-16T08:02:21.470Z</time>
      </trkpt>
      <trkpt lat="44.5634" lon="6.31969">
        <ele>1507</ele>
        <time>2021-07-16T08:02:24.500Z</time>
      </trkpt>
      <trkpt lat="44.56344" lon="6.31981">
        <ele>1507.3</ele>
        <time>2021-07-16T08:02:28.129Z</time>
      </trkpt>
      <trkpt lat="44.56347" lon="6.31991">
        <ele>1509.8</ele>
        <time>2021-07-16T08:02:31.232Z</time>
      </trkpt>
      <trkpt lat="44.56351" lon="6.32003">
        <ele>1511.7</ele>
        <time>2021-07-16T08:02:35.503Z</time>
      </trkpt>
      <trkpt lat="44.56351" lon="6.32016">
        <ele>1515</ele>
        <time>2021-07-16T08:02:39.466Z</time>
      </trkpt>
      <trkpt lat="44.56352" lon="6.32029">
        <ele>1515.1</ele>
        <time>2021-07-16T08:02:43.436Z</time>
      </trkpt>
      <trkpt lat="44.56354" lon="6.32041">
        <ele>1516</ele>
        <time>2021-07-16T08:02:47.479Z</time>
      </trkpt>
      <trkpt lat="44.56355" lon="6.32052">
        <ele>1517.9</ele>
        <time>2021-07-16T08:02:50.523Z</time>
      </trkpt>
      <trkpt lat="44.56356" lon="6.32064">
        <ele>1510</ele>
        <time>2021-07-16T08:02:54.454Z</time>
      </trkpt>
      <trkpt lat="44.56358" lon="6.32071">
        <ele>1517.9</ele>
        <time>2021-07-16T08:02:57.888Z</time>
      </trkpt>
      <trkpt lat="44.56358" lon="6.3208">
        <ele>1520.7</ele>
        <time>2021-07-16T08:03:01.463Z</time>
      </trkpt>
      <trkpt lat="44.5636" lon="6.3209">
        <ele>1522.1</ele>
        <time>2021-07-16T08:03:04.718Z</time>
      </trkpt>
      <trkpt lat="44.56363" lon="6.32098">
        <ele>1523.8</ele>
        <time>2021-07-16T08:03:09.000Z</time>
      </trkpt>
      <trkpt lat="44.56365" lon="6.32115">
        <ele>1524.1</ele>
        <time>2021-07-16T08:03:18.447Z</time>
      </trkpt>
      <trkpt lat="44.56362" lon="6.32129">
        <ele>1521.3</ele>
        <time>2021-07-16T08:03:21.471Z</time>
      </trkpt>
      <trkpt lat="44.56361" lon="6.32139">
        <ele>1521.2</ele>
        <time>2021-07-16T08:03:25.449Z</time>
      </trkpt>
      <trkpt lat="44.56358" lon="6.32149">
        <ele>1523.9</ele>
        <time>2021-07-16T08:03:28.454Z</time>
      </trkpt>
      <trkpt lat="44.56357" lon="6.3216">
        <ele>1523.5</ele>
        <time>2021-07-16T08:03:31.935Z</time>
      </trkpt>
      <trkpt lat="44.56357" lon="6.3217">
        <ele>1517.4</ele>
        <time>2021-07-16T08:03:35.286Z</time>
      </trkpt>
      <trkpt lat="44.56358" lon="6.3218">
        <ele>1521.8</ele>
        <time>2021-07-16T08:03:38.371Z</time>
      </trkpt>
      <trkpt lat="44.56358" lon="6.32191">
        <ele>1529</ele>
        <time>2021-07-16T08:03:42.073Z</time>
      </trkpt>
      <trkpt lat="44.56356" lon="6.32203">
        <ele>1530.9</ele>
        <time>2021-07-16T08:03:45.185Z</time>
      </trkpt>
      <trkpt lat="44.56354" lon="6.32214">
        <ele>1529.6</ele>
        <time>2021-07-16T08:03:48.692Z</time>
      </trkpt>
      <trkpt lat="44.56352" lon="6.32225">
        <ele>1529.5</ele>
        <time>2021-07-16T08:03:52.147Z</time>
      </trkpt>
      <trkpt lat="44.56352" lon="6.32236">
        <ele>1529.7</ele>
        <time>2021-07-16T08:03:55.365Z</time>
      </trkpt>
      <trkpt lat="44.56352" lon="6.32244">
        <ele>1533.1</ele>
        <time>2021-07-16T08:03:59.032Z</time>
      </trkpt>
      <trkpt lat="44.56351" lon="6.32253">
        <ele>1532.5</ele>
        <time>2021-07-16T08:04:02.126Z</time>
      </trkpt>
      <trkpt lat="44.56352" lon="6.32263">
        <ele>1535.1</ele>
        <time>2021-07-16T08:04:06.000Z</time>
      </trkpt>
      <trkpt lat="44.56351" lon="6.32273">
        <ele>1537.1</ele>
        <time>2021-07-16T08:04:09.000Z</time>
      </trkpt>
      <trkpt lat="44.56351" lon="6.3228">
        <ele>1537.1</ele>
        <time>2021-07-16T08:04:11.452Z</time>
      </trkpt>
      <trkpt lat="44.56349" lon="6.32292">
        <ele>1541.3</ele>
        <time>2021-07-16T08:04:18.509Z</time>
      </trkpt>
      <trkpt lat="44.56347" lon="6.32303">
        <ele>1541.8</ele>
        <time>2021-07-16T08:04:22.463Z</time>
      </trkpt>
      <trkpt lat="44.56347" lon="6.32316">
        <ele>1540.8</ele>
        <time>2021-07-16T08:04:25.472Z</time>
      </trkpt>
      <trkpt lat="44.56345" lon="6.32328">
        <ele>1542.1</ele>
        <time>2021-07-16T08:04:28.748Z</time>
      </trkpt>
      <trkpt lat="44.56343" lon="6.32338">
        <ele>1545.2</ele>
        <time>2021-07-16T08:04:32.459Z</time>
      </trkpt>
      <trkpt lat="44.56343" lon="6.32345">
        <ele>1545</ele>
        <time>2021-07-16T08:04:35.460Z</time>
      </trkpt>
      <trkpt lat="44.56344" lon="6.32353">
        <ele>1546.7</ele>
        <time>2021-07-16T08:04:38.460Z</time>
      </trkpt>
      <trkpt lat="44.56344" lon="6.32361">
        <ele>1547.4</ele>
        <time>2021-07-16T08:04:41.464Z</time>
      </trkpt>
      <trkpt lat="44.56341" lon="6.3237">
        <ele>1546.3</ele>
        <time>2021-07-16T08:04:44.770Z</time>
      </trkpt>
      <trkpt lat="44.56339" lon="6.3238">
        <ele>1537.7</ele>
        <time>2021-07-16T08:04:48.333Z</time>
      </trkpt>
      <trkpt lat="44.56338" lon="6.32388">
        <ele>1533.7</ele>
        <time>2021-07-16T08:04:51.456Z</time>
      </trkpt>
      <trkpt lat="44.56337" lon="6.32399">
        <ele>1543.7</ele>
        <time>2021-07-16T08:04:54.456Z</time>
      </trkpt>
      <trkpt lat="44.56336" lon="6.32406">
        <ele>1547</ele>
        <time>2021-07-16T08:04:57.467Z</time>
      </trkpt>
      <trkpt lat="44.56334" lon="6.32414">
        <ele>1553.1</ele>
        <time>2021-07-16T08:05:00.768Z</time>
      </trkpt>
      <trkpt lat="44.56333" lon="6.32422">
        <ele>1551</ele>
        <time>2021-07-16T08:05:04.051Z</time>
      </trkpt>
      <trkpt lat="44.56331" lon="6.32434">
        <ele>1552.4</ele>
        <time>2021-07-16T08:05:07.478Z</time>
      </trkpt>
      <trkpt lat="44.56328" lon="6.32447">
        <ele>1555.1</ele>
        <time>2021-07-16T08:05:11.462Z</time>
      </trkpt>
      <trkpt lat="44.56327" lon="6.32455">
        <ele>1560.6</ele>
        <time>2021-07-16T08:05:15.147Z</time>
      </trkpt>
      <trkpt lat="44.56325" lon="6.32467">
        <ele>1559.1</ele>
        <time>2021-07-16T08:05:18.448Z</time>
      </trkpt>
      <trkpt lat="44.56323" lon="6.32478">
        <ele>1560.8</ele>
        <time>2021-07-16T08:05:21.508Z</time>
      </trkpt>
      <trkpt lat="44.56324" lon="6.32488">
        <ele>1561.6</ele>
        <time>2021-07-16T08:05:24.624Z</time>
      </trkpt>
      <trkpt lat="44.56324" lon="6.32501">
        <ele>1562.6</ele>
        <time>2021-07-16T08:05:28.217Z</time>
      </trkpt>
      <trkpt lat="44.56326" lon="6.32514">
        <ele>1562.4</ele>
        <time>2021-07-16T08:05:31.370Z</time>
      </trkpt>
      <trkpt lat="44.5633" lon="6.32525">
        <ele>1561.6</ele>
        <time>2021-07-16T08:05:34.476Z</time>
      </trkpt>
      <trkpt lat="44.56333" lon="6.32533">
        <ele>1550.7</ele>
        <time>2021-07-16T08:05:37.522Z</time>
      </trkpt>
      <trkpt lat="44.56335" lon="6.32542">
        <ele>1558.2</ele>
        <time>2021-07-16T08:05:41.466Z</time>
      </trkpt>
      <trkpt lat="44.56336" lon="6.32556">
        <ele>1564.8</ele>
        <time>2021-07-16T08:05:45.464Z</time>
      </trkpt>
      <trkpt lat="44.56338" lon="6.32567">
        <ele>1566.7</ele>
        <time>2021-07-16T08:05:48.608Z</time>
      </trkpt>
      <trkpt lat="44.56339" lon="6.32581">
        <ele>1567.5</ele>
        <time>2021-07-16T08:05:52.463Z</time>
      </trkpt>
      <trkpt lat="44.56341" lon="6.32594">
        <ele>1567.4</ele>
        <time>2021-07-16T08:05:56.462Z</time>
      </trkpt>
      <trkpt lat="44.56343" lon="6.32604">
        <ele>1556.3</ele>
        <time>2021-07-16T08:05:59.465Z</time>
      </trkpt>
      <trkpt lat="44.56344" lon="6.32612">
        <ele>1563.7</ele>
        <time>2021-07-16T08:06:02.473Z</time>
      </trkpt>
      <trkpt lat="44.56345" lon="6.3262">
        <ele>1567.9</ele>
        <time>2021-07-16T08:06:07.511Z</time>
      </trkpt>
      <trkpt lat="44.56339" lon="6.32625">
        <ele>1571.7</ele>
        <time>2021-07-16T08:06:15.224Z</time>
      </trkpt>
      <trkpt lat="44.56338" lon="6.32634">
        <ele>1569.3</ele>
        <time>2021-07-16T08:06:18.712Z</time>
      </trkpt>
      <trkpt lat="44.56341" lon="6.32645">
        <ele>1568.9</ele>
        <time>2021-07-16T08:06:21.967Z</time>
      </trkpt>
      <trkpt lat="44.56343" lon="6.32659">
        <ele>1572.7</ele>
        <time>2021-07-16T08:06:25.503Z</time>
      </trkpt>
      <trkpt lat="44.56347" lon="6.32675">
        <ele>1572</ele>
        <time>2021-07-16T08:06:29.463Z</time>
      </trkpt>
      <trkpt lat="44.56348" lon="6.32692">
        <ele>1572.6</ele>
        <time>2021-07-16T08:06:33.469Z</time>
      </trkpt>
      <trkpt lat="44.56348" lon="6.32704">
        <ele>1572</ele>
        <time>2021-07-16T08:06:36.715Z</time>
      </trkpt>
      <trkpt lat="44.56346" lon="6.32714">
        <ele>1573.9</ele>
        <time>2021-07-16T08:06:40.024Z</time>
      </trkpt>
      <trkpt lat="44.56344" lon="6.32724">
        <ele>1575.5</ele>
        <time>2021-07-16T08:06:43.068Z</time>
      </trkpt>
      <trkpt lat="44.56343" lon="6.32734">
        <ele>1575.4</ele>
        <time>2021-07-16T08:06:46.436Z</time>
      </trkpt>
      <trkpt lat="44.56345" lon="6.32741">
        <ele>1576.6</ele>
        <time>2021-07-16T08:06:49.463Z</time>
      </trkpt>
      <trkpt lat="44.5635" lon="6.3275">
        <ele>1576.8</ele>
        <time>2021-07-16T08:06:53.469Z</time>
      </trkpt>
      <trkpt lat="44.56353" lon="6.32757">
        <ele>1577.1</ele>
        <time>2021-07-16T08:06:56.469Z</time>
      </trkpt>
      <trkpt lat="44.5636" lon="6.32761">
        <ele>1578.7</ele>
        <time>2021-07-16T08:06:59.471Z</time>
      </trkpt>
      <trkpt lat="44.56366" lon="6.32763">
        <ele>1577.5</ele>
        <time>2021-07-16T08:07:02.517Z</time>
      </trkpt>
      <trkpt lat="44.56372" lon="6.3277">
        <ele>1576.1</ele>
        <time>2021-07-16T08:07:06.468Z</time>
      </trkpt>
      <trkpt lat="44.56376" lon="6.32782">
        <ele>1576</ele>
        <time>2021-07-16T08:07:10.466Z</time>
      </trkpt>
      <trkpt lat="44.56379" lon="6.32791">
        <ele>1577.6</ele>
        <time>2021-07-16T08:07:13.496Z</time>
      </trkpt>
      <trkpt lat="44.56382" lon="6.328">
        <ele>1578.9</ele>
        <time>2021-07-16T08:07:16.552Z</time>
      </trkpt>
      <trkpt lat="44.56385" lon="6.32808">
        <ele>1579</ele>
        <time>2021-07-16T08:07:19.647Z</time>
      </trkpt>
      <trkpt lat="44.56391" lon="6.32815">
        <ele>1582.7</ele>
        <time>2021-07-16T08:07:23.465Z</time>
      </trkpt>
      <trkpt lat="44.56395" lon="6.32824">
        <ele>1583.9</ele>
        <time>2021-07-16T08:07:26.469Z</time>
      </trkpt>
      <trkpt lat="44.564" lon="6.32829">
        <ele>1584.4</ele>
        <time>2021-07-16T08:07:30.463Z</time>
      </trkpt>
      <trkpt lat="44.56405" lon="6.32832">
        <ele>1583.5</ele>
        <time>2021-07-16T08:07:33.649Z</time>
      </trkpt>
      <trkpt lat="44.56412" lon="6.32837">
        <ele>1582.4</ele>
        <time>2021-07-16T08:07:37.306Z</time>
      </trkpt>
      <trkpt lat="44.56419" lon="6.32841">
        <ele>1582.5</ele>
        <time>2021-07-16T08:07:40.742Z</time>
      </trkpt>
      <trkpt lat="44.56426" lon="6.32843">
        <ele>1581</ele>
        <time>2021-07-16T08:07:44.472Z</time>
      </trkpt>
      <trkpt lat="44.5643" lon="6.32846">
        <ele>1581.8</ele>
        <time>2021-07-16T08:07:48.378Z</time>
      </trkpt>
      <trkpt lat="44.56434" lon="6.32849">
        <ele>1581.7</ele>
        <time>2021-07-16T08:07:54.592Z</time>
      </trkpt>
      <trkpt lat="44.56435" lon="6.32855">
        <ele>1580.5</ele>
        <time>2021-07-16T08:08:54.487Z</time>
      </trkpt>
      <trkpt lat="44.56439" lon="6.32863">
        <ele>1581.5</ele>
        <time>2021-07-16T08:10:21.000Z</time>
      </trkpt>
      <trkpt lat="44.56451" lon="6.32868">
        <ele>1582.7</ele>
        <time>2021-07-16T08:10:30.704Z</time>
      </trkpt>
      <trkpt lat="44.56461" lon="6.32876">
        <ele>1585.4</ele>
        <time>2021-07-16T08:10:34.341Z</time>
      </trkpt>
      <trkpt lat="44.56466" lon="6.32889">
        <ele>1587.3</ele>
        <time>2021-07-16T08:10:37.462Z</time>
      </trkpt>
      <trkpt lat="44.56467" lon="6.32897">
        <ele>1592.1</ele>
        <time>2021-07-16T08:10:40.499Z</time>
      </trkpt>
      <trkpt lat="44.56467" lon="6.32904">
        <ele>1593.7</ele>
        <time>2021-07-16T08:10:44.456Z</time>
      </trkpt>
      <trkpt lat="44.56466" lon="6.32917">
        <ele>1596.8</ele>
        <time>2021-07-16T08:10:48.464Z</time>
      </trkpt>
      <trkpt lat="44.56467" lon="6.3293">
        <ele>1581.7</ele>
        <time>2021-07-16T08:10:51.544Z</time>
      </trkpt>
      <trkpt lat="44.56467" lon="6.32942">
        <ele>1591.6</ele>
        <time>2021-07-16T08:10:55.115Z</time>
      </trkpt>
      <trkpt lat="44.56468" lon="6.3295">
        <ele>1593.8</ele>
        <time>2021-07-16T08:10:58.507Z</time>
      </trkpt>
      <trkpt lat="44.56472" lon="6.32955">
        <ele>1594.1</ele>
        <time>2021-07-16T08:11:02.470Z</time>
      </trkpt>
      <trkpt lat="44.56475" lon="6.32961">
        <ele>1594.1</ele>
        <time>2021-07-16T08:11:28.860Z</time>
      </trkpt>
      <trkpt lat="44.56478" lon="6.3297">
        <ele>1594.3</ele>
        <time>2021-07-16T08:11:32.467Z</time>
      </trkpt>
      <trkpt lat="44.5648" lon="6.3298">
        <ele>1596.8</ele>
        <time>2021-07-16T08:11:36.469Z</time>
      </trkpt>
      <trkpt lat="44.56483" lon="6.32989">
        <ele>1598.5</ele>
        <time>2021-07-16T08:11:39.985Z</time>
      </trkpt>
      <trkpt lat="44.56484" lon="6.32996">
        <ele>1600.3</ele>
        <time>2021-07-16T08:11:43.119Z</time>
      </trkpt>
      <trkpt lat="44.56485" lon="6.33008">
        <ele>1603.8</ele>
        <time>2021-07-16T08:11:47.439Z</time>
      </trkpt>
      <trkpt lat="44.56484" lon="6.33014">
        <ele>1607.1</ele>
        <time>2021-07-16T08:11:50.467Z</time>
      </trkpt>
      <trkpt lat="44.56479" lon="6.33021">
        <ele>1611.4</ele>
        <time>2021-07-16T08:11:54.467Z</time>
      </trkpt>
      <trkpt lat="44.56473" lon="6.33036">
        <ele>1616.8</ele>
        <time>2021-07-16T08:12:02.053Z</time>
      </trkpt>
      <trkpt lat="44.56472" lon="6.33045">
        <ele>1620.1</ele>
        <time>2021-07-16T08:12:05.466Z</time>
      </trkpt>
      <trkpt lat="44.5647" lon="6.33054">
        <ele>1616.9</ele>
        <time>2021-07-16T08:12:08.467Z</time>
      </trkpt>
      <trkpt lat="44.5647" lon="6.33064">
        <ele>1617.4</ele>
        <time>2021-07-16T08:12:11.468Z</time>
      </trkpt>
      <trkpt lat="44.56469" lon="6.3308">
        <ele>1614.2</ele>
        <time>2021-07-16T08:12:15.468Z</time>
      </trkpt>
      <trkpt lat="44.5647" lon="6.33092">
        <ele>1612.8</ele>
        <time>2021-07-16T08:12:19.446Z</time>
      </trkpt>
      <trkpt lat="44.56473" lon="6.33104">
        <ele>1614.5</ele>
        <time>2021-07-16T08:12:23.463Z</time>
      </trkpt>
      <trkpt lat="44.56475" lon="6.33116">
        <ele>1613.3</ele>
        <time>2021-07-16T08:12:26.506Z</time>
      </trkpt>
      <trkpt lat="44.56476" lon="6.33129">
        <ele>1615.9</ele>
        <time>2021-07-16T08:12:30.464Z</time>
      </trkpt>
      <trkpt lat="44.56477" lon="6.3314">
        <ele>1616.8</ele>
        <time>2021-07-16T08:12:34.468Z</time>
      </trkpt>
      <trkpt lat="44.56474" lon="6.33154">
        <ele>1620.4</ele>
        <time>2021-07-16T08:12:38.455Z</time>
      </trkpt>
      <trkpt lat="44.56475" lon="6.33162">
        <ele>1622</ele>
        <time>2021-07-16T08:12:41.456Z</time>
      </trkpt>
      <trkpt lat="44.56475" lon="6.33171">
        <ele>1622.9</ele>
        <time>2021-07-16T08:12:44.465Z</time>
      </trkpt>
      <trkpt lat="44.56471" lon="6.33181">
        <ele>1625</ele>
        <time>2021-07-16T08:12:47.648Z</time>
      </trkpt>
      <trkpt lat="44.56467" lon="6.33186">
        <ele>1626.2</ele>
        <time>2021-07-16T08:12:51.495Z</time>
      </trkpt>
      <trkpt lat="44.56459" lon="6.33195">
        <ele>1627.6</ele>
        <time>2021-07-16T08:12:55.523Z</time>
      </trkpt>
      <trkpt lat="44.56453" lon="6.33202">
        <ele>1631.1</ele>
        <time>2021-07-16T08:12:59.452Z</time>
      </trkpt>
      <trkpt lat="44.5645" lon="6.3321">
        <ele>1629</ele>
        <time>2021-07-16T08:13:02.493Z</time>
      </trkpt>
      <trkpt lat="44.56446" lon="6.3322">
        <ele>1628.1</ele>
        <time>2021-07-16T08:13:06.486Z</time>
      </trkpt>
      <trkpt lat="44.56444" lon="6.33231">
        <ele>1628.5</ele>
        <time>2021-07-16T08:13:09.629Z</time>
      </trkpt>
      <trkpt lat="44.5644" lon="6.33242">
        <ele>1632.3</ele>
        <time>2021-07-16T08:13:13.455Z</time>
      </trkpt>
      <trkpt lat="44.56438" lon="6.33249">
        <ele>1634</ele>
        <time>2021-07-16T08:13:16.457Z</time>
      </trkpt>
      <trkpt lat="44.56433" lon="6.33258">
        <ele>1632.9</ele>
        <time>2021-07-16T08:13:20.469Z</time>
      </trkpt>
      <trkpt lat="44.56429" lon="6.33267">
        <ele>1631.2</ele>
        <time>2021-07-16T08:13:23.469Z</time>
      </trkpt>
      <trkpt lat="44.56422" lon="6.33278">
        <ele>1633.9</ele>
        <time>2021-07-16T08:13:27.475Z</time>
      </trkpt>
      <trkpt lat="44.56418" lon="6.33286">
        <ele>1635.1</ele>
        <time>2021-07-16T08:13:30.670Z</time>
      </trkpt>
      <trkpt lat="44.56412" lon="6.33296">
        <ele>1632.9</ele>
        <time>2021-07-16T08:13:34.460Z</time>
      </trkpt>
      <trkpt lat="44.56408" lon="6.33304">
        <ele>1631.8</ele>
        <time>2021-07-16T08:13:37.486Z</time>
      </trkpt>
      <trkpt lat="44.56402" lon="6.33311">
        <ele>1633.6</ele>
        <time>2021-07-16T08:13:41.459Z</time>
      </trkpt>
      <trkpt lat="44.56397" lon="6.33317">
        <ele>1633.3</ele>
        <time>2021-07-16T08:13:44.465Z</time>
      </trkpt>
      <trkpt lat="44.56391" lon="6.33326">
        <ele>1633.5</ele>
        <time>2021-07-16T08:13:47.763Z</time>
      </trkpt>
      <trkpt lat="44.56383" lon="6.33335">
        <ele>1634.2</ele>
        <time>2021-07-16T08:13:51.462Z</time>
      </trkpt>
      <trkpt lat="44.56378" lon="6.33343">
        <ele>1632.5</ele>
        <time>2021-07-16T08:13:55.466Z</time>
      </trkpt>
      <trkpt lat="44.56375" lon="6.33352">
        <ele>1633.3</ele>
        <time>2021-07-16T08:13:58.545Z</time>
      </trkpt>
      <trkpt lat="44.56371" lon="6.33361">
        <ele>1633.5</ele>
        <time>2021-07-16T08:14:02.463Z</time>
      </trkpt>
      <trkpt lat="44.56369" lon="6.3337">
        <ele>1634.6</ele>
        <time>2021-07-16T08:14:06.443Z</time>
      </trkpt>
      <trkpt lat="44.5637" lon="6.33378">
        <ele>1635.2</ele>
        <time>2021-07-16T08:14:10.155Z</time>
      </trkpt>
      <trkpt lat="44.56374" lon="6.33378">
        <ele>1634.7</ele>
        <time>2021-07-16T08:14:13.460Z</time>
      </trkpt>
      <trkpt lat="44.56378" lon="6.33373">
        <ele>1636.2</ele>
        <time>2021-07-16T08:14:16.470Z</time>
      </trkpt>
      <trkpt lat="44.5638" lon="6.33364">
        <ele>1635.4</ele>
        <time>2021-07-16T08:14:20.457Z</time>
      </trkpt>
      <trkpt lat="44.56383" lon="6.33357">
        <ele>1635.7</ele>
        <time>2021-07-16T08:14:26.475Z</time>
      </trkpt>
      <trkpt lat="44.56386" lon="6.33352">
        <ele>1640.4</ele>
        <time>2021-07-16T08:14:33.465Z</time>
      </trkpt>
      <trkpt lat="44.56394" lon="6.33349">
        <ele>1640.5</ele>
        <time>2021-07-16T08:14:44.468Z</time>
      </trkpt>
      <trkpt lat="44.56399" lon="6.33347">
        <ele>1641.7</ele>
        <time>2021-07-16T08:14:48.468Z</time>
      </trkpt>
      <trkpt lat="44.56406" lon="6.33347">
        <ele>1642</ele>
        <time>2021-07-16T08:14:52.099Z</time>
      </trkpt>
      <trkpt lat="44.56412" lon="6.33347">
        <ele>1643.9</ele>
        <time>2021-07-16T08:14:55.462Z</time>
      </trkpt>
      <trkpt lat="44.56418" lon="6.33346">
        <ele>1609.1</ele>
        <time>2021-07-16T08:14:59.464Z</time>
      </trkpt>
      <trkpt lat="44.56425" lon="6.33344">
        <ele>1639.7</ele>
        <time>2021-07-16T08:15:03.461Z</time>
      </trkpt>
      <trkpt lat="44.56431" lon="6.33341">
        <ele>1644.2</ele>
        <time>2021-07-16T08:15:06.962Z</time>
      </trkpt>
      <trkpt lat="44.56436" lon="6.33337">
        <ele>1646.1</ele>
        <time>2021-07-16T08:15:09.986Z</time>
      </trkpt>
      <trkpt lat="44.56442" lon="6.33332">
        <ele>1646.4</ele>
        <time>2021-07-16T08:15:13.422Z</time>
      </trkpt>
      <trkpt lat="44.56447" lon="6.33327">
        <ele>1648.2</ele>
        <time>2021-07-16T08:15:16.462Z</time>
      </trkpt>
      <trkpt lat="44.56451" lon="6.3332">
        <ele>1649.1</ele>
        <time>2021-07-16T08:15:20.470Z</time>
      </trkpt>
      <trkpt lat="44.5646" lon="6.33319">
        <ele>1649.5</ele>
        <time>2021-07-16T08:15:24.464Z</time>
      </trkpt>
      <trkpt lat="44.5647" lon="6.33322">
        <ele>1648</ele>
        <time>2021-07-16T08:15:27.859Z</time>
      </trkpt>
      <trkpt lat="44.56472" lon="6.33328">
        <ele>1647.3</ele>
        <time>2021-07-16T08:15:31.530Z</time>
      </trkpt>
      <trkpt lat="44.56469" lon="6.33339">
        <ele>1649.6</ele>
        <time>2021-07-16T08:15:35.441Z</time>
      </trkpt>
      <trkpt lat="44.56467" lon="6.33347">
        <ele>1650</ele>
        <time>2021-07-16T08:15:38.467Z</time>
      </trkpt>
      <trkpt lat="44.56464" lon="6.33357">
        <ele>1653.7</ele>
        <time>2021-07-16T08:15:42.493Z</time>
      </trkpt>
      <trkpt lat="44.56461" lon="6.33365">
        <ele>1654.5</ele>
        <time>2021-07-16T08:15:46.155Z</time>
      </trkpt>
      <trkpt lat="44.56461" lon="6.33372">
        <ele>1651.7</ele>
        <time>2021-07-16T08:15:49.846Z</time>
      </trkpt>
      <trkpt lat="44.56462" lon="6.33384">
        <ele>1654.9</ele>
        <time>2021-07-16T08:15:53.462Z</time>
      </trkpt>
      <trkpt lat="44.56459" lon="6.33394">
        <ele>1656.8</ele>
        <time>2021-07-16T08:15:56.467Z</time>
      </trkpt>
      <trkpt lat="44.56454" lon="6.33408">
        <ele>1662.6</ele>
        <time>2021-07-16T08:16:00.470Z</time>
      </trkpt>
      <trkpt lat="44.56451" lon="6.33419">
        <ele>1664</ele>
        <time>2021-07-16T08:16:03.984Z</time>
      </trkpt>
      <trkpt lat="44.56447" lon="6.33428">
        <ele>1662</ele>
        <time>2021-07-16T08:16:07.110Z</time>
      </trkpt>
      <trkpt lat="44.56442" lon="6.33438">
        <ele>1663.5</ele>
        <time>2021-07-16T08:16:10.292Z</time>
      </trkpt>
      <trkpt lat="44.56439" lon="6.33447">
        <ele>1661.8</ele>
        <time>2021-07-16T08:16:13.504Z</time>
      </trkpt>
      <trkpt lat="44.56437" lon="6.33456">
        <ele>1662.8</ele>
        <time>2021-07-16T08:16:17.470Z</time>
      </trkpt>
      <trkpt lat="44.56434" lon="6.33464">
        <ele>1662.6</ele>
        <time>2021-07-16T08:16:21.457Z</time>
      </trkpt>
      <trkpt lat="44.56431" lon="6.33472">
        <ele>1662.5</ele>
        <time>2021-07-16T08:16:24.483Z</time>
      </trkpt>
      <trkpt lat="44.56428" lon="6.33484">
        <ele>1662.4</ele>
        <time>2021-07-16T08:16:27.990Z</time>
      </trkpt>
      <trkpt lat="44.56426" lon="6.33494">
        <ele>1664</ele>
        <time>2021-07-16T08:16:31.193Z</time>
      </trkpt>
      <trkpt lat="44.56422" lon="6.33503">
        <ele>1664.3</ele>
        <time>2021-07-16T08:16:34.457Z</time>
      </trkpt>
      <trkpt lat="44.56419" lon="6.33511">
        <ele>1663.9</ele>
        <time>2021-07-16T08:16:37.511Z</time>
      </trkpt>
      <trkpt lat="44.56418" lon="6.3352">
        <ele>1664.7</ele>
        <time>2021-07-16T08:16:41.469Z</time>
      </trkpt>
      <trkpt lat="44.56413" lon="6.33518">
        <ele>1656.9</ele>
        <time>2021-07-16T08:17:24.648Z</time>
      </trkpt>
      <trkpt lat="44.56403" lon="6.3352">
        <ele>1660.2</ele>
        <time>2021-07-16T08:17:45.000Z</time>
      </trkpt>
      <trkpt lat="44.56395" lon="6.33534">
        <ele>1655.1</ele>
        <time>2021-07-16T08:18:06.636Z</time>
      </trkpt>
      <trkpt lat="44.5639" lon="6.33552">
        <ele>1654.8</ele>
        <time>2021-07-16T08:18:10.448Z</time>
      </trkpt>
      <trkpt lat="44.56391" lon="6.33562">
        <ele>1655.9</ele>
        <time>2021-07-16T08:18:16.710Z</time>
      </trkpt>
      <trkpt lat="44.56395" lon="6.33569">
        <ele>1657</ele>
        <time>2021-07-16T08:18:21.000Z</time>
      </trkpt>
      <trkpt lat="44.56401" lon="6.33574">
        <ele>1660.4</ele>
        <time>2021-07-16T08:18:30.000Z</time>
      </trkpt>
      <trkpt lat="44.56408" lon="6.33585">
        <ele>1660.7</ele>
        <time>2021-07-16T08:18:32.885Z</time>
      </trkpt>
      <trkpt lat="44.56414" lon="6.336">
        <ele>1664.1</ele>
        <time>2021-07-16T08:18:35.971Z</time>
      </trkpt>
      <trkpt lat="44.56418" lon="6.33639">
        <ele>1658.1</ele>
        <time>2021-07-16T08:18:42.000Z</time>
      </trkpt>
      <trkpt lat="44.56413" lon="6.33657">
        <ele>1428.1</ele>
        <time>2021-07-16T08:18:45.435Z</time>
      </trkpt>
      <trkpt lat="44.5641" lon="6.33669">
        <ele>1550.3</ele>
        <time>2021-07-16T08:18:50.060Z</time>
      </trkpt>
      <trkpt lat="44.56408" lon="6.33677">
        <ele>1643.2</ele>
        <time>2021-07-16T08:18:57.000Z</time>
      </trkpt>
      <trkpt lat="44.56404" lon="6.33681">
        <ele>1646.6</ele>
        <time>2021-07-16T08:19:02.760Z</time>
      </trkpt>
      <trkpt lat="44.56381" lon="6.33688">
        <ele>1610.3</ele>
        <time>2021-07-16T08:19:09.000Z</time>
      </trkpt>
      <trkpt lat="44.56373" lon="6.33678">
        <ele>1629.6</ele>
        <time>2021-07-16T08:19:11.602Z</time>
      </trkpt>
      <trkpt lat="44.56318" lon="6.33703">
        <ele>1632.6</ele>
        <time>2021-07-16T08:19:18.000Z</time>
      </trkpt>
      <trkpt lat="44.56305" lon="6.33712">
        <ele>1635.5</ele>
        <time>2021-07-16T08:19:21.000Z</time>
      </trkpt>
      <trkpt lat="44.56299" lon="6.33714">
        <ele>1633.2</ele>
        <time>2021-07-16T08:19:23.997Z</time>
      </trkpt>
      <trkpt lat="44.56293" lon="6.33718">
        <ele>1635.2</ele>
        <time>2021-07-16T08:19:27.935Z</time>
      </trkpt>
      <trkpt lat="44.56288" lon="6.3372">
        <ele>1634.5</ele>
        <time>2021-07-16T08:19:31.227Z</time>
      </trkpt>
      <trkpt lat="44.56284" lon="6.33724">
        <ele>1631.1</ele>
        <time>2021-07-16T08:19:34.332Z</time>
      </trkpt>
      <trkpt lat="44.56273" lon="6.33732">
        <ele>1627.5</ele>
        <time>2021-07-16T08:19:37.951Z</time>
      </trkpt>
      <trkpt lat="44.56261" lon="6.33732">
        <ele>1623.1</ele>
        <time>2021-07-16T08:19:41.465Z</time>
      </trkpt>
      <trkpt lat="44.56248" lon="6.33734">
        <ele>1616</ele>
        <time>2021-07-16T08:19:45.463Z</time>
      </trkpt>
      <trkpt lat="44.5624" lon="6.33747">
        <ele>1611.3</ele>
        <time>2021-07-16T08:19:48.465Z</time>
      </trkpt>
      <trkpt lat="44.56236" lon="6.33761">
        <ele>1608.6</ele>
        <time>2021-07-16T08:19:51.851Z</time>
      </trkpt>
      <trkpt lat="44.56234" lon="6.3377">
        <ele>1603.1</ele>
        <time>2021-07-16T08:19:58.574Z</time>
      </trkpt>
      <trkpt lat="44.56224" lon="6.33773">
        <ele>1599.4</ele>
        <time>2021-07-16T08:20:02.455Z</time>
      </trkpt>
      <trkpt lat="44.56215" lon="6.33776">
        <ele>1592.6</ele>
        <time>2021-07-16T08:20:09.000Z</time>
      </trkpt>
      <trkpt lat="44.56206" lon="6.33762">
        <ele>1589.4</ele>
        <time>2021-07-16T08:20:24.000Z</time>
      </trkpt>
      <trkpt lat="44.56199" lon="6.33757">
        <ele>1588.4</ele>
        <time>2021-07-16T08:20:27.000Z</time>
      </trkpt>
      <trkpt lat="44.56191" lon="6.33743">
        <ele>1587.4</ele>
        <time>2021-07-16T08:20:29.494Z</time>
      </trkpt>
      <trkpt lat="44.56179" lon="6.33693">
        <ele>1583.6</ele>
        <time>2021-07-16T08:20:36.000Z</time>
      </trkpt>
      <trkpt lat="44.5617" lon="6.33644">
        <ele>1580.5</ele>
        <time>2021-07-16T08:20:42.000Z</time>
      </trkpt>
      <trkpt lat="44.56177" lon="6.33626">
        <ele>1578.3</ele>
        <time>2021-07-16T08:20:48.000Z</time>
      </trkpt>
      <trkpt lat="44.56186" lon="6.33606">
        <ele>1571.9</ele>
        <time>2021-07-16T08:20:54.000Z</time>
      </trkpt>
      <trkpt lat="44.5619" lon="6.3359">
        <ele>1572.5</ele>
        <time>2021-07-16T08:20:57.000Z</time>
      </trkpt>
      <trkpt lat="44.56189" lon="6.33569">
        <ele>1573.1</ele>
        <time>2021-07-16T08:21:00.000Z</time>
      </trkpt>
      <trkpt lat="44.56191" lon="6.33532">
        <ele>1571</ele>
        <time>2021-07-16T08:21:06.000Z</time>
      </trkpt>
      <trkpt lat="44.56201" lon="6.33505">
        <ele>1566.5</ele>
        <time>2021-07-16T08:21:09.000Z</time>
      </trkpt>
      <trkpt lat="44.56201" lon="6.33462">
        <ele>1565.1</ele>
        <time>2021-07-16T08:21:15.000Z</time>
      </trkpt>
      <trkpt lat="44.56183" lon="6.33409">
        <ele>1565.6</ele>
        <time>2021-07-16T08:21:21.000Z</time>
      </trkpt>
      <trkpt lat="44.56183" lon="6.33376">
        <ele>1559.7</ele>
        <time>2021-07-16T08:21:24.000Z</time>
      </trkpt>
      <trkpt lat="44.5619" lon="6.33353">
        <ele>1557.7</ele>
        <time>2021-07-16T08:21:30.000Z</time>
      </trkpt>
      <trkpt lat="44.56192" lon="6.3334">
        <ele>1560.4</ele>
        <time>2021-07-16T08:21:36.000Z</time>
      </trkpt>
      <trkpt lat="44.56189" lon="6.3333">
        <ele>1555.5</ele>
        <time>2021-07-16T08:21:39.000Z</time>
      </trkpt>
      <trkpt lat="44.56185" lon="6.33321">
        <ele>1554.8</ele>
        <time>2021-07-16T08:21:42.000Z</time>
      </trkpt>
      <trkpt lat="44.56175" lon="6.3328">
        <ele>1556.6</ele>
        <time>2021-07-16T08:21:48.000Z</time>
      </trkpt>
      <trkpt lat="44.56176" lon="6.33249">
        <ele>1554.4</ele>
        <time>2021-07-16T08:21:51.000Z</time>
      </trkpt>
      <trkpt lat="44.56178" lon="6.33219">
        <ele>1552.5</ele>
        <time>2021-07-16T08:21:54.000Z</time>
      </trkpt>
      <trkpt lat="44.56181" lon="6.33203">
        <ele>1548.7</ele>
        <time>2021-07-16T08:21:57.000Z</time>
      </trkpt>
      <trkpt lat="44.56193" lon="6.33167">
        <ele>1551</ele>
        <time>2021-07-16T08:22:03.000Z</time>
      </trkpt>
      <trkpt lat="44.56191" lon="6.33152">
        <ele>1548.6</ele>
        <time>2021-07-16T08:22:05.488Z</time>
      </trkpt>
      <trkpt lat="44.56193" lon="6.33139">
        <ele>1545.3</ele>
        <time>2021-07-16T08:22:12.000Z</time>
      </trkpt>
      <trkpt lat="44.56196" lon="6.33134">
        <ele>1545.9</ele>
        <time>2021-07-16T08:22:15.000Z</time>
      </trkpt>
      <trkpt lat="44.56197" lon="6.33125">
        <ele>1544.9</ele>
        <time>2021-07-16T08:22:21.000Z</time>
      </trkpt>
      <trkpt lat="44.56202" lon="6.33116">
        <ele>1541.7</ele>
        <time>2021-07-16T08:22:26.562Z</time>
      </trkpt>
      <trkpt lat="44.56199" lon="6.33088">
        <ele>1535.6</ele>
        <time>2021-07-16T08:22:33.000Z</time>
      </trkpt>
      <trkpt lat="44.56198" lon="6.33076">
        <ele>1537.6</ele>
        <time>2021-07-16T08:22:36.000Z</time>
      </trkpt>
      <trkpt lat="44.56195" lon="6.33067">
        <ele>1537.3</ele>
        <time>2021-07-16T08:22:38.507Z</time>
      </trkpt>
      <trkpt lat="44.56189" lon="6.33041">
        <ele>1546.4</ele>
        <time>2021-07-16T08:22:45.000Z</time>
      </trkpt>
      <trkpt lat="44.56187" lon="6.32997">
        <ele>1540.8</ele>
        <time>2021-07-16T08:22:51.000Z</time>
      </trkpt>
      <trkpt lat="44.56187" lon="6.32983">
        <ele>1537.9</ele>
        <time>2021-07-16T08:22:57.000Z</time>
      </trkpt>
      <trkpt lat="44.56192" lon="6.32979">
        <ele>1535.9</ele>
        <time>2021-07-16T08:23:01.535Z</time>
      </trkpt>
      <trkpt lat="44.56183" lon="6.32966">
        <ele>1524.5</ele>
        <time>2021-07-16T08:23:12.000Z</time>
      </trkpt>
      <trkpt lat="44.56176" lon="6.32961">
        <ele>1339.2</ele>
        <time>2021-07-16T08:23:15.000Z</time>
      </trkpt>
      <trkpt lat="44.5616" lon="6.32958">
        <ele>1464.1</ele>
        <time>2021-07-16T08:23:21.000Z</time>
      </trkpt>
      <trkpt lat="44.5614" lon="6.32952">
        <ele>1488.7</ele>
        <time>2021-07-16T08:23:27.000Z</time>
      </trkpt>
      <trkpt lat="44.56133" lon="6.3295">
        <ele>1490.9</ele>
        <time>2021-07-16T08:23:30.000Z</time>
      </trkpt>
      <trkpt lat="44.56126" lon="6.32948">
        <ele>1492.3</ele>
        <time>2021-07-16T08:23:33.000Z</time>
      </trkpt>
      <trkpt lat="44.56121" lon="6.32946">
        <ele>1493.3</ele>
        <time>2021-07-16T08:23:37.522Z</time>
      </trkpt>
      <trkpt lat="44.56106" lon="6.32944">
        <ele>1498.1</ele>
        <time>2021-07-16T08:23:45.000Z</time>
      </trkpt>
      <trkpt lat="44.56089" lon="6.32936">
        <ele>1496.5</ele>
        <time>2021-07-16T08:23:48.000Z</time>
      </trkpt>
      <trkpt lat="44.56075" lon="6.32925">
        <ele>1497.9</ele>
        <time>2021-07-16T08:23:51.000Z</time>
      </trkpt>
      <trkpt lat="44.56055" lon="6.32897">
        <ele>1484.5</ele>
        <time>2021-07-16T08:23:57.000Z</time>
      </trkpt>
      <trkpt lat="44.56043" lon="6.32882">
        <ele>1482.1</ele>
        <time>2021-07-16T08:24:00.000Z</time>
      </trkpt>
      <trkpt lat="44.56033" lon="6.32871">
        <ele>1476.7</ele>
        <time>2021-07-16T08:24:02.579Z</time>
      </trkpt>
      <trkpt lat="44.56014" lon="6.32864">
        <ele>1472.8</ele>
        <time>2021-07-16T08:24:09.000Z</time>
      </trkpt>
      <trkpt lat="44.56008" lon="6.3286">
        <ele>1338.1</ele>
        <time>2021-07-16T08:24:12.000Z</time>
      </trkpt>
      <trkpt lat="44.55998" lon="6.32843">
        <ele>1438.2</ele>
        <time>2021-07-16T08:24:18.000Z</time>
      </trkpt>
      <trkpt lat="44.55994" lon="6.32833">
        <ele>1446.2</ele>
        <time>2021-07-16T08:24:21.000Z</time>
      </trkpt>
      <trkpt lat="44.55989" lon="6.32824">
        <ele>1398.2</ele>
        <time>2021-07-16T08:24:23.504Z</time>
      </trkpt>
      <trkpt lat="44.55981" lon="6.32821">
        <ele>1441</ele>
        <time>2021-07-16T08:24:30.000Z</time>
      </trkpt>
      <trkpt lat="44.55975" lon="6.32822">
        <ele>1442.9</ele>
        <time>2021-07-16T08:24:33.000Z</time>
      </trkpt>
      <trkpt lat="44.55956" lon="6.32826">
        <ele>1446.4</ele>
        <time>2021-07-16T08:24:39.000Z</time>
      </trkpt>
      <trkpt lat="44.55944" lon="6.3283">
        <ele>1410.1</ele>
        <time>2021-07-16T08:24:42.000Z</time>
      </trkpt>
      <trkpt lat="44.55934" lon="6.32828">
        <ele>1430.6</ele>
        <time>2021-07-16T08:24:45.000Z</time>
      </trkpt>
      <trkpt lat="44.55921" lon="6.32822">
        <ele>1435.3</ele>
        <time>2021-07-16T08:24:47.504Z</time>
      </trkpt>
      <trkpt lat="44.55904" lon="6.32817">
        <ele>1438.8</ele>
        <time>2021-07-16T08:24:54.000Z</time>
      </trkpt>
      <trkpt lat="44.55881" lon="6.32814">
        <ele>1432.7</ele>
        <time>2021-07-16T08:25:00.000Z</time>
      </trkpt>
      <trkpt lat="44.55865" lon="6.3281">
        <ele>1432.4</ele>
        <time>2021-07-16T08:25:03.000Z</time>
      </trkpt>
      <trkpt lat="44.55847" lon="6.32802">
        <ele>1430.5</ele>
        <time>2021-07-16T08:25:09.000Z</time>
      </trkpt>
      <trkpt lat="44.55833" lon="6.32796">
        <ele>1426.3</ele>
        <time>2021-07-16T08:25:12.000Z</time>
      </trkpt>
      <trkpt lat="44.55817" lon="6.32794">
        <ele>1420.8</ele>
        <time>2021-07-16T08:25:14.510Z</time>
      </trkpt>
      <trkpt lat="44.55804" lon="6.32793">
        <ele>1411.2</ele>
        <time>2021-07-16T08:25:21.000Z</time>
      </trkpt>
      <trkpt lat="44.55807" lon="6.3278">
        <ele>1374.5</ele>
        <time>2021-07-16T08:25:30.000Z</time>
      </trkpt>
      <trkpt lat="44.55801" lon="6.32789">
        <ele>1401.9</ele>
        <time>2021-07-16T08:25:54.000Z</time>
      </trkpt>
      <trkpt lat="44.55797" lon="6.32796">
        <ele>1403.4</ele>
        <time>2021-07-16T08:25:57.000Z</time>
      </trkpt>
      <trkpt lat="44.55792" lon="6.32813">
        <ele>1400.5</ele>
        <time>2021-07-16T08:26:03.000Z</time>
      </trkpt>
      <trkpt lat="44.5579" lon="6.3282">
        <ele>1400.8</ele>
        <time>2021-07-16T08:26:06.000Z</time>
      </trkpt>
      <trkpt lat="44.5579" lon="6.32827">
        <ele>1401.1</ele>
        <time>2021-07-16T08:26:21.000Z</time>
      </trkpt>
      <trkpt lat="44.55789" lon="6.32838">
        <ele>1401.8</ele>
        <time>2021-07-16T08:26:24.000Z</time>
      </trkpt>
      <trkpt lat="44.55787" lon="6.32854">
        <ele>1397.1</ele>
        <time>2021-07-16T08:26:26.491Z</time>
      </trkpt>
      <trkpt lat="44.55787" lon="6.3289">
        <ele>1391.5</ele>
        <time>2021-07-16T08:26:33.000Z</time>
      </trkpt>
      <trkpt lat="44.55781" lon="6.32924">
        <ele>1390</ele>
        <time>2021-07-16T08:26:36.000Z</time>
      </trkpt>
      <trkpt lat="44.55756" lon="6.32974">
        <ele>1364.4</ele>
        <time>2021-07-16T08:26:42.000Z</time>
      </trkpt>
      <trkpt lat="44.55744" lon="6.32992">
        <ele>1377</ele>
        <time>2021-07-16T08:26:45.000Z</time>
      </trkpt>
      <trkpt lat="44.55721" lon="6.3302">
        <ele>1376.6</ele>
        <time>2021-07-16T08:26:51.000Z</time>
      </trkpt>
      <trkpt lat="44.5571" lon="6.33037">
        <ele>1374.5</ele>
        <time>2021-07-16T08:26:54.000Z</time>
      </trkpt>
      <trkpt lat="44.55697" lon="6.3306">
        <ele>1376.9</ele>
        <time>2021-07-16T08:27:00.000Z</time>
      </trkpt>
      <trkpt lat="44.5569" lon="6.33058">
        <ele>1375.1</ele>
        <time>2021-07-16T08:27:05.482Z</time>
      </trkpt>
      <trkpt lat="44.55689" lon="6.33051">
        <ele>1373.1</ele>
        <time>2021-07-16T08:27:18.000Z</time>
      </trkpt>
      <trkpt lat="44.55687" lon="6.33027">
        <ele>1373.3</ele>
        <time>2021-07-16T08:27:21.000Z</time>
      </trkpt>
      <trkpt lat="44.55677" lon="6.32966">
        <ele>1371.2</ele>
        <time>2021-07-16T08:27:27.000Z</time>
      </trkpt>
      <trkpt lat="44.55673" lon="6.32947">
        <ele>1367.7</ele>
        <time>2021-07-16T08:27:30.000Z</time>
      </trkpt>
      <trkpt lat="44.55666" lon="6.32942">
        <ele>1362.8</ele>
        <time>2021-07-16T08:27:33.000Z</time>
      </trkpt>
      <trkpt lat="44.55634" lon="6.32893">
        <ele>1359.2</ele>
        <time>2021-07-16T08:27:39.000Z</time>
      </trkpt>
      <trkpt lat="44.55634" lon="6.32873">
        <ele>1358.1</ele>
        <time>2021-07-16T08:27:42.000Z</time>
      </trkpt>
      <trkpt lat="44.55634" lon="6.32866">
        <ele>1358</ele>
        <time>2021-07-16T08:27:46.520Z</time>
      </trkpt>
      <trkpt lat="44.55616" lon="6.3284">
        <ele>1353.8</ele>
        <time>2021-07-16T08:27:51.000Z</time>
      </trkpt>
      <trkpt lat="44.55579" lon="6.3282">
        <ele>1333.8</ele>
        <time>2021-07-16T08:27:57.000Z</time>
      </trkpt>
      <trkpt lat="44.55576" lon="6.32809">
        <ele>1343.3</ele>
        <time>2021-07-16T08:28:01.509Z</time>
      </trkpt>
      <trkpt lat="44.55569" lon="6.32803">
        <ele>1342.6</ele>
        <time>2021-07-16T08:28:18.000Z</time>
      </trkpt>
      <trkpt lat="44.55557" lon="6.3279">
        <ele>1340.7</ele>
        <time>2021-07-16T08:28:21.000Z</time>
      </trkpt>
      <trkpt lat="44.55546" lon="6.32776">
        <ele>1337.8</ele>
        <time>2021-07-16T08:28:23.544Z</time>
      </trkpt>
      <trkpt lat="44.55538" lon="6.32766">
        <ele>1333.3</ele>
        <time>2021-07-16T08:28:30.000Z</time>
      </trkpt>
      <trkpt lat="44.55543" lon="6.32767">
        <ele>1331.5</ele>
        <time>2021-07-16T08:29:09.000Z</time>
      </trkpt>
      <trkpt lat="44.55539" lon="6.32773">
        <ele>1327.2</ele>
        <time>2021-07-16T08:29:33.000Z</time>
      </trkpt>
      <trkpt lat="44.55532" lon="6.32797">
        <ele>1327.7</ele>
        <time>2021-07-16T08:29:39.000Z</time>
      </trkpt>
      <trkpt lat="44.55529" lon="6.3282">
        <ele>1330.1</ele>
        <time>2021-07-16T08:29:45.000Z</time>
      </trkpt>
      <trkpt lat="44.55527" lon="6.32834">
        <ele>1330.8</ele>
        <time>2021-07-16T08:29:48.000Z</time>
      </trkpt>
      <trkpt lat="44.55527" lon="6.32872">
        <ele>1330.4</ele>
        <time>2021-07-16T08:29:54.000Z</time>
      </trkpt>
      <trkpt lat="44.55524" lon="6.32906">
        <ele>1330.4</ele>
        <time>2021-07-16T08:29:57.000Z</time>
      </trkpt>
      <trkpt lat="44.55521" lon="6.32955">
        <ele>1330.3</ele>
        <time>2021-07-16T08:30:03.000Z</time>
      </trkpt>
      <trkpt lat="44.55524" lon="6.32976">
        <ele>1330.5</ele>
        <time>2021-07-16T08:30:07.511Z</time>
      </trkpt>
      <trkpt lat="44.55529" lon="6.32995">
        <ele>1331.1</ele>
        <time>2021-07-16T08:30:12.000Z</time>
      </trkpt>
      <trkpt lat="44.55533" lon="6.33008">
        <ele>1332</ele>
        <time>2021-07-16T08:30:15.000Z</time>
      </trkpt>
      <trkpt lat="44.55538" lon="6.33017">
        <ele>1331.2</ele>
        <time>2021-07-16T08:30:18.000Z</time>
      </trkpt>
      <trkpt lat="44.55548" lon="6.33038">
        <ele>1330.9</ele>
        <time>2021-07-16T08:30:20.512Z</time>
      </trkpt>
      <trkpt lat="44.5555" lon="6.33098">
        <ele>1331.6</ele>
        <time>2021-07-16T08:30:27.000Z</time>
      </trkpt>
      <trkpt lat="44.55544" lon="6.33111">
        <ele>1331.6</ele>
        <time>2021-07-16T08:30:29.469Z</time>
      </trkpt>
      <trkpt lat="44.55545" lon="6.33138">
        <ele>1328.1</ele>
        <time>2021-07-16T08:30:33.464Z</time>
      </trkpt>
      <trkpt lat="44.55546" lon="6.33151">
        <ele>1329.1</ele>
        <time>2021-07-16T08:30:36.980Z</time>
      </trkpt>
      <trkpt lat="44.5555" lon="6.33157">
        <ele>1329.8</ele>
        <time>2021-07-16T08:30:48.463Z</time>
      </trkpt>
      <trkpt lat="44.55552" lon="6.33172">
        <ele>1334.4</ele>
        <time>2021-07-16T08:30:54.000Z</time>
      </trkpt>
      <trkpt lat="44.5555" lon="6.33166">
        <ele>1329</ele>
        <time>2021-07-16T08:31:05.345Z</time>
      </trkpt>
      <trkpt lat="44.55553" lon="6.33172">
        <ele>1325.9</ele>
        <time>2021-07-16T08:31:12.000Z</time>
      </trkpt>
      <trkpt lat="44.55562" lon="6.3319">
        <ele>1328.2</ele>
        <time>2021-07-16T08:31:17.465Z</time>
      </trkpt>
      <trkpt lat="44.55559" lon="6.33185">
        <ele>1328.2</ele>
        <time>2021-07-16T08:31:27.000Z</time>
      </trkpt>
      <trkpt lat="44.55571" lon="6.33202">
        <ele>1331.6</ele>
        <time>2021-07-16T08:31:40.396Z</time>
      </trkpt>
      <trkpt lat="44.55576" lon="6.33219">
        <ele>1332.3</ele>
        <time>2021-07-16T08:31:43.454Z</time>
      </trkpt>
      <trkpt lat="44.55581" lon="6.33235">
        <ele>1332.8</ele>
        <time>2021-07-16T08:31:46.479Z</time>
      </trkpt>
      <trkpt lat="44.55585" lon="6.33251">
        <ele>1332.8</ele>
        <time>2021-07-16T08:31:50.459Z</time>
      </trkpt>
      <trkpt lat="44.5559" lon="6.33265">
        <ele>1332.9</ele>
        <time>2021-07-16T08:31:53.468Z</time>
      </trkpt>
      <trkpt lat="44.55595" lon="6.33279">
        <ele>1332.2</ele>
        <time>2021-07-16T08:31:56.508Z</time>
      </trkpt>
      <trkpt lat="44.55603" lon="6.33291">
        <ele>1330.5</ele>
        <time>2021-07-16T08:32:00.469Z</time>
      </trkpt>
      <trkpt lat="44.55613" lon="6.33298">
        <ele>1331.4</ele>
        <time>2021-07-16T08:32:04.464Z</time>
      </trkpt>
      <trkpt lat="44.5562" lon="6.33299">
        <ele>1329.8</ele>
        <time>2021-07-16T08:32:07.465Z</time>
      </trkpt>
      <trkpt lat="44.55622" lon="6.33306">
        <ele>1328.8</ele>
        <time>2021-07-16T08:32:11.455Z</time>
      </trkpt>
      <trkpt lat="44.55625" lon="6.33314">
        <ele>1328</ele>
        <time>2021-07-16T08:32:15.179Z</time>
      </trkpt>
      <trkpt lat="44.55629" lon="6.33324">
        <ele>1329.3</ele>
        <time>2021-07-16T08:32:18.560Z</time>
      </trkpt>
      <trkpt lat="44.55631" lon="6.33335">
        <ele>1330.3</ele>
        <time>2021-07-16T08:32:22.461Z</time>
      </trkpt>
      <trkpt lat="44.55637" lon="6.33345">
        <ele>1330.8</ele>
        <time>2021-07-16T08:32:26.468Z</time>
      </trkpt>
      <trkpt lat="44.55648" lon="6.33357">
        <ele>1329.2</ele>
        <time>2021-07-16T08:32:30.578Z</time>
      </trkpt>
      <trkpt lat="44.55654" lon="6.33366">
        <ele>1330.7</ele>
        <time>2021-07-16T08:32:34.100Z</time>
      </trkpt>
      <trkpt lat="44.55662" lon="6.33376">
        <ele>1328</ele>
        <time>2021-07-16T08:32:38.468Z</time>
      </trkpt>
      <trkpt lat="44.55662" lon="6.33386">
        <ele>1330.3</ele>
        <time>2021-07-16T08:32:41.903Z</time>
      </trkpt>
      <trkpt lat="44.55663" lon="6.33393">
        <ele>1279.2</ele>
        <time>2021-07-16T08:32:45.459Z</time>
      </trkpt>
      <trkpt lat="44.55662" lon="6.33407">
        <ele>1319.1</ele>
        <time>2021-07-16T08:32:52.401Z</time>
      </trkpt>
      <trkpt lat="44.55664" lon="6.33419">
        <ele>1354.8</ele>
        <time>2021-07-16T08:32:55.557Z</time>
      </trkpt>
      <trkpt lat="44.55665" lon="6.33432">
        <ele>1344.6</ele>
        <time>2021-07-16T08:32:58.674Z</time>
      </trkpt>
      <trkpt lat="44.55667" lon="6.33448">
        <ele>1340.5</ele>
        <time>2021-07-16T08:33:02.463Z</time>
      </trkpt>
      <trkpt lat="44.55671" lon="6.33463">
        <ele>1337.7</ele>
        <time>2021-07-16T08:33:05.463Z</time>
      </trkpt>
      <trkpt lat="44.55683" lon="6.33509">
        <ele>1367.2</ele>
        <time>2021-07-16T08:33:12.000Z</time>
      </trkpt>
      <trkpt lat="44.55684" lon="6.3352">
        <ele>1345.3</ele>
        <time>2021-07-16T08:33:15.461Z</time>
      </trkpt>
      <trkpt lat="44.55691" lon="6.3352">
        <ele>1341.5</ele>
        <time>2021-07-16T08:33:18.461Z</time>
      </trkpt>
      <trkpt lat="44.55697" lon="6.3353">
        <ele>1340.3</ele>
        <time>2021-07-16T08:33:21.885Z</time>
      </trkpt>
      <trkpt lat="44.55703" lon="6.33542">
        <ele>1338.8</ele>
        <time>2021-07-16T08:33:25.121Z</time>
      </trkpt>
      <trkpt lat="44.55711" lon="6.33547">
        <ele>1340.9</ele>
        <time>2021-07-16T08:33:28.666Z</time>
      </trkpt>
      <trkpt lat="44.55716" lon="6.33557">
        <ele>1342</ele>
        <time>2021-07-16T08:33:32.444Z</time>
      </trkpt>
      <trkpt lat="44.55713" lon="6.33571">
        <ele>1339.1</ele>
        <time>2021-07-16T08:33:35.470Z</time>
      </trkpt>
      <trkpt lat="44.55716" lon="6.33591">
        <ele>1287.4</ele>
        <time>2021-07-16T08:33:39.454Z</time>
      </trkpt>
      <trkpt lat="44.55718" lon="6.33608">
        <ele>1320.5</ele>
        <time>2021-07-16T08:33:43.000Z</time>
      </trkpt>
      <trkpt lat="44.55721" lon="6.33624">
        <ele>1329.1</ele>
        <time>2021-07-16T08:33:46.525Z</time>
      </trkpt>
      <trkpt lat="44.55722" lon="6.33649">
        <ele>1332.6</ele>
        <time>2021-07-16T08:33:50.466Z</time>
      </trkpt>
      <trkpt lat="44.55723" lon="6.33678">
        <ele>1340.8</ele>
        <time>2021-07-16T08:33:54.462Z</time>
      </trkpt>
      <trkpt lat="44.55728" lon="6.33712">
        <ele>1337.8</ele>
        <time>2021-07-16T08:34:00.000Z</time>
      </trkpt>
      <trkpt lat="44.55727" lon="6.33724">
        <ele>1341</ele>
        <time>2021-07-16T08:34:07.134Z</time>
      </trkpt>
      <trkpt lat="44.55721" lon="6.33724">
        <ele>1341.1</ele>
        <time>2021-07-16T08:34:10.248Z</time>
      </trkpt>
      <trkpt lat="44.55714" lon="6.33721">
        <ele>1340.4</ele>
        <time>2021-07-16T08:34:13.466Z</time>
      </trkpt>
      <trkpt lat="44.55706" lon="6.33723">
        <ele>1340.8</ele>
        <time>2021-07-16T08:34:16.469Z</time>
      </trkpt>
      <trkpt lat="44.55698" lon="6.33708">
        <ele>1339.8</ele>
        <time>2021-07-16T08:34:20.467Z</time>
      </trkpt>
      <trkpt lat="44.55686" lon="6.33704">
        <ele>1328.8</ele>
        <time>2021-07-16T08:34:24.469Z</time>
      </trkpt>
      <trkpt lat="44.55681" lon="6.33704">
        <ele>1328.6</ele>
        <time>2021-07-16T08:34:27.840Z</time>
      </trkpt>
      <trkpt lat="44.55678" lon="6.33716">
        <ele>1325.7</ele>
        <time>2021-07-16T08:34:34.504Z</time>
      </trkpt>
      <trkpt lat="44.55676" lon="6.33722">
        <ele>1328.7</ele>
        <time>2021-07-16T08:35:03.000Z</time>
      </trkpt>
      <trkpt lat="44.55677" lon="6.33729">
        <ele>1329.3</ele>
        <time>2021-07-16T08:35:20.705Z</time>
      </trkpt>
      <trkpt lat="44.55668" lon="6.33725">
        <ele>1326.1</ele>
        <time>2021-07-16T08:35:28.469Z</time>
      </trkpt>
      <trkpt lat="44.5566" lon="6.3373">
        <ele>1325.1</ele>
        <time>2021-07-16T08:35:32.469Z</time>
      </trkpt>
      <trkpt lat="44.55656" lon="6.33744">
        <ele>1321.9</ele>
        <time>2021-07-16T08:35:36.462Z</time>
      </trkpt>
      <trkpt lat="44.55657" lon="6.33757">
        <ele>1323.4</ele>
        <time>2021-07-16T08:35:43.624Z</time>
      </trkpt>
      <trkpt lat="44.55658" lon="6.33765">
        <ele>1326.7</ele>
        <time>2021-07-16T08:35:53.955Z</time>
      </trkpt>
      <trkpt lat="44.55654" lon="6.33769">
        <ele>1326.7</ele>
        <time>2021-07-16T08:36:39.356Z</time>
      </trkpt>
      <trkpt lat="44.55649" lon="6.33771">
        <ele>1326.1</ele>
        <time>2021-07-16T08:36:48.735Z</time>
      </trkpt>
      <trkpt lat="44.55643" lon="6.33783">
        <ele>1323.7</ele>
        <time>2021-07-16T08:36:55.481Z</time>
      </trkpt>
      <trkpt lat="44.5564" lon="6.33794">
        <ele>1320.1</ele>
        <time>2021-07-16T08:36:58.667Z</time>
      </trkpt>
      <trkpt lat="44.5564" lon="6.33805">
        <ele>1320.8</ele>
        <time>2021-07-16T08:37:02.013Z</time>
      </trkpt>
      <trkpt lat="44.55643" lon="6.33829">
        <ele>1319.5</ele>
        <time>2021-07-16T08:37:05.468Z</time>
      </trkpt>
      <trkpt lat="44.55646" lon="6.33845">
        <ele>1317.4</ele>
        <time>2021-07-16T08:37:09.166Z</time>
      </trkpt>
      <trkpt lat="44.55648" lon="6.33856">
        <ele>1316</ele>
        <time>2021-07-16T08:37:12.466Z</time>
      </trkpt>
      <trkpt lat="44.55635" lon="6.33885">
        <ele>1318.3</ele>
        <time>2021-07-16T08:37:15.768Z</time>
      </trkpt>
      <trkpt lat="44.55626" lon="6.33915">
        <ele>1320.4</ele>
        <time>2021-07-16T08:37:19.485Z</time>
      </trkpt>
      <trkpt lat="44.55622" lon="6.3394">
        <ele>1321.2</ele>
        <time>2021-07-16T08:37:23.456Z</time>
      </trkpt>
      <trkpt lat="44.55619" lon="6.33961">
        <ele>1319.3</ele>
        <time>2021-07-16T08:37:26.455Z</time>
      </trkpt>
      <trkpt lat="44.55614" lon="6.33994">
        <ele>1316.5</ele>
        <time>2021-07-16T08:37:30.000Z</time>
      </trkpt>
      <trkpt lat="44.55614" lon="6.34007">
        <ele>1317.5</ele>
        <time>2021-07-16T08:37:33.456Z</time>
      </trkpt>
      <trkpt lat="44.55614" lon="6.34017">
        <ele>1319.4</ele>
        <time>2021-07-16T08:37:36.461Z</time>
      </trkpt>
      <trkpt lat="44.55616" lon="6.34036">
        <ele>1315.5</ele>
        <time>2021-07-16T08:37:40.073Z</time>
      </trkpt>
      <trkpt lat="44.55617" lon="6.34046">
        <ele>1317</ele>
        <time>2021-07-16T08:37:43.447Z</time>
      </trkpt>
      <trkpt lat="44.55617" lon="6.34054">
        <ele>1313.5</ele>
        <time>2021-07-16T08:37:46.452Z</time>
      </trkpt>
      <trkpt lat="44.55615" lon="6.34063">
        <ele>1316.8</ele>
        <time>2021-07-16T08:37:49.502Z</time>
      </trkpt>
      <trkpt lat="44.55616" lon="6.34076">
        <ele>1319.3</ele>
        <time>2021-07-16T08:37:53.076Z</time>
      </trkpt>
      <trkpt lat="44.5562" lon="6.34088">
        <ele>1321.5</ele>
        <time>2021-07-16T08:37:56.462Z</time>
      </trkpt>
      <trkpt lat="44.55624" lon="6.34102">
        <ele>1320.4</ele>
        <time>2021-07-16T08:37:59.657Z</time>
      </trkpt>
      <trkpt lat="44.55624" lon="6.34116">
        <ele>1320.9</ele>
        <time>2021-07-16T08:38:03.467Z</time>
      </trkpt>
      <trkpt lat="44.55621" lon="6.34127">
        <ele>1321</ele>
        <time>2021-07-16T08:38:06.469Z</time>
      </trkpt>
      <trkpt lat="44.55615" lon="6.34145">
        <ele>1321.2</ele>
        <time>2021-07-16T08:38:09.667Z</time>
      </trkpt>
      <trkpt lat="44.55603" lon="6.3418">
        <ele>1322.2</ele>
        <time>2021-07-16T08:38:15.000Z</time>
      </trkpt>
      <trkpt lat="44.55598" lon="6.34191">
        <ele>1322.2</ele>
        <time>2021-07-16T08:38:17.468Z</time>
      </trkpt>
      <trkpt lat="44.55595" lon="6.34197">
        <ele>1323</ele>
        <time>2021-07-16T08:38:27.000Z</time>
      </trkpt>
      <trkpt lat="44.55591" lon="6.34215">
        <ele>1320.1</ele>
        <time>2021-07-16T08:38:40.474Z</time>
      </trkpt>
      <trkpt lat="44.55595" lon="6.34241">
        <ele>1322.2</ele>
        <time>2021-07-16T08:38:44.131Z</time>
      </trkpt>
      <trkpt lat="44.55588" lon="6.34257">
        <ele>1321.3</ele>
        <time>2021-07-16T08:38:47.440Z</time>
      </trkpt>
      <trkpt lat="44.55587" lon="6.34271">
        <ele>1320.2</ele>
        <time>2021-07-16T08:38:50.465Z</time>
      </trkpt>
      <trkpt lat="44.55586" lon="6.34284">
        <ele>1321.8</ele>
        <time>2021-07-16T08:38:54.508Z</time>
      </trkpt>
      <trkpt lat="44.5559" lon="6.34295">
        <ele>1320.2</ele>
        <time>2021-07-16T08:38:58.144Z</time>
      </trkpt>
      <trkpt lat="44.5559" lon="6.34305">
        <ele>1264.6</ele>
        <time>2021-07-16T08:39:01.478Z</time>
      </trkpt>
      <trkpt lat="44.55589" lon="6.34312">
        <ele>1320.4</ele>
        <time>2021-07-16T08:39:17.651Z</time>
      </trkpt>
      <trkpt lat="44.55593" lon="6.34319">
        <ele>1322.6</ele>
        <time>2021-07-16T08:39:45.000Z</time>
      </trkpt>
      <trkpt lat="44.556" lon="6.34336">
        <ele>1323.3</ele>
        <time>2021-07-16T08:39:55.510Z</time>
      </trkpt>
      <trkpt lat="44.55601" lon="6.3435">
        <ele>1321.4</ele>
        <time>2021-07-16T08:39:59.469Z</time>
      </trkpt>
      <trkpt lat="44.55606" lon="6.34364">
        <ele>1326.7</ele>
        <time>2021-07-16T08:40:03.461Z</time>
      </trkpt>
      <trkpt lat="44.55608" lon="6.34379">
        <ele>1323.5</ele>
        <time>2021-07-16T08:40:07.138Z</time>
      </trkpt>
      <trkpt lat="44.55609" lon="6.34388">
        <ele>1327.5</ele>
        <time>2021-07-16T08:40:10.449Z</time>
      </trkpt>
      <trkpt lat="44.5561" lon="6.34398">
        <ele>1330.6</ele>
        <time>2021-07-16T08:40:13.472Z</time>
      </trkpt>
      <trkpt lat="44.55612" lon="6.34414">
        <ele>1330.5</ele>
        <time>2021-07-16T08:40:17.462Z</time>
      </trkpt>
      <trkpt lat="44.55613" lon="6.34433">
        <ele>1334.1</ele>
        <time>2021-07-16T08:40:21.467Z</time>
      </trkpt>
      <trkpt lat="44.55614" lon="6.34444">
        <ele>1335</ele>
        <time>2021-07-16T08:40:25.217Z</time>
      </trkpt>
      <trkpt lat="44.55614" lon="6.34454">
        <ele>1336.5</ele>
        <time>2021-07-16T08:40:28.918Z</time>
      </trkpt>
      <trkpt lat="44.55615" lon="6.34462">
        <ele>1273.2</ele>
        <time>2021-07-16T08:40:32.444Z</time>
      </trkpt>
      <trkpt lat="44.55613" lon="6.34477">
        <ele>1326.1</ele>
        <time>2021-07-16T08:40:39.295Z</time>
      </trkpt>
      <trkpt lat="44.55614" lon="6.34485">
        <ele>1331.5</ele>
        <time>2021-07-16T08:40:42.464Z</time>
      </trkpt>
      <trkpt lat="44.55613" lon="6.34493">
        <ele>1335.2</ele>
        <time>2021-07-16T08:40:45.474Z</time>
      </trkpt>
      <trkpt lat="44.55612" lon="6.34503">
        <ele>1335.7</ele>
        <time>2021-07-16T08:40:48.748Z</time>
      </trkpt>
      <trkpt lat="44.55606" lon="6.34512">
        <ele>1336.2</ele>
        <time>2021-07-16T08:40:52.315Z</time>
      </trkpt>
      <trkpt lat="44.55601" lon="6.3452">
        <ele>1360.7</ele>
        <time>2021-07-16T08:40:55.468Z</time>
      </trkpt>
      <trkpt lat="44.55592" lon="6.34534">
        <ele>1352.7</ele>
        <time>2021-07-16T08:40:59.456Z</time>
      </trkpt>
      <trkpt lat="44.55585" lon="6.3455">
        <ele>1347.1</ele>
        <time>2021-07-16T08:41:03.464Z</time>
      </trkpt>
      <trkpt lat="44.55585" lon="6.34562">
        <ele>1344.6</ele>
        <time>2021-07-16T08:41:06.801Z</time>
      </trkpt>
      <trkpt lat="44.55586" lon="6.34572">
        <ele>1347.7</ele>
        <time>2021-07-16T08:41:10.553Z</time>
      </trkpt>
      <trkpt lat="44.55586" lon="6.34582">
        <ele>1349.1</ele>
        <time>2021-07-16T08:41:13.625Z</time>
      </trkpt>
      <trkpt lat="44.55588" lon="6.34593">
        <ele>1349</ele>
        <time>2021-07-16T08:41:18.000Z</time>
      </trkpt>
      <trkpt lat="44.55585" lon="6.34603">
        <ele>1353.2</ele>
        <time>2021-07-16T08:41:54.502Z</time>
      </trkpt>
      <trkpt lat="44.55588" lon="6.34614">
        <ele>1354.6</ele>
        <time>2021-07-16T08:41:58.472Z</time>
      </trkpt>
      <trkpt lat="44.55593" lon="6.34625">
        <ele>1354.1</ele>
        <time>2021-07-16T08:42:02.472Z</time>
      </trkpt>
      <trkpt lat="44.55593" lon="6.34633">
        <ele>1352.8</ele>
        <time>2021-07-16T08:42:06.367Z</time>
      </trkpt>
      <trkpt lat="44.5559" lon="6.3464">
        <ele>1350.3</ele>
        <time>2021-07-16T08:42:09.735Z</time>
      </trkpt>
      <trkpt lat="44.55578" lon="6.34672">
        <ele>1356.4</ele>
        <time>2021-07-16T08:42:15.000Z</time>
      </trkpt>
      <trkpt lat="44.55576" lon="6.34679">
        <ele>1356.4</ele>
        <time>2021-07-16T08:42:17.469Z</time>
      </trkpt>
      <trkpt lat="44.55571" lon="6.34691">
        <ele>1352.9</ele>
        <time>2021-07-16T08:42:20.471Z</time>
      </trkpt>
      <trkpt lat="44.55563" lon="6.34705">
        <ele>1352.7</ele>
        <time>2021-07-16T08:42:23.503Z</time>
      </trkpt>
      <trkpt lat="44.55557" lon="6.34731">
        <ele>1323.7</ele>
        <time>2021-07-16T08:42:27.293Z</time>
      </trkpt>
      <trkpt lat="44.55554" lon="6.34741">
        <ele>1337.8</ele>
        <time>2021-07-16T08:42:30.470Z</time>
      </trkpt>
      <trkpt lat="44.5555" lon="6.34754">
        <ele>1343.9</ele>
        <time>2021-07-16T08:42:33.549Z</time>
      </trkpt>
      <trkpt lat="44.5555" lon="6.34764">
        <ele>1346</ele>
        <time>2021-07-16T08:42:37.471Z</time>
      </trkpt>
      <trkpt lat="44.5555" lon="6.34777">
        <ele>1345.8</ele>
        <time>2021-07-16T08:42:41.471Z</time>
      </trkpt>
      <trkpt lat="44.5555" lon="6.34791">
        <ele>1344.5</ele>
        <time>2021-07-16T08:42:45.475Z</time>
      </trkpt>
      <trkpt lat="44.55552" lon="6.34803">
        <ele>1345.6</ele>
        <time>2021-07-16T08:42:48.516Z</time>
      </trkpt>
      <trkpt lat="44.55555" lon="6.34819">
        <ele>1363</ele>
        <time>2021-07-16T08:42:51.875Z</time>
      </trkpt>
      <trkpt lat="44.5556" lon="6.34833">
        <ele>1353.2</ele>
        <time>2021-07-16T08:42:55.275Z</time>
      </trkpt>
      <trkpt lat="44.55561" lon="6.34844">
        <ele>1353.4</ele>
        <time>2021-07-16T08:42:58.550Z</time>
      </trkpt>
      <trkpt lat="44.5556" lon="6.34855">
        <ele>1354.2</ele>
        <time>2021-07-16T08:43:02.465Z</time>
      </trkpt>
      <trkpt lat="44.5556" lon="6.34863">
        <ele>1355</ele>
        <time>2021-07-16T08:43:09.000Z</time>
      </trkpt>
      <trkpt lat="44.55549" lon="6.34867">
        <ele>1333</ele>
        <time>2021-07-16T08:43:33.467Z</time>
      </trkpt>
      <trkpt lat="44.55552" lon="6.3489">
        <ele>1339.3</ele>
        <time>2021-07-16T08:43:37.460Z</time>
      </trkpt>
      <trkpt lat="44.55556" lon="6.34913">
        <ele>1342.1</ele>
        <time>2021-07-16T08:43:41.473Z</time>
      </trkpt>
      <trkpt lat="44.55559" lon="6.34925">
        <ele>1342</ele>
        <time>2021-07-16T08:43:45.459Z</time>
      </trkpt>
      <trkpt lat="44.5556" lon="6.34941">
        <ele>1339.5</ele>
        <time>2021-07-16T08:43:49.333Z</time>
      </trkpt>
      <trkpt lat="44.55563" lon="6.34948">
        <ele>1337.8</ele>
        <time>2021-07-16T08:43:52.464Z</time>
      </trkpt>
      <trkpt lat="44.55567" lon="6.34966">
        <ele>1337.2</ele>
        <time>2021-07-16T08:43:56.474Z</time>
      </trkpt>
      <trkpt lat="44.55571" lon="6.34974">
        <ele>1335.8</ele>
        <time>2021-07-16T08:44:00.517Z</time>
      </trkpt>
      <trkpt lat="44.55575" lon="6.34978">
        <ele>1336.9</ele>
        <time>2021-07-16T08:44:06.000Z</time>
      </trkpt>
      <trkpt lat="44.55577" lon="6.34985">
        <ele>1341.2</ele>
        <time>2021-07-16T08:44:55.462Z</time>
      </trkpt>
      <trkpt lat="44.55578" lon="6.34998">
        <ele>1333.4</ele>
        <time>2021-07-16T08:45:09.576Z</time>
      </trkpt>
      <trkpt lat="44.55569" lon="6.35004">
        <ele>1331</ele>
        <time>2021-07-16T08:45:12.971Z</time>
      </trkpt>
      <trkpt lat="44.55559" lon="6.35002">
        <ele>1332.9</ele>
        <time>2021-07-16T08:45:16.464Z</time>
      </trkpt>
      <trkpt lat="44.5555" lon="6.35005">
        <ele>1327.8</ele>
        <time>2021-07-16T08:45:19.469Z</time>
      </trkpt>
      <trkpt lat="44.55537" lon="6.35011">
        <ele>1326.4</ele>
        <time>2021-07-16T08:45:23.517Z</time>
      </trkpt>
      <trkpt lat="44.55527" lon="6.35008">
        <ele>1323.4</ele>
        <time>2021-07-16T08:45:27.470Z</time>
      </trkpt>
      <trkpt lat="44.5552" lon="6.35021">
        <ele>1322.9</ele>
        <time>2021-07-16T08:45:34.658Z</time>
      </trkpt>
      <trkpt lat="44.55523" lon="6.35035">
        <ele>1317.1</ele>
        <time>2021-07-16T08:45:39.000Z</time>
      </trkpt>
      <trkpt lat="44.55527" lon="6.35047">
        <ele>1317.1</ele>
        <time>2021-07-16T08:45:41.498Z</time>
      </trkpt>
      <trkpt lat="44.55525" lon="6.35059">
        <ele>1316.4</ele>
        <time>2021-07-16T08:45:45.060Z</time>
      </trkpt>
      <trkpt lat="44.55526" lon="6.35072">
        <ele>1313.5</ele>
        <time>2021-07-16T08:46:04.970Z</time>
      </trkpt>
      <trkpt lat="44.55523" lon="6.35079">
        <ele>1314.6</ele>
        <time>2021-07-16T08:46:07.982Z</time>
      </trkpt>
      <trkpt lat="44.55518" lon="6.35085">
        <ele>1315.3</ele>
        <time>2021-07-16T08:46:15.491Z</time>
      </trkpt>
      <trkpt lat="44.55514" lon="6.35091">
        <ele>1313.1</ele>
        <time>2021-07-16T08:46:42.000Z</time>
      </trkpt>
      <trkpt lat="44.55508" lon="6.35088">
        <ele>1316.9</ele>
        <time>2021-07-16T08:47:30.000Z</time>
      </trkpt>
      <trkpt lat="44.55503" lon="6.35093">
        <ele>1315.5</ele>
        <time>2021-07-16T08:47:39.540Z</time>
      </trkpt>
      <trkpt lat="44.55498" lon="6.35098">
        <ele>1315.5</ele>
        <time>2021-07-16T08:47:49.482Z</time>
      </trkpt>
      <trkpt lat="44.55495" lon="6.35105">
        <ele>1312.4</ele>
        <time>2021-07-16T08:47:53.456Z</time>
      </trkpt>
      <trkpt lat="44.55494" lon="6.35114">
        <ele>1307.4</ele>
        <time>2021-07-16T08:47:57.463Z</time>
      </trkpt>
      <trkpt lat="44.55495" lon="6.35123">
        <ele>1276.2</ele>
        <time>2021-07-16T08:48:00.662Z</time>
      </trkpt>
      <trkpt lat="44.55492" lon="6.35135">
        <ele>1290.3</ele>
        <time>2021-07-16T08:48:04.069Z</time>
      </trkpt>
      <trkpt lat="44.55492" lon="6.35146">
        <ele>1296.5</ele>
        <time>2021-07-16T08:48:07.279Z</time>
      </trkpt>
      <trkpt lat="44.5549" lon="6.35154">
        <ele>1298.2</ele>
        <time>2021-07-16T08:48:10.522Z</time>
      </trkpt>
      <trkpt lat="44.55487" lon="6.35163">
        <ele>1302.3</ele>
        <time>2021-07-16T08:48:14.468Z</time>
      </trkpt>
      <trkpt lat="44.55486" lon="6.35178">
        <ele>1296</ele>
        <time>2021-07-16T08:48:18.456Z</time>
      </trkpt>
      <trkpt lat="44.55485" lon="6.35189">
        <ele>1295</ele>
        <time>2021-07-16T08:48:22.474Z</time>
      </trkpt>
      <trkpt lat="44.5548" lon="6.35206">
        <ele>1291.3</ele>
        <time>2021-07-16T08:48:26.472Z</time>
      </trkpt>
      <trkpt lat="44.55479" lon="6.35216">
        <ele>1290.7</ele>
        <time>2021-07-16T08:48:30.176Z</time>
      </trkpt>
      <trkpt lat="44.5548" lon="6.35223">
        <ele>1289.8</ele>
        <time>2021-07-16T08:48:33.535Z</time>
      </trkpt>
      <trkpt lat="44.5548" lon="6.35231">
        <ele>1289.2</ele>
        <time>2021-07-16T08:48:37.392Z</time>
      </trkpt>
      <trkpt lat="44.55478" lon="6.3524">
        <ele>1287.4</ele>
        <time>2021-07-16T08:48:40.534Z</time>
      </trkpt>
      <trkpt lat="44.55474" lon="6.35247">
        <ele>1284.2</ele>
        <time>2021-07-16T08:48:43.628Z</time>
      </trkpt>
      <trkpt lat="44.5547" lon="6.35255">
        <ele>1285.1</ele>
        <time>2021-07-16T08:48:46.836Z</time>
      </trkpt>
      <trkpt lat="44.55463" lon="6.3526">
        <ele>1281.8</ele>
        <time>2021-07-16T08:48:50.475Z</time>
      </trkpt>
      <trkpt lat="44.55457" lon="6.35267">
        <ele>1322.9</ele>
        <time>2021-07-16T08:48:54.478Z</time>
      </trkpt>
      <trkpt lat="44.55448" lon="6.35283">
        <ele>1305.2</ele>
        <time>2021-07-16T08:48:57.961Z</time>
      </trkpt>
      <trkpt lat="44.55441" lon="6.35297">
        <ele>1293.7</ele>
        <time>2021-07-16T08:49:01.444Z</time>
      </trkpt>
      <trkpt lat="44.5544" lon="6.35306">
        <ele>1290.3</ele>
        <time>2021-07-16T08:49:04.470Z</time>
      </trkpt>
      <trkpt lat="44.55432" lon="6.35324">
        <ele>1282</ele>
        <time>2021-07-16T08:49:08.476Z</time>
      </trkpt>
      <trkpt lat="44.55426" lon="6.35345">
        <ele>1277</ele>
        <time>2021-07-16T08:49:12.345Z</time>
      </trkpt>
      <trkpt lat="44.55414" lon="6.35349">
        <ele>1275.7</ele>
        <time>2021-07-16T08:49:15.466Z</time>
      </trkpt>
      <trkpt lat="44.55404" lon="6.35355">
        <ele>1275.6</ele>
        <time>2021-07-16T08:49:18.515Z</time>
      </trkpt>
      <trkpt lat="44.55396" lon="6.35369">
        <ele>1275.1</ele>
        <time>2021-07-16T08:49:22.469Z</time>
      </trkpt>
      <trkpt lat="44.55384" lon="6.35388">
        <ele>1271.1</ele>
        <time>2021-07-16T08:49:26.468Z</time>
      </trkpt>
      <trkpt lat="44.55371" lon="6.35392">
        <ele>1268</ele>
        <time>2021-07-16T08:49:30.111Z</time>
      </trkpt>
      <trkpt lat="44.55368" lon="6.35402">
        <ele>1266.6</ele>
        <time>2021-07-16T08:49:33.465Z</time>
      </trkpt>
      <trkpt lat="44.55361" lon="6.35405">
        <ele>1264.4</ele>
        <time>2021-07-16T08:49:36.817Z</time>
      </trkpt>
      <trkpt lat="44.55357" lon="6.3541">
        <ele>1260</ele>
        <time>2021-07-16T08:49:39.903Z</time>
      </trkpt>
      <trkpt lat="44.55345" lon="6.35412">
        <ele>1256.8</ele>
        <time>2021-07-16T08:49:44.000Z</time>
      </trkpt>
      <trkpt lat="44.55338" lon="6.35409">
        <ele>1254.8</ele>
        <time>2021-07-16T08:49:47.000Z</time>
      </trkpt>
      <trkpt lat="44.55333" lon="6.35408">
        <ele>1253.6</ele>
        <time>2021-07-16T08:49:50.000Z</time>
      </trkpt>
      <trkpt lat="44.55316" lon="6.35418">
        <ele>1253.4</ele>
        <time>2021-07-16T08:49:56.539Z</time>
      </trkpt>
      <trkpt lat="44.55306" lon="6.35417">
        <ele>1250.8</ele>
        <time>2021-07-16T08:50:00.452Z</time>
      </trkpt>
      <trkpt lat="44.553" lon="6.35414">
        <ele>1239.4</ele>
        <time>2021-07-16T08:50:05.000Z</time>
      </trkpt>
      <trkpt lat="44.55286" lon="6.35413">
        <ele>1239.4</ele>
        <time>2021-07-16T08:50:07.464Z</time>
      </trkpt>
      <trkpt lat="44.55264" lon="6.35413">
        <ele>1295.1</ele>
        <time>2021-07-16T08:50:11.481Z</time>
      </trkpt>
      <trkpt lat="44.55204" lon="6.35369">
        <ele>1242.8</ele>
        <time>2021-07-16T08:50:19.511Z</time>
      </trkpt>
      <trkpt lat="44.5519" lon="6.35373">
        <ele>1237.5</ele>
        <time>2021-07-16T08:50:23.465Z</time>
      </trkpt>
      <trkpt lat="44.55184" lon="6.35372">
        <ele>1232.3</ele>
        <time>2021-07-16T08:50:26.477Z</time>
      </trkpt>
      <trkpt lat="44.55178" lon="6.35378">
        <ele>1226.4</ele>
        <time>2021-07-16T08:50:30.088Z</time>
      </trkpt>
      <trkpt lat="44.55173" lon="6.35384">
        <ele>1225.7</ele>
        <time>2021-07-16T08:50:33.464Z</time>
      </trkpt>
      <trkpt lat="44.55163" lon="6.3539">
        <ele>1221.5</ele>
        <time>2021-07-16T08:50:37.502Z</time>
      </trkpt>
      <trkpt lat="44.55158" lon="6.35394">
        <ele>1217.5</ele>
        <time>2021-07-16T08:50:40.511Z</time>
      </trkpt>
      <trkpt lat="44.55148" lon="6.354">
        <ele>1214.6</ele>
        <time>2021-07-16T08:50:44.467Z</time>
      </trkpt>
      <trkpt lat="44.55141" lon="6.35403">
        <ele>1214.9</ele>
        <time>2021-07-16T08:50:47.514Z</time>
      </trkpt>
      <trkpt lat="44.5513" lon="6.35401">
        <ele>1213.4</ele>
        <time>2021-07-16T08:50:50.606Z</time>
      </trkpt>
      <trkpt lat="44.55117" lon="6.35405">
        <ele>1209.4</ele>
        <time>2021-07-16T08:50:54.472Z</time>
      </trkpt>
      <trkpt lat="44.55093" lon="6.35413">
        <ele>1207.1</ele>
        <time>2021-07-16T08:50:59.000Z</time>
      </trkpt>
      <trkpt lat="44.55082" lon="6.35415">
        <ele>1207.1</ele>
        <time>2021-07-16T08:51:01.460Z</time>
      </trkpt>
      <trkpt lat="44.55072" lon="6.35418">
        <ele>1202.1</ele>
        <time>2021-07-16T08:51:04.470Z</time>
      </trkpt>
      <trkpt lat="44.55064" lon="6.35423">
        <ele>1191.5</ele>
        <time>2021-07-16T08:51:07.513Z</time>
      </trkpt>
      <trkpt lat="44.55052" lon="6.35428">
        <ele>1187.6</ele>
        <time>2021-07-16T08:51:11.468Z</time>
      </trkpt>
      <trkpt lat="44.55042" lon="6.35431">
        <ele>1185.7</ele>
        <time>2021-07-16T08:51:14.475Z</time>
      </trkpt>
      <trkpt lat="44.55009" lon="6.35451">
        <ele>1199.6</ele>
        <time>2021-07-16T08:51:20.000Z</time>
      </trkpt>
      <trkpt lat="44.54998" lon="6.35451">
        <ele>1199.6</ele>
        <time>2021-07-16T08:51:22.467Z</time>
      </trkpt>
      <trkpt lat="44.54987" lon="6.35454">
        <ele>1179</ele>
        <time>2021-07-16T08:51:28.544Z</time>
      </trkpt>
      <trkpt lat="44.5498" lon="6.35456">
        <ele>1177.5</ele>
        <time>2021-07-16T08:51:32.464Z</time>
      </trkpt>
      <trkpt lat="44.54972" lon="6.35455">
        <ele>1174</ele>
        <time>2021-07-16T08:51:36.468Z</time>
      </trkpt>
      <trkpt lat="44.54961" lon="6.35457">
        <ele>1172</ele>
        <time>2021-07-16T08:51:43.616Z</time>
      </trkpt>
      <trkpt lat="44.54956" lon="6.35457">
        <ele>1172.6</ele>
        <time>2021-07-16T08:52:05.751Z</time>
      </trkpt>
      <trkpt lat="44.54951" lon="6.35452">
        <ele>1167.4</ele>
        <time>2021-07-16T08:52:17.770Z</time>
      </trkpt>
      <trkpt lat="44.54942" lon="6.35447">
        <ele>1177.4</ele>
        <time>2021-07-16T08:52:25.452Z</time>
      </trkpt>
      <trkpt lat="44.54936" lon="6.35443">
        <ele>1169</ele>
        <time>2021-07-16T08:52:28.614Z</time>
      </trkpt>
      <trkpt lat="44.54929" lon="6.35439">
        <ele>1168.6</ele>
        <time>2021-07-16T08:52:32.069Z</time>
      </trkpt>
      <trkpt lat="44.54921" lon="6.35434">
        <ele>1167.1</ele>
        <time>2021-07-16T08:52:35.466Z</time>
      </trkpt>
      <trkpt lat="44.54914" lon="6.35428">
        <ele>1162.7</ele>
        <time>2021-07-16T08:52:38.590Z</time>
      </trkpt>
      <trkpt lat="44.54909" lon="6.35423">
        <ele>1158</ele>
        <time>2021-07-16T08:52:42.469Z</time>
      </trkpt>
      <trkpt lat="44.54901" lon="6.35421">
        <ele>1156</ele>
        <time>2021-07-16T08:52:46.443Z</time>
      </trkpt>
      <trkpt lat="44.54895" lon="6.35422">
        <ele>1153.3</ele>
        <time>2021-07-16T08:52:49.467Z</time>
      </trkpt>
      <trkpt lat="44.54885" lon="6.35428">
        <ele>1149.3</ele>
        <time>2021-07-16T08:52:53.454Z</time>
      </trkpt>
      <trkpt lat="44.54874" lon="6.35427">
        <ele>1144.6</ele>
        <time>2021-07-16T08:52:56.586Z</time>
      </trkpt>
      <trkpt lat="44.54866" lon="6.3543">
        <ele>1144.8</ele>
        <time>2021-07-16T08:53:00.460Z</time>
      </trkpt>
      <trkpt lat="44.5485" lon="6.35434">
        <ele>1217.3</ele>
        <time>2021-07-16T08:53:03.518Z</time>
      </trkpt>
      <trkpt lat="44.54839" lon="6.35437">
        <ele>1195.9</ele>
        <time>2021-07-16T08:53:07.147Z</time>
      </trkpt>
      <trkpt lat="44.54834" lon="6.35439">
        <ele>1161.5</ele>
        <time>2021-07-16T08:53:11.000Z</time>
      </trkpt>
      <trkpt lat="44.54828" lon="6.35436">
        <ele>1156.7</ele>
        <time>2021-07-16T08:53:14.000Z</time>
      </trkpt>
      <trkpt lat="44.54821" lon="6.35434">
        <ele>1156.7</ele>
        <time>2021-07-16T08:53:16.466Z</time>
      </trkpt>
      <trkpt lat="44.54795" lon="6.35432">
        <ele>1142</ele>
        <time>2021-07-16T08:53:23.000Z</time>
      </trkpt>
      <trkpt lat="44.54788" lon="6.35433">
        <ele>1133.9</ele>
        <time>2021-07-16T08:53:25.556Z</time>
      </trkpt>
      <trkpt lat="44.54778" lon="6.35439">
        <ele>1137.5</ele>
        <time>2021-07-16T08:53:28.577Z</time>
      </trkpt>
      <trkpt lat="44.54758" lon="6.35458">
        <ele>1131.9</ele>
        <time>2021-07-16T08:53:32.316Z</time>
      </trkpt>
      <trkpt lat="44.54741" lon="6.35468">
        <ele>1127.7</ele>
        <time>2021-07-16T08:53:36.514Z</time>
      </trkpt>
      <trkpt lat="44.54741" lon="6.35475">
        <ele>1124.6</ele>
        <time>2021-07-16T08:53:39.534Z</time>
      </trkpt>
      <trkpt lat="44.54752" lon="6.35479">
        <ele>1120.5</ele>
        <time>2021-07-16T08:53:43.472Z</time>
      </trkpt>
      <trkpt lat="44.54761" lon="6.35483">
        <ele>1115.8</ele>
        <time>2021-07-16T08:53:46.574Z</time>
      </trkpt>
      <trkpt lat="44.54767" lon="6.35487">
        <ele>1111.7</ele>
        <time>2021-07-16T08:53:53.000Z</time>
      </trkpt>
      <trkpt lat="44.54766" lon="6.35494">
        <ele>1109.4</ele>
        <time>2021-07-16T08:54:05.000Z</time>
      </trkpt>
      <trkpt lat="44.54766" lon="6.35501">
        <ele>1108.7</ele>
        <time>2021-07-16T08:54:14.000Z</time>
      </trkpt>
      <trkpt lat="44.54764" lon="6.35509">
        <ele>1108.4</ele>
        <time>2021-07-16T08:54:35.000Z</time>
      </trkpt>
      <trkpt lat="44.54757" lon="6.35519">
        <ele>1104.7</ele>
        <time>2021-07-16T08:56:26.000Z</time>
      </trkpt>
      <trkpt lat="44.54748" lon="6.35527">
        <ele>1104.5</ele>
        <time>2021-07-16T08:56:28.698Z</time>
      </trkpt>
      <trkpt lat="44.54736" lon="6.35536">
        <ele>1108.5</ele>
        <time>2021-07-16T08:56:32.453Z</time>
      </trkpt>
      <trkpt lat="44.54729" lon="6.35543">
        <ele>1105.6</ele>
        <time>2021-07-16T08:56:35.573Z</time>
      </trkpt>
      <trkpt lat="44.5472" lon="6.35549">
        <ele>1104.1</ele>
        <time>2021-07-16T08:56:39.467Z</time>
      </trkpt>
      <trkpt lat="44.54715" lon="6.35555">
        <ele>1102.7</ele>
        <time>2021-07-16T08:56:42.596Z</time>
      </trkpt>
      <trkpt lat="44.5471" lon="6.35565">
        <ele>1102.2</ele>
        <time>2021-07-16T08:56:46.237Z</time>
      </trkpt>
      <trkpt lat="44.54704" lon="6.35576">
        <ele>1130.2</ele>
        <time>2021-07-16T08:56:50.000Z</time>
      </trkpt>
      <trkpt lat="44.54685" lon="6.35592">
        <ele>1110.3</ele>
        <time>2021-07-16T08:56:52.520Z</time>
      </trkpt>
      <trkpt lat="44.54652" lon="6.35603">
        <ele>1100.1</ele>
        <time>2021-07-16T08:56:59.000Z</time>
      </trkpt>
      <trkpt lat="44.54643" lon="6.35599">
        <ele>1155.5</ele>
        <time>2021-07-16T08:57:02.455Z</time>
      </trkpt>
      <trkpt lat="44.54622" lon="6.35594">
        <ele>1101.3</ele>
        <time>2021-07-16T08:57:08.000Z</time>
      </trkpt>
      <trkpt lat="44.54617" lon="6.35598">
        <ele>1096.6</ele>
        <time>2021-07-16T08:57:10.977Z</time>
      </trkpt>
      <trkpt lat="44.54615" lon="6.3561">
        <ele>1092.8</ele>
        <time>2021-07-16T08:57:14.471Z</time>
      </trkpt>
      <trkpt lat="44.54607" lon="6.35607">
        <ele>1108.5</ele>
        <time>2021-07-16T08:57:17.841Z</time>
      </trkpt>
      <trkpt lat="44.546" lon="6.35614">
        <ele>1108.3</ele>
        <time>2021-07-16T08:57:23.000Z</time>
      </trkpt>
      <trkpt lat="44.54593" lon="6.35615">
        <ele>1083.1</ele>
        <time>2021-07-16T08:57:44.474Z</time>
      </trkpt>
      <trkpt lat="44.54584" lon="6.35587">
        <ele>1081.6</ele>
        <time>2021-07-16T08:57:50.000Z</time>
      </trkpt>
      <trkpt lat="44.54581" lon="6.35571">
        <ele>1122.8</ele>
        <time>2021-07-16T08:57:53.000Z</time>
      </trkpt>
      <trkpt lat="44.54578" lon="6.35556">
        <ele>1103</ele>
        <time>2021-07-16T08:57:56.000Z</time>
      </trkpt>
      <trkpt lat="44.54569" lon="6.35546">
        <ele>1092.4</ele>
        <time>2021-07-16T08:57:59.000Z</time>
      </trkpt>
      <trkpt lat="44.54556" lon="6.35547">
        <ele>1137.8</ele>
        <time>2021-07-16T08:58:05.000Z</time>
      </trkpt>
      <trkpt lat="44.54543" lon="6.35552">
        <ele>1099</ele>
        <time>2021-07-16T08:58:11.000Z</time>
      </trkpt>
      <trkpt lat="44.54535" lon="6.35557">
        <ele>1095.2</ele>
        <time>2021-07-16T08:58:14.000Z</time>
      </trkpt>
      <trkpt lat="44.54529" lon="6.35562">
        <ele>1091.3</ele>
        <time>2021-07-16T08:58:17.000Z</time>
      </trkpt>
      <trkpt lat="44.54513" lon="6.35569">
        <ele>1080.9</ele>
        <time>2021-07-16T08:58:23.000Z</time>
      </trkpt>
      <trkpt lat="44.54493" lon="6.35574">
        <ele>1072.2</ele>
        <time>2021-07-16T08:58:29.000Z</time>
      </trkpt>
      <trkpt lat="44.54482" lon="6.35583">
        <ele>1064</ele>
        <time>2021-07-16T08:58:35.000Z</time>
      </trkpt>
      <trkpt lat="44.54476" lon="6.35581">
        <ele>1059.4</ele>
        <time>2021-07-16T08:58:41.000Z</time>
      </trkpt>
      <trkpt lat="44.54467" lon="6.35583">
        <ele>1054</ele>
        <time>2021-07-16T08:58:48.147Z</time>
      </trkpt>
      <trkpt lat="44.5446" lon="6.35587">
        <ele>1054.4</ele>
        <time>2021-07-16T08:58:51.470Z</time>
      </trkpt>
      <trkpt lat="44.54453" lon="6.35595">
        <ele>1052.6</ele>
        <time>2021-07-16T08:58:55.464Z</time>
      </trkpt>
      <trkpt lat="44.54435" lon="6.35605">
        <ele>1045.2</ele>
        <time>2021-07-16T08:58:59.532Z</time>
      </trkpt>
      <trkpt lat="44.54428" lon="6.35611">
        <ele>1045.4</ele>
        <time>2021-07-16T08:59:02.955Z</time>
      </trkpt>
      <trkpt lat="44.54426" lon="6.35616">
        <ele>1044.6</ele>
        <time>2021-07-16T08:59:06.075Z</time>
      </trkpt>
      <trkpt lat="44.54422" lon="6.35621">
        <ele>1042.7</ele>
        <time>2021-07-16T08:59:09.134Z</time>
      </trkpt>
      <trkpt lat="44.54413" lon="6.35626">
        <ele>1043.5</ele>
        <time>2021-07-16T08:59:13.415Z</time>
      </trkpt>
      <trkpt lat="44.54404" lon="6.35631">
        <ele>1040.2</ele>
        <time>2021-07-16T08:59:16.884Z</time>
      </trkpt>
      <trkpt lat="44.54391" lon="6.35635">
        <ele>1039.8</ele>
        <time>2021-07-16T08:59:20.157Z</time>
      </trkpt>
      <trkpt lat="44.54378" lon="6.3564">
        <ele>1040.9</ele>
        <time>2021-07-16T08:59:23.285Z</time>
      </trkpt>
      <trkpt lat="44.54367" lon="6.35646">
        <ele>1035.9</ele>
        <time>2021-07-16T08:59:26.858Z</time>
      </trkpt>
      <trkpt lat="44.54359" lon="6.35646">
        <ele>1036.7</ele>
        <time>2021-07-16T08:59:30.336Z</time>
      </trkpt>
      <trkpt lat="44.5435" lon="6.35654">
        <ele>1038.1</ele>
        <time>2021-07-16T08:59:34.009Z</time>
      </trkpt>
      <trkpt lat="44.54317" lon="6.35701">
        <ele>1026.5</ele>
        <time>2021-07-16T08:59:40.672Z</time>
      </trkpt>
      <trkpt lat="44.54317" lon="6.35708">
        <ele>1022.5</ele>
        <time>2021-07-16T08:59:44.534Z</time>
      </trkpt>
      <trkpt lat="44.54316" lon="6.35714">
        <ele>1020.8</ele>
        <time>2021-07-16T08:59:47.855Z</time>
      </trkpt>
      <trkpt lat="44.54316" lon="6.35723">
        <ele>1022.9</ele>
        <time>2021-07-16T08:59:51.278Z</time>
      </trkpt>
      <trkpt lat="44.54324" lon="6.35738">
        <ele>1020.8</ele>
        <time>2021-07-16T08:59:54.689Z</time>
      </trkpt>
      <trkpt lat="44.54332" lon="6.35755">
        <ele>1013.7</ele>
        <time>2021-07-16T08:59:59.000Z</time>
      </trkpt>
      <trkpt lat="44.54342" lon="6.35766">
        <ele>1013.7</ele>
        <time>2021-07-16T09:00:01.466Z</time>
      </trkpt>
      <trkpt lat="44.54348" lon="6.3577">
        <ele>1009.9</ele>
        <time>2021-07-16T09:00:04.476Z</time>
      </trkpt>
      <trkpt lat="44.5435" lon="6.35777">
        <ele>1005</ele>
        <time>2021-07-16T09:00:07.856Z</time>
      </trkpt>
      <trkpt lat="44.5435" lon="6.3579">
        <ele>1008.2</ele>
        <time>2021-07-16T09:00:11.034Z</time>
      </trkpt>
      <trkpt lat="44.54343" lon="6.35803">
        <ele>1009.5</ele>
        <time>2021-07-16T09:00:14.466Z</time>
      </trkpt>
      <trkpt lat="44.54333" lon="6.35822">
        <ele>1011.2</ele>
        <time>2021-07-16T09:00:18.513Z</time>
      </trkpt>
      <trkpt lat="44.54331" lon="6.35833">
        <ele>1009.1</ele>
        <time>2021-07-16T09:00:22.487Z</time>
      </trkpt>
      <trkpt lat="44.54336" lon="6.35845">
        <ele>1007.6</ele>
        <time>2021-07-16T09:00:26.312Z</time>
      </trkpt>
      <trkpt lat="44.54335" lon="6.35862">
        <ele>1010.3</ele>
        <time>2021-07-16T09:00:35.000Z</time>
      </trkpt>
      <trkpt lat="44.54331" lon="6.35869">
        <ele>1010.6</ele>
        <time>2021-07-16T09:00:56.000Z</time>
      </trkpt>
      <trkpt lat="44.54335" lon="6.35874">
        <ele>1011.1</ele>
        <time>2021-07-16T09:01:12.891Z</time>
      </trkpt>
      <trkpt lat="44.54334" lon="6.35887">
        <ele>1010</ele>
        <time>2021-07-16T09:01:19.470Z</time>
      </trkpt>
      <trkpt lat="44.54321" lon="6.35899">
        <ele>1004.5</ele>
        <time>2021-07-16T09:01:23.270Z</time>
      </trkpt>
      <trkpt lat="44.54313" lon="6.35917">
        <ele>1002.2</ele>
        <time>2021-07-16T09:01:26.468Z</time>
      </trkpt>
      <trkpt lat="44.54306" lon="6.3593">
        <ele>1000.7</ele>
        <time>2021-07-16T09:01:30.094Z</time>
      </trkpt>
      <trkpt lat="44.54312" lon="6.35945">
        <ele>1000.7</ele>
        <time>2021-07-16T09:01:33.959Z</time>
      </trkpt>
      <trkpt lat="44.54315" lon="6.3596">
        <ele>995.9</ele>
        <time>2021-07-16T09:01:37.493Z</time>
      </trkpt>
      <trkpt lat="44.54318" lon="6.35968">
        <ele>994.8</ele>
        <time>2021-07-16T09:01:40.514Z</time>
      </trkpt>
      <trkpt lat="44.54319" lon="6.35977">
        <ele>995.9</ele>
        <time>2021-07-16T09:01:44.196Z</time>
      </trkpt>
      <trkpt lat="44.54319" lon="6.35989">
        <ele>994.4</ele>
        <time>2021-07-16T09:01:47.462Z</time>
      </trkpt>
      <trkpt lat="44.54321" lon="6.36013">
        <ele>997.4</ele>
        <time>2021-07-16T09:01:50.976Z</time>
      </trkpt>
      <trkpt lat="44.54323" lon="6.36035">
        <ele>993.5</ele>
        <time>2021-07-16T09:01:54.674Z</time>
      </trkpt>
      <trkpt lat="44.54327" lon="6.36066">
        <ele>994.1</ele>
        <time>2021-07-16T09:01:59.000Z</time>
      </trkpt>
      <trkpt lat="44.54331" lon="6.36072">
        <ele>993.5</ele>
        <time>2021-07-16T09:02:02.000Z</time>
      </trkpt>
      <trkpt lat="44.54335" lon="6.36078">
        <ele>1076.4</ele>
        <time>2021-07-16T09:02:04.520Z</time>
      </trkpt>
      <trkpt lat="44.54343" lon="6.36086">
        <ele>1019.4</ele>
        <time>2021-07-16T09:02:11.000Z</time>
      </trkpt>
      <trkpt lat="44.54354" lon="6.36091">
        <ele>1007</ele>
        <time>2021-07-16T09:02:17.000Z</time>
      </trkpt>
      <trkpt lat="44.54354" lon="6.36109">
        <ele>998.9</ele>
        <time>2021-07-16T09:02:23.000Z</time>
      </trkpt>
      <trkpt lat="44.54354" lon="6.36121">
        <ele>991.4</ele>
        <time>2021-07-16T09:02:26.000Z</time>
      </trkpt>
      <trkpt lat="44.54359" lon="6.36133">
        <ele>992.6</ele>
        <time>2021-07-16T09:02:28.505Z</time>
      </trkpt>
      <trkpt lat="44.54349" lon="6.36152">
        <ele>987.6</ele>
        <time>2021-07-16T09:02:35.000Z</time>
      </trkpt>
      <trkpt lat="44.54341" lon="6.36163">
        <ele>986</ele>
        <time>2021-07-16T09:02:38.000Z</time>
      </trkpt>
      <trkpt lat="44.54333" lon="6.3617">
        <ele>983.8</ele>
        <time>2021-07-16T09:02:40.494Z</time>
      </trkpt>
      <trkpt lat="44.54303" lon="6.3621">
        <ele>981</ele>
        <time>2021-07-16T09:02:47.000Z</time>
      </trkpt>
      <trkpt lat="44.54299" lon="6.36247">
        <ele>976.8</ele>
        <time>2021-07-16T09:02:53.000Z</time>
      </trkpt>
      <trkpt lat="44.54307" lon="6.36285">
        <ele>978.1</ele>
        <time>2021-07-16T09:02:59.000Z</time>
      </trkpt>
      <trkpt lat="44.5431" lon="6.36301">
        <ele>977.5</ele>
        <time>2021-07-16T09:03:02.000Z</time>
      </trkpt>
      <trkpt lat="44.5431" lon="6.36314">
        <ele>980</ele>
        <time>2021-07-16T09:03:05.000Z</time>
      </trkpt>
      <trkpt lat="44.5431" lon="6.3633">
        <ele>979.1</ele>
        <time>2021-07-16T09:03:08.000Z</time>
      </trkpt>
      <trkpt lat="44.54313" lon="6.36359">
        <ele>975.7</ele>
        <time>2021-07-16T09:03:14.000Z</time>
      </trkpt>
      <trkpt lat="44.54314" lon="6.36372">
        <ele>977.1</ele>
        <time>2021-07-16T09:03:17.000Z</time>
      </trkpt>
      <trkpt lat="44.54315" lon="6.36393">
        <ele>976.4</ele>
        <time>2021-07-16T09:03:23.000Z</time>
      </trkpt>
      <trkpt lat="44.54316" lon="6.36408">
        <ele>973.4</ele>
        <time>2021-07-16T09:03:26.000Z</time>
      </trkpt>
      <trkpt lat="44.54319" lon="6.36464">
        <ele>971.4</ele>
        <time>2021-07-16T09:03:32.000Z</time>
      </trkpt>
      <trkpt lat="44.54322" lon="6.36493">
        <ele>968.5</ele>
        <time>2021-07-16T09:03:35.000Z</time>
      </trkpt>
      <trkpt lat="44.54325" lon="6.3652">
        <ele>967.8</ele>
        <time>2021-07-16T09:03:38.000Z</time>
      </trkpt>
      <trkpt lat="44.54328" lon="6.36575">
        <ele>968.9</ele>
        <time>2021-07-16T09:03:44.000Z</time>
      </trkpt>
      <trkpt lat="44.54327" lon="6.36623">
        <ele>968.9</ele>
        <time>2021-07-16T09:03:50.000Z</time>
      </trkpt>
      <trkpt lat="44.54325" lon="6.36641">
        <ele>967.1</ele>
        <time>2021-07-16T09:03:52.455Z</time>
      </trkpt>
      <trkpt lat="44.54324" lon="6.3665">
        <ele>963.1</ele>
        <time>2021-07-16T09:03:56.000Z</time>
      </trkpt>
      <trkpt lat="44.54321" lon="6.36676">
        <ele>964</ele>
        <time>2021-07-16T09:03:58.501Z</time>
      </trkpt>
      <trkpt lat="44.54315" lon="6.36686">
        <ele>964</ele>
        <time>2021-07-16T09:04:01.502Z</time>
      </trkpt>
      <trkpt lat="44.5433" lon="6.36688">
        <ele>965.1</ele>
        <time>2021-07-16T09:04:05.437Z</time>
      </trkpt>
      <trkpt lat="44.54376" lon="6.36693">
        <ele>965</ele>
        <time>2021-07-16T09:04:11.000Z</time>
      </trkpt>
      <trkpt lat="44.54384" lon="6.36687">
        <ele>963.4</ele>
        <time>2021-07-16T09:04:13.566Z</time>
      </trkpt>
      <trkpt lat="44.54381" lon="6.36724">
        <ele>964.6</ele>
        <time>2021-07-16T09:04:20.000Z</time>
      </trkpt>
      <trkpt lat="44.54376" lon="6.3674">
        <ele>968.7</ele>
        <time>2021-07-16T09:04:23.000Z</time>
      </trkpt>
      <trkpt lat="44.54371" lon="6.36749">
        <ele>965.5</ele>
        <time>2021-07-16T09:04:26.000Z</time>
      </trkpt>
      <trkpt lat="44.5436" lon="6.36769">
        <ele>968.5</ele>
        <time>2021-07-16T09:04:32.000Z</time>
      </trkpt>
      <trkpt lat="44.54354" lon="6.36778">
        <ele>966.2</ele>
        <time>2021-07-16T09:04:35.000Z</time>
      </trkpt>
      <trkpt lat="44.54349" lon="6.36796">
        <ele>964.4</ele>
        <time>2021-07-16T09:04:41.000Z</time>
      </trkpt>
      <trkpt lat="44.5435" lon="6.36803">
        <ele>965.1</ele>
        <time>2021-07-16T09:04:44.000Z</time>
      </trkpt>
      <trkpt lat="44.54351" lon="6.36812">
        <ele>966.5</ele>
        <time>2021-07-16T09:04:46.425Z</time>
      </trkpt>
      <trkpt lat="44.54353" lon="6.36825">
        <ele>968.2</ele>
        <time>2021-07-16T09:04:53.000Z</time>
      </trkpt>
      <trkpt lat="44.54354" lon="6.36835">
        <ele>968.8</ele>
        <time>2021-07-16T09:04:56.000Z</time>
      </trkpt>
      <trkpt lat="44.54355" lon="6.36845">
        <ele>968.1</ele>
        <time>2021-07-16T09:04:59.000Z</time>
      </trkpt>
      <trkpt lat="44.54356" lon="6.36854">
        <ele>968.8</ele>
        <time>2021-07-16T09:05:02.000Z</time>
      </trkpt>
      <trkpt lat="44.54355" lon="6.36862">
        <ele>969.9</ele>
        <time>2021-07-16T09:05:04.546Z</time>
      </trkpt>
      <trkpt lat="44.54358" lon="6.36877">
        <ele>973.7</ele>
        <time>2021-07-16T09:05:11.000Z</time>
      </trkpt>
      <trkpt lat="44.54357" lon="6.36895">
        <ele>974.2</ele>
        <time>2021-07-16T09:05:17.468Z</time>
      </trkpt>
      <trkpt lat="44.54361" lon="6.36901">
        <ele>975.2</ele>
        <time>2021-07-16T09:05:23.000Z</time>
      </trkpt>
      <trkpt lat="44.54365" lon="6.36915">
        <ele>971.6</ele>
        <time>2021-07-16T09:05:41.361Z</time>
      </trkpt>
      <trkpt lat="44.54359" lon="6.3693">
        <ele>969.8</ele>
        <time>2021-07-16T09:05:44.461Z</time>
      </trkpt>
      <trkpt lat="44.54346" lon="6.36972">
        <ele>970.5</ele>
        <time>2021-07-16T09:05:50.000Z</time>
      </trkpt>
      <trkpt lat="44.54339" lon="6.36995">
        <ele>969.2</ele>
        <time>2021-07-16T09:05:53.465Z</time>
      </trkpt>
      <trkpt lat="44.54336" lon="6.37009">
        <ele>969.4</ele>
        <time>2021-07-16T09:05:56.759Z</time>
      </trkpt>
      <trkpt lat="44.54317" lon="6.37052">
        <ele>968.4</ele>
        <time>2021-07-16T09:06:02.000Z</time>
      </trkpt>
      <trkpt lat="44.54307" lon="6.37072">
        <ele>963.6</ele>
        <time>2021-07-16T09:06:05.000Z</time>
      </trkpt>
      <trkpt lat="44.543" lon="6.37075">
        <ele>963.6</ele>
        <time>2021-07-16T09:06:07.463Z</time>
      </trkpt>
      <trkpt lat="44.54281" lon="6.37091">
        <ele>964.8</ele>
        <time>2021-07-16T09:06:11.475Z</time>
      </trkpt>
      <trkpt lat="44.54274" lon="6.37094">
        <ele>966.7</ele>
        <time>2021-07-16T09:06:15.461Z</time>
      </trkpt>
      <trkpt lat="44.54264" lon="6.37089">
        <ele>963.5</ele>
        <time>2021-07-16T09:06:19.475Z</time>
      </trkpt>
      <trkpt lat="44.5426" lon="6.37093">
        <ele>959.7</ele>
        <time>2021-07-16T09:06:24.193Z</time>
      </trkpt>
      <trkpt lat="44.54256" lon="6.37075">
        <ele>955.6</ele>
        <time>2021-07-16T09:06:40.676Z</time>
      </trkpt>
      <trkpt lat="44.54244" lon="6.37066">
        <ele>954.5</ele>
        <time>2021-07-16T09:06:44.473Z</time>
      </trkpt>
      <trkpt lat="44.54215" lon="6.37061">
        <ele>954.2</ele>
        <time>2021-07-16T09:06:50.000Z</time>
      </trkpt>
      <trkpt lat="44.54201" lon="6.3705">
        <ele>952.3</ele>
        <time>2021-07-16T09:06:53.000Z</time>
      </trkpt>
      <trkpt lat="44.54187" lon="6.3704">
        <ele>950.3</ele>
        <time>2021-07-16T09:06:56.000Z</time>
      </trkpt>
      <trkpt lat="44.54175" lon="6.37006">
        <ele>943.4</ele>
        <time>2021-07-16T09:07:02.000Z</time>
      </trkpt>
      <trkpt lat="44.54169" lon="6.36977">
        <ele>943.9</ele>
        <time>2021-07-16T09:07:05.000Z</time>
      </trkpt>
      <trkpt lat="44.54158" lon="6.36932">
        <ele>938.5</ele>
        <time>2021-07-16T09:07:11.000Z</time>
      </trkpt>
      <trkpt lat="44.54153" lon="6.36907">
        <ele>939.3</ele>
        <time>2021-07-16T09:07:14.000Z</time>
      </trkpt>
      <trkpt lat="44.54148" lon="6.36878">
        <ele>933.4</ele>
        <time>2021-07-16T09:07:20.000Z</time>
      </trkpt>
      <trkpt lat="44.54141" lon="6.36846">
        <ele>935.3</ele>
        <time>2021-07-16T09:07:23.000Z</time>
      </trkpt>
      <trkpt lat="44.54121" lon="6.36827">
        <ele>934</ele>
        <time>2021-07-16T09:07:27.475Z</time>
      </trkpt>
      <trkpt lat="44.54109" lon="6.36821">
        <ele>932.3</ele>
        <time>2021-07-16T09:07:31.499Z</time>
      </trkpt>
      <trkpt lat="44.54101" lon="6.36815">
        <ele>926.9</ele>
        <time>2021-07-16T09:07:35.453Z</time>
      </trkpt>
      <trkpt lat="44.5407" lon="6.36809">
        <ele>925.1</ele>
        <time>2021-07-16T09:07:41.000Z</time>
      </trkpt>
      <trkpt lat="44.54033" lon="6.36788">
        <ele>923.8</ele>
        <time>2021-07-16T09:07:47.000Z</time>
      </trkpt>
      <trkpt lat="44.54022" lon="6.36778">
        <ele>925.6</ele>
        <time>2021-07-16T09:07:51.524Z</time>
      </trkpt>
      <trkpt lat="44.54016" lon="6.36771">
        <ele>924.9</ele>
        <time>2021-07-16T09:07:55.169Z</time>
      </trkpt>
      <trkpt lat="44.5401" lon="6.36769">
        <ele>920.6</ele>
        <time>2021-07-16T09:07:59.000Z</time>
      </trkpt>
      <trkpt lat="44.54002" lon="6.36771">
        <ele>920.7</ele>
        <time>2021-07-16T09:08:01.466Z</time>
      </trkpt>
      <trkpt lat="44.53991" lon="6.36773">
        <ele>922.6</ele>
        <time>2021-07-16T09:08:05.196Z</time>
      </trkpt>
      <trkpt lat="44.53983" lon="6.36775">
        <ele>923.1</ele>
        <time>2021-07-16T09:08:08.464Z</time>
      </trkpt>
      <trkpt lat="44.5397" lon="6.3678">
        <ele>922.8</ele>
        <time>2021-07-16T09:08:11.885Z</time>
      </trkpt>
      <trkpt lat="44.53956" lon="6.36785">
        <ele>922.6</ele>
        <time>2021-07-16T09:08:15.498Z</time>
      </trkpt>
      <trkpt lat="44.53944" lon="6.36797">
        <ele>920.8</ele>
        <time>2021-07-16T09:08:19.469Z</time>
      </trkpt>
      <trkpt lat="44.5393" lon="6.36817">
        <ele>919.3</ele>
        <time>2021-07-16T09:08:23.492Z</time>
      </trkpt>
      <trkpt lat="44.53919" lon="6.36828">
        <ele>919.2</ele>
        <time>2021-07-16T09:08:26.649Z</time>
      </trkpt>
      <trkpt lat="44.53908" lon="6.3684">
        <ele>919.2</ele>
        <time>2021-07-16T09:08:30.034Z</time>
      </trkpt>
      <trkpt lat="44.53895" lon="6.3685">
        <ele>920</ele>
        <time>2021-07-16T09:08:33.319Z</time>
      </trkpt>
      <trkpt lat="44.53886" lon="6.36858">
        <ele>922.7</ele>
        <time>2021-07-16T09:08:36.470Z</time>
      </trkpt>
      <trkpt lat="44.53874" lon="6.36867">
        <ele>921.8</ele>
        <time>2021-07-16T09:08:40.469Z</time>
      </trkpt>
      <trkpt lat="44.53861" lon="6.36877">
        <ele>980.9</ele>
        <time>2021-07-16T09:08:44.561Z</time>
      </trkpt>
      <trkpt lat="44.53852" lon="6.36886">
        <ele>953.4</ele>
        <time>2021-07-16T09:08:48.211Z</time>
      </trkpt>
      <trkpt lat="44.53842" lon="6.36903">
        <ele>943.8</ele>
        <time>2021-07-16T09:08:51.992Z</time>
      </trkpt>
      <trkpt lat="44.53834" lon="6.36915">
        <ele>938.2</ele>
        <time>2021-07-16T09:08:55.498Z</time>
      </trkpt>
      <trkpt lat="44.53826" lon="6.36929">
        <ele>933.9</ele>
        <time>2021-07-16T09:08:59.466Z</time>
      </trkpt>
      <trkpt lat="44.53818" lon="6.36937">
        <ele>934.4</ele>
        <time>2021-07-16T09:09:03.157Z</time>
      </trkpt>
      <trkpt lat="44.53812" lon="6.36943">
        <ele>932.6</ele>
        <time>2021-07-16T09:09:06.464Z</time>
      </trkpt>
      <trkpt lat="44.53806" lon="6.36947">
        <ele>931.9</ele>
        <time>2021-07-16T09:09:09.475Z</time>
      </trkpt>
      <trkpt lat="44.53797" lon="6.36959">
        <ele>931.8</ele>
        <time>2021-07-16T09:09:13.472Z</time>
      </trkpt>
      <trkpt lat="44.53793" lon="6.36967">
        <ele>932.4</ele>
        <time>2021-07-16T09:09:16.510Z</time>
      </trkpt>
      <trkpt lat="44.53788" lon="6.36975">
        <ele>931.9</ele>
        <time>2021-07-16T09:09:20.470Z</time>
      </trkpt>
      <trkpt lat="44.5378" lon="6.36985">
        <ele>931.7</ele>
        <time>2021-07-16T09:09:24.469Z</time>
      </trkpt>
      <trkpt lat="44.53772" lon="6.36992">
        <ele>933.8</ele>
        <time>2021-07-16T09:09:27.632Z</time>
      </trkpt>
      <trkpt lat="44.53763" lon="6.36998">
        <ele>933.6</ele>
        <time>2021-07-16T09:09:31.468Z</time>
      </trkpt>
      <trkpt lat="44.53757" lon="6.37003">
        <ele>932</ele>
        <time>2021-07-16T09:09:34.471Z</time>
      </trkpt>
      <trkpt lat="44.53748" lon="6.37014">
        <ele>934.6</ele>
        <time>2021-07-16T09:09:38.121Z</time>
      </trkpt>
      <trkpt lat="44.53744" lon="6.37019">
        <ele>937.4</ele>
        <time>2021-07-16T09:09:41.399Z</time>
      </trkpt>
      <trkpt lat="44.53741" lon="6.37026">
        <ele>938.2</ele>
        <time>2021-07-16T09:09:44.478Z</time>
      </trkpt>
      <trkpt lat="44.53736" lon="6.37031">
        <ele>940.9</ele>
        <time>2021-07-16T09:09:47.534Z</time>
      </trkpt>
      <trkpt lat="44.5373" lon="6.37039">
        <ele>941.7</ele>
        <time>2021-07-16T09:09:51.470Z</time>
      </trkpt>
      <trkpt lat="44.5372" lon="6.37043">
        <ele>942.7</ele>
        <time>2021-07-16T09:09:55.468Z</time>
      </trkpt>
      <trkpt lat="44.53709" lon="6.37044">
        <ele>939.8</ele>
        <time>2021-07-16T09:09:59.154Z</time>
      </trkpt>
      <trkpt lat="44.537" lon="6.37048">
        <ele>940.6</ele>
        <time>2021-07-16T09:10:02.473Z</time>
      </trkpt>
      <trkpt lat="44.53689" lon="6.37054">
        <ele>939.5</ele>
        <time>2021-07-16T09:10:05.712Z</time>
      </trkpt>
      <trkpt lat="44.5368" lon="6.37051">
        <ele>941.5</ele>
        <time>2021-07-16T09:10:09.503Z</time>
      </trkpt>
      <trkpt lat="44.5367" lon="6.37052">
        <ele>937.6</ele>
        <time>2021-07-16T09:10:13.469Z</time>
      </trkpt>
      <trkpt lat="44.53667" lon="6.37044">
        <ele>938</ele>
        <time>2021-07-16T09:10:17.525Z</time>
      </trkpt>
      <trkpt lat="44.53663" lon="6.37037">
        <ele>935.1</ele>
        <time>2021-07-16T09:10:22.499Z</time>
      </trkpt>
      <trkpt lat="44.53657" lon="6.37031">
        <ele>929.5</ele>
        <time>2021-07-16T09:10:25.526Z</time>
      </trkpt>
      <trkpt lat="44.53653" lon="6.37023">
        <ele>927.2</ele>
        <time>2021-07-16T09:10:29.468Z</time>
      </trkpt>
      <trkpt lat="44.53656" lon="6.37013">
        <ele>924.5</ele>
        <time>2021-07-16T09:10:39.885Z</time>
      </trkpt>
      <trkpt lat="44.5366" lon="6.37008">
        <ele>919.6</ele>
        <time>2021-07-16T09:10:46.458Z</time>
      </trkpt>
      <trkpt lat="44.53663" lon="6.36995">
        <ele>910.8</ele>
        <time>2021-07-16T09:10:53.332Z</time>
      </trkpt>
      <trkpt lat="44.53663" lon="6.36987">
        <ele>905.7</ele>
        <time>2021-07-16T09:10:56.348Z</time>
      </trkpt>
      <trkpt lat="44.53664" lon="6.36976">
        <ele>901.1</ele>
        <time>2021-07-16T09:10:59.469Z</time>
      </trkpt>
      <trkpt lat="44.53668" lon="6.36969">
        <ele>899.9</ele>
        <time>2021-07-16T09:11:03.010Z</time>
      </trkpt>
      <trkpt lat="44.5367" lon="6.36961">
        <ele>897.8</ele>
        <time>2021-07-16T09:11:06.419Z</time>
      </trkpt>
      <trkpt lat="44.53672" lon="6.36954">
        <ele>895.2</ele>
        <time>2021-07-16T09:11:09.468Z</time>
      </trkpt>
      <trkpt lat="44.53678" lon="6.36948">
        <ele>892.8</ele>
        <time>2021-07-16T09:11:12.868Z</time>
      </trkpt>
      <trkpt lat="44.53682" lon="6.3694">
        <ele>882.5</ele>
        <time>2021-07-16T09:11:17.000Z</time>
      </trkpt>
      <trkpt lat="44.53687" lon="6.36931">
        <ele>883.9</ele>
        <time>2021-07-16T09:11:20.000Z</time>
      </trkpt>
      <trkpt lat="44.53696" lon="6.36927">
        <ele>878.9</ele>
        <time>2021-07-16T09:11:22.952Z</time>
      </trkpt>
      <trkpt lat="44.53706" lon="6.36927">
        <ele>877.7</ele>
        <time>2021-07-16T09:11:26.694Z</time>
      </trkpt>
      <trkpt lat="44.53713" lon="6.36932">
        <ele>876.1</ele>
        <time>2021-07-16T09:11:30.649Z</time>
      </trkpt>
      <trkpt lat="44.53721" lon="6.36928">
        <ele>878.4</ele>
        <time>2021-07-16T09:11:34.455Z</time>
      </trkpt>
      <trkpt lat="44.53727" lon="6.36915">
        <ele>878.3</ele>
        <time>2021-07-16T09:11:37.714Z</time>
      </trkpt>
      <trkpt lat="44.53737" lon="6.36907">
        <ele>881.3</ele>
        <time>2021-07-16T09:11:41.340Z</time>
      </trkpt>
      <trkpt lat="44.53742" lon="6.36904">
        <ele>886.3</ele>
        <time>2021-07-16T09:11:44.480Z</time>
      </trkpt>
      <trkpt lat="44.53747" lon="6.36897">
        <ele>884.2</ele>
        <time>2021-07-16T09:11:47.779Z</time>
      </trkpt>
      <trkpt lat="44.53754" lon="6.36895">
        <ele>886.7</ele>
        <time>2021-07-16T09:11:50.993Z</time>
      </trkpt>
      <trkpt lat="44.53764" lon="6.36888">
        <ele>883.4</ele>
        <time>2021-07-16T09:11:54.466Z</time>
      </trkpt>
      <trkpt lat="44.53778" lon="6.36868">
        <ele>884.3</ele>
        <time>2021-07-16T09:11:57.738Z</time>
      </trkpt>
      <trkpt lat="44.53788" lon="6.36861">
        <ele>883.3</ele>
        <time>2021-07-16T09:12:01.197Z</time>
      </trkpt>
      <trkpt lat="44.53795" lon="6.36857">
        <ele>878.6</ele>
        <time>2021-07-16T09:12:04.464Z</time>
      </trkpt>
      <trkpt lat="44.53802" lon="6.36852">
        <ele>879.6</ele>
        <time>2021-07-16T09:12:07.468Z</time>
      </trkpt>
      <trkpt lat="44.53809" lon="6.3684">
        <ele>879.7</ele>
        <time>2021-07-16T09:12:10.476Z</time>
      </trkpt>
      <trkpt lat="44.5382" lon="6.3683">
        <ele>880.4</ele>
        <time>2021-07-16T09:12:13.509Z</time>
      </trkpt>
      <trkpt lat="44.53827" lon="6.36824">
        <ele>881.1</ele>
        <time>2021-07-16T09:12:17.489Z</time>
      </trkpt>
      <trkpt lat="44.53836" lon="6.36815">
        <ele>884.8</ele>
        <time>2021-07-16T09:12:21.459Z</time>
      </trkpt>
      <trkpt lat="44.53844" lon="6.36813">
        <ele>882.9</ele>
        <time>2021-07-16T09:12:24.470Z</time>
      </trkpt>
      <trkpt lat="44.53848" lon="6.36802">
        <ele>886.1</ele>
        <time>2021-07-16T09:12:27.620Z</time>
      </trkpt>
      <trkpt lat="44.53847" lon="6.36795">
        <ele>883.7</ele>
        <time>2021-07-16T09:12:30.801Z</time>
      </trkpt>
      <trkpt lat="44.53858" lon="6.36779">
        <ele>882.9</ele>
        <time>2021-07-16T09:12:34.467Z</time>
      </trkpt>
      <trkpt lat="44.53867" lon="6.36767">
        <ele>873.5</ele>
        <time>2021-07-16T09:12:37.752Z</time>
      </trkpt>
      <trkpt lat="44.5387" lon="6.36757">
        <ele>877</ele>
        <time>2021-07-16T09:12:41.011Z</time>
      </trkpt>
      <trkpt lat="44.53875" lon="6.36744">
        <ele>880.5</ele>
        <time>2021-07-16T09:12:44.725Z</time>
      </trkpt>
      <trkpt lat="44.53878" lon="6.36733">
        <ele>886.2</ele>
        <time>2021-07-16T09:12:51.338Z</time>
      </trkpt>
      <trkpt lat="44.53878" lon="6.36726">
        <ele>884.5</ele>
        <time>2021-07-16T09:12:54.471Z</time>
      </trkpt>
      <trkpt lat="44.53877" lon="6.36719">
        <ele>886.1</ele>
        <time>2021-07-16T09:12:57.733Z</time>
      </trkpt>
      <trkpt lat="44.53879" lon="6.3671">
        <ele>887.9</ele>
        <time>2021-07-16T09:13:04.475Z</time>
      </trkpt>
      <trkpt lat="44.53882" lon="6.36703">
        <ele>884.7</ele>
        <time>2021-07-16T09:13:11.538Z</time>
      </trkpt>
      <trkpt lat="44.53887" lon="6.36697">
        <ele>881.4</ele>
        <time>2021-07-16T09:13:15.716Z</time>
      </trkpt>
      <trkpt lat="44.53887" lon="6.36689">
        <ele>882.9</ele>
        <time>2021-07-16T09:13:19.470Z</time>
      </trkpt>
      <trkpt lat="44.53892" lon="6.36681">
        <ele>872.9</ele>
        <time>2021-07-16T09:13:29.472Z</time>
      </trkpt>
      <trkpt lat="44.53889" lon="6.36674">
        <ele>871.5</ele>
        <time>2021-07-16T09:13:32.886Z</time>
      </trkpt>
      <trkpt lat="44.53887" lon="6.36665">
        <ele>872.5</ele>
        <time>2021-07-16T09:13:40.192Z</time>
      </trkpt>
      <trkpt lat="44.53885" lon="6.36655">
        <ele>867.5</ele>
        <time>2021-07-16T09:13:47.522Z</time>
      </trkpt>
      <trkpt lat="44.53879" lon="6.36657">
        <ele>868</ele>
        <time>2021-07-16T09:13:50.595Z</time>
      </trkpt>
      <trkpt lat="44.53873" lon="6.36661">
        <ele>866.2</ele>
        <time>2021-07-16T09:13:54.459Z</time>
      </trkpt>
      <trkpt lat="44.53867" lon="6.36658">
        <ele>869.4</ele>
        <time>2021-07-16T09:13:57.477Z</time>
      </trkpt>
      <trkpt lat="44.53867" lon="6.3664">
        <ele>862.8</ele>
        <time>2021-07-16T09:14:05.000Z</time>
      </trkpt>
      <trkpt lat="44.53867" lon="6.36632">
        <ele>887.4</ele>
        <time>2021-07-16T09:14:17.000Z</time>
      </trkpt>
      <trkpt lat="44.53867" lon="6.36625">
        <ele>861.8</ele>
        <time>2021-07-16T09:14:51.622Z</time>
      </trkpt>
      <trkpt lat="44.53862" lon="6.36625">
        <ele>855.7</ele>
        <time>2021-07-16T09:16:26.000Z</time>
      </trkpt>
      <trkpt lat="44.53853" lon="6.3664">
        <ele>861.3</ele>
        <time>2021-07-16T09:17:08.093Z</time>
      </trkpt>
      <trkpt lat="44.53842" lon="6.36644">
        <ele>859.2</ele>
        <time>2021-07-16T09:17:11.464Z</time>
      </trkpt>
      <trkpt lat="44.53829" lon="6.36648">
        <ele>859.4</ele>
        <time>2021-07-16T09:17:14.520Z</time>
      </trkpt>
      <trkpt lat="44.53809" lon="6.36654">
        <ele>859.9</ele>
        <time>2021-07-16T09:17:18.628Z</time>
      </trkpt>
      <trkpt lat="44.53792" lon="6.36669">
        <ele>860.8</ele>
        <time>2021-07-16T09:17:22.465Z</time>
      </trkpt>
      <trkpt lat="44.53788" lon="6.36676">
        <ele>865</ele>
        <time>2021-07-16T09:17:25.478Z</time>
      </trkpt>
      <trkpt lat="44.53778" lon="6.36692">
        <ele>868.8</ele>
        <time>2021-07-16T09:17:29.466Z</time>
      </trkpt>
      <trkpt lat="44.53756" lon="6.36727">
        <ele>868.1</ele>
        <time>2021-07-16T09:17:35.000Z</time>
      </trkpt>
      <trkpt lat="44.53749" lon="6.36749">
        <ele>867.1</ele>
        <time>2021-07-16T09:17:38.000Z</time>
      </trkpt>
      <trkpt lat="44.53733" lon="6.36791">
        <ele>863.3</ele>
        <time>2021-07-16T09:17:44.000Z</time>
      </trkpt>
      <trkpt lat="44.53718" lon="6.36803">
        <ele>863.6</ele>
        <time>2021-07-16T09:17:46.557Z</time>
      </trkpt>
      <trkpt lat="44.53695" lon="6.36819">
        <ele>861.7</ele>
        <time>2021-07-16T09:17:53.000Z</time>
      </trkpt>
      <trkpt lat="44.53656" lon="6.36824">
        <ele>860.9</ele>
        <time>2021-07-16T09:17:59.000Z</time>
      </trkpt>
      <trkpt lat="44.5364" lon="6.36826">
        <ele>861.9</ele>
        <time>2021-07-16T09:18:01.473Z</time>
      </trkpt>
      <trkpt lat="44.53616" lon="6.36844">
        <ele>856.8</ele>
        <time>2021-07-16T09:18:08.000Z</time>
      </trkpt>
      <trkpt lat="44.53597" lon="6.36857">
        <ele>857.8</ele>
        <time>2021-07-16T09:18:11.000Z</time>
      </trkpt>
      <trkpt lat="44.53556" lon="6.36875">
        <ele>859.6</ele>
        <time>2021-07-16T09:18:17.000Z</time>
      </trkpt>
      <trkpt lat="44.53547" lon="6.36862">
        <ele>855.5</ele>
        <time>2021-07-16T09:18:21.517Z</time>
      </trkpt>
      <trkpt lat="44.53543" lon="6.36857">
        <ele>849.3</ele>
        <time>2021-07-16T09:18:26.000Z</time>
      </trkpt>
      <trkpt lat="44.53533" lon="6.36842">
        <ele>850.9</ele>
        <time>2021-07-16T09:18:38.000Z</time>
      </trkpt>
      <trkpt lat="44.53532" lon="6.36835">
        <ele>851.5</ele>
        <time>2021-07-16T09:18:41.000Z</time>
      </trkpt>
      <trkpt lat="44.53529" lon="6.36828">
        <ele>853</ele>
        <time>2021-07-16T09:18:44.000Z</time>
      </trkpt>
      <trkpt lat="44.53527" lon="6.3682">
        <ele>851.7</ele>
        <time>2021-07-16T09:18:46.444Z</time>
      </trkpt>
      <trkpt lat="44.53523" lon="6.36815">
        <ele>848.7</ele>
        <time>2021-07-16T09:18:50.000Z</time>
      </trkpt>
      <trkpt lat="44.53519" lon="6.3681">
        <ele>850.2</ele>
        <time>2021-07-16T09:18:53.000Z</time>
      </trkpt>
      <trkpt lat="44.53505" lon="6.36797">
        <ele>852.1</ele>
        <time>2021-07-16T09:18:59.000Z</time>
      </trkpt>
      <trkpt lat="44.53498" lon="6.36793">
        <ele>855.7</ele>
        <time>2021-07-16T09:19:02.000Z</time>
      </trkpt>
      <trkpt lat="44.53494" lon="6.36791">
        <ele>855.8</ele>
        <time>2021-07-16T09:19:04.494Z</time>
      </trkpt>
      <trkpt lat="44.53489" lon="6.36789">
        <ele>861.1</ele>
        <time>2021-07-16T09:19:11.000Z</time>
      </trkpt>
      <trkpt lat="44.53479" lon="6.36777">
        <ele>859.7</ele>
        <time>2021-07-16T09:19:17.478Z</time>
      </trkpt>
      <trkpt lat="44.53469" lon="6.3677">
        <ele>858.1</ele>
        <time>2021-07-16T09:19:21.235Z</time>
      </trkpt>
      <trkpt lat="44.53459" lon="6.36764">
        <ele>857.5</ele>
        <time>2021-07-16T09:19:24.465Z</time>
      </trkpt>
      <trkpt lat="44.53454" lon="6.36761">
        <ele>861</ele>
        <time>2021-07-16T09:19:27.465Z</time>
      </trkpt>
      <trkpt lat="44.53447" lon="6.36757">
        <ele>860.6</ele>
        <time>2021-07-16T09:19:31.328Z</time>
      </trkpt>
      <trkpt lat="44.53438" lon="6.36751">
        <ele>860.5</ele>
        <time>2021-07-16T09:19:34.411Z</time>
      </trkpt>
      <trkpt lat="44.53426" lon="6.36743">
        <ele>860</ele>
        <time>2021-07-16T09:19:38.519Z</time>
      </trkpt>
      <trkpt lat="44.53415" lon="6.36737">
        <ele>856.2</ele>
        <time>2021-07-16T09:19:42.476Z</time>
      </trkpt>
      <trkpt lat="44.53404" lon="6.36733">
        <ele>854.6</ele>
        <time>2021-07-16T09:19:45.478Z</time>
      </trkpt>
      <trkpt lat="44.53374" lon="6.36743">
        <ele>855.9</ele>
        <time>2021-07-16T09:19:50.000Z</time>
      </trkpt>
      <trkpt lat="44.53359" lon="6.36756">
        <ele>853.7</ele>
        <time>2021-07-16T09:19:53.522Z</time>
      </trkpt>
      <trkpt lat="44.53353" lon="6.36743">
        <ele>851.1</ele>
        <time>2021-07-16T09:19:57.467Z</time>
      </trkpt>
      <trkpt lat="44.53345" lon="6.36747">
        <ele>844.3</ele>
        <time>2021-07-16T09:20:00.469Z</time>
      </trkpt>
      <trkpt lat="44.53334" lon="6.3674">
        <ele>844.1</ele>
        <time>2021-07-16T09:20:04.465Z</time>
      </trkpt>
      <trkpt lat="44.53325" lon="6.3674">
        <ele>842.6</ele>
        <time>2021-07-16T09:20:07.521Z</time>
      </trkpt>
      <trkpt lat="44.53315" lon="6.36747">
        <ele>844.7</ele>
        <time>2021-07-16T09:20:10.667Z</time>
      </trkpt>
      <trkpt lat="44.53302" lon="6.36742">
        <ele>844.6</ele>
        <time>2021-07-16T09:20:17.000Z</time>
      </trkpt>
      <trkpt lat="44.53297" lon="6.36736">
        <ele>847.4</ele>
        <time>2021-07-16T09:20:20.000Z</time>
      </trkpt>
      <trkpt lat="44.53291" lon="6.36732">
        <ele>848</ele>
        <time>2021-07-16T09:20:23.000Z</time>
      </trkpt>
      <trkpt lat="44.53279" lon="6.36729">
        <ele>848</ele>
        <time>2021-07-16T09:20:29.000Z</time>
      </trkpt>
      <trkpt lat="44.53274" lon="6.36728">
        <ele>849.7</ele>
        <time>2021-07-16T09:20:32.000Z</time>
      </trkpt>
      <trkpt lat="44.53268" lon="6.36727">
        <ele>853</ele>
        <time>2021-07-16T09:20:35.000Z</time>
      </trkpt>
      <trkpt lat="44.53259" lon="6.36726">
        <ele>850.4</ele>
        <time>2021-07-16T09:20:37.508Z</time>
      </trkpt>
      <trkpt lat="44.53245" lon="6.36718">
        <ele>849.5</ele>
        <time>2021-07-16T09:20:44.000Z</time>
      </trkpt>
      <trkpt lat="44.5323" lon="6.36716">
        <ele>852.4</ele>
        <time>2021-07-16T09:20:50.000Z</time>
      </trkpt>
      <trkpt lat="44.53223" lon="6.36712">
        <ele>852.3</ele>
        <time>2021-07-16T09:20:53.000Z</time>
      </trkpt>
      <trkpt lat="44.53215" lon="6.36704">
        <ele>852.3</ele>
        <time>2021-07-16T09:20:55.497Z</time>
      </trkpt>
      <trkpt lat="44.53203" lon="6.36693">
        <ele>853.8</ele>
        <time>2021-07-16T09:21:02.000Z</time>
      </trkpt>
      <trkpt lat="44.53198" lon="6.36695">
        <ele>856.4</ele>
        <time>2021-07-16T09:21:05.000Z</time>
      </trkpt>
      <trkpt lat="44.53184" lon="6.36706">
        <ele>856.2</ele>
        <time>2021-07-16T09:21:11.000Z</time>
      </trkpt>
      <trkpt lat="44.53164" lon="6.36692">
        <ele>856.4</ele>
        <time>2021-07-16T09:21:17.000Z</time>
      </trkpt>
      <trkpt lat="44.53157" lon="6.3668">
        <ele>856.4</ele>
        <time>2021-07-16T09:21:19.470Z</time>
      </trkpt>
      <trkpt lat="44.53153" lon="6.36671">
        <ele>856.6</ele>
        <time>2021-07-16T09:21:22.476Z</time>
      </trkpt>
      <trkpt lat="44.53146" lon="6.36663">
        <ele>859.1</ele>
        <time>2021-07-16T09:21:26.428Z</time>
      </trkpt>
      <trkpt lat="44.53141" lon="6.36663">
        <ele>860.2</ele>
        <time>2021-07-16T09:21:29.468Z</time>
      </trkpt>
      <trkpt lat="44.53132" lon="6.36663">
        <ele>860.4</ele>
        <time>2021-07-16T09:21:33.111Z</time>
      </trkpt>
      <trkpt lat="44.53126" lon="6.36662">
        <ele>860.7</ele>
        <time>2021-07-16T09:21:36.473Z</time>
      </trkpt>
      <trkpt lat="44.53119" lon="6.36659">
        <ele>860.2</ele>
        <time>2021-07-16T09:21:40.023Z</time>
      </trkpt>
      <trkpt lat="44.5311" lon="6.36657">
        <ele>861.4</ele>
        <time>2021-07-16T09:21:43.491Z</time>
      </trkpt>
      <trkpt lat="44.53101" lon="6.36652">
        <ele>867</ele>
        <time>2021-07-16T09:21:47.470Z</time>
      </trkpt>
      <trkpt lat="44.53094" lon="6.36648">
        <ele>867.3</ele>
        <time>2021-07-16T09:21:53.000Z</time>
      </trkpt>
      <trkpt lat="44.53086" lon="6.36648">
        <ele>866.7</ele>
        <time>2021-07-16T09:21:55.790Z</time>
      </trkpt>
      <trkpt lat="44.53077" lon="6.36652">
        <ele>871.3</ele>
        <time>2021-07-16T09:22:02.925Z</time>
      </trkpt>
      <trkpt lat="44.53068" lon="6.36655">
        <ele>871.5</ele>
        <time>2021-07-16T09:22:06.293Z</time>
      </trkpt>
      <trkpt lat="44.53059" lon="6.36653">
        <ele>869.2</ele>
        <time>2021-07-16T09:22:09.727Z</time>
      </trkpt>
      <trkpt lat="44.53051" lon="6.36646">
        <ele>871.1</ele>
        <time>2021-07-16T09:22:13.230Z</time>
      </trkpt>
      <trkpt lat="44.53045" lon="6.3664">
        <ele>869.5</ele>
        <time>2021-07-16T09:22:17.000Z</time>
      </trkpt>
      <trkpt lat="44.53043" lon="6.36631">
        <ele>875.1</ele>
        <time>2021-07-16T09:22:19.768Z</time>
      </trkpt>
      <trkpt lat="44.53044" lon="6.36619">
        <ele>881.8</ele>
        <time>2021-07-16T09:22:26.026Z</time>
      </trkpt>
      <trkpt lat="44.53044" lon="6.36611">
        <ele>882.4</ele>
        <time>2021-07-16T09:22:29.181Z</time>
      </trkpt>
      <trkpt lat="44.53042" lon="6.36599">
        <ele>883.6</ele>
        <time>2021-07-16T09:22:32.568Z</time>
      </trkpt>
      <trkpt lat="44.5304" lon="6.36587">
        <ele>886.6</ele>
        <time>2021-07-16T09:22:35.968Z</time>
      </trkpt>
      <trkpt lat="44.53038" lon="6.36576">
        <ele>888.2</ele>
        <time>2021-07-16T09:22:39.533Z</time>
      </trkpt>
      <trkpt lat="44.53036" lon="6.36569">
        <ele>887.9</ele>
        <time>2021-07-16T09:22:42.727Z</time>
      </trkpt>
      <trkpt lat="44.53031" lon="6.36563">
        <ele>884.1</ele>
        <time>2021-07-16T09:22:46.348Z</time>
      </trkpt>
      <trkpt lat="44.53025" lon="6.36555">
        <ele>887.5</ele>
        <time>2021-07-16T09:22:50.000Z</time>
      </trkpt>
      <trkpt lat="44.53023" lon="6.36547">
        <ele>1004.1</ele>
        <time>2021-07-16T09:22:53.453Z</time>
      </trkpt>
      <trkpt lat="44.53023" lon="6.3654">
        <ele>943.1</ele>
        <time>2021-07-16T09:22:56.897Z</time>
      </trkpt>
      <trkpt lat="44.53029" lon="6.36527">
        <ele>917.1</ele>
        <time>2021-07-16T09:23:00.262Z</time>
      </trkpt>
      <trkpt lat="44.53037" lon="6.36515">
        <ele>903.2</ele>
        <time>2021-07-16T09:23:03.668Z</time>
      </trkpt>
      <trkpt lat="44.53045" lon="6.36506">
        <ele>897.2</ele>
        <time>2021-07-16T09:23:07.089Z</time>
      </trkpt>
      <trkpt lat="44.53052" lon="6.36497">
        <ele>895</ele>
        <time>2021-07-16T09:23:11.000Z</time>
      </trkpt>
      <trkpt lat="44.53059" lon="6.36486">
        <ele>893.2</ele>
        <time>2021-07-16T09:23:14.069Z</time>
      </trkpt>
      <trkpt lat="44.53063" lon="6.36477">
        <ele>895.2</ele>
        <time>2021-07-16T09:23:17.556Z</time>
      </trkpt>
      <trkpt lat="44.53068" lon="6.36469">
        <ele>894.6</ele>
        <time>2021-07-16T09:23:21.326Z</time>
      </trkpt>
      <trkpt lat="44.53073" lon="6.36463">
        <ele>897.9</ele>
        <time>2021-07-16T09:23:24.376Z</time>
      </trkpt>
      <trkpt lat="44.53078" lon="6.36456">
        <ele>897.4</ele>
        <time>2021-07-16T09:23:27.806Z</time>
      </trkpt>
      <trkpt lat="44.53086" lon="6.36452">
        <ele>898.4</ele>
        <time>2021-07-16T09:23:31.270Z</time>
      </trkpt>
      <trkpt lat="44.53093" lon="6.36447">
        <ele>896.9</ele>
        <time>2021-07-16T09:23:34.434Z</time>
      </trkpt>
      <trkpt lat="44.53098" lon="6.36441">
        <ele>900.6</ele>
        <time>2021-07-16T09:23:37.707Z</time>
      </trkpt>
      <trkpt lat="44.53103" lon="6.36433">
        <ele>903.5</ele>
        <time>2021-07-16T09:23:41.270Z</time>
      </trkpt>
      <trkpt lat="44.53108" lon="6.36426">
        <ele>901.5</ele>
        <time>2021-07-16T09:23:44.625Z</time>
      </trkpt>
      <trkpt lat="44.53112" lon="6.36421">
        <ele>902.1</ele>
        <time>2021-07-16T09:23:48.504Z</time>
      </trkpt>
      <trkpt lat="44.5312" lon="6.36413">
        <ele>900.5</ele>
        <time>2021-07-16T09:23:56.000Z</time>
      </trkpt>
      <trkpt lat="44.53126" lon="6.36409">
        <ele>899.9</ele>
        <time>2021-07-16T09:23:58.543Z</time>
      </trkpt>
      <trkpt lat="44.53134" lon="6.36408">
        <ele>900.4</ele>
        <time>2021-07-16T09:24:01.829Z</time>
      </trkpt>
      <trkpt lat="44.53143" lon="6.3641">
        <ele>1005.9</ele>
        <time>2021-07-16T09:24:05.471Z</time>
      </trkpt>
      <trkpt lat="44.53149" lon="6.36413">
        <ele>942.1</ele>
        <time>2021-07-16T09:24:08.471Z</time>
      </trkpt>
      <trkpt lat="44.53156" lon="6.36416">
        <ele>916.4</ele>
        <time>2021-07-16T09:24:11.476Z</time>
      </trkpt>
      <trkpt lat="44.53165" lon="6.36417">
        <ele>908.1</ele>
        <time>2021-07-16T09:24:14.830Z</time>
      </trkpt>
      <trkpt lat="44.53173" lon="6.36416">
        <ele>905.8</ele>
        <time>2021-07-16T09:24:18.523Z</time>
      </trkpt>
      <trkpt lat="44.53182" lon="6.36412">
        <ele>903.4</ele>
        <time>2021-07-16T09:24:22.466Z</time>
      </trkpt>
      <trkpt lat="44.53195" lon="6.36405">
        <ele>903.5</ele>
        <time>2021-07-16T09:24:29.000Z</time>
      </trkpt>
      <trkpt lat="44.532" lon="6.36402">
        <ele>903.5</ele>
        <time>2021-07-16T09:24:31.474Z</time>
      </trkpt>
      <trkpt lat="44.53207" lon="6.36397">
        <ele>903.5</ele>
        <time>2021-07-16T09:24:35.965Z</time>
      </trkpt>
      <trkpt lat="44.53213" lon="6.36392">
        <ele>904.7</ele>
        <time>2021-07-16T09:24:39.008Z</time>
      </trkpt>
      <trkpt lat="44.5322" lon="6.36385">
        <ele>907.6</ele>
        <time>2021-07-16T09:24:43.471Z</time>
      </trkpt>
      <trkpt lat="44.53225" lon="6.36381">
        <ele>908.5</ele>
        <time>2021-07-16T09:24:46.478Z</time>
      </trkpt>
      <trkpt lat="44.53231" lon="6.36372">
        <ele>909.4</ele>
        <time>2021-07-16T09:24:50.453Z</time>
      </trkpt>
      <trkpt lat="44.53236" lon="6.36364">
        <ele>993.8</ele>
        <time>2021-07-16T09:24:53.675Z</time>
      </trkpt>
      <trkpt lat="44.53241" lon="6.36355">
        <ele>993.8</ele>
        <time>2021-07-16T09:24:57.547Z</time>
      </trkpt>
      <trkpt lat="44.53246" lon="6.36344">
        <ele>994.1</ele>
        <time>2021-07-16T09:25:01.473Z</time>
      </trkpt>
      <trkpt lat="44.5325" lon="6.36337">
        <ele>994</ele>
        <time>2021-07-16T09:25:04.521Z</time>
      </trkpt>
      <trkpt lat="44.53256" lon="6.36328">
        <ele>993.9</ele>
        <time>2021-07-16T09:25:08.466Z</time>
      </trkpt>
      <trkpt lat="44.53262" lon="6.36323">
        <ele>994.4</ele>
        <time>2021-07-16T09:25:11.830Z</time>
      </trkpt>
      <trkpt lat="44.53269" lon="6.36319">
        <ele>994.4</ele>
        <time>2021-07-16T09:25:15.162Z</time>
      </trkpt>
      <trkpt lat="44.53277" lon="6.36315">
        <ele>995.2</ele>
        <time>2021-07-16T09:25:19.471Z</time>
      </trkpt>
      <trkpt lat="44.53286" lon="6.3631">
        <ele>995.3</ele>
        <time>2021-07-16T09:25:23.482Z</time>
      </trkpt>
      <trkpt lat="44.53294" lon="6.36305">
        <ele>995.3</ele>
        <time>2021-07-16T09:25:27.467Z</time>
      </trkpt>
      <trkpt lat="44.53303" lon="6.36302">
        <ele>996.6</ele>
        <time>2021-07-16T09:25:31.468Z</time>
      </trkpt>
      <trkpt lat="44.53311" lon="6.363">
        <ele>997.2</ele>
        <time>2021-07-16T09:25:34.496Z</time>
      </trkpt>
      <trkpt lat="44.5332" lon="6.36297">
        <ele>997.5</ele>
        <time>2021-07-16T09:25:38.471Z</time>
      </trkpt>
      <trkpt lat="44.53327" lon="6.36293">
        <ele>997.4</ele>
        <time>2021-07-16T09:25:41.471Z</time>
      </trkpt>
      <trkpt lat="44.53335" lon="6.36285">
        <ele>997.4</ele>
        <time>2021-07-16T09:25:45.472Z</time>
      </trkpt>
      <trkpt lat="44.5334" lon="6.36278">
        <ele>999</ele>
        <time>2021-07-16T09:25:48.565Z</time>
      </trkpt>
      <trkpt lat="44.53344" lon="6.36271">
        <ele>999</ele>
        <time>2021-07-16T09:25:51.997Z</time>
      </trkpt>
      <trkpt lat="44.53348" lon="6.36262">
        <ele>999.9</ele>
        <time>2021-07-16T09:25:55.465Z</time>
      </trkpt>
      <trkpt lat="44.53353" lon="6.36255">
        <ele>999.9</ele>
        <time>2021-07-16T09:25:58.473Z</time>
      </trkpt>
      <trkpt lat="44.53359" lon="6.36247">
        <ele>999.9</ele>
        <time>2021-07-16T09:26:01.476Z</time>
      </trkpt>
      <trkpt lat="44.53365" lon="6.36237">
        <ele>1001.7</ele>
        <time>2021-07-16T09:26:05.474Z</time>
      </trkpt>
      <trkpt lat="44.53369" lon="6.36226">
        <ele>1002.9</ele>
        <time>2021-07-16T09:26:09.087Z</time>
      </trkpt>
      <trkpt lat="44.53372" lon="6.36216">
        <ele>1003</ele>
        <time>2021-07-16T09:26:12.134Z</time>
      </trkpt>
      <trkpt lat="44.53373" lon="6.36207">
        <ele>1004.1</ele>
        <time>2021-07-16T09:26:15.207Z</time>
      </trkpt>
      <trkpt lat="44.53375" lon="6.36196">
        <ele>1004.2</ele>
        <time>2021-07-16T09:26:18.463Z</time>
      </trkpt>
      <trkpt lat="44.53378" lon="6.36187">
        <ele>1004.2</ele>
        <time>2021-07-16T09:26:21.469Z</time>
      </trkpt>
      <trkpt lat="44.53383" lon="6.3617">
        <ele>1007</ele>
        <time>2021-07-16T09:26:25.449Z</time>
      </trkpt>
      <trkpt lat="44.53385" lon="6.3616">
        <ele>1007</ele>
        <time>2021-07-16T09:26:28.469Z</time>
      </trkpt>
      <trkpt lat="44.53387" lon="6.3615">
        <ele>1008.4</ele>
        <time>2021-07-16T09:26:31.473Z</time>
      </trkpt>
      <trkpt lat="44.5339" lon="6.36142">
        <ele>1009.5</ele>
        <time>2021-07-16T09:26:34.561Z</time>
      </trkpt>
      <trkpt lat="44.53395" lon="6.36131">
        <ele>1010</ele>
        <time>2021-07-16T09:26:38.476Z</time>
      </trkpt>
      <trkpt lat="44.53398" lon="6.36117">
        <ele>1010</ele>
        <time>2021-07-16T09:26:42.461Z</time>
      </trkpt>
      <trkpt lat="44.534" lon="6.36108">
        <ele>1010</ele>
        <time>2021-07-16T09:26:45.473Z</time>
      </trkpt>
      <trkpt lat="44.53401" lon="6.36095">
        <ele>1012.9</ele>
        <time>2021-07-16T09:26:49.452Z</time>
      </trkpt>
      <trkpt lat="44.53403" lon="6.36086">
        <ele>1012.9</ele>
        <time>2021-07-16T09:26:52.584Z</time>
      </trkpt>
      <trkpt lat="44.53404" lon="6.36076">
        <ele>1015</ele>
        <time>2021-07-16T09:26:56.539Z</time>
      </trkpt>
      <trkpt lat="44.53407" lon="6.36067">
        <ele>1015</ele>
        <time>2021-07-16T09:26:59.983Z</time>
      </trkpt>
      <trkpt lat="44.53409" lon="6.36058">
        <ele>1014.9</ele>
        <time>2021-07-16T09:27:03.480Z</time>
      </trkpt>
      <trkpt lat="44.53411" lon="6.36048">
        <ele>1017.7</ele>
        <time>2021-07-16T09:27:07.462Z</time>
      </trkpt>
      <trkpt lat="44.53415" lon="6.36041">
        <ele>1019.5</ele>
        <time>2021-07-16T09:27:10.534Z</time>
      </trkpt>
      <trkpt lat="44.53421" lon="6.36038">
        <ele>1019.7</ele>
        <time>2021-07-16T09:27:13.568Z</time>
      </trkpt>
      <trkpt lat="44.53427" lon="6.3604">
        <ele>1019.7</ele>
        <time>2021-07-16T09:27:17.475Z</time>
      </trkpt>
      <trkpt lat="44.53432" lon="6.36047">
        <ele>1019.7</ele>
        <time>2021-07-16T09:27:20.483Z</time>
      </trkpt>
      <trkpt lat="44.53437" lon="6.36053">
        <ele>1019.8</ele>
        <time>2021-07-16T09:27:24.473Z</time>
      </trkpt>
      <trkpt lat="44.53445" lon="6.36052">
        <ele>1019.8</ele>
        <time>2021-07-16T09:27:28.474Z</time>
      </trkpt>
      <trkpt lat="44.53446" lon="6.3604">
        <ele>1024.6</ele>
        <time>2021-07-16T09:27:32.478Z</time>
      </trkpt>
      <trkpt lat="44.53445" lon="6.36028">
        <ele>1025.5</ele>
        <time>2021-07-16T09:27:35.974Z</time>
      </trkpt>
      <trkpt lat="44.53445" lon="6.36016">
        <ele>1025.9</ele>
        <time>2021-07-16T09:27:39.477Z</time>
      </trkpt>
      <trkpt lat="44.53446" lon="6.36002">
        <ele>1025.8</ele>
        <time>2021-07-16T09:27:43.475Z</time>
      </trkpt>
      <trkpt lat="44.5345" lon="6.3599">
        <ele>1027.5</ele>
        <time>2021-07-16T09:27:47.463Z</time>
      </trkpt>
      <trkpt lat="44.53456" lon="6.35979">
        <ele>1027.5</ele>
        <time>2021-07-16T09:27:51.516Z</time>
      </trkpt>
      <trkpt lat="44.53462" lon="6.35964">
        <ele>1030.1</ele>
        <time>2021-07-16T09:27:55.476Z</time>
      </trkpt>
      <trkpt lat="44.53467" lon="6.35954">
        <ele>1030.9</ele>
        <time>2021-07-16T09:27:58.727Z</time>
      </trkpt>
      <trkpt lat="44.53474" lon="6.3594">
        <ele>1031</ele>
        <time>2021-07-16T09:28:02.473Z</time>
      </trkpt>
      <trkpt lat="44.53482" lon="6.3593">
        <ele>1031</ele>
        <time>2021-07-16T09:28:06.482Z</time>
      </trkpt>
      <trkpt lat="44.53489" lon="6.3592">
        <ele>1030.9</ele>
        <time>2021-07-16T09:28:10.054Z</time>
      </trkpt>
      <trkpt lat="44.53495" lon="6.35909">
        <ele>1033.1</ele>
        <time>2021-07-16T09:28:13.470Z</time>
      </trkpt>
      <trkpt lat="44.535" lon="6.35898">
        <ele>1034.3</ele>
        <time>2021-07-16T09:28:16.506Z</time>
      </trkpt>
      <trkpt lat="44.53504" lon="6.35885">
        <ele>1034.3</ele>
        <time>2021-07-16T09:28:19.819Z</time>
      </trkpt>
      <trkpt lat="44.53508" lon="6.35871">
        <ele>1034.2</ele>
        <time>2021-07-16T09:28:23.469Z</time>
      </trkpt>
      <trkpt lat="44.53511" lon="6.35853">
        <ele>1034.2</ele>
        <time>2021-07-16T09:28:27.484Z</time>
      </trkpt>
      <trkpt lat="44.53516" lon="6.35835">
        <ele>1037</ele>
        <time>2021-07-16T09:28:31.468Z</time>
      </trkpt>
      <trkpt lat="44.53519" lon="6.35824">
        <ele>1036.9</ele>
        <time>2021-07-16T09:28:34.531Z</time>
      </trkpt>
      <trkpt lat="44.53523" lon="6.35807">
        <ele>1038.2</ele>
        <time>2021-07-16T09:28:38.499Z</time>
      </trkpt>
      <trkpt lat="44.53524" lon="6.35791">
        <ele>1038.2</ele>
        <time>2021-07-16T09:28:42.474Z</time>
      </trkpt>
      <trkpt lat="44.53529" lon="6.35774">
        <ele>1040.1</ele>
        <time>2021-07-16T09:28:46.517Z</time>
      </trkpt>
      <trkpt lat="44.53531" lon="6.35759">
        <ele>1040.1</ele>
        <time>2021-07-16T09:28:50.463Z</time>
      </trkpt>
      <trkpt lat="44.53534" lon="6.35749">
        <ele>1041.3</ele>
        <time>2021-07-16T09:28:53.986Z</time>
      </trkpt>
      <trkpt lat="44.53537" lon="6.35738">
        <ele>1041.5</ele>
        <time>2021-07-16T09:28:57.010Z</time>
      </trkpt>
      <trkpt lat="44.53541" lon="6.35721">
        <ele>1042.2</ele>
        <time>2021-07-16T09:29:00.396Z</time>
      </trkpt>
      <trkpt lat="44.53545" lon="6.35706">
        <ele>976.3</ele>
        <time>2021-07-16T09:29:03.491Z</time>
      </trkpt>
      <trkpt lat="44.53549" lon="6.35691">
        <ele>949.4</ele>
        <time>2021-07-16T09:29:06.515Z</time>
      </trkpt>
      <trkpt lat="44.53554" lon="6.35675">
        <ele>969.8</ele>
        <time>2021-07-16T09:29:10.142Z</time>
      </trkpt>
      <trkpt lat="44.53557" lon="6.3566">
        <ele>973.7</ele>
        <time>2021-07-16T09:29:13.468Z</time>
      </trkpt>
      <trkpt lat="44.53561" lon="6.35644">
        <ele>977.5</ele>
        <time>2021-07-16T09:29:16.549Z</time>
      </trkpt>
      <trkpt lat="44.53565" lon="6.35627">
        <ele>976.6</ele>
        <time>2021-07-16T09:29:20.478Z</time>
      </trkpt>
      <trkpt lat="44.53568" lon="6.3561">
        <ele>977.8</ele>
        <time>2021-07-16T09:29:24.472Z</time>
      </trkpt>
      <trkpt lat="44.53562" lon="6.35601">
        <ele>979.8</ele>
        <time>2021-07-16T09:29:27.567Z</time>
      </trkpt>
      <trkpt lat="44.53548" lon="6.35598">
        <ele>965.2</ele>
        <time>2021-07-16T09:29:31.476Z</time>
      </trkpt>
      <trkpt lat="44.53541" lon="6.35602">
        <ele>975.3</ele>
        <time>2021-07-16T09:29:34.527Z</time>
      </trkpt>
      <trkpt lat="44.53536" lon="6.35611">
        <ele>975.6</ele>
        <time>2021-07-16T09:29:38.471Z</time>
      </trkpt>
      <trkpt lat="44.53529" lon="6.35618">
        <ele>979.1</ele>
        <time>2021-07-16T09:29:41.480Z</time>
      </trkpt>
      <trkpt lat="44.53523" lon="6.35624">
        <ele>980.2</ele>
        <time>2021-07-16T09:29:45.472Z</time>
      </trkpt>
      <trkpt lat="44.53517" lon="6.35632">
        <ele>984.9</ele>
        <time>2021-07-16T09:29:50.000Z</time>
      </trkpt>
      <trkpt lat="44.53515" lon="6.35641">
        <ele>985.7</ele>
        <time>2021-07-16T09:29:53.000Z</time>
      </trkpt>
      <trkpt lat="44.53512" lon="6.35658">
        <ele>985.7</ele>
        <time>2021-07-16T09:29:55.481Z</time>
      </trkpt>
      <trkpt lat="44.53505" lon="6.35681">
        <ele>986.7</ele>
        <time>2021-07-16T09:29:59.180Z</time>
      </trkpt>
      <trkpt lat="44.53499" lon="6.35696">
        <ele>989.5</ele>
        <time>2021-07-16T09:30:02.247Z</time>
      </trkpt>
      <trkpt lat="44.53495" lon="6.3571">
        <ele>989.2</ele>
        <time>2021-07-16T09:30:05.460Z</time>
      </trkpt>
      <trkpt lat="44.53474" lon="6.35756">
        <ele>982.2</ele>
        <time>2021-07-16T09:30:11.000Z</time>
      </trkpt>
      <trkpt lat="44.53458" lon="6.35773">
        <ele>980.6</ele>
        <time>2021-07-16T09:30:14.468Z</time>
      </trkpt>
      <trkpt lat="44.53456" lon="6.35782">
        <ele>978.8</ele>
        <time>2021-07-16T09:30:17.919Z</time>
      </trkpt>
      <trkpt lat="44.53444" lon="6.35791">
        <ele>982.5</ele>
        <time>2021-07-16T09:30:21.086Z</time>
      </trkpt>
      <trkpt lat="44.53433" lon="6.35803">
        <ele>980.4</ele>
        <time>2021-07-16T09:30:24.161Z</time>
      </trkpt>
      <trkpt lat="44.53424" lon="6.35815">
        <ele>982.5</ele>
        <time>2021-07-16T09:30:27.474Z</time>
      </trkpt>
      <trkpt lat="44.53416" lon="6.35828">
        <ele>982.3</ele>
        <time>2021-07-16T09:30:31.475Z</time>
      </trkpt>
      <trkpt lat="44.53408" lon="6.35834">
        <ele>982.1</ele>
        <time>2021-07-16T09:30:34.514Z</time>
      </trkpt>
      <trkpt lat="44.53395" lon="6.35833">
        <ele>984.1</ele>
        <time>2021-07-16T09:30:37.993Z</time>
      </trkpt>
      <trkpt lat="44.53393" lon="6.35818">
        <ele>985.2</ele>
        <time>2021-07-16T09:30:41.476Z</time>
      </trkpt>
      <trkpt lat="44.53386" lon="6.35808">
        <ele>986</ele>
        <time>2021-07-16T09:30:47.000Z</time>
      </trkpt>
      <trkpt lat="44.53387" lon="6.35795">
        <ele>987.4</ele>
        <time>2021-07-16T09:30:50.000Z</time>
      </trkpt>
      <trkpt lat="44.53387" lon="6.35786">
        <ele>988.8</ele>
        <time>2021-07-16T09:30:53.000Z</time>
      </trkpt>
      <trkpt lat="44.53384" lon="6.35769">
        <ele>992.6</ele>
        <time>2021-07-16T09:30:59.000Z</time>
      </trkpt>
      <trkpt lat="44.53385" lon="6.35748">
        <ele>992.6</ele>
        <time>2021-07-16T09:31:05.000Z</time>
      </trkpt>
      <trkpt lat="44.53388" lon="6.35739">
        <ele>992.8</ele>
        <time>2021-07-16T09:31:08.000Z</time>
      </trkpt>
      <trkpt lat="44.53391" lon="6.35729">
        <ele>992.7</ele>
        <time>2021-07-16T09:31:11.000Z</time>
      </trkpt>
      <trkpt lat="44.53394" lon="6.35719">
        <ele>992.9</ele>
        <time>2021-07-16T09:31:14.000Z</time>
      </trkpt>
      <trkpt lat="44.53397" lon="6.35709">
        <ele>993</ele>
        <time>2021-07-16T09:31:17.000Z</time>
      </trkpt>
      <trkpt lat="44.53403" lon="6.3569">
        <ele>993.7</ele>
        <time>2021-07-16T09:31:23.000Z</time>
      </trkpt>
      <trkpt lat="44.53409" lon="6.35672">
        <ele>993.8</ele>
        <time>2021-07-16T09:31:29.000Z</time>
      </trkpt>
      <trkpt lat="44.53412" lon="6.35663">
        <ele>995.6</ele>
        <time>2021-07-16T09:31:32.000Z</time>
      </trkpt>
      <trkpt lat="44.53414" lon="6.35653">
        <ele>996.6</ele>
        <time>2021-07-16T09:31:34.705Z</time>
      </trkpt>
      <trkpt lat="44.53419" lon="6.35638">
        <ele>996.8</ele>
        <time>2021-07-16T09:31:38.449Z</time>
      </trkpt>
      <trkpt lat="44.53422" lon="6.3563">
        <ele>996.8</ele>
        <time>2021-07-16T09:31:41.466Z</time>
      </trkpt>
      <trkpt lat="44.53428" lon="6.35617">
        <ele>998.9</ele>
        <time>2021-07-16T09:31:45.065Z</time>
      </trkpt>
      <trkpt lat="44.53431" lon="6.35608">
        <ele>998.9</ele>
        <time>2021-07-16T09:31:48.468Z</time>
      </trkpt>
      <trkpt lat="44.53434" lon="6.356">
        <ele>999</ele>
        <time>2021-07-16T09:31:51.511Z</time>
      </trkpt>
      <trkpt lat="44.53437" lon="6.35589">
        <ele>999</ele>
        <time>2021-07-16T09:31:54.525Z</time>
      </trkpt>
      <trkpt lat="44.53444" lon="6.35576">
        <ele>999.1</ele>
        <time>2021-07-16T09:31:58.467Z</time>
      </trkpt>
      <trkpt lat="44.53448" lon="6.35567">
        <ele>1003.1</ele>
        <time>2021-07-16T09:32:01.471Z</time>
      </trkpt>
      <trkpt lat="44.53452" lon="6.35558">
        <ele>1004</ele>
        <time>2021-07-16T09:32:04.682Z</time>
      </trkpt>
      <trkpt lat="44.53457" lon="6.35548">
        <ele>1003.8</ele>
        <time>2021-07-16T09:32:08.470Z</time>
      </trkpt>
      <trkpt lat="44.5346" lon="6.35535">
        <ele>1003.8</ele>
        <time>2021-07-16T09:32:12.474Z</time>
      </trkpt>
      <trkpt lat="44.5346" lon="6.35524">
        <ele>1003.8</ele>
        <time>2021-07-16T09:32:15.479Z</time>
      </trkpt>
      <trkpt lat="44.53457" lon="6.3551">
        <ele>1006.7</ele>
        <time>2021-07-16T09:32:19.481Z</time>
      </trkpt>
      <trkpt lat="44.53454" lon="6.35502">
        <ele>1007.8</ele>
        <time>2021-07-16T09:32:22.530Z</time>
      </trkpt>
      <trkpt lat="44.53451" lon="6.3549">
        <ele>1008.1</ele>
        <time>2021-07-16T09:32:26.462Z</time>
      </trkpt>
      <trkpt lat="44.53449" lon="6.3548">
        <ele>1008</ele>
        <time>2021-07-16T09:32:29.478Z</time>
      </trkpt>
      <trkpt lat="44.53448" lon="6.35468">
        <ele>1008</ele>
        <time>2021-07-16T09:32:33.160Z</time>
      </trkpt>
      <trkpt lat="44.53445" lon="6.35458">
        <ele>1008.1</ele>
        <time>2021-07-16T09:32:36.474Z</time>
      </trkpt>
      <trkpt lat="44.53439" lon="6.35445">
        <ele>1008.2</ele>
        <time>2021-07-16T09:32:40.472Z</time>
      </trkpt>
      <trkpt lat="44.53433" lon="6.35432">
        <ele>1012.9</ele>
        <time>2021-07-16T09:32:44.475Z</time>
      </trkpt>
      <trkpt lat="44.53428" lon="6.35421">
        <ele>1015.9</ele>
        <time>2021-07-16T09:32:48.189Z</time>
      </trkpt>
      <trkpt lat="44.53424" lon="6.35409">
        <ele>1015.9</ele>
        <time>2021-07-16T09:32:51.455Z</time>
      </trkpt>
      <trkpt lat="44.53422" lon="6.35397">
        <ele>1016</ele>
        <time>2021-07-16T09:32:54.480Z</time>
      </trkpt>
      <trkpt lat="44.53419" lon="6.35378">
        <ele>1018</ele>
        <time>2021-07-16T09:32:58.470Z</time>
      </trkpt>
      <trkpt lat="44.53418" lon="6.35363">
        <ele>1019</ele>
        <time>2021-07-16T09:33:02.064Z</time>
      </trkpt>
      <trkpt lat="44.53422" lon="6.35348">
        <ele>1019.1</ele>
        <time>2021-07-16T09:33:05.467Z</time>
      </trkpt>
      <trkpt lat="44.53425" lon="6.3533">
        <ele>1020.7</ele>
        <time>2021-07-16T09:33:09.152Z</time>
      </trkpt>
      <trkpt lat="44.53429" lon="6.35313">
        <ele>1020.6</ele>
        <time>2021-07-16T09:33:12.474Z</time>
      </trkpt>
      <trkpt lat="44.53434" lon="6.35295">
        <ele>1020.6</ele>
        <time>2021-07-16T09:33:16.475Z</time>
      </trkpt>
      <trkpt lat="44.53438" lon="6.35277">
        <ele>1020.6</ele>
        <time>2021-07-16T09:33:20.470Z</time>
      </trkpt>
      <trkpt lat="44.5344" lon="6.35261">
        <ele>1020.6</ele>
        <time>2021-07-16T09:33:24.149Z</time>
      </trkpt>
      <trkpt lat="44.53444" lon="6.35248">
        <ele>1025.8</ele>
        <time>2021-07-16T09:33:27.293Z</time>
      </trkpt>
      <trkpt lat="44.53449" lon="6.35239">
        <ele>1025.8</ele>
        <time>2021-07-16T09:33:30.474Z</time>
      </trkpt>
      <trkpt lat="44.53459" lon="6.3523">
        <ele>1025.8</ele>
        <time>2021-07-16T09:33:34.471Z</time>
      </trkpt>
      <trkpt lat="44.53465" lon="6.35222">
        <ele>1025.8</ele>
        <time>2021-07-16T09:33:37.503Z</time>
      </trkpt>
      <trkpt lat="44.53469" lon="6.35207">
        <ele>1028.4</ele>
        <time>2021-07-16T09:33:41.460Z</time>
      </trkpt>
      <trkpt lat="44.53469" lon="6.35195">
        <ele>1029.5</ele>
        <time>2021-07-16T09:33:44.490Z</time>
      </trkpt>
      <trkpt lat="44.53469" lon="6.35177">
        <ele>1029.5</ele>
        <time>2021-07-16T09:33:48.500Z</time>
      </trkpt>
      <trkpt lat="44.53469" lon="6.35157">
        <ele>1029.5</ele>
        <time>2021-07-16T09:33:52.472Z</time>
      </trkpt>
      <trkpt lat="44.5347" lon="6.35141">
        <ele>1029.4</ele>
        <time>2021-07-16T09:33:55.497Z</time>
      </trkpt>
      <trkpt lat="44.53473" lon="6.35126">
        <ele>1029.5</ele>
        <time>2021-07-16T09:33:59.484Z</time>
      </trkpt>
      <trkpt lat="44.53476" lon="6.35114">
        <ele>1033.8</ele>
        <time>2021-07-16T09:34:02.961Z</time>
      </trkpt>
      <trkpt lat="44.5348" lon="6.35102">
        <ele>1034.8</ele>
        <time>2021-07-16T09:34:06.485Z</time>
      </trkpt>
      <trkpt lat="44.53488" lon="6.3509">
        <ele>1032.7</ele>
        <time>2021-07-16T09:34:10.476Z</time>
      </trkpt>
      <trkpt lat="44.53498" lon="6.35078">
        <ele>1034.8</ele>
        <time>2021-07-16T09:34:14.520Z</time>
      </trkpt>
      <trkpt lat="44.53506" lon="6.35073">
        <ele>1052.1</ele>
        <time>2021-07-16T09:34:17.864Z</time>
      </trkpt>
      <trkpt lat="44.53516" lon="6.35066">
        <ele>1042.2</ele>
        <time>2021-07-16T09:34:21.172Z</time>
      </trkpt>
      <trkpt lat="44.53526" lon="6.35062">
        <ele>1039.9</ele>
        <time>2021-07-16T09:34:24.509Z</time>
      </trkpt>
      <trkpt lat="44.53533" lon="6.35057">
        <ele>1010.9</ele>
        <time>2021-07-16T09:34:27.523Z</time>
      </trkpt>
      <trkpt lat="44.53541" lon="6.35044">
        <ele>1025</ele>
        <time>2021-07-16T09:34:31.464Z</time>
      </trkpt>
      <trkpt lat="44.53551" lon="6.35024">
        <ele>1032.3</ele>
        <time>2021-07-16T09:34:35.000Z</time>
      </trkpt>
      <trkpt lat="44.53574" lon="6.3499">
        <ele>1034.6</ele>
        <time>2021-07-16T09:34:41.000Z</time>
      </trkpt>
      <trkpt lat="44.53595" lon="6.34961">
        <ele>1034</ele>
        <time>2021-07-16T09:34:47.000Z</time>
      </trkpt>
      <trkpt lat="44.53614" lon="6.34931">
        <ele>1035.1</ele>
        <time>2021-07-16T09:34:53.000Z</time>
      </trkpt>
      <trkpt lat="44.53623" lon="6.34916">
        <ele>1037.3</ele>
        <time>2021-07-16T09:34:56.000Z</time>
      </trkpt>
      <trkpt lat="44.53631" lon="6.349">
        <ele>1039.9</ele>
        <time>2021-07-16T09:34:59.000Z</time>
      </trkpt>
      <trkpt lat="44.53651" lon="6.34874">
        <ele>1036.6</ele>
        <time>2021-07-16T09:35:05.000Z</time>
      </trkpt>
      <trkpt lat="44.53659" lon="6.34866">
        <ele>1038.3</ele>
        <time>2021-07-16T09:35:08.000Z</time>
      </trkpt>
      <trkpt lat="44.53675" lon="6.34843">
        <ele>1040.9</ele>
        <time>2021-07-16T09:35:14.000Z</time>
      </trkpt>
      <trkpt lat="44.53681" lon="6.34845">
        <ele>1041.9</ele>
        <time>2021-07-16T09:35:16.786Z</time>
      </trkpt>
      <trkpt lat="44.53689" lon="6.34832">
        <ele>1041.1</ele>
        <time>2021-07-16T09:35:20.125Z</time>
      </trkpt>
      <trkpt lat="44.53704" lon="6.34784">
        <ele>1040.9</ele>
        <time>2021-07-16T09:35:26.000Z</time>
      </trkpt>
      <trkpt lat="44.53709" lon="6.34768">
        <ele>1040.9</ele>
        <time>2021-07-16T09:35:28.468Z</time>
      </trkpt>
      <trkpt lat="44.53717" lon="6.3472">
        <ele>1047.2</ele>
        <time>2021-07-16T09:35:35.000Z</time>
      </trkpt>
      <trkpt lat="44.5372" lon="6.34703">
        <ele>1047.2</ele>
        <time>2021-07-16T09:35:37.504Z</time>
      </trkpt>
      <trkpt lat="44.53726" lon="6.34688">
        <ele>1041.6</ele>
        <time>2021-07-16T09:35:41.449Z</time>
      </trkpt>
      <trkpt lat="44.53727" lon="6.34671">
        <ele>1041.1</ele>
        <time>2021-07-16T09:35:44.483Z</time>
      </trkpt>
      <trkpt lat="44.53731" lon="6.3465">
        <ele>1041.9</ele>
        <time>2021-07-16T09:35:48.463Z</time>
      </trkpt>
      <trkpt lat="44.53734" lon="6.34632">
        <ele>1109.7</ele>
        <time>2021-07-16T09:35:51.479Z</time>
      </trkpt>
      <trkpt lat="44.53735" lon="6.34614">
        <ele>1077</ele>
        <time>2021-07-16T09:35:54.479Z</time>
      </trkpt>
      <trkpt lat="44.53736" lon="6.34593">
        <ele>1054.3</ele>
        <time>2021-07-16T09:35:58.464Z</time>
      </trkpt>
      <trkpt lat="44.53737" lon="6.34576">
        <ele>1044.2</ele>
        <time>2021-07-16T09:36:01.677Z</time>
      </trkpt>
      <trkpt lat="44.53739" lon="6.34557">
        <ele>1042.7</ele>
        <time>2021-07-16T09:36:05.033Z</time>
      </trkpt>
      <trkpt lat="44.53744" lon="6.34537">
        <ele>1043.7</ele>
        <time>2021-07-16T09:36:08.468Z</time>
      </trkpt>
      <trkpt lat="44.53761" lon="6.34504">
        <ele>1039.8</ele>
        <time>2021-07-16T09:36:14.000Z</time>
      </trkpt>
      <trkpt lat="44.53777" lon="6.34466">
        <ele>1039.3</ele>
        <time>2021-07-16T09:36:20.000Z</time>
      </trkpt>
      <trkpt lat="44.5379" lon="6.3442">
        <ele>1035.6</ele>
        <time>2021-07-16T09:36:26.000Z</time>
      </trkpt>
      <trkpt lat="44.5379" lon="6.34395">
        <ele>1034</ele>
        <time>2021-07-16T09:36:29.000Z</time>
      </trkpt>
      <trkpt lat="44.53791" lon="6.34369">
        <ele>1032.8</ele>
        <time>2021-07-16T09:36:32.000Z</time>
      </trkpt>
      <trkpt lat="44.53793" lon="6.34342">
        <ele>1031.9</ele>
        <time>2021-07-16T09:36:35.000Z</time>
      </trkpt>
      <trkpt lat="44.53792" lon="6.34287">
        <ele>1032.1</ele>
        <time>2021-07-16T09:36:41.000Z</time>
      </trkpt>
      <trkpt lat="44.53789" lon="6.34261">
        <ele>1032</ele>
        <time>2021-07-16T09:36:44.000Z</time>
      </trkpt>
      <trkpt lat="44.53786" lon="6.34239">
        <ele>1032</ele>
        <time>2021-07-16T09:36:47.000Z</time>
      </trkpt>
      <trkpt lat="44.53776" lon="6.34201">
        <ele>1031.1</ele>
        <time>2021-07-16T09:36:53.000Z</time>
      </trkpt>
      <trkpt lat="44.53776" lon="6.3419">
        <ele>1034.6</ele>
        <time>2021-07-16T09:37:05.000Z</time>
      </trkpt>
      <trkpt lat="44.53779" lon="6.34195">
        <ele>1031.9</ele>
        <time>2021-07-16T09:37:28.546Z</time>
      </trkpt>
      <trkpt lat="44.53781" lon="6.34205">
        <ele>1032.3</ele>
        <time>2021-07-16T09:37:33.645Z</time>
      </trkpt>
      <trkpt lat="44.53777" lon="6.34209">
        <ele>1031.8</ele>
        <time>2021-07-16T09:38:38.000Z</time>
      </trkpt>
      <trkpt lat="44.5374" lon="6.342">
        <ele>1031.9</ele>
        <time>2021-07-16T09:39:29.000Z</time>
      </trkpt>
      <trkpt lat="44.53693" lon="6.34187">
        <ele>1029.9</ele>
        <time>2021-07-16T09:39:35.000Z</time>
      </trkpt>
      <trkpt lat="44.53671" lon="6.34184">
        <ele>1029.9</ele>
        <time>2021-07-16T09:39:38.000Z</time>
      </trkpt>
      <trkpt lat="44.5365" lon="6.3418">
        <ele>1029.8</ele>
        <time>2021-07-16T09:39:41.000Z</time>
      </trkpt>
      <trkpt lat="44.53626" lon="6.34179">
        <ele>1029.8</ele>
        <time>2021-07-16T09:39:44.000Z</time>
      </trkpt>
      <trkpt lat="44.53573" lon="6.34172">
        <ele>1029.8</ele>
        <time>2021-07-16T09:39:50.000Z</time>
      </trkpt>
      <trkpt lat="44.53547" lon="6.34171">
        <ele>1029.7</ele>
        <time>2021-07-16T09:39:53.000Z</time>
      </trkpt>
      <trkpt lat="44.53504" lon="6.34176">
        <ele>1029.8</ele>
        <time>2021-07-16T09:39:59.000Z</time>
      </trkpt>
      <trkpt lat="44.53478" lon="6.34175">
        <ele>1029.8</ele>
        <time>2021-07-16T09:40:05.000Z</time>
      </trkpt>
      <trkpt lat="44.53472" lon="6.3414">
        <ele>1008.3</ele>
        <time>2021-07-16T09:40:11.000Z</time>
      </trkpt>
      <trkpt lat="44.5347" lon="6.34123">
        <ele>1007.8</ele>
        <time>2021-07-16T09:40:14.000Z</time>
      </trkpt>
      <trkpt lat="44.53472" lon="6.34084">
        <ele>1007.8</ele>
        <time>2021-07-16T09:40:20.000Z</time>
      </trkpt>
      <trkpt lat="44.53477" lon="6.34048">
        <ele>1005.3</ele>
        <time>2021-07-16T09:40:23.000Z</time>
      </trkpt>
      <trkpt lat="44.53478" lon="6.34015">
        <ele>998.9</ele>
        <time>2021-07-16T09:40:26.000Z</time>
      </trkpt>
      <trkpt lat="44.53467" lon="6.33975">
        <ele>996</ele>
        <time>2021-07-16T09:40:32.000Z</time>
      </trkpt>
      <trkpt lat="44.53449" lon="6.33957">
        <ele>990.8</ele>
        <time>2021-07-16T09:40:38.000Z</time>
      </trkpt>
      <trkpt lat="44.53437" lon="6.33941">
        <ele>988.5</ele>
        <time>2021-07-16T09:40:41.000Z</time>
      </trkpt>
      <trkpt lat="44.53418" lon="6.33897">
        <ele>988.7</ele>
        <time>2021-07-16T09:40:47.000Z</time>
      </trkpt>
      <trkpt lat="44.53415" lon="6.3387">
        <ele>1070.9</ele>
        <time>2021-07-16T09:40:53.000Z</time>
      </trkpt>
      <trkpt lat="44.53412" lon="6.33841">
        <ele>1012.4</ele>
        <time>2021-07-16T09:40:59.000Z</time>
      </trkpt>
      <trkpt lat="44.534" lon="6.33804">
        <ele>1005</ele>
        <time>2021-07-16T09:41:05.000Z</time>
      </trkpt>
      <trkpt lat="44.53395" lon="6.33778">
        <ele>998.1</ele>
        <time>2021-07-16T09:41:11.000Z</time>
      </trkpt>
      <trkpt lat="44.53392" lon="6.33748">
        <ele>1036.8</ele>
        <time>2021-07-16T09:41:17.000Z</time>
      </trkpt>
      <trkpt lat="44.53382" lon="6.33737">
        <ele>1014.5</ele>
        <time>2021-07-16T09:41:20.000Z</time>
      </trkpt>
      <trkpt lat="44.53368" lon="6.33733">
        <ele>1003.1</ele>
        <time>2021-07-16T09:41:22.492Z</time>
      </trkpt>
      <trkpt lat="44.53345" lon="6.33727">
        <ele>997</ele>
        <time>2021-07-16T09:41:29.000Z</time>
      </trkpt>
      <trkpt lat="44.53336" lon="6.33722">
        <ele>998.1</ele>
        <time>2021-07-16T09:41:32.000Z</time>
      </trkpt>
      <trkpt lat="44.53329" lon="6.337">
        <ele>996.6</ele>
        <time>2021-07-16T09:41:38.000Z</time>
      </trkpt>
      <trkpt lat="44.53329" lon="6.33691">
        <ele>996.2</ele>
        <time>2021-07-16T09:41:44.000Z</time>
      </trkpt>
      <trkpt lat="44.53331" lon="6.33681">
        <ele>998.3</ele>
        <time>2021-07-16T09:42:23.000Z</time>
      </trkpt>
      <trkpt lat="44.53335" lon="6.33658">
        <ele>997.9</ele>
        <time>2021-07-16T09:42:29.000Z</time>
      </trkpt>
      <trkpt lat="44.53314" lon="6.33637">
        <ele>997.8</ele>
        <time>2021-07-16T09:42:35.000Z</time>
      </trkpt>
      <trkpt lat="44.5331" lon="6.33622">
        <ele>993.9</ele>
        <time>2021-07-16T09:42:41.000Z</time>
      </trkpt>
      <trkpt lat="44.53303" lon="6.33613">
        <ele>993.9</ele>
        <time>2021-07-16T09:42:44.000Z</time>
      </trkpt>
      <trkpt lat="44.53298" lon="6.33599">
        <ele>991.2</ele>
        <time>2021-07-16T09:42:47.000Z</time>
      </trkpt>
      <trkpt lat="44.53291" lon="6.3359">
        <ele>990.3</ele>
        <time>2021-07-16T09:42:49.551Z</time>
      </trkpt>
      <trkpt lat="44.53269" lon="6.3359">
        <ele>989.6</ele>
        <time>2021-07-16T09:42:56.000Z</time>
      </trkpt>
      <trkpt lat="44.53233" lon="6.33628">
        <ele>988.5</ele>
        <time>2021-07-16T09:43:02.000Z</time>
      </trkpt>
      <trkpt lat="44.53194" lon="6.33639">
        <ele>988.5</ele>
        <time>2021-07-16T09:43:08.000Z</time>
      </trkpt>
      <trkpt lat="44.53173" lon="6.33637">
        <ele>988.5</ele>
        <time>2021-07-16T09:43:11.000Z</time>
      </trkpt>
      <trkpt lat="44.5316" lon="6.33601">
        <ele>988.5</ele>
        <time>2021-07-16T09:43:17.000Z</time>
      </trkpt>
      <trkpt lat="44.53159" lon="6.33573">
        <ele>975.8</ele>
        <time>2021-07-16T09:43:19.657Z</time>
      </trkpt>
      <trkpt lat="44.53157" lon="6.33543">
        <ele>975.3</ele>
        <time>2021-07-16T09:43:26.000Z</time>
      </trkpt>
      <trkpt lat="44.53162" lon="6.33521">
        <ele>971.4</ele>
        <time>2021-07-16T09:43:28.563Z</time>
      </trkpt>
      <trkpt lat="44.53178" lon="6.33514">
        <ele>968.4</ele>
        <time>2021-07-16T09:43:33.517Z</time>
      </trkpt>
      <trkpt lat="44.53173" lon="6.33498">
        <ele>968.1</ele>
        <time>2021-07-16T09:43:38.000Z</time>
      </trkpt>
      <trkpt lat="44.53159" lon="6.33489">
        <ele>968.1</ele>
        <time>2021-07-16T09:43:41.000Z</time>
      </trkpt>
      <trkpt lat="44.53142" lon="6.335">
        <ele>965.4</ele>
        <time>2021-07-16T09:43:47.000Z</time>
      </trkpt>
      <trkpt lat="44.53151" lon="6.33471">
        <ele>965.5</ele>
        <time>2021-07-16T09:43:53.000Z</time>
      </trkpt>
      <trkpt lat="44.53161" lon="6.33458">
        <ele>965.4</ele>
        <time>2021-07-16T09:43:56.000Z</time>
      </trkpt>
      <trkpt lat="44.5317" lon="6.33453">
        <ele>917.9</ele>
        <time>2021-07-16T09:43:59.000Z</time>
      </trkpt>
      <trkpt lat="44.53151" lon="6.33452">
        <ele>917.3</ele>
        <time>2021-07-16T09:44:08.000Z</time>
      </trkpt>
      <trkpt lat="44.53129" lon="6.33465">
        <ele>917.4</ele>
        <time>2021-07-16T09:44:14.000Z</time>
      </trkpt>
      <trkpt lat="44.5313" lon="6.33426">
        <ele>912.5</ele>
        <time>2021-07-16T09:44:23.000Z</time>
      </trkpt>
      <trkpt lat="44.53134" lon="6.33377">
        <ele>909.7</ele>
        <time>2021-07-16T09:44:29.000Z</time>
      </trkpt>
      <trkpt lat="44.53128" lon="6.33373">
        <ele>909.7</ele>
        <time>2021-07-16T09:44:35.000Z</time>
      </trkpt>
      <trkpt lat="44.53126" lon="6.33357">
        <ele>909.8</ele>
        <time>2021-07-16T09:44:41.000Z</time>
      </trkpt>
      <trkpt lat="44.5312" lon="6.33346">
        <ele>898.4</ele>
        <time>2021-07-16T09:44:47.000Z</time>
      </trkpt>
      <trkpt lat="44.53116" lon="6.33338">
        <ele>895.5</ele>
        <time>2021-07-16T09:44:50.000Z</time>
      </trkpt>
      <trkpt lat="44.53115" lon="6.33331">
        <ele>895.6</ele>
        <time>2021-07-16T09:44:56.000Z</time>
      </trkpt>
      <trkpt lat="44.53117" lon="6.33322">
        <ele>890.2</ele>
        <time>2021-07-16T09:45:05.000Z</time>
      </trkpt>
      <trkpt lat="44.53103" lon="6.33284">
        <ele>888.4</ele>
        <time>2021-07-16T09:45:11.000Z</time>
      </trkpt>
      <trkpt lat="44.53123" lon="6.33226">
        <ele>885.3</ele>
        <time>2021-07-16T09:45:17.000Z</time>
      </trkpt>
      <trkpt lat="44.53127" lon="6.3322">
        <ele>885.3</ele>
        <time>2021-07-16T09:45:23.000Z</time>
      </trkpt>
      <trkpt lat="44.53132" lon="6.3321">
        <ele>885.3</ele>
        <time>2021-07-16T09:45:26.000Z</time>
      </trkpt>
      <trkpt lat="44.53136" lon="6.33202">
        <ele>882.2</ele>
        <time>2021-07-16T09:45:28.511Z</time>
      </trkpt>
      <trkpt lat="44.53138" lon="6.33195">
        <ele>882.2</ele>
        <time>2021-07-16T09:45:38.000Z</time>
      </trkpt>
      <trkpt lat="44.53141" lon="6.3319">
        <ele>895.5</ele>
        <time>2021-07-16T09:45:59.060Z</time>
      </trkpt>
      <trkpt lat="44.53145" lon="6.33183">
        <ele>895.4</ele>
        <time>2021-07-16T09:46:02.494Z</time>
      </trkpt>
      <trkpt lat="44.5314" lon="6.33173">
        <ele>897.5</ele>
        <time>2021-07-16T09:46:06.527Z</time>
      </trkpt>
      <trkpt lat="44.53134" lon="6.33163">
        <ele>902.5</ele>
        <time>2021-07-16T09:46:10.460Z</time>
      </trkpt>
      <trkpt lat="44.53141" lon="6.3312">
        <ele>881.2</ele>
        <time>2021-07-16T09:46:14.000Z</time>
      </trkpt>
      <trkpt lat="44.53148" lon="6.33096">
        <ele>881.4</ele>
        <time>2021-07-16T09:46:17.147Z</time>
      </trkpt>
      <trkpt lat="44.53153" lon="6.33088">
        <ele>881.5</ele>
        <time>2021-07-16T09:46:20.481Z</time>
      </trkpt>
      <trkpt lat="44.53155" lon="6.33071">
        <ele>881.4</ele>
        <time>2021-07-16T09:46:24.247Z</time>
      </trkpt>
      <trkpt lat="44.53157" lon="6.33029">
        <ele>881</ele>
        <time>2021-07-16T09:46:29.000Z</time>
      </trkpt>
      <trkpt lat="44.53153" lon="6.33008">
        <ele>880.9</ele>
        <time>2021-07-16T09:46:32.530Z</time>
      </trkpt>
      <trkpt lat="44.53184" lon="6.32987">
        <ele>877</ele>
        <time>2021-07-16T09:46:41.000Z</time>
      </trkpt>
      <trkpt lat="44.53189" lon="6.32976">
        <ele>877</ele>
        <time>2021-07-16T09:46:43.627Z</time>
      </trkpt>
      <trkpt lat="44.53181" lon="6.32968">
        <ele>874.7</ele>
        <time>2021-07-16T09:46:50.476Z</time>
      </trkpt>
      <trkpt lat="44.53166" lon="6.32961">
        <ele>871.6</ele>
        <time>2021-07-16T09:46:53.976Z</time>
      </trkpt>
      <trkpt lat="44.53154" lon="6.32962">
        <ele>871.6</ele>
        <time>2021-07-16T09:46:57.500Z</time>
      </trkpt>
      <trkpt lat="44.53147" lon="6.32951">
        <ele>871.5</ele>
        <time>2021-07-16T09:47:01.466Z</time>
      </trkpt>
      <trkpt lat="44.53152" lon="6.32944">
        <ele>871.6</ele>
        <time>2021-07-16T09:47:04.506Z</time>
      </trkpt>
      <trkpt lat="44.53161" lon="6.3294">
        <ele>866.2</ele>
        <time>2021-07-16T09:47:08.446Z</time>
      </trkpt>
      <trkpt lat="44.53167" lon="6.32935">
        <ele>863.7</ele>
        <time>2021-07-16T09:47:11.605Z</time>
      </trkpt>
      <trkpt lat="44.53167" lon="6.32927">
        <ele>871.1</ele>
        <time>2021-07-16T09:47:20.000Z</time>
      </trkpt>
      <trkpt lat="44.53162" lon="6.32922">
        <ele>873.2</ele>
        <time>2021-07-16T09:47:33.477Z</time>
      </trkpt>
      <trkpt lat="44.53155" lon="6.32919">
        <ele>873.3</ele>
        <time>2021-07-16T09:47:37.046Z</time>
      </trkpt>
      <trkpt lat="44.53147" lon="6.32922">
        <ele>874.8</ele>
        <time>2021-07-16T09:47:41.470Z</time>
      </trkpt>
      <trkpt lat="44.53143" lon="6.32927">
        <ele>874.8</ele>
        <time>2021-07-16T09:47:44.472Z</time>
      </trkpt>
      <trkpt lat="44.53137" lon="6.32933">
        <ele>874.8</ele>
        <time>2021-07-16T09:47:48.461Z</time>
      </trkpt>
      <trkpt lat="44.5305" lon="6.32928">
        <ele>988.3</ele>
        <time>2021-07-16T09:48:30.000Z</time>
      </trkpt>
      <trkpt lat="44.5305" lon="6.32936">
        <ele>882.6</ele>
        <time>2021-07-16T09:48:34.000Z</time>
      </trkpt>
      <trkpt lat="44.53046" lon="6.3294">
        <ele>872.6</ele>
        <time>2021-07-16T09:48:37.000Z</time>
      </trkpt>
      <trkpt lat="44.53039" lon="6.32934">
        <ele>864.8</ele>
        <time>2021-07-16T09:48:43.396Z</time>
      </trkpt>
      <trkpt lat="44.53036" lon="6.32928">
        <ele>860.6</ele>
        <time>2021-07-16T09:48:46.875Z</time>
      </trkpt>
      <trkpt lat="44.53033" lon="6.32924">
        <ele>859.8</ele>
        <time>2021-07-16T09:48:50.434Z</time>
      </trkpt>
      <trkpt lat="44.5303" lon="6.32917">
        <ele>946.5</ele>
        <time>2021-07-16T09:49:18.470Z</time>
      </trkpt>
      <trkpt lat="44.53025" lon="6.32919">
        <ele>1024.6</ele>
        <time>2021-07-16T09:49:30.539Z</time>
      </trkpt>
      <trkpt lat="44.5302" lon="6.32919">
        <ele>850.7</ele>
        <time>2021-07-16T09:51:15.893Z</time>
      </trkpt>
      <trkpt lat="44.53012" lon="6.32921">
        <ele>848.7</ele>
        <time>2021-07-16T09:51:19.477Z</time>
      </trkpt>
      <trkpt lat="44.53007" lon="6.3291">
        <ele>846.3</ele>
        <time>2021-07-16T09:51:23.040Z</time>
      </trkpt>
      <trkpt lat="44.53004" lon="6.32901">
        <ele>846.2</ele>
        <time>2021-07-16T09:51:26.465Z</time>
      </trkpt>
      <trkpt lat="44.53007" lon="6.32894">
        <ele>844.6</ele>
        <time>2021-07-16T09:51:29.525Z</time>
      </trkpt>
      <trkpt lat="44.53011" lon="6.3289">
        <ele>843.9</ele>
        <time>2021-07-16T09:51:34.000Z</time>
      </trkpt>
      <trkpt lat="44.53011" lon="6.32883">
        <ele>843.9</ele>
        <time>2021-07-16T09:51:36.474Z</time>
      </trkpt>
      <trkpt lat="44.53005" lon="6.32873">
        <ele>846</ele>
        <time>2021-07-16T09:51:40.477Z</time>
      </trkpt>
      <trkpt lat="44.53001" lon="6.3287">
        <ele>847.7</ele>
        <time>2021-07-16T09:51:47.473Z</time>
      </trkpt>
      <trkpt lat="44.52996" lon="6.32865">
        <ele>845.2</ele>
        <time>2021-07-16T09:51:51.477Z</time>
      </trkpt>
      <trkpt lat="44.5299" lon="6.32856">
        <ele>961.2</ele>
        <time>2021-07-16T09:51:55.468Z</time>
      </trkpt>
      <trkpt lat="44.52993" lon="6.32851">
        <ele>910</ele>
        <time>2021-07-16T09:51:58.536Z</time>
      </trkpt>
      <trkpt lat="44.52986" lon="6.32844">
        <ele>884.4</ele>
        <time>2021-07-16T09:52:02.285Z</time>
      </trkpt>
      <trkpt lat="44.52977" lon="6.32836">
        <ele>871.5</ele>
        <time>2021-07-16T09:52:05.745Z</time>
      </trkpt>
      <trkpt lat="44.52968" lon="6.32831">
        <ele>864.4</ele>
        <time>2021-07-16T09:52:09.471Z</time>
      </trkpt>
      <trkpt lat="44.5296" lon="6.32829">
        <ele>862</ele>
        <time>2021-07-16T09:52:12.476Z</time>
      </trkpt>
      <trkpt lat="44.52953" lon="6.32829">
        <ele>857.4</ele>
        <time>2021-07-16T09:52:15.512Z</time>
      </trkpt>
      <trkpt lat="44.52948" lon="6.32823">
        <ele>855.1</ele>
        <time>2021-07-16T09:52:25.000Z</time>
      </trkpt>
      <trkpt lat="44.52937" lon="6.3283">
        <ele>854.4</ele>
        <time>2021-07-16T09:57:40.464Z</time>
      </trkpt>
      <trkpt lat="44.5292" lon="6.32845">
        <ele>853.5</ele>
        <time>2021-07-16T09:57:44.064Z</time>
      </trkpt>
      <trkpt lat="44.52909" lon="6.32858">
        <ele>853.5</ele>
        <time>2021-07-16T09:57:47.119Z</time>
      </trkpt>
      <trkpt lat="44.52894" lon="6.32875">
        <ele>853.3</ele>
        <time>2021-07-16T09:57:50.576Z</time>
      </trkpt>
      <trkpt lat="44.52881" lon="6.32883">
        <ele>853.3</ele>
        <time>2021-07-16T09:57:53.983Z</time>
      </trkpt>
      <trkpt lat="44.52869" lon="6.32889">
        <ele>853.3</ele>
        <time>2021-07-16T09:57:57.003Z</time>
      </trkpt>
      <trkpt lat="44.52851" lon="6.32897">
        <ele>852.7</ele>
        <time>2021-07-16T09:58:00.476Z</time>
      </trkpt>
      <trkpt lat="44.52807" lon="6.32917">
        <ele>852.7</ele>
        <time>2021-07-16T09:58:07.000Z</time>
      </trkpt>
      <trkpt lat="44.52808" lon="6.32926">
        <ele>852.7</ele>
        <time>2021-07-16T09:58:09.474Z</time>
      </trkpt>
      <trkpt lat="44.52805" lon="6.32936">
        <ele>850.7</ele>
        <time>2021-07-16T09:58:12.481Z</time>
      </trkpt>
      <trkpt lat="44.52804" lon="6.32951">
        <ele>850</ele>
        <time>2021-07-16T09:58:15.534Z</time>
      </trkpt>
      <trkpt lat="44.52791" lon="6.32965">
        <ele>849.6</ele>
        <time>2021-07-16T09:58:19.484Z</time>
      </trkpt>
      <trkpt lat="44.52788" lon="6.32971">
        <ele>849.5</ele>
        <time>2021-07-16T09:58:23.467Z</time>
      </trkpt>
      <trkpt lat="44.52783" lon="6.32974">
        <ele>849.5</ele>
        <time>2021-07-16T09:58:26.473Z</time>
      </trkpt>
      <trkpt lat="44.52772" lon="6.32986">
        <ele>846.9</ele>
        <time>2021-07-16T09:58:30.475Z</time>
      </trkpt>
      <trkpt lat="44.52764" lon="6.32993">
        <ele>837.8</ele>
        <time>2021-07-16T09:58:33.578Z</time>
      </trkpt>
      <trkpt lat="44.52751" lon="6.32997">
        <ele>836.2</ele>
        <time>2021-07-16T09:58:37.470Z</time>
      </trkpt>
      <trkpt lat="44.5272" lon="6.33006">
        <ele>831.9</ele>
        <time>2021-07-16T09:58:43.000Z</time>
      </trkpt>
      <trkpt lat="44.52713" lon="6.33016">
        <ele>830.4</ele>
        <time>2021-07-16T09:58:46.486Z</time>
      </trkpt>
      <trkpt lat="44.52699" lon="6.33">
        <ele>829.9</ele>
        <time>2021-07-16T09:58:50.172Z</time>
      </trkpt>
      <trkpt lat="44.52688" lon="6.32985">
        <ele>827.9</ele>
        <time>2021-07-16T09:58:54.026Z</time>
      </trkpt>
      <trkpt lat="44.52678" lon="6.32964">
        <ele>826.4</ele>
        <time>2021-07-16T09:58:57.502Z</time>
      </trkpt>
      <trkpt lat="44.52672" lon="6.3294">
        <ele>950.6</ele>
        <time>2021-07-16T09:59:01.470Z</time>
      </trkpt>
      <trkpt lat="44.52667" lon="6.32917">
        <ele>900.3</ele>
        <time>2021-07-16T09:59:04.924Z</time>
      </trkpt>
      <trkpt lat="44.52661" lon="6.32894">
        <ele>872.5</ele>
        <time>2021-07-16T09:59:08.469Z</time>
      </trkpt>
      <trkpt lat="44.52656" lon="6.32876">
        <ele>844.7</ele>
        <time>2021-07-16T09:59:12.481Z</time>
      </trkpt>
      <trkpt lat="44.52654" lon="6.32864">
        <ele>844</ele>
        <time>2021-07-16T09:59:15.627Z</time>
      </trkpt>
      <trkpt lat="44.52655" lon="6.32848">
        <ele>844</ele>
        <time>2021-07-16T09:59:19.163Z</time>
      </trkpt>
      <trkpt lat="44.52658" lon="6.32833">
        <ele>844</ele>
        <time>2021-07-16T09:59:22.477Z</time>
      </trkpt>
      <trkpt lat="44.5266" lon="6.32815">
        <ele>844</ele>
        <time>2021-07-16T09:59:26.469Z</time>
      </trkpt>
      <trkpt lat="44.52666" lon="6.32798">
        <ele>843.9</ele>
        <time>2021-07-16T09:59:29.503Z</time>
      </trkpt>
      <trkpt lat="44.52675" lon="6.32782">
        <ele>845.3</ele>
        <time>2021-07-16T09:59:33.476Z</time>
      </trkpt>
      <trkpt lat="44.52691" lon="6.32768">
        <ele>845.7</ele>
        <time>2021-07-16T09:59:36.629Z</time>
      </trkpt>
      <trkpt lat="44.52703" lon="6.32763">
        <ele>845.7</ele>
        <time>2021-07-16T09:59:43.000Z</time>
      </trkpt>
      <trkpt lat="44.52721" lon="6.32756">
        <ele>845.7</ele>
        <time>2021-07-16T09:59:52.000Z</time>
      </trkpt>
      <trkpt lat="44.52736" lon="6.32758">
        <ele>845.8</ele>
        <time>2021-07-16T09:59:55.000Z</time>
      </trkpt>
      <trkpt lat="44.52754" lon="6.32754">
        <ele>844.5</ele>
        <time>2021-07-16T09:59:58.000Z</time>
      </trkpt>
      <trkpt lat="44.52773" lon="6.32754">
        <ele>844.8</ele>
        <time>2021-07-16T10:00:00.563Z</time>
      </trkpt>
      <trkpt lat="44.52794" lon="6.32755">
        <ele>845</ele>
        <time>2021-07-16T10:00:07.000Z</time>
      </trkpt>
      <trkpt lat="44.52804" lon="6.32754">
        <ele>845.1</ele>
        <time>2021-07-16T10:00:10.000Z</time>
      </trkpt>
      <trkpt lat="44.52813" lon="6.3275">
        <ele>846.8</ele>
        <time>2021-07-16T10:00:12.503Z</time>
      </trkpt>
      <trkpt lat="44.52839" lon="6.32734">
        <ele>847.1</ele>
        <time>2021-07-16T10:00:19.000Z</time>
      </trkpt>
      <trkpt lat="44.52856" lon="6.32713">
        <ele>847.5</ele>
        <time>2021-07-16T10:00:25.000Z</time>
      </trkpt>
      <trkpt lat="44.52868" lon="6.32672">
        <ele>847.5</ele>
        <time>2021-07-16T10:00:31.000Z</time>
      </trkpt>
      <trkpt lat="44.52875" lon="6.32667">
        <ele>847.4</ele>
        <time>2021-07-16T10:00:34.000Z</time>
      </trkpt>
      <trkpt lat="44.52887" lon="6.3266">
        <ele>847.3</ele>
        <time>2021-07-16T10:00:40.000Z</time>
      </trkpt>
      <trkpt lat="44.52894" lon="6.32659">
        <ele>847.8</ele>
        <time>2021-07-16T10:00:46.000Z</time>
      </trkpt>
      <trkpt lat="44.529" lon="6.32658">
        <ele>849.3</ele>
        <time>2021-07-16T10:00:49.000Z</time>
      </trkpt>
      <trkpt lat="44.52913" lon="6.32641">
        <ele>849.4</ele>
        <time>2021-07-16T10:00:55.000Z</time>
      </trkpt>
      <trkpt lat="44.52919" lon="6.32625">
        <ele>841.9</ele>
        <time>2021-07-16T10:00:58.000Z</time>
      </trkpt>
      <trkpt lat="44.52923" lon="6.32617">
        <ele>842.4</ele>
        <time>2021-07-16T10:01:00.519Z</time>
      </trkpt>
      <trkpt lat="44.5293" lon="6.32602">
        <ele>848</ele>
        <time>2021-07-16T10:01:07.000Z</time>
      </trkpt>
      <trkpt lat="44.52935" lon="6.32599">
        <ele>847.8</ele>
        <time>2021-07-16T10:01:10.000Z</time>
      </trkpt>
      <trkpt lat="44.52947" lon="6.32587">
        <ele>850.1</ele>
        <time>2021-07-16T10:01:16.000Z</time>
      </trkpt>
      <trkpt lat="44.52956" lon="6.32581">
        <ele>844.7</ele>
        <time>2021-07-16T10:01:19.000Z</time>
      </trkpt>
      <trkpt lat="44.52968" lon="6.32573">
        <ele>843.7</ele>
        <time>2021-07-16T10:01:25.000Z</time>
      </trkpt>
      <trkpt lat="44.52972" lon="6.32565">
        <ele>844.8</ele>
        <time>2021-07-16T10:01:28.000Z</time>
      </trkpt>
      <trkpt lat="44.52982" lon="6.32543">
        <ele>842.5</ele>
        <time>2021-07-16T10:01:34.000Z</time>
      </trkpt>
      <trkpt lat="44.52979" lon="6.32525">
        <ele>844.6</ele>
        <time>2021-07-16T10:01:37.000Z</time>
      </trkpt>
      <trkpt lat="44.52986" lon="6.32512">
        <ele>847.7</ele>
        <time>2021-07-16T10:01:40.000Z</time>
      </trkpt>
      <trkpt lat="44.53002" lon="6.32493">
        <ele>847</ele>
        <time>2021-07-16T10:01:46.000Z</time>
      </trkpt>
      <trkpt lat="44.5301" lon="6.32491">
        <ele>843.7</ele>
        <time>2021-07-16T10:01:49.000Z</time>
      </trkpt>
      <trkpt lat="44.53015" lon="6.32487">
        <ele>843.5</ele>
        <time>2021-07-16T10:01:52.000Z</time>
      </trkpt>
      <trkpt lat="44.53025" lon="6.3248">
        <ele>843.6</ele>
        <time>2021-07-16T10:01:58.000Z</time>
      </trkpt>
      <trkpt lat="44.53037" lon="6.32472">
        <ele>842.1</ele>
        <time>2021-07-16T10:02:01.000Z</time>
      </trkpt>
      <trkpt lat="44.53059" lon="6.32456">
        <ele>842.1</ele>
        <time>2021-07-16T10:02:07.000Z</time>
      </trkpt>
      <trkpt lat="44.53066" lon="6.32455">
        <ele>839.3</ele>
        <time>2021-07-16T10:02:10.000Z</time>
      </trkpt>
      <trkpt lat="44.53074" lon="6.32458">
        <ele>1124.7</ele>
        <time>2021-07-16T10:02:16.000Z</time>
      </trkpt>
      <trkpt lat="44.53082" lon="6.3245">
        <ele>937.4</ele>
        <time>2021-07-16T10:02:22.000Z</time>
      </trkpt>
      <trkpt lat="44.53082" lon="6.32443">
        <ele>890.6</ele>
        <time>2021-07-16T10:02:25.000Z</time>
      </trkpt>
      <trkpt lat="44.5308" lon="6.32433">
        <ele>1027.4</ele>
        <time>2021-07-16T10:02:31.000Z</time>
      </trkpt>
      <trkpt lat="44.53077" lon="6.32427">
        <ele>904.7</ele>
        <time>2021-07-16T10:02:37.000Z</time>
      </trkpt>
      <trkpt lat="44.53069" lon="6.32424">
        <ele>867.6</ele>
        <time>2021-07-16T10:02:46.000Z</time>
      </trkpt>
      <trkpt lat="44.53062" lon="6.32423">
        <ele>872.8</ele>
        <time>2021-07-16T10:02:52.000Z</time>
      </trkpt>
      <trkpt lat="44.53054" lon="6.32416">
        <ele>866</ele>
        <time>2021-07-16T10:03:01.000Z</time>
      </trkpt>
      <trkpt lat="44.5305" lon="6.32405">
        <ele>869.5</ele>
        <time>2021-07-16T10:03:07.000Z</time>
      </trkpt>
      <trkpt lat="44.53044" lon="6.32384">
        <ele>866.6</ele>
        <time>2021-07-16T10:03:16.000Z</time>
      </trkpt>
      <trkpt lat="44.53039" lon="6.32385">
        <ele>869.2</ele>
        <time>2021-07-16T10:03:22.000Z</time>
      </trkpt>
      <trkpt lat="44.53036" lon="6.32391">
        <ele>870.6</ele>
        <time>2021-07-16T10:03:25.000Z</time>
      </trkpt>
      <trkpt lat="44.53032" lon="6.32404">
        <ele>863.6</ele>
        <time>2021-07-16T10:03:31.000Z</time>
      </trkpt>
      <trkpt lat="44.53026" lon="6.3241">
        <ele>861.9</ele>
        <time>2021-07-16T10:03:34.000Z</time>
      </trkpt>
      <trkpt lat="44.53021" lon="6.32415">
        <ele>861.9</ele>
        <time>2021-07-16T10:03:36.475Z</time>
      </trkpt>
      <trkpt lat="44.53012" lon="6.32421">
        <ele>864</ele>
        <time>2021-07-16T10:03:40.416Z</time>
      </trkpt>
      <trkpt lat="44.53002" lon="6.32425">
        <ele>865</ele>
        <time>2021-07-16T10:03:44.134Z</time>
      </trkpt>
      <trkpt lat="44.52994" lon="6.32427">
        <ele>866.3</ele>
        <time>2021-07-16T10:03:47.477Z</time>
      </trkpt>
      <trkpt lat="44.52984" lon="6.32424">
        <ele>868</ele>
        <time>2021-07-16T10:03:51.478Z</time>
      </trkpt>
      <trkpt lat="44.52979" lon="6.32422">
        <ele>867.9</ele>
        <time>2021-07-16T10:03:54.567Z</time>
      </trkpt>
      <trkpt lat="44.5297" lon="6.32422">
        <ele>866.1</ele>
        <time>2021-07-16T10:04:01.000Z</time>
      </trkpt>
      <trkpt lat="44.5296" lon="6.32421">
        <ele>866</ele>
        <time>2021-07-16T10:04:31.462Z</time>
      </trkpt>
      <trkpt lat="44.52951" lon="6.32425">
        <ele>865.7</ele>
        <time>2021-07-16T10:04:34.538Z</time>
      </trkpt>
      <trkpt lat="44.52937" lon="6.32429">
        <ele>865.6</ele>
        <time>2021-07-16T10:04:38.133Z</time>
      </trkpt>
      <trkpt lat="44.52917" lon="6.3243">
        <ele>865.2</ele>
        <time>2021-07-16T10:04:42.481Z</time>
      </trkpt>
      <trkpt lat="44.52913" lon="6.32413">
        <ele>865.2</ele>
        <time>2021-07-16T10:04:46.472Z</time>
      </trkpt>
      <trkpt lat="44.52921" lon="6.32399">
        <ele>865.2</ele>
        <time>2021-07-16T10:04:51.471Z</time>
      </trkpt>
      <trkpt lat="44.52922" lon="6.32387">
        <ele>865.2</ele>
        <time>2021-07-16T10:04:54.480Z</time>
      </trkpt>
      <trkpt lat="44.52924" lon="6.32368">
        <ele>865.5</ele>
        <time>2021-07-16T10:04:59.481Z</time>
      </trkpt>
      <trkpt lat="44.52924" lon="6.32358">
        <ele>866.4</ele>
        <time>2021-07-16T10:05:02.734Z</time>
      </trkpt>
      <trkpt lat="44.52926" lon="6.32346">
        <ele>866.4</ele>
        <time>2021-07-16T10:05:06.474Z</time>
      </trkpt>
      <trkpt lat="44.52928" lon="6.32335">
        <ele>866.4</ele>
        <time>2021-07-16T10:05:09.478Z</time>
      </trkpt>
      <trkpt lat="44.52934" lon="6.3232">
        <ele>868</ele>
        <time>2021-07-16T10:05:13.216Z</time>
      </trkpt>
      <trkpt lat="44.52939" lon="6.32309">
        <ele>868.1</ele>
        <time>2021-07-16T10:05:16.522Z</time>
      </trkpt>
      <trkpt lat="44.52944" lon="6.32296">
        <ele>869.1</ele>
        <time>2021-07-16T10:05:19.742Z</time>
      </trkpt>
      <trkpt lat="44.52949" lon="6.32285">
        <ele>869.1</ele>
        <time>2021-07-16T10:05:23.482Z</time>
      </trkpt>
      <trkpt lat="44.52955" lon="6.32274">
        <ele>869.2</ele>
        <time>2021-07-16T10:05:27.505Z</time>
      </trkpt>
      <trkpt lat="44.52962" lon="6.32266">
        <ele>871.4</ele>
        <time>2021-07-16T10:05:30.517Z</time>
      </trkpt>
      <trkpt lat="44.52972" lon="6.32256">
        <ele>871.4</ele>
        <time>2021-07-16T10:05:34.464Z</time>
      </trkpt>
      <trkpt lat="44.52975" lon="6.32243">
        <ele>873.3</ele>
        <time>2021-07-16T10:05:38.320Z</time>
      </trkpt>
      <trkpt lat="44.52967" lon="6.32238">
        <ele>873.3</ele>
        <time>2021-07-16T10:05:41.439Z</time>
      </trkpt>
      <trkpt lat="44.52955" lon="6.32241">
        <ele>874.1</ele>
        <time>2021-07-16T10:05:44.953Z</time>
      </trkpt>
      <trkpt lat="44.52937" lon="6.32245">
        <ele>874.2</ele>
        <time>2021-07-16T10:05:49.000Z</time>
      </trkpt>
      <trkpt lat="44.52932" lon="6.32249">
        <ele>874.2</ele>
        <time>2021-07-16T10:05:51.483Z</time>
      </trkpt>
      <trkpt lat="44.52923" lon="6.32251">
        <ele>876.9</ele>
        <time>2021-07-16T10:05:55.479Z</time>
      </trkpt>
      <trkpt lat="44.52912" lon="6.32249">
        <ele>877.6</ele>
        <time>2021-07-16T10:05:58.655Z</time>
      </trkpt>
      <trkpt lat="44.529" lon="6.32247">
        <ele>877.8</ele>
        <time>2021-07-16T10:06:02.250Z</time>
      </trkpt>
      <trkpt lat="44.52885" lon="6.32246">
        <ele>879.2</ele>
        <time>2021-07-16T10:06:06.472Z</time>
      </trkpt>
      <trkpt lat="44.52872" lon="6.32245">
        <ele>879.2</ele>
        <time>2021-07-16T10:06:10.463Z</time>
      </trkpt>
      <trkpt lat="44.52862" lon="6.32244">
        <ele>879.2</ele>
        <time>2021-07-16T10:06:13.480Z</time>
      </trkpt>
      <trkpt lat="44.52851" lon="6.32244">
        <ele>879.9</ele>
        <time>2021-07-16T10:06:16.727Z</time>
      </trkpt>
      <trkpt lat="44.5284" lon="6.32245">
        <ele>880.3</ele>
        <time>2021-07-16T10:06:20.275Z</time>
      </trkpt>
      <trkpt lat="44.5283" lon="6.32244">
        <ele>880</ele>
        <time>2021-07-16T10:06:23.584Z</time>
      </trkpt>
      <trkpt lat="44.52819" lon="6.32243">
        <ele>880.1</ele>
        <time>2021-07-16T10:06:27.481Z</time>
      </trkpt>
      <trkpt lat="44.52806" lon="6.32242">
        <ele>882.1</ele>
        <time>2021-07-16T10:06:31.629Z</time>
      </trkpt>
      <trkpt lat="44.52792" lon="6.32242">
        <ele>882.3</ele>
        <time>2021-07-16T10:06:35.504Z</time>
      </trkpt>
      <trkpt lat="44.52781" lon="6.32242">
        <ele>882.3</ele>
        <time>2021-07-16T10:06:39.482Z</time>
      </trkpt>
      <trkpt lat="44.52771" lon="6.32239">
        <ele>882.2</ele>
        <time>2021-07-16T10:06:43.238Z</time>
      </trkpt>
      <trkpt lat="44.52768" lon="6.32227">
        <ele>882.6</ele>
        <time>2021-07-16T10:06:46.770Z</time>
      </trkpt>
      <trkpt lat="44.52773" lon="6.32215">
        <ele>885.7</ele>
        <time>2021-07-16T10:06:50.586Z</time>
      </trkpt>
      <trkpt lat="44.52779" lon="6.32204">
        <ele>885.7</ele>
        <time>2021-07-16T10:06:54.482Z</time>
      </trkpt>
      <trkpt lat="44.52788" lon="6.32186">
        <ele>885.6</ele>
        <time>2021-07-16T10:07:01.000Z</time>
      </trkpt>
      <trkpt lat="44.52792" lon="6.32178">
        <ele>892.1</ele>
        <time>2021-07-16T10:07:03.481Z</time>
      </trkpt>
      <trkpt lat="44.52796" lon="6.32168">
        <ele>893.6</ele>
        <time>2021-07-16T10:07:07.006Z</time>
      </trkpt>
      <trkpt lat="44.528" lon="6.32159">
        <ele>894</ele>
        <time>2021-07-16T10:07:10.482Z</time>
      </trkpt>
      <trkpt lat="44.5281" lon="6.32145">
        <ele>894</ele>
        <time>2021-07-16T10:07:16.000Z</time>
      </trkpt>
      <trkpt lat="44.52815" lon="6.32136">
        <ele>897.8</ele>
        <time>2021-07-16T10:07:18.474Z</time>
      </trkpt>
      <trkpt lat="44.52822" lon="6.32122">
        <ele>897.8</ele>
        <time>2021-07-16T10:07:22.474Z</time>
      </trkpt>
      <trkpt lat="44.52829" lon="6.32109">
        <ele>900.1</ele>
        <time>2021-07-16T10:07:25.926Z</time>
      </trkpt>
      <trkpt lat="44.52833" lon="6.32095">
        <ele>900.2</ele>
        <time>2021-07-16T10:07:29.890Z</time>
      </trkpt>
      <trkpt lat="44.52835" lon="6.32082">
        <ele>901.8</ele>
        <time>2021-07-16T10:07:33.469Z</time>
      </trkpt>
      <trkpt lat="44.52837" lon="6.32068">
        <ele>901.8</ele>
        <time>2021-07-16T10:07:36.474Z</time>
      </trkpt>
      <trkpt lat="44.52843" lon="6.32052">
        <ele>904.6</ele>
        <time>2021-07-16T10:07:39.494Z</time>
      </trkpt>
      <trkpt lat="44.52849" lon="6.3203">
        <ele>904.8</ele>
        <time>2021-07-16T10:07:43.495Z</time>
      </trkpt>
      <trkpt lat="44.52857" lon="6.32023">
        <ele>921.2</ele>
        <time>2021-07-16T10:07:47.257Z</time>
      </trkpt>
      <trkpt lat="44.52863" lon="6.31996">
        <ele>921.2</ele>
        <time>2021-07-16T10:07:51.241Z</time>
      </trkpt>
      <trkpt lat="44.52866" lon="6.31967">
        <ele>921.4</ele>
        <time>2021-07-16T10:07:55.000Z</time>
      </trkpt>
      <trkpt lat="44.52871" lon="6.31953">
        <ele>921.4</ele>
        <time>2021-07-16T10:07:57.489Z</time>
      </trkpt>
      <trkpt lat="44.52876" lon="6.31936">
        <ele>921.3</ele>
        <time>2021-07-16T10:08:01.473Z</time>
      </trkpt>
      <trkpt lat="44.52892" lon="6.31901">
        <ele>913.9</ele>
        <time>2021-07-16T10:08:07.000Z</time>
      </trkpt>
      <trkpt lat="44.52901" lon="6.31878">
        <ele>913.5</ele>
        <time>2021-07-16T10:08:10.060Z</time>
      </trkpt>
      <trkpt lat="44.52912" lon="6.31872">
        <ele>913.4</ele>
        <time>2021-07-16T10:08:13.475Z</time>
      </trkpt>
      <trkpt lat="44.52899" lon="6.31875">
        <ele>913.4</ele>
        <time>2021-07-16T10:08:16.483Z</time>
      </trkpt>
      <trkpt lat="44.52863" lon="6.31858">
        <ele>912.9</ele>
        <time>2021-07-16T10:08:22.000Z</time>
      </trkpt>
      <trkpt lat="44.52859" lon="6.31824">
        <ele>912.8</ele>
        <time>2021-07-16T10:08:25.000Z</time>
      </trkpt>
      <trkpt lat="44.52854" lon="6.31794">
        <ele>912.9</ele>
        <time>2021-07-16T10:08:28.000Z</time>
      </trkpt>
      <trkpt lat="44.52852" lon="6.3173">
        <ele>912.8</ele>
        <time>2021-07-16T10:08:34.000Z</time>
      </trkpt>
      <trkpt lat="44.52847" lon="6.31709">
        <ele>912.7</ele>
        <time>2021-07-16T10:08:37.000Z</time>
      </trkpt>
      <trkpt lat="44.52846" lon="6.31688">
        <ele>913.1</ele>
        <time>2021-07-16T10:08:39.681Z</time>
      </trkpt>
      <trkpt lat="44.52845" lon="6.31642">
        <ele>912.7</ele>
        <time>2021-07-16T10:08:46.000Z</time>
      </trkpt>
      <trkpt lat="44.52844" lon="6.31621">
        <ele>912.8</ele>
        <time>2021-07-16T10:08:49.000Z</time>
      </trkpt>
      <trkpt lat="44.52843" lon="6.31601">
        <ele>913.1</ele>
        <time>2021-07-16T10:08:53.613Z</time>
      </trkpt>
      <trkpt lat="44.52841" lon="6.31586">
        <ele>912.8</ele>
        <time>2021-07-16T10:08:58.000Z</time>
      </trkpt>
      <trkpt lat="44.52842" lon="6.3157">
        <ele>912.5</ele>
        <time>2021-07-16T10:09:01.000Z</time>
      </trkpt>
      <trkpt lat="44.52846" lon="6.31554">
        <ele>912.4</ele>
        <time>2021-07-16T10:09:04.000Z</time>
      </trkpt>
      <trkpt lat="44.5285" lon="6.31536">
        <ele>912.5</ele>
        <time>2021-07-16T10:09:07.000Z</time>
      </trkpt>
      <trkpt lat="44.52862" lon="6.31489">
        <ele>912.6</ele>
        <time>2021-07-16T10:09:13.000Z</time>
      </trkpt>
      <trkpt lat="44.52882" lon="6.31441">
        <ele>912.6</ele>
        <time>2021-07-16T10:09:19.000Z</time>
      </trkpt>
      <trkpt lat="44.5289" lon="6.31419">
        <ele>912.7</ele>
        <time>2021-07-16T10:09:22.000Z</time>
      </trkpt>
      <trkpt lat="44.529" lon="6.31394">
        <ele>912.7</ele>
        <time>2021-07-16T10:09:25.000Z</time>
      </trkpt>
      <trkpt lat="44.52917" lon="6.31346">
        <ele>912.7</ele>
        <time>2021-07-16T10:09:31.000Z</time>
      </trkpt>
      <trkpt lat="44.52929" lon="6.31298">
        <ele>912.7</ele>
        <time>2021-07-16T10:09:37.000Z</time>
      </trkpt>
      <trkpt lat="44.52937" lon="6.31272">
        <ele>906</ele>
        <time>2021-07-16T10:09:40.000Z</time>
      </trkpt>
      <trkpt lat="44.52944" lon="6.31247">
        <ele>906</ele>
        <time>2021-07-16T10:09:43.000Z</time>
      </trkpt>
      <trkpt lat="44.52951" lon="6.31212">
        <ele>905.9</ele>
        <time>2021-07-16T10:09:49.000Z</time>
      </trkpt>
      <trkpt lat="44.52955" lon="6.31175">
        <ele>906</ele>
        <time>2021-07-16T10:09:55.000Z</time>
      </trkpt>
      <trkpt lat="44.52961" lon="6.31142">
        <ele>906</ele>
        <time>2021-07-16T10:10:01.000Z</time>
      </trkpt>
      <trkpt lat="44.52958" lon="6.31109">
        <ele>905.4</ele>
        <time>2021-07-16T10:10:07.000Z</time>
      </trkpt>
      <trkpt lat="44.52959" lon="6.31076">
        <ele>921.1</ele>
        <time>2021-07-16T10:10:13.000Z</time>
      </trkpt>
      <trkpt lat="44.52957" lon="6.31062">
        <ele>922.5</ele>
        <time>2021-07-16T10:10:16.000Z</time>
      </trkpt>
      <trkpt lat="44.52965" lon="6.31023">
        <ele>919.2</ele>
        <time>2021-07-16T10:10:22.000Z</time>
      </trkpt>
      <trkpt lat="44.5297" lon="6.30998">
        <ele>922.8</ele>
        <time>2021-07-16T10:10:25.000Z</time>
      </trkpt>
      <trkpt lat="44.52968" lon="6.30978">
        <ele>920.9</ele>
        <time>2021-07-16T10:10:27.510Z</time>
      </trkpt>
      <trkpt lat="44.52963" lon="6.30944">
        <ele>925.3</ele>
        <time>2021-07-16T10:10:34.000Z</time>
      </trkpt>
      <trkpt lat="44.52959" lon="6.30931">
        <ele>924.9</ele>
        <time>2021-07-16T10:10:37.000Z</time>
      </trkpt>
      <trkpt lat="44.52949" lon="6.3089">
        <ele>923.8</ele>
        <time>2021-07-16T10:10:43.000Z</time>
      </trkpt>
      <trkpt lat="44.52947" lon="6.30869">
        <ele>922.8</ele>
        <time>2021-07-16T10:10:45.524Z</time>
      </trkpt>
      <trkpt lat="44.52938" lon="6.30839">
        <ele>916.9</ele>
        <time>2021-07-16T10:10:52.000Z</time>
      </trkpt>
      <trkpt lat="44.52918" lon="6.30838">
        <ele>920.7</ele>
        <time>2021-07-16T10:10:58.000Z</time>
      </trkpt>
      <trkpt lat="44.52902" lon="6.3084">
        <ele>920.7</ele>
        <time>2021-07-16T10:11:01.000Z</time>
      </trkpt>
      <trkpt lat="44.52891" lon="6.30838">
        <ele>921.3</ele>
        <time>2021-07-16T10:11:04.000Z</time>
      </trkpt>
      <trkpt lat="44.52885" lon="6.30825">
        <ele>920.8</ele>
        <time>2021-07-16T10:11:07.000Z</time>
      </trkpt>
      <trkpt lat="44.52882" lon="6.30817">
        <ele>922.5</ele>
        <time>2021-07-16T10:11:10.000Z</time>
      </trkpt>
      <trkpt lat="44.52884" lon="6.3081">
        <ele>923.8</ele>
        <time>2021-07-16T10:11:12.519Z</time>
      </trkpt>
      <trkpt lat="44.52886" lon="6.30798">
        <ele>928.1</ele>
        <time>2021-07-16T10:11:16.447Z</time>
      </trkpt>
      <trkpt lat="44.52887" lon="6.30788">
        <ele>928.7</ele>
        <time>2021-07-16T10:11:20.477Z</time>
      </trkpt>
      <trkpt lat="44.52887" lon="6.30781">
        <ele>929.7</ele>
        <time>2021-07-16T10:11:24.475Z</time>
      </trkpt>
      <trkpt lat="44.52888" lon="6.30767">
        <ele>932.6</ele>
        <time>2021-07-16T10:11:31.459Z</time>
      </trkpt>
      <trkpt lat="44.52887" lon="6.30758">
        <ele>932.6</ele>
        <time>2021-07-16T10:11:34.661Z</time>
      </trkpt>
      <trkpt lat="44.52882" lon="6.30751">
        <ele>932.8</ele>
        <time>2021-07-16T10:11:38.471Z</time>
      </trkpt>
      <trkpt lat="44.52878" lon="6.30747">
        <ele>934</ele>
        <time>2021-07-16T10:11:41.478Z</time>
      </trkpt>
      <trkpt lat="44.52876" lon="6.30741">
        <ele>934.6</ele>
        <time>2021-07-16T10:11:45.469Z</time>
      </trkpt>
      <trkpt lat="44.52874" lon="6.30732">
        <ele>938.5</ele>
        <time>2021-07-16T10:11:48.699Z</time>
      </trkpt>
      <trkpt lat="44.52872" lon="6.30725">
        <ele>937.9</ele>
        <time>2021-07-16T10:11:51.935Z</time>
      </trkpt>
      <trkpt lat="44.52872" lon="6.30715">
        <ele>938.8</ele>
        <time>2021-07-16T10:11:55.472Z</time>
      </trkpt>
      <trkpt lat="44.52872" lon="6.30706">
        <ele>942.1</ele>
        <time>2021-07-16T10:11:58.636Z</time>
      </trkpt>
      <trkpt lat="44.52876" lon="6.30698">
        <ele>944.3</ele>
        <time>2021-07-16T10:12:02.466Z</time>
      </trkpt>
      <trkpt lat="44.52879" lon="6.30691">
        <ele>947.1</ele>
        <time>2021-07-16T10:12:05.470Z</time>
      </trkpt>
      <trkpt lat="44.52879" lon="6.30681">
        <ele>950.7</ele>
        <time>2021-07-16T10:12:09.460Z</time>
      </trkpt>
      <trkpt lat="44.52875" lon="6.30672">
        <ele>951.6</ele>
        <time>2021-07-16T10:12:12.468Z</time>
      </trkpt>
      <trkpt lat="44.52867" lon="6.30664">
        <ele>953.3</ele>
        <time>2021-07-16T10:12:15.609Z</time>
      </trkpt>
      <trkpt lat="44.52857" lon="6.3065">
        <ele>949.9</ele>
        <time>2021-07-16T10:12:19.476Z</time>
      </trkpt>
      <trkpt lat="44.52856" lon="6.30638">
        <ele>948.8</ele>
        <time>2021-07-16T10:12:22.483Z</time>
      </trkpt>
      <trkpt lat="44.52854" lon="6.30629">
        <ele>952.9</ele>
        <time>2021-07-16T10:12:26.478Z</time>
      </trkpt>
      <trkpt lat="44.52851" lon="6.30614">
        <ele>956.7</ele>
        <time>2021-07-16T10:12:30.475Z</time>
      </trkpt>
      <trkpt lat="44.52852" lon="6.30599">
        <ele>961.1</ele>
        <time>2021-07-16T10:12:33.538Z</time>
      </trkpt>
      <trkpt lat="44.52855" lon="6.30579">
        <ele>966.9</ele>
        <time>2021-07-16T10:12:37.477Z</time>
      </trkpt>
      <trkpt lat="44.5286" lon="6.30561">
        <ele>967.4</ele>
        <time>2021-07-16T10:12:41.476Z</time>
      </trkpt>
      <trkpt lat="44.52864" lon="6.30537">
        <ele>965.9</ele>
        <time>2021-07-16T10:12:45.468Z</time>
      </trkpt>
      <trkpt lat="44.52862" lon="6.30522">
        <ele>963.6</ele>
        <time>2021-07-16T10:12:48.478Z</time>
      </trkpt>
      <trkpt lat="44.52852" lon="6.30507">
        <ele>960</ele>
        <time>2021-07-16T10:12:52.452Z</time>
      </trkpt>
      <trkpt lat="44.52849" lon="6.30494">
        <ele>965.1</ele>
        <time>2021-07-16T10:12:56.151Z</time>
      </trkpt>
      <trkpt lat="44.52844" lon="6.30489">
        <ele>966.5</ele>
        <time>2021-07-16T10:12:59.465Z</time>
      </trkpt>
      <trkpt lat="44.52839" lon="6.30485">
        <ele>966.1</ele>
        <time>2021-07-16T10:13:02.532Z</time>
      </trkpt>
      <trkpt lat="44.52834" lon="6.30482">
        <ele>970</ele>
        <time>2021-07-16T10:13:06.469Z</time>
      </trkpt>
      <trkpt lat="44.52829" lon="6.30482">
        <ele>968</ele>
        <time>2021-07-16T10:13:09.475Z</time>
      </trkpt>
      <trkpt lat="44.52822" lon="6.30482">
        <ele>970.4</ele>
        <time>2021-07-16T10:13:12.510Z</time>
      </trkpt>
      <trkpt lat="44.52813" lon="6.3048">
        <ele>965.1</ele>
        <time>2021-07-16T10:13:15.537Z</time>
      </trkpt>
      <trkpt lat="44.52804" lon="6.30481">
        <ele>965.8</ele>
        <time>2021-07-16T10:13:19.486Z</time>
      </trkpt>
      <trkpt lat="44.52796" lon="6.30485">
        <ele>962.6</ele>
        <time>2021-07-16T10:13:23.474Z</time>
      </trkpt>
      <trkpt lat="44.52788" lon="6.30488">
        <ele>963.3</ele>
        <time>2021-07-16T10:13:27.470Z</time>
      </trkpt>
      <trkpt lat="44.52779" lon="6.30491">
        <ele>962.4</ele>
        <time>2021-07-16T10:13:30.482Z</time>
      </trkpt>
      <trkpt lat="44.52767" lon="6.30498">
        <ele>965.4</ele>
        <time>2021-07-16T10:13:33.513Z</time>
      </trkpt>
      <trkpt lat="44.52749" lon="6.3051">
        <ele>967.1</ele>
        <time>2021-07-16T10:13:37.480Z</time>
      </trkpt>
      <trkpt lat="44.52736" lon="6.30517">
        <ele>968.4</ele>
        <time>2021-07-16T10:13:40.487Z</time>
      </trkpt>
      <trkpt lat="44.52722" lon="6.30524">
        <ele>970.9</ele>
        <time>2021-07-16T10:13:43.721Z</time>
      </trkpt>
      <trkpt lat="44.52713" lon="6.3054">
        <ele>970.8</ele>
        <time>2021-07-16T10:13:47.491Z</time>
      </trkpt>
      <trkpt lat="44.52708" lon="6.30561">
        <ele>971.6</ele>
        <time>2021-07-16T10:13:51.479Z</time>
      </trkpt>
      <trkpt lat="44.52676" lon="6.30605">
        <ele>972.7</ele>
        <time>2021-07-16T10:13:58.000Z</time>
      </trkpt>
      <trkpt lat="44.52658" lon="6.30618">
        <ele>971.3</ele>
        <time>2021-07-16T10:14:01.000Z</time>
      </trkpt>
      <trkpt lat="44.52642" lon="6.3064">
        <ele>975</ele>
        <time>2021-07-16T10:14:07.000Z</time>
      </trkpt>
      <trkpt lat="44.52627" lon="6.30657">
        <ele>977.3</ele>
        <time>2021-07-16T10:14:09.498Z</time>
      </trkpt>
      <trkpt lat="44.52631" lon="6.30671">
        <ele>980</ele>
        <time>2021-07-16T10:14:13.471Z</time>
      </trkpt>
      <trkpt lat="44.52613" lon="6.30683">
        <ele>980.1</ele>
        <time>2021-07-16T10:14:16.873Z</time>
      </trkpt>
      <trkpt lat="44.52596" lon="6.30696">
        <ele>978.4</ele>
        <time>2021-07-16T10:14:20.474Z</time>
      </trkpt>
      <trkpt lat="44.52586" lon="6.30711">
        <ele>978.5</ele>
        <time>2021-07-16T10:14:23.525Z</time>
      </trkpt>
      <trkpt lat="44.52583" lon="6.30728">
        <ele>981.5</ele>
        <time>2021-07-16T10:14:27.470Z</time>
      </trkpt>
      <trkpt lat="44.52578" lon="6.30743">
        <ele>983.1</ele>
        <time>2021-07-16T10:14:30.482Z</time>
      </trkpt>
      <trkpt lat="44.52557" lon="6.30768">
        <ele>983.6</ele>
        <time>2021-07-16T10:14:34.475Z</time>
      </trkpt>
      <trkpt lat="44.52549" lon="6.30775">
        <ele>984.5</ele>
        <time>2021-07-16T10:14:37.753Z</time>
      </trkpt>
      <trkpt lat="44.52535" lon="6.30786">
        <ele>982.9</ele>
        <time>2021-07-16T10:14:41.519Z</time>
      </trkpt>
      <trkpt lat="44.52511" lon="6.30809">
        <ele>981.8</ele>
        <time>2021-07-16T10:14:46.000Z</time>
      </trkpt>
      <trkpt lat="44.52496" lon="6.30822">
        <ele>981.1</ele>
        <time>2021-07-16T10:14:49.000Z</time>
      </trkpt>
      <trkpt lat="44.5248" lon="6.30831">
        <ele>981.2</ele>
        <time>2021-07-16T10:14:52.000Z</time>
      </trkpt>
      <trkpt lat="44.52451" lon="6.30845">
        <ele>984.8</ele>
        <time>2021-07-16T10:14:58.000Z</time>
      </trkpt>
      <trkpt lat="44.5242" lon="6.30856">
        <ele>989.5</ele>
        <time>2021-07-16T10:15:04.000Z</time>
      </trkpt>
      <trkpt lat="44.52413" lon="6.30858">
        <ele>990.8</ele>
        <time>2021-07-16T10:15:07.000Z</time>
      </trkpt>
      <trkpt lat="44.52398" lon="6.30861">
        <ele>992.1</ele>
        <time>2021-07-16T10:15:09.494Z</time>
      </trkpt>
      <trkpt lat="44.52386" lon="6.30853">
        <ele>993.8</ele>
        <time>2021-07-16T10:15:13.521Z</time>
      </trkpt>
      <trkpt lat="44.52376" lon="6.30856">
        <ele>994.1</ele>
        <time>2021-07-16T10:15:16.597Z</time>
      </trkpt>
      <trkpt lat="44.5236" lon="6.30862">
        <ele>991.7</ele>
        <time>2021-07-16T10:15:20.469Z</time>
      </trkpt>
      <trkpt lat="44.52346" lon="6.30874">
        <ele>992.5</ele>
        <time>2021-07-16T10:15:24.508Z</time>
      </trkpt>
      <trkpt lat="44.52336" lon="6.30885">
        <ele>994.2</ele>
        <time>2021-07-16T10:15:27.682Z</time>
      </trkpt>
      <trkpt lat="44.52327" lon="6.30899">
        <ele>994.2</ele>
        <time>2021-07-16T10:15:30.737Z</time>
      </trkpt>
      <trkpt lat="44.52319" lon="6.30914">
        <ele>995</ele>
        <time>2021-07-16T10:15:34.457Z</time>
      </trkpt>
      <trkpt lat="44.52312" lon="6.30928">
        <ele>998.4</ele>
        <time>2021-07-16T10:15:38.064Z</time>
      </trkpt>
      <trkpt lat="44.5231" lon="6.30944">
        <ele>964.9</ele>
        <time>2021-07-16T10:15:41.457Z</time>
      </trkpt>
      <trkpt lat="44.52312" lon="6.30961">
        <ele>984.5</ele>
        <time>2021-07-16T10:15:45.495Z</time>
      </trkpt>
      <trkpt lat="44.52314" lon="6.30978">
        <ele>993.8</ele>
        <time>2021-07-16T10:15:49.360Z</time>
      </trkpt>
      <trkpt lat="44.52304" lon="6.31028">
        <ele>1094.5</ele>
        <time>2021-07-16T10:15:55.000Z</time>
      </trkpt>
      <trkpt lat="44.52294" lon="6.31053">
        <ele>1041.7</ele>
        <time>2021-07-16T10:15:58.000Z</time>
      </trkpt>
      <trkpt lat="44.52291" lon="6.311">
        <ele>1013.4</ele>
        <time>2021-07-16T10:16:04.000Z</time>
      </trkpt>
      <trkpt lat="44.52281" lon="6.31109">
        <ele>1007.3</ele>
        <time>2021-07-16T10:16:08.527Z</time>
      </trkpt>
      <trkpt lat="44.52271" lon="6.31114">
        <ele>1002.4</ele>
        <time>2021-07-16T10:16:15.726Z</time>
      </trkpt>
      <trkpt lat="44.52265" lon="6.31117">
        <ele>1002.7</ele>
        <time>2021-07-16T10:16:19.475Z</time>
      </trkpt>
      <trkpt lat="44.52259" lon="6.31119">
        <ele>1003.6</ele>
        <time>2021-07-16T10:16:22.482Z</time>
      </trkpt>
      <trkpt lat="44.52246" lon="6.31123">
        <ele>1005.3</ele>
        <time>2021-07-16T10:16:25.948Z</time>
      </trkpt>
      <trkpt lat="44.52237" lon="6.31126">
        <ele>1005.9</ele>
        <time>2021-07-16T10:16:29.481Z</time>
      </trkpt>
      <trkpt lat="44.52225" lon="6.31129">
        <ele>1005.7</ele>
        <time>2021-07-16T10:16:33.461Z</time>
      </trkpt>
      <trkpt lat="44.52216" lon="6.31137">
        <ele>990.5</ele>
        <time>2021-07-16T10:16:37.373Z</time>
      </trkpt>
      <trkpt lat="44.52212" lon="6.3114">
        <ele>1000.1</ele>
        <time>2021-07-16T10:16:40.758Z</time>
      </trkpt>
      <trkpt lat="44.52207" lon="6.31147">
        <ele>1005.7</ele>
        <time>2021-07-16T10:16:44.446Z</time>
      </trkpt>
      <trkpt lat="44.52202" lon="6.31153">
        <ele>1008.1</ele>
        <time>2021-07-16T10:16:47.467Z</time>
      </trkpt>
      <trkpt lat="44.52197" lon="6.31156">
        <ele>1005.4</ele>
        <time>2021-07-16T10:16:50.587Z</time>
      </trkpt>
      <trkpt lat="44.5219" lon="6.31161">
        <ele>979.6</ele>
        <time>2021-07-16T10:16:54.044Z</time>
      </trkpt>
      <trkpt lat="44.52184" lon="6.31166">
        <ele>989</ele>
        <time>2021-07-16T10:16:58.000Z</time>
      </trkpt>
      <trkpt lat="44.52183" lon="6.3116">
        <ele>1010</ele>
        <time>2021-07-16T10:17:07.252Z</time>
      </trkpt>
      <trkpt lat="44.52165" lon="6.31172">
        <ele>1003.9</ele>
        <time>2021-07-16T10:17:13.000Z</time>
      </trkpt>
      <trkpt lat="44.52139" lon="6.31195">
        <ele>1002.6</ele>
        <time>2021-07-16T10:17:17.447Z</time>
      </trkpt>
      <trkpt lat="44.52139" lon="6.31188">
        <ele>1003.9</ele>
        <time>2021-07-16T10:17:20.455Z</time>
      </trkpt>
      <trkpt lat="44.52134" lon="6.31195">
        <ele>1004.7</ele>
        <time>2021-07-16T10:17:26.468Z</time>
      </trkpt>
      <trkpt lat="44.52132" lon="6.31204">
        <ele>1010.9</ele>
        <time>2021-07-16T10:17:32.844Z</time>
      </trkpt>
      <trkpt lat="44.52113" lon="6.31187">
        <ele>973</ele>
        <time>2021-07-16T10:17:36.124Z</time>
      </trkpt>
      <trkpt lat="44.52106" lon="6.3119">
        <ele>1002.8</ele>
        <time>2021-07-16T10:17:40.471Z</time>
      </trkpt>
      <trkpt lat="44.52098" lon="6.31189">
        <ele>1004.2</ele>
        <time>2021-07-16T10:17:43.471Z</time>
      </trkpt>
      <trkpt lat="44.52065" lon="6.31183">
        <ele>1003</ele>
        <time>2021-07-16T10:17:49.000Z</time>
      </trkpt>
      <trkpt lat="44.52044" lon="6.31199">
        <ele>1001.4</ele>
        <time>2021-07-16T10:17:54.475Z</time>
      </trkpt>
      <trkpt lat="44.5203" lon="6.31196">
        <ele>981.2</ele>
        <time>2021-07-16T10:17:58.000Z</time>
      </trkpt>
      <trkpt lat="44.52015" lon="6.31196">
        <ele>991.7</ele>
        <time>2021-07-16T10:18:00.825Z</time>
      </trkpt>
      <trkpt lat="44.5201" lon="6.31201">
        <ele>994.8</ele>
        <time>2021-07-16T10:18:08.471Z</time>
      </trkpt>
      <trkpt lat="44.51999" lon="6.312">
        <ele>997.4</ele>
        <time>2021-07-16T10:18:11.522Z</time>
      </trkpt>
      <trkpt lat="44.51991" lon="6.31186">
        <ele>997.1</ele>
        <time>2021-07-16T10:18:15.469Z</time>
      </trkpt>
      <trkpt lat="44.51999" lon="6.31153">
        <ele>1022.9</ele>
        <time>2021-07-16T10:18:22.000Z</time>
      </trkpt>
      <trkpt lat="44.51993" lon="6.31158">
        <ele>1010</ele>
        <time>2021-07-16T10:18:27.477Z</time>
      </trkpt>
      <trkpt lat="44.51976" lon="6.31159">
        <ele>997.9</ele>
        <time>2021-07-16T10:18:31.669Z</time>
      </trkpt>
      <trkpt lat="44.51959" lon="6.31165">
        <ele>995.8</ele>
        <time>2021-07-16T10:18:35.480Z</time>
      </trkpt>
      <trkpt lat="44.51943" lon="6.31168">
        <ele>995.9</ele>
        <time>2021-07-16T10:18:38.963Z</time>
      </trkpt>
      <trkpt lat="44.51928" lon="6.31178">
        <ele>991.6</ele>
        <time>2021-07-16T10:18:43.000Z</time>
      </trkpt>
      <trkpt lat="44.51917" lon="6.31195">
        <ele>986.3</ele>
        <time>2021-07-16T10:18:46.444Z</time>
      </trkpt>
      <trkpt lat="44.51911" lon="6.31202">
        <ele>984.8</ele>
        <time>2021-07-16T10:18:49.626Z</time>
      </trkpt>
      <trkpt lat="44.51904" lon="6.31202">
        <ele>975.3</ele>
        <time>2021-07-16T10:18:55.000Z</time>
      </trkpt>
      <trkpt lat="44.51896" lon="6.31196">
        <ele>973.2</ele>
        <time>2021-07-16T10:19:00.905Z</time>
      </trkpt>
      <trkpt lat="44.51889" lon="6.31211">
        <ele>971</ele>
        <time>2021-07-16T10:19:14.419Z</time>
      </trkpt>
      <trkpt lat="44.51878" lon="6.31223">
        <ele>973.7</ele>
        <time>2021-07-16T10:19:18.476Z</time>
      </trkpt>
      <trkpt lat="44.51875" lon="6.31231">
        <ele>969.6</ele>
        <time>2021-07-16T10:19:21.481Z</time>
      </trkpt>
      <trkpt lat="44.51866" lon="6.31236">
        <ele>966.8</ele>
        <time>2021-07-16T10:19:25.223Z</time>
      </trkpt>
      <trkpt lat="44.51857" lon="6.31238">
        <ele>966.4</ele>
        <time>2021-07-16T10:19:28.546Z</time>
      </trkpt>
      <trkpt lat="44.5183" lon="6.31246">
        <ele>957.9</ele>
        <time>2021-07-16T10:19:34.000Z</time>
      </trkpt>
      <trkpt lat="44.51828" lon="6.31255">
        <ele>1049.5</ele>
        <time>2021-07-16T10:19:36.516Z</time>
      </trkpt>
      <trkpt lat="44.51816" lon="6.3127">
        <ele>988.3</ele>
        <time>2021-07-16T10:19:40.487Z</time>
      </trkpt>
      <trkpt lat="44.51805" lon="6.31289">
        <ele>968.2</ele>
        <time>2021-07-16T10:19:44.476Z</time>
      </trkpt>
      <trkpt lat="44.51795" lon="6.31304">
        <ele>959</ele>
        <time>2021-07-16T10:19:48.504Z</time>
      </trkpt>
      <trkpt lat="44.51787" lon="6.31309">
        <ele>948.8</ele>
        <time>2021-07-16T10:19:51.880Z</time>
      </trkpt>
      <trkpt lat="44.51779" lon="6.31315">
        <ele>947.7</ele>
        <time>2021-07-16T10:19:55.700Z</time>
      </trkpt>
      <trkpt lat="44.51772" lon="6.31313">
        <ele>943.9</ele>
        <time>2021-07-16T10:19:59.241Z</time>
      </trkpt>
      <trkpt lat="44.51765" lon="6.31317">
        <ele>942.4</ele>
        <time>2021-07-16T10:20:02.732Z</time>
      </trkpt>
      <trkpt lat="44.51758" lon="6.31315">
        <ele>941.3</ele>
        <time>2021-07-16T10:20:06.484Z</time>
      </trkpt>
      <trkpt lat="44.51747" lon="6.31321">
        <ele>940.3</ele>
        <time>2021-07-16T10:20:10.124Z</time>
      </trkpt>
      <trkpt lat="44.51733" lon="6.3133">
        <ele>938.5</ele>
        <time>2021-07-16T10:20:13.459Z</time>
      </trkpt>
      <trkpt lat="44.51727" lon="6.3133">
        <ele>934.6</ele>
        <time>2021-07-16T10:20:16.482Z</time>
      </trkpt>
      <trkpt lat="44.51719" lon="6.31323">
        <ele>933.7</ele>
        <time>2021-07-16T10:20:20.468Z</time>
      </trkpt>
      <trkpt lat="44.51707" lon="6.31318">
        <ele>934.2</ele>
        <time>2021-07-16T10:20:23.695Z</time>
      </trkpt>
      <trkpt lat="44.51694" lon="6.31313">
        <ele>931.4</ele>
        <time>2021-07-16T10:20:27.475Z</time>
      </trkpt>
      <trkpt lat="44.51681" lon="6.31315">
        <ele>929.3</ele>
        <time>2021-07-16T10:20:31.477Z</time>
      </trkpt>
      <trkpt lat="44.51674" lon="6.31302">
        <ele>928.1</ele>
        <time>2021-07-16T10:20:34.718Z</time>
      </trkpt>
      <trkpt lat="44.5167" lon="6.31308">
        <ele>928</ele>
        <time>2021-07-16T10:20:38.248Z</time>
      </trkpt>
      <trkpt lat="44.51663" lon="6.3132">
        <ele>928.1</ele>
        <time>2021-07-16T10:20:42.478Z</time>
      </trkpt>
      <trkpt lat="44.51665" lon="6.31331">
        <ele>927.1</ele>
        <time>2021-07-16T10:20:47.470Z</time>
      </trkpt>
      <trkpt lat="44.51656" lon="6.31335">
        <ele>924.2</ele>
        <time>2021-07-16T10:20:51.477Z</time>
      </trkpt>
      <trkpt lat="44.51643" lon="6.31337">
        <ele>923.8</ele>
        <time>2021-07-16T10:20:55.152Z</time>
      </trkpt>
      <trkpt lat="44.51638" lon="6.31334">
        <ele>921.5</ele>
        <time>2021-07-16T10:20:58.468Z</time>
      </trkpt>
      <trkpt lat="44.5163" lon="6.31341">
        <ele>918.6</ele>
        <time>2021-07-16T10:21:01.615Z</time>
      </trkpt>
      <trkpt lat="44.51623" lon="6.31341">
        <ele>915.8</ele>
        <time>2021-07-16T10:21:05.446Z</time>
      </trkpt>
      <trkpt lat="44.51619" lon="6.31336">
        <ele>916</ele>
        <time>2021-07-16T10:21:10.000Z</time>
      </trkpt>
      <trkpt lat="44.51615" lon="6.31334">
        <ele>914.7</ele>
        <time>2021-07-16T10:21:19.000Z</time>
      </trkpt>
      <trkpt lat="44.51609" lon="6.31335">
        <ele>957.7</ele>
        <time>2021-07-16T10:21:30.000Z</time>
      </trkpt>
      <trkpt lat="44.51606" lon="6.31328">
        <ele>917</ele>
        <time>2021-07-16T10:21:49.816Z</time>
      </trkpt>
      <trkpt lat="44.51606" lon="6.31321">
        <ele>916.8</ele>
        <time>2021-07-16T10:21:53.467Z</time>
      </trkpt>
      <trkpt lat="44.51601" lon="6.31311">
        <ele>918.9</ele>
        <time>2021-07-16T10:21:56.926Z</time>
      </trkpt>
      <trkpt lat="44.51592" lon="6.31305">
        <ele>919.2</ele>
        <time>2021-07-16T10:22:00.466Z</time>
      </trkpt>
      <trkpt lat="44.51584" lon="6.313">
        <ele>920</ele>
        <time>2021-07-16T10:22:04.470Z</time>
      </trkpt>
      <trkpt lat="44.51576" lon="6.31293">
        <ele>922</ele>
        <time>2021-07-16T10:22:07.470Z</time>
      </trkpt>
      <trkpt lat="44.51567" lon="6.31282">
        <ele>924</ele>
        <time>2021-07-16T10:22:10.482Z</time>
      </trkpt>
      <trkpt lat="44.51557" lon="6.31267">
        <ele>1024.2</ele>
        <time>2021-07-16T10:22:14.197Z</time>
      </trkpt>
      <trkpt lat="44.51547" lon="6.31248">
        <ele>954.8</ele>
        <time>2021-07-16T10:22:18.475Z</time>
      </trkpt>
      <trkpt lat="44.51543" lon="6.31241">
        <ele>932.5</ele>
        <time>2021-07-16T10:22:22.468Z</time>
      </trkpt>
      <trkpt lat="44.51542" lon="6.3123">
        <ele>927.5</ele>
        <time>2021-07-16T10:22:28.000Z</time>
      </trkpt>
      <trkpt lat="44.51541" lon="6.31223">
        <ele>923.2</ele>
        <time>2021-07-16T10:22:39.408Z</time>
      </trkpt>
      <trkpt lat="44.51536" lon="6.31211">
        <ele>941.7</ele>
        <time>2021-07-16T10:22:45.583Z</time>
      </trkpt>
      <trkpt lat="44.51528" lon="6.31196">
        <ele>933</ele>
        <time>2021-07-16T10:22:49.477Z</time>
      </trkpt>
      <trkpt lat="44.51522" lon="6.31192">
        <ele>930.1</ele>
        <time>2021-07-16T10:22:53.471Z</time>
      </trkpt>
      <trkpt lat="44.51513" lon="6.31192">
        <ele>927</ele>
        <time>2021-07-16T10:22:57.475Z</time>
      </trkpt>
      <trkpt lat="44.51505" lon="6.31196">
        <ele>925.8</ele>
        <time>2021-07-16T10:23:01.476Z</time>
      </trkpt>
      <trkpt lat="44.51504" lon="6.31203">
        <ele>925.2</ele>
        <time>2021-07-16T10:23:04.481Z</time>
      </trkpt>
      <trkpt lat="44.51498" lon="6.31201">
        <ele>923</ele>
        <time>2021-07-16T10:23:07.776Z</time>
      </trkpt>
      <trkpt lat="44.51484" lon="6.31203">
        <ele>920.9</ele>
        <time>2021-07-16T10:23:11.848Z</time>
      </trkpt>
      <trkpt lat="44.51473" lon="6.31174">
        <ele>919.7</ele>
        <time>2021-07-16T10:23:16.000Z</time>
      </trkpt>
      <trkpt lat="44.51467" lon="6.31177">
        <ele>917.8</ele>
        <time>2021-07-16T10:23:22.487Z</time>
      </trkpt>
      <trkpt lat="44.51453" lon="6.31175">
        <ele>919.8</ele>
        <time>2021-07-16T10:23:26.609Z</time>
      </trkpt>
      <trkpt lat="44.51449" lon="6.31162">
        <ele>916.3</ele>
        <time>2021-07-16T10:23:29.676Z</time>
      </trkpt>
      <trkpt lat="44.5142" lon="6.31152">
        <ele>911.6</ele>
        <time>2021-07-16T10:23:34.000Z</time>
      </trkpt>
      <trkpt lat="44.51401" lon="6.31139">
        <ele>909.5</ele>
        <time>2021-07-16T10:23:37.000Z</time>
      </trkpt>
      <trkpt lat="44.51383" lon="6.31125">
        <ele>911.2</ele>
        <time>2021-07-16T10:23:40.000Z</time>
      </trkpt>
      <trkpt lat="44.51371" lon="6.31115">
        <ele>909.4</ele>
        <time>2021-07-16T10:23:46.000Z</time>
      </trkpt>
      <trkpt lat="44.5137" lon="6.31108">
        <ele>908.4</ele>
        <time>2021-07-16T10:23:49.000Z</time>
      </trkpt>
      <trkpt lat="44.51374" lon="6.31098">
        <ele>907.4</ele>
        <time>2021-07-16T10:23:51.500Z</time>
      </trkpt>
      <trkpt lat="44.51383" lon="6.3108">
        <ele>908.5</ele>
        <time>2021-07-16T10:23:58.000Z</time>
      </trkpt>
      <trkpt lat="44.51385" lon="6.31067">
        <ele>908.9</ele>
        <time>2021-07-16T10:24:04.000Z</time>
      </trkpt>
      <trkpt lat="44.51377" lon="6.31061">
        <ele>907.6</ele>
        <time>2021-07-16T10:24:09.524Z</time>
      </trkpt>
      <trkpt lat="44.51374" lon="6.31037">
        <ele>951.9</ele>
        <time>2021-07-16T10:24:16.000Z</time>
      </trkpt>
      <trkpt lat="44.51363" lon="6.31023">
        <ele>927</ele>
        <time>2021-07-16T10:24:19.000Z</time>
      </trkpt>
      <trkpt lat="44.51365" lon="6.30993">
        <ele>903.7</ele>
        <time>2021-07-16T10:24:25.000Z</time>
      </trkpt>
      <trkpt lat="44.51357" lon="6.30982">
        <ele>896.4</ele>
        <time>2021-07-16T10:24:31.000Z</time>
      </trkpt>
      <trkpt lat="44.51355" lon="6.30988">
        <ele>894.2</ele>
        <time>2021-07-16T10:24:34.000Z</time>
      </trkpt>
      <trkpt lat="44.51349" lon="6.30995">
        <ele>891.6</ele>
        <time>2021-07-16T10:24:40.000Z</time>
      </trkpt>
      <trkpt lat="44.51345" lon="6.30987">
        <ele>890.5</ele>
        <time>2021-07-16T10:24:43.000Z</time>
      </trkpt>
      <trkpt lat="44.51344" lon="6.30976">
        <ele>891</ele>
        <time>2021-07-16T10:24:49.000Z</time>
      </trkpt>
      <trkpt lat="44.51337" lon="6.30965">
        <ele>891.9</ele>
        <time>2021-07-16T10:24:55.000Z</time>
      </trkpt>
      <trkpt lat="44.51332" lon="6.30963">
        <ele>890</ele>
        <time>2021-07-16T10:24:58.000Z</time>
      </trkpt>
      <trkpt lat="44.51325" lon="6.30963">
        <ele>890.9</ele>
        <time>2021-07-16T10:25:01.000Z</time>
      </trkpt>
      <trkpt lat="44.51313" lon="6.3097">
        <ele>890.7</ele>
        <time>2021-07-16T10:25:07.000Z</time>
      </trkpt>
      <trkpt lat="44.51306" lon="6.30972">
        <ele>887.5</ele>
        <time>2021-07-16T10:25:10.000Z</time>
      </trkpt>
      <trkpt lat="44.51295" lon="6.30969">
        <ele>886</ele>
        <time>2021-07-16T10:25:12.535Z</time>
      </trkpt>
      <trkpt lat="44.51284" lon="6.30957">
        <ele>886.6</ele>
        <time>2021-07-16T10:25:19.000Z</time>
      </trkpt>
      <trkpt lat="44.5128" lon="6.30947">
        <ele>884.1</ele>
        <time>2021-07-16T10:25:26.509Z</time>
      </trkpt>
      <trkpt lat="44.51275" lon="6.30939">
        <ele>880.7</ele>
        <time>2021-07-16T10:25:34.000Z</time>
      </trkpt>
      <trkpt lat="44.5127" lon="6.30934">
        <ele>878</ele>
        <time>2021-07-16T10:25:40.000Z</time>
      </trkpt>
      <trkpt lat="44.51272" lon="6.30926">
        <ele>878.5</ele>
        <time>2021-07-16T10:25:46.000Z</time>
      </trkpt>
      <trkpt lat="44.51267" lon="6.30925">
        <ele>877.2</ele>
        <time>2021-07-16T10:25:55.000Z</time>
      </trkpt>
      <trkpt lat="44.51255" lon="6.3094">
        <ele>869.5</ele>
        <time>2021-07-16T10:26:01.000Z</time>
      </trkpt>
      <trkpt lat="44.51247" lon="6.30942">
        <ele>867.6</ele>
        <time>2021-07-16T10:26:04.213Z</time>
      </trkpt>
      <trkpt lat="44.51239" lon="6.30944">
        <ele>866.5</ele>
        <time>2021-07-16T10:26:07.482Z</time>
      </trkpt>
      <trkpt lat="44.51231" lon="6.30934">
        <ele>865.9</ele>
        <time>2021-07-16T10:26:11.474Z</time>
      </trkpt>
      <trkpt lat="44.51221" lon="6.3094">
        <ele>863</ele>
        <time>2021-07-16T10:26:15.464Z</time>
      </trkpt>
      <trkpt lat="44.51213" lon="6.30941">
        <ele>857.9</ele>
        <time>2021-07-16T10:26:20.473Z</time>
      </trkpt>
      <trkpt lat="44.51206" lon="6.30938">
        <ele>859.4</ele>
        <time>2021-07-16T10:26:24.471Z</time>
      </trkpt>
      <trkpt lat="44.51197" lon="6.30935">
        <ele>856.3</ele>
        <time>2021-07-16T10:26:27.520Z</time>
      </trkpt>
      <trkpt lat="44.51188" lon="6.30926">
        <ele>855.3</ele>
        <time>2021-07-16T10:26:31.481Z</time>
      </trkpt>
      <trkpt lat="44.51186" lon="6.30911">
        <ele>854.8</ele>
        <time>2021-07-16T10:26:35.469Z</time>
      </trkpt>
      <trkpt lat="44.51183" lon="6.30899">
        <ele>852.5</ele>
        <time>2021-07-16T10:26:38.519Z</time>
      </trkpt>
      <trkpt lat="44.51178" lon="6.30889">
        <ele>853.9</ele>
        <time>2021-07-16T10:26:41.656Z</time>
      </trkpt>
      <trkpt lat="44.51175" lon="6.30876">
        <ele>851.6</ele>
        <time>2021-07-16T10:26:44.814Z</time>
      </trkpt>
      <trkpt lat="44.51177" lon="6.30857">
        <ele>835.5</ele>
        <time>2021-07-16T10:26:48.184Z</time>
      </trkpt>
      <trkpt lat="44.51181" lon="6.30847">
        <ele>835.5</ele>
        <time>2021-07-16T10:26:51.405Z</time>
      </trkpt>
      <trkpt lat="44.51187" lon="6.30837">
        <ele>835.5</ele>
        <time>2021-07-16T10:26:54.475Z</time>
      </trkpt>
      <trkpt lat="44.51197" lon="6.30819">
        <ele>835.4</ele>
        <time>2021-07-16T10:26:58.468Z</time>
      </trkpt>
      <trkpt lat="44.51197" lon="6.30807">
        <ele>835.4</ele>
        <time>2021-07-16T10:27:01.643Z</time>
      </trkpt>
      <trkpt lat="44.51188" lon="6.30789">
        <ele>835.4</ele>
        <time>2021-07-16T10:27:05.434Z</time>
      </trkpt>
      <trkpt lat="44.5119" lon="6.30769">
        <ele>835.1</ele>
        <time>2021-07-16T10:27:09.469Z</time>
      </trkpt>
      <trkpt lat="44.51224" lon="6.3072">
        <ele>835.1</ele>
        <time>2021-07-16T10:27:16.000Z</time>
      </trkpt>
      <trkpt lat="44.51251" lon="6.30689">
        <ele>835</ele>
        <time>2021-07-16T10:27:22.000Z</time>
      </trkpt>
      <trkpt lat="44.51265" lon="6.30679">
        <ele>835</ele>
        <time>2021-07-16T10:27:25.000Z</time>
      </trkpt>
      <trkpt lat="44.51279" lon="6.30673">
        <ele>833</ele>
        <time>2021-07-16T10:27:29.515Z</time>
      </trkpt>
      <trkpt lat="44.51288" lon="6.3067">
        <ele>833</ele>
        <time>2021-07-16T10:27:33.120Z</time>
      </trkpt>
      <trkpt lat="44.51297" lon="6.30659">
        <ele>832.9</ele>
        <time>2021-07-16T10:27:37.000Z</time>
      </trkpt>
      <trkpt lat="44.51304" lon="6.3065">
        <ele>832.9</ele>
        <time>2021-07-16T10:27:39.471Z</time>
      </trkpt>
      <trkpt lat="44.51316" lon="6.30642">
        <ele>832.9</ele>
        <time>2021-07-16T10:27:43.513Z</time>
      </trkpt>
      <trkpt lat="44.51323" lon="6.30636">
        <ele>832.8</ele>
        <time>2021-07-16T10:27:47.517Z</time>
      </trkpt>
      <trkpt lat="44.5133" lon="6.30625">
        <ele>837.6</ele>
        <time>2021-07-16T10:27:51.474Z</time>
      </trkpt>
      <trkpt lat="44.51336" lon="6.30608">
        <ele>835.1</ele>
        <time>2021-07-16T10:27:55.410Z</time>
      </trkpt>
      <trkpt lat="44.5134" lon="6.30592">
        <ele>836.4</ele>
        <time>2021-07-16T10:27:59.118Z</time>
      </trkpt>
      <trkpt lat="44.51345" lon="6.30577">
        <ele>835.5</ele>
        <time>2021-07-16T10:28:03.029Z</time>
      </trkpt>
      <trkpt lat="44.51357" lon="6.30555">
        <ele>837.4</ele>
        <time>2021-07-16T10:28:07.000Z</time>
      </trkpt>
      <trkpt lat="44.51365" lon="6.30533">
        <ele>837.7</ele>
        <time>2021-07-16T10:28:13.000Z</time>
      </trkpt>
      <trkpt lat="44.5137" lon="6.30516">
        <ele>837.4</ele>
        <time>2021-07-16T10:28:16.000Z</time>
      </trkpt>
      <trkpt lat="44.51381" lon="6.30487">
        <ele>838.5</ele>
        <time>2021-07-16T10:28:22.000Z</time>
      </trkpt>
      <trkpt lat="44.51392" lon="6.30456">
        <ele>843.1</ele>
        <time>2021-07-16T10:28:28.000Z</time>
      </trkpt>
      <trkpt lat="44.51399" lon="6.30439">
        <ele>845.8</ele>
        <time>2021-07-16T10:28:31.000Z</time>
      </trkpt>
      <trkpt lat="44.5141" lon="6.30411">
        <ele>845.7</ele>
        <time>2021-07-16T10:28:37.000Z</time>
      </trkpt>
      <trkpt lat="44.51417" lon="6.30383">
        <ele>845.4</ele>
        <time>2021-07-16T10:28:43.000Z</time>
      </trkpt>
      <trkpt lat="44.51429" lon="6.30356">
        <ele>845.6</ele>
        <time>2021-07-16T10:28:49.000Z</time>
      </trkpt>
      <trkpt lat="44.51436" lon="6.30341">
        <ele>845.7</ele>
        <time>2021-07-16T10:28:52.000Z</time>
      </trkpt>
      <trkpt lat="44.51447" lon="6.30316">
        <ele>845.9</ele>
        <time>2021-07-16T10:28:58.000Z</time>
      </trkpt>
      <trkpt lat="44.51454" lon="6.30302">
        <ele>845.9</ele>
        <time>2021-07-16T10:29:01.000Z</time>
      </trkpt>
      <trkpt lat="44.51464" lon="6.30288">
        <ele>846.1</ele>
        <time>2021-07-16T10:29:03.497Z</time>
      </trkpt>
      <trkpt lat="44.51479" lon="6.30266">
        <ele>846</ele>
        <time>2021-07-16T10:29:10.000Z</time>
      </trkpt>
      <trkpt lat="44.51493" lon="6.30242">
        <ele>846.1</ele>
        <time>2021-07-16T10:29:16.000Z</time>
      </trkpt>
      <trkpt lat="44.51501" lon="6.3023">
        <ele>846.5</ele>
        <time>2021-07-16T10:29:19.000Z</time>
      </trkpt>
      <trkpt lat="44.51511" lon="6.30218">
        <ele>846.5</ele>
        <time>2021-07-16T10:29:22.000Z</time>
      </trkpt>
      <trkpt lat="44.51536" lon="6.30194">
        <ele>846.8</ele>
        <time>2021-07-16T10:29:28.000Z</time>
      </trkpt>
      <trkpt lat="44.51547" lon="6.30197">
        <ele>847.2</ele>
        <time>2021-07-16T10:29:30.458Z</time>
      </trkpt>
      <trkpt lat="44.51554" lon="6.30185">
        <ele>847.3</ele>
        <time>2021-07-16T10:29:33.458Z</time>
      </trkpt>
      <trkpt lat="44.51563" lon="6.30176">
        <ele>847.3</ele>
        <time>2021-07-16T10:29:36.509Z</time>
      </trkpt>
      <trkpt lat="44.51575" lon="6.30163">
        <ele>848.6</ele>
        <time>2021-07-16T10:29:40.197Z</time>
      </trkpt>
      <trkpt lat="44.516" lon="6.30134">
        <ele>848.8</ele>
        <time>2021-07-16T10:29:46.000Z</time>
      </trkpt>
      <trkpt lat="44.51618" lon="6.3011">
        <ele>852.3</ele>
        <time>2021-07-16T10:29:52.479Z</time>
      </trkpt>
      <trkpt lat="44.51621" lon="6.30106">
        <ele>855.5</ele>
        <time>2021-07-16T10:29:56.480Z</time>
      </trkpt>
      <trkpt lat="44.51652" lon="6.30074">
        <ele>858.4</ele>
        <time>2021-07-16T10:30:01.000Z</time>
      </trkpt>
      <trkpt lat="44.51663" lon="6.30059">
        <ele>859</ele>
        <time>2021-07-16T10:30:04.000Z</time>
      </trkpt>
      <trkpt lat="44.51681" lon="6.30034">
        <ele>857.7</ele>
        <time>2021-07-16T10:30:10.000Z</time>
      </trkpt>
      <trkpt lat="44.51683" lon="6.30025">
        <ele>857.7</ele>
        <time>2021-07-16T10:30:12.481Z</time>
      </trkpt>
      <trkpt lat="44.51697" lon="6.30009">
        <ele>854.9</ele>
        <time>2021-07-16T10:30:16.470Z</time>
      </trkpt>
      <trkpt lat="44.5173" lon="6.29988">
        <ele>849.5</ele>
        <time>2021-07-16T10:30:22.000Z</time>
      </trkpt>
      <trkpt lat="44.51734" lon="6.29982">
        <ele>851.1</ele>
        <time>2021-07-16T10:30:25.366Z</time>
      </trkpt>
      <trkpt lat="44.51747" lon="6.29972">
        <ele>849.2</ele>
        <time>2021-07-16T10:30:28.462Z</time>
      </trkpt>
      <trkpt lat="44.51776" lon="6.29948">
        <ele>906.1</ele>
        <time>2021-07-16T10:30:34.000Z</time>
      </trkpt>
      <trkpt lat="44.51781" lon="6.29936">
        <ele>866.4</ele>
        <time>2021-07-16T10:30:36.583Z</time>
      </trkpt>
      <trkpt lat="44.51796" lon="6.29923">
        <ele>858.2</ele>
        <time>2021-07-16T10:30:40.433Z</time>
      </trkpt>
      <trkpt lat="44.51806" lon="6.29913">
        <ele>854.9</ele>
        <time>2021-07-16T10:30:43.890Z</time>
      </trkpt>
      <trkpt lat="44.51827" lon="6.29893">
        <ele>854.9</ele>
        <time>2021-07-16T10:30:49.000Z</time>
      </trkpt>
      <trkpt lat="44.51834" lon="6.29892">
        <ele>854.9</ele>
        <time>2021-07-16T10:30:51.472Z</time>
      </trkpt>
      <trkpt lat="44.51835" lon="6.29881">
        <ele>855.2</ele>
        <time>2021-07-16T10:30:54.477Z</time>
      </trkpt>
      <trkpt lat="44.51863" lon="6.29859">
        <ele>853.6</ele>
        <time>2021-07-16T10:30:57.515Z</time>
      </trkpt>
      <trkpt lat="44.5189" lon="6.29836">
        <ele>855.6</ele>
        <time>2021-07-16T10:31:04.000Z</time>
      </trkpt>
      <trkpt lat="44.51918" lon="6.29807">
        <ele>855.9</ele>
        <time>2021-07-16T10:31:10.000Z</time>
      </trkpt>
      <trkpt lat="44.51924" lon="6.29797">
        <ele>860</ele>
        <time>2021-07-16T10:31:13.000Z</time>
      </trkpt>
      <trkpt lat="44.51939" lon="6.29783">
        <ele>860.3</ele>
        <time>2021-07-16T10:31:15.504Z</time>
      </trkpt>
      <trkpt lat="44.51959" lon="6.29764">
        <ele>862.9</ele>
        <time>2021-07-16T10:31:20.476Z</time>
      </trkpt>
      <trkpt lat="44.51975" lon="6.29748">
        <ele>867</ele>
        <time>2021-07-16T10:31:25.000Z</time>
      </trkpt>
      <trkpt lat="44.51993" lon="6.29742">
        <ele>866.4</ele>
        <time>2021-07-16T10:31:28.460Z</time>
      </trkpt>
      <trkpt lat="44.52015" lon="6.29738">
        <ele>867.5</ele>
        <time>2021-07-16T10:31:34.000Z</time>
      </trkpt>
      <trkpt lat="44.52028" lon="6.29723">
        <ele>867.4</ele>
        <time>2021-07-16T10:31:36.531Z</time>
      </trkpt>
      <trkpt lat="44.52055" lon="6.29708">
        <ele>868.3</ele>
        <time>2021-07-16T10:31:43.000Z</time>
      </trkpt>
      <trkpt lat="44.52074" lon="6.29702">
        <ele>869.4</ele>
        <time>2021-07-16T10:31:46.481Z</time>
      </trkpt>
      <trkpt lat="44.52083" lon="6.29696">
        <ele>870.2</ele>
        <time>2021-07-16T10:31:49.519Z</time>
      </trkpt>
      <trkpt lat="44.5211" lon="6.29686">
        <ele>869.1</ele>
        <time>2021-07-16T10:31:55.000Z</time>
      </trkpt>
      <trkpt lat="44.52127" lon="6.29681">
        <ele>868.6</ele>
        <time>2021-07-16T10:31:57.519Z</time>
      </trkpt>
      <trkpt lat="44.5215" lon="6.2968">
        <ele>872.2</ele>
        <time>2021-07-16T10:32:04.000Z</time>
      </trkpt>
      <trkpt lat="44.52176" lon="6.29673">
        <ele>870.8</ele>
        <time>2021-07-16T10:32:10.000Z</time>
      </trkpt>
      <trkpt lat="44.52184" lon="6.29677">
        <ele>870.6</ele>
        <time>2021-07-16T10:32:13.475Z</time>
      </trkpt>
      <trkpt lat="44.52215" lon="6.29681">
        <ele>872.2</ele>
        <time>2021-07-16T10:32:19.000Z</time>
      </trkpt>
      <trkpt lat="44.52219" lon="6.29687">
        <ele>871.3</ele>
        <time>2021-07-16T10:32:22.475Z</time>
      </trkpt>
      <trkpt lat="44.52238" lon="6.2969">
        <ele>871.1</ele>
        <time>2021-07-16T10:32:26.477Z</time>
      </trkpt>
      <trkpt lat="44.52265" lon="6.29688">
        <ele>870.1</ele>
        <time>2021-07-16T10:32:31.000Z</time>
      </trkpt>
      <trkpt lat="44.52292" lon="6.29694">
        <ele>871.1</ele>
        <time>2021-07-16T10:32:36.472Z</time>
      </trkpt>
      <trkpt lat="44.52309" lon="6.29694">
        <ele>873</ele>
        <time>2021-07-16T10:32:39.524Z</time>
      </trkpt>
      <trkpt lat="44.52325" lon="6.29696">
        <ele>871.5</ele>
        <time>2021-07-16T10:32:43.926Z</time>
      </trkpt>
      <trkpt lat="44.52334" lon="6.29694">
        <ele>878.4</ele>
        <time>2021-07-16T10:32:49.000Z</time>
      </trkpt>
      <trkpt lat="44.5236" lon="6.29694">
        <ele>875.4</ele>
        <time>2021-07-16T10:32:54.478Z</time>
      </trkpt>
      <trkpt lat="44.52375" lon="6.29696">
        <ele>882.4</ele>
        <time>2021-07-16T10:32:58.725Z</time>
      </trkpt>
      <trkpt lat="44.52409" lon="6.29695">
        <ele>880.7</ele>
        <time>2021-07-16T10:33:04.000Z</time>
      </trkpt>
      <trkpt lat="44.52439" lon="6.29687">
        <ele>881.7</ele>
        <time>2021-07-16T10:33:10.000Z</time>
      </trkpt>
      <trkpt lat="44.52449" lon="6.29687">
        <ele>881.7</ele>
        <time>2021-07-16T10:33:12.474Z</time>
      </trkpt>
      <trkpt lat="44.52459" lon="6.29689">
        <ele>878.2</ele>
        <time>2021-07-16T10:33:16.000Z</time>
      </trkpt>
      <trkpt lat="44.52476" lon="6.29681">
        <ele>875.4</ele>
        <time>2021-07-16T10:33:19.525Z</time>
      </trkpt>
      <trkpt lat="44.52502" lon="6.29661">
        <ele>877.6</ele>
        <time>2021-07-16T10:33:25.000Z</time>
      </trkpt>
      <trkpt lat="44.52519" lon="6.29651">
        <ele>875.3</ele>
        <time>2021-07-16T10:33:28.591Z</time>
      </trkpt>
      <trkpt lat="44.52521" lon="6.29661">
        <ele>876</ele>
        <time>2021-07-16T10:33:32.475Z</time>
      </trkpt>
      <trkpt lat="44.52533" lon="6.29648">
        <ele>875.2</ele>
        <time>2021-07-16T10:33:35.484Z</time>
      </trkpt>
      <trkpt lat="44.52549" lon="6.29627">
        <ele>875.2</ele>
        <time>2021-07-16T10:33:39.507Z</time>
      </trkpt>
      <trkpt lat="44.52583" lon="6.29592">
        <ele>874.9</ele>
        <time>2021-07-16T10:33:46.000Z</time>
      </trkpt>
      <trkpt lat="44.52596" lon="6.29575">
        <ele>873.8</ele>
        <time>2021-07-16T10:33:49.000Z</time>
      </trkpt>
      <trkpt lat="44.52622" lon="6.29535">
        <ele>876.2</ele>
        <time>2021-07-16T10:33:55.000Z</time>
      </trkpt>
      <trkpt lat="44.52633" lon="6.29519">
        <ele>875.3</ele>
        <time>2021-07-16T10:33:58.000Z</time>
      </trkpt>
      <trkpt lat="44.52652" lon="6.29495">
        <ele>871.4</ele>
        <time>2021-07-16T10:34:04.000Z</time>
      </trkpt>
      <trkpt lat="44.52666" lon="6.29478">
        <ele>871.7</ele>
        <time>2021-07-16T10:34:06.527Z</time>
      </trkpt>
      <trkpt lat="44.52691" lon="6.29438">
        <ele>874.2</ele>
        <time>2021-07-16T10:34:13.000Z</time>
      </trkpt>
      <trkpt lat="44.52713" lon="6.29403">
        <ele>870.9</ele>
        <time>2021-07-16T10:34:19.000Z</time>
      </trkpt>
      <trkpt lat="44.52743" lon="6.29361">
        <ele>874.1</ele>
        <time>2021-07-16T10:34:25.000Z</time>
      </trkpt>
      <trkpt lat="44.52757" lon="6.29345">
        <ele>876.8</ele>
        <time>2021-07-16T10:34:28.000Z</time>
      </trkpt>
      <trkpt lat="44.52787" lon="6.29313">
        <ele>871.4</ele>
        <time>2021-07-16T10:34:34.000Z</time>
      </trkpt>
      <trkpt lat="44.5282" lon="6.29279">
        <ele>870.5</ele>
        <time>2021-07-16T10:34:40.000Z</time>
      </trkpt>
      <trkpt lat="44.52853" lon="6.29254">
        <ele>867.1</ele>
        <time>2021-07-16T10:34:46.000Z</time>
      </trkpt>
      <trkpt lat="44.52873" lon="6.29244">
        <ele>866.4</ele>
        <time>2021-07-16T10:34:49.000Z</time>
      </trkpt>
      <trkpt lat="44.52909" lon="6.29222">
        <ele>870.7</ele>
        <time>2021-07-16T10:34:55.000Z</time>
      </trkpt>
      <trkpt lat="44.52928" lon="6.29211">
        <ele>870.8</ele>
        <time>2021-07-16T10:34:58.000Z</time>
      </trkpt>
      <trkpt lat="44.52948" lon="6.29197">
        <ele>870.2</ele>
        <time>2021-07-16T10:35:01.000Z</time>
      </trkpt>
      <trkpt lat="44.52967" lon="6.29184">
        <ele>868.6</ele>
        <time>2021-07-16T10:35:04.000Z</time>
      </trkpt>
      <trkpt lat="44.53004" lon="6.29154">
        <ele>869.5</ele>
        <time>2021-07-16T10:35:10.000Z</time>
      </trkpt>
      <trkpt lat="44.53029" lon="6.2912">
        <ele>872.3</ele>
        <time>2021-07-16T10:35:16.000Z</time>
      </trkpt>
      <trkpt lat="44.5304" lon="6.29101">
        <ele>873.6</ele>
        <time>2021-07-16T10:35:19.000Z</time>
      </trkpt>
      <trkpt lat="44.53062" lon="6.29061">
        <ele>872.8</ele>
        <time>2021-07-16T10:35:25.000Z</time>
      </trkpt>
      <trkpt lat="44.53075" lon="6.29039">
        <ele>870.6</ele>
        <time>2021-07-16T10:35:28.000Z</time>
      </trkpt>
      <trkpt lat="44.531" lon="6.28997">
        <ele>871.5</ele>
        <time>2021-07-16T10:35:34.000Z</time>
      </trkpt>
      <trkpt lat="44.53124" lon="6.28955">
        <ele>868.6</ele>
        <time>2021-07-16T10:35:40.000Z</time>
      </trkpt>
      <trkpt lat="44.53134" lon="6.28932">
        <ele>871.4</ele>
        <time>2021-07-16T10:35:43.000Z</time>
      </trkpt>
      <trkpt lat="44.53146" lon="6.28887">
        <ele>872.2</ele>
        <time>2021-07-16T10:35:49.000Z</time>
      </trkpt>
      <trkpt lat="44.53144" lon="6.28871">
        <ele>873.7</ele>
        <time>2021-07-16T10:35:53.515Z</time>
      </trkpt>
      <trkpt lat="44.53143" lon="6.28851">
        <ele>867.1</ele>
        <time>2021-07-16T10:35:58.000Z</time>
      </trkpt>
      <trkpt lat="44.53147" lon="6.28814">
        <ele>865.4</ele>
        <time>2021-07-16T10:36:04.000Z</time>
      </trkpt>
      <trkpt lat="44.53151" lon="6.28783">
        <ele>867.4</ele>
        <time>2021-07-16T10:36:10.000Z</time>
      </trkpt>
      <trkpt lat="44.53152" lon="6.2876">
        <ele>865.2</ele>
        <time>2021-07-16T10:36:16.000Z</time>
      </trkpt>
      <trkpt lat="44.53152" lon="6.28743">
        <ele>866.1</ele>
        <time>2021-07-16T10:36:19.000Z</time>
      </trkpt>
      <trkpt lat="44.53149" lon="6.28714">
        <ele>865.6</ele>
        <time>2021-07-16T10:36:21.511Z</time>
      </trkpt>
      <trkpt lat="44.53144" lon="6.28659">
        <ele>864</ele>
        <time>2021-07-16T10:36:28.000Z</time>
      </trkpt>
      <trkpt lat="44.53147" lon="6.28634">
        <ele>864.4</ele>
        <time>2021-07-16T10:36:31.000Z</time>
      </trkpt>
      <trkpt lat="44.53161" lon="6.28588">
        <ele>865.1</ele>
        <time>2021-07-16T10:36:37.000Z</time>
      </trkpt>
      <trkpt lat="44.53181" lon="6.2854">
        <ele>864.3</ele>
        <time>2021-07-16T10:36:43.000Z</time>
      </trkpt>
      <trkpt lat="44.53193" lon="6.28521">
        <ele>866.2</ele>
        <time>2021-07-16T10:36:46.000Z</time>
      </trkpt>
      <trkpt lat="44.5323" lon="6.28502">
        <ele>862.9</ele>
        <time>2021-07-16T10:36:52.000Z</time>
      </trkpt>
      <trkpt lat="44.53247" lon="6.28497">
        <ele>867.4</ele>
        <time>2021-07-16T10:36:55.000Z</time>
      </trkpt>
      <trkpt lat="44.53279" lon="6.2849">
        <ele>876.4</ele>
        <time>2021-07-16T10:37:01.000Z</time>
      </trkpt>
      <trkpt lat="44.53296" lon="6.28484">
        <ele>874.7</ele>
        <time>2021-07-16T10:37:04.000Z</time>
      </trkpt>
      <trkpt lat="44.53324" lon="6.28459">
        <ele>874.4</ele>
        <time>2021-07-16T10:37:10.000Z</time>
      </trkpt>
      <trkpt lat="44.53337" lon="6.28445">
        <ele>875.2</ele>
        <time>2021-07-16T10:37:13.000Z</time>
      </trkpt>
      <trkpt lat="44.53368" lon="6.28425">
        <ele>877.9</ele>
        <time>2021-07-16T10:37:19.000Z</time>
      </trkpt>
      <trkpt lat="44.53398" lon="6.28406">
        <ele>879.9</ele>
        <time>2021-07-16T10:37:25.000Z</time>
      </trkpt>
      <trkpt lat="44.53413" lon="6.28395">
        <ele>879.4</ele>
        <time>2021-07-16T10:37:28.000Z</time>
      </trkpt>
      <trkpt lat="44.53428" lon="6.28384">
        <ele>879.6</ele>
        <time>2021-07-16T10:37:31.000Z</time>
      </trkpt>
      <trkpt lat="44.53441" lon="6.28369">
        <ele>880.2</ele>
        <time>2021-07-16T10:37:34.000Z</time>
      </trkpt>
      <trkpt lat="44.53454" lon="6.28352">
        <ele>881.2</ele>
        <time>2021-07-16T10:37:37.000Z</time>
      </trkpt>
      <trkpt lat="44.53479" lon="6.28322">
        <ele>879.5</ele>
        <time>2021-07-16T10:37:43.000Z</time>
      </trkpt>
      <trkpt lat="44.53493" lon="6.28304">
        <ele>879.1</ele>
        <time>2021-07-16T10:37:46.000Z</time>
      </trkpt>
      <trkpt lat="44.53518" lon="6.28272">
        <ele>880.3</ele>
        <time>2021-07-16T10:37:52.000Z</time>
      </trkpt>
      <trkpt lat="44.53547" lon="6.28239">
        <ele>882.3</ele>
        <time>2021-07-16T10:37:58.000Z</time>
      </trkpt>
      <trkpt lat="44.53574" lon="6.28207">
        <ele>882.4</ele>
        <time>2021-07-16T10:38:04.000Z</time>
      </trkpt>
      <trkpt lat="44.536" lon="6.28174">
        <ele>880.6</ele>
        <time>2021-07-16T10:38:10.000Z</time>
      </trkpt>
      <trkpt lat="44.53627" lon="6.28145">
        <ele>887.2</ele>
        <time>2021-07-16T10:38:16.000Z</time>
      </trkpt>
      <trkpt lat="44.53642" lon="6.28131">
        <ele>888.4</ele>
        <time>2021-07-16T10:38:19.000Z</time>
      </trkpt>
      <trkpt lat="44.5367" lon="6.28105">
        <ele>889.8</ele>
        <time>2021-07-16T10:38:25.000Z</time>
      </trkpt>
      <trkpt lat="44.53685" lon="6.28093">
        <ele>890.3</ele>
        <time>2021-07-16T10:38:28.000Z</time>
      </trkpt>
      <trkpt lat="44.53715" lon="6.28066">
        <ele>890.3</ele>
        <time>2021-07-16T10:38:34.000Z</time>
      </trkpt>
      <trkpt lat="44.53745" lon="6.28039">
        <ele>892</ele>
        <time>2021-07-16T10:38:40.000Z</time>
      </trkpt>
      <trkpt lat="44.53781" lon="6.28022">
        <ele>896.6</ele>
        <time>2021-07-16T10:38:46.000Z</time>
      </trkpt>
      <trkpt lat="44.538" lon="6.28023">
        <ele>891.1</ele>
        <time>2021-07-16T10:38:49.000Z</time>
      </trkpt>
      <trkpt lat="44.53837" lon="6.28022">
        <ele>892.6</ele>
        <time>2021-07-16T10:38:55.000Z</time>
      </trkpt>
      <trkpt lat="44.53859" lon="6.28025">
        <ele>890.4</ele>
        <time>2021-07-16T10:39:01.000Z</time>
      </trkpt>
      <trkpt lat="44.53878" lon="6.28025">
        <ele>894.9</ele>
        <time>2021-07-16T10:39:04.000Z</time>
      </trkpt>
      <trkpt lat="44.53917" lon="6.2803">
        <ele>891.5</ele>
        <time>2021-07-16T10:39:10.000Z</time>
      </trkpt>
      <trkpt lat="44.53946" lon="6.2803">
        <ele>890.3</ele>
        <time>2021-07-16T10:39:16.000Z</time>
      </trkpt>
      <trkpt lat="44.53965" lon="6.28031">
        <ele>905.9</ele>
        <time>2021-07-16T10:39:19.000Z</time>
      </trkpt>
      <trkpt lat="44.54003" lon="6.2803">
        <ele>905.9</ele>
        <time>2021-07-16T10:39:25.000Z</time>
      </trkpt>
      <trkpt lat="44.54037" lon="6.28017">
        <ele>905.8</ele>
        <time>2021-07-16T10:39:31.000Z</time>
      </trkpt>
      <trkpt lat="44.54069" lon="6.28004">
        <ele>905.9</ele>
        <time>2021-07-16T10:39:37.000Z</time>
      </trkpt>
      <trkpt lat="44.54086" lon="6.27996">
        <ele>905.9</ele>
        <time>2021-07-16T10:39:40.000Z</time>
      </trkpt>
      <trkpt lat="44.54121" lon="6.2798">
        <ele>905.8</ele>
        <time>2021-07-16T10:39:46.000Z</time>
      </trkpt>
      <trkpt lat="44.54137" lon="6.27969">
        <ele>905.9</ele>
        <time>2021-07-16T10:39:49.000Z</time>
      </trkpt>
      <trkpt lat="44.54168" lon="6.27953">
        <ele>905.9</ele>
        <time>2021-07-16T10:39:55.000Z</time>
      </trkpt>
      <trkpt lat="44.54191" lon="6.27935">
        <ele>905.8</ele>
        <time>2021-07-16T10:40:01.000Z</time>
      </trkpt>
      <trkpt lat="44.54211" lon="6.27919">
        <ele>907.4</ele>
        <time>2021-07-16T10:40:03.548Z</time>
      </trkpt>
      <trkpt lat="44.54243" lon="6.27891">
        <ele>907.3</ele>
        <time>2021-07-16T10:40:10.000Z</time>
      </trkpt>
      <trkpt lat="44.5427" lon="6.27866">
        <ele>907.3</ele>
        <time>2021-07-16T10:40:16.000Z</time>
      </trkpt>
      <trkpt lat="44.54284" lon="6.27853">
        <ele>907.4</ele>
        <time>2021-07-16T10:40:19.000Z</time>
      </trkpt>
      <trkpt lat="44.54298" lon="6.27843">
        <ele>907.3</ele>
        <time>2021-07-16T10:40:22.000Z</time>
      </trkpt>
      <trkpt lat="44.54313" lon="6.27832">
        <ele>907.4</ele>
        <time>2021-07-16T10:40:25.000Z</time>
      </trkpt>
      <trkpt lat="44.54324" lon="6.27821">
        <ele>913.8</ele>
        <time>2021-07-16T10:40:29.607Z</time>
      </trkpt>
      <trkpt lat="44.54323" lon="6.27814">
        <ele>913.8</ele>
        <time>2021-07-16T10:40:34.000Z</time>
      </trkpt>
      <trkpt lat="44.54321" lon="6.27797">
        <ele>914.2</ele>
        <time>2021-07-16T10:40:37.451Z</time>
      </trkpt>
      <trkpt lat="44.54317" lon="6.27802">
        <ele>914.4</ele>
        <time>2021-07-16T10:40:52.000Z</time>
      </trkpt>
    </trkseg>
  </trk>
</gpx>